<?xml version="1.0" encoding="UTF-8" standalone="no" ?>
<gpx xmlns="http://www.topografix.com/GPX/1/1" xmlns:xsi="http://www.w3.org/2001/XMLSchema-instance" xsi:schemaLocation="http://www.topografix.com/GPX/1/1 http://www.topografix.com/GPX/1/1/gpx.xsd" version="1.1" creator="VisuGPX - https://www.visugpx.com">
  <metadata>
    <name> ski de rando Grande Sure Pas de la Biche</name>
    <desc><![CDATA[
]]></desc>
  </metadata>
  <trk>
    <name><![CDATA[ ski de rando Grande Sure Pas de la Biche]]></name>
    <trkseg>
      <trkpt lat="45.35814" lon="5.74431">
        <ele>676.79998779297</ele>
        <time>2011-12-27T07:51:31.000Z</time>
      </trkpt>
      <trkpt lat="45.35813" lon="5.7443">
        <ele>676.79998779297</ele>
        <time>2011-12-27T07:51:32.000Z</time>
      </trkpt>
      <trkpt lat="45.35811" lon="5.7443">
        <ele>678.40002441406</ele>
        <time>2011-12-27T07:51:36.000Z</time>
      </trkpt>
      <trkpt lat="45.35815" lon="5.74428">
        <ele>678.20001220703</ele>
        <time>2011-12-27T07:51:50.000Z</time>
      </trkpt>
      <trkpt lat="45.35818" lon="5.74431">
        <ele>678.20001220703</ele>
        <time>2011-12-27T07:51:53.000Z</time>
      </trkpt>
      <trkpt lat="45.35819" lon="5.74443">
        <ele>678.40002441406</ele>
        <time>2011-12-27T07:51:59.000Z</time>
      </trkpt>
      <trkpt lat="45.35807" lon="5.74452">
        <ele>678.79998779297</ele>
        <time>2011-12-27T07:52:07.000Z</time>
      </trkpt>
      <trkpt lat="45.358" lon="5.74459">
        <ele>679.40002441406</ele>
        <time>2011-12-27T07:52:13.000Z</time>
      </trkpt>
      <trkpt lat="45.35799" lon="5.74467">
        <ele>679.79998779297</ele>
        <time>2011-12-27T07:52:18.000Z</time>
      </trkpt>
      <trkpt lat="45.35795" lon="5.74455">
        <ele>679.79998779297</ele>
        <time>2011-12-27T07:52:24.000Z</time>
      </trkpt>
      <trkpt lat="45.35789" lon="5.74451">
        <ele>679.79998779297</ele>
        <time>2011-12-27T07:52:29.000Z</time>
      </trkpt>
      <trkpt lat="45.3579" lon="5.74451">
        <ele>679.79998779297</ele>
        <time>2011-12-27T07:52:30.000Z</time>
      </trkpt>
      <trkpt lat="45.35795" lon="5.7446">
        <ele>679.79998779297</ele>
        <time>2011-12-27T07:52:36.000Z</time>
      </trkpt>
      <trkpt lat="45.35791" lon="5.7447">
        <ele>680.20001220703</ele>
        <time>2011-12-27T07:52:42.000Z</time>
      </trkpt>
      <trkpt lat="45.35785" lon="5.74478">
        <ele>680.59997558594</ele>
        <time>2011-12-27T07:52:48.000Z</time>
      </trkpt>
      <trkpt lat="45.35778" lon="5.74485">
        <ele>681.40002441406</ele>
        <time>2011-12-27T07:52:55.000Z</time>
      </trkpt>
      <trkpt lat="45.35777" lon="5.74485">
        <ele>681.40002441406</ele>
        <time>2011-12-27T07:53:15.000Z</time>
      </trkpt>
      <trkpt lat="45.35781" lon="5.74481">
        <ele>681</ele>
        <time>2011-12-27T07:53:22.000Z</time>
      </trkpt>
      <trkpt lat="45.35786" lon="5.74476">
        <ele>681</ele>
        <time>2011-12-27T07:53:26.000Z</time>
      </trkpt>
      <trkpt lat="45.35789" lon="5.74472">
        <ele>680.59997558594</ele>
        <time>2011-12-27T07:53:29.000Z</time>
      </trkpt>
      <trkpt lat="45.35799" lon="5.74468">
        <ele>680</ele>
        <time>2011-12-27T07:53:34.000Z</time>
      </trkpt>
      <trkpt lat="45.3581" lon="5.74462">
        <ele>679.59997558594</ele>
        <time>2011-12-27T07:53:40.000Z</time>
      </trkpt>
      <trkpt lat="45.35809" lon="5.74456">
        <ele>679.20001220703</ele>
        <time>2011-12-27T07:53:43.000Z</time>
      </trkpt>
      <trkpt lat="45.35806" lon="5.7444">
        <ele>678.59997558594</ele>
        <time>2011-12-27T07:53:49.000Z</time>
      </trkpt>
      <trkpt lat="45.35805" lon="5.74437">
        <ele>678.40002441406</ele>
        <time>2011-12-27T07:53:50.000Z</time>
      </trkpt>
      <trkpt lat="45.35799" lon="5.74419">
        <ele>677.79998779297</ele>
        <time>2011-12-27T07:53:58.000Z</time>
      </trkpt>
      <trkpt lat="45.35807" lon="5.74426">
        <ele>677.40002441406</ele>
        <time>2011-12-27T07:54:18.000Z</time>
      </trkpt>
      <trkpt lat="45.3581" lon="5.74429">
        <ele>677</ele>
        <time>2011-12-27T07:54:37.000Z</time>
      </trkpt>
      <trkpt lat="45.35815" lon="5.74424">
        <ele>677.40002441406</ele>
        <time>2011-12-27T07:55:11.000Z</time>
      </trkpt>
      <trkpt lat="45.3581" lon="5.74437">
        <ele>677.79998779297</ele>
        <time>2011-12-27T07:55:17.000Z</time>
      </trkpt>
      <trkpt lat="45.35804" lon="5.74448">
        <ele>678.20001220703</ele>
        <time>2011-12-27T07:55:23.000Z</time>
      </trkpt>
      <trkpt lat="45.35796" lon="5.74461">
        <ele>679</ele>
        <time>2011-12-27T07:55:31.000Z</time>
      </trkpt>
      <trkpt lat="45.3579" lon="5.74472">
        <ele>679.40002441406</ele>
        <time>2011-12-27T07:55:38.000Z</time>
      </trkpt>
      <trkpt lat="45.35788" lon="5.74477">
        <ele>679.79998779297</ele>
        <time>2011-12-27T07:55:41.000Z</time>
      </trkpt>
      <trkpt lat="45.35781" lon="5.74485">
        <ele>680.40002441406</ele>
        <time>2011-12-27T07:55:48.000Z</time>
      </trkpt>
      <trkpt lat="45.35777" lon="5.74504">
        <ele>681</ele>
        <time>2011-12-27T07:56:25.000Z</time>
      </trkpt>
      <trkpt lat="45.3577" lon="5.7451">
        <ele>681.59997558594</ele>
        <time>2011-12-27T07:56:32.000Z</time>
      </trkpt>
      <trkpt lat="45.35767" lon="5.74516">
        <ele>682.20001220703</ele>
        <time>2011-12-27T07:56:37.000Z</time>
      </trkpt>
      <trkpt lat="45.35765" lon="5.7452">
        <ele>682.59997558594</ele>
        <time>2011-12-27T07:56:41.000Z</time>
      </trkpt>
      <trkpt lat="45.35762" lon="5.74529">
        <ele>682.79998779297</ele>
        <time>2011-12-27T07:56:47.000Z</time>
      </trkpt>
      <trkpt lat="45.35757" lon="5.74537">
        <ele>683.40002441406</ele>
        <time>2011-12-27T07:56:53.000Z</time>
      </trkpt>
      <trkpt lat="45.3575" lon="5.74547">
        <ele>684</ele>
        <time>2011-12-27T07:57:00.000Z</time>
      </trkpt>
      <trkpt lat="45.35745" lon="5.74559">
        <ele>684.40002441406</ele>
        <time>2011-12-27T07:57:07.000Z</time>
      </trkpt>
      <trkpt lat="45.3574" lon="5.74567">
        <ele>685</ele>
        <time>2011-12-27T07:57:13.000Z</time>
      </trkpt>
      <trkpt lat="45.35736" lon="5.74575">
        <ele>685.40002441406</ele>
        <time>2011-12-27T07:57:17.000Z</time>
      </trkpt>
      <trkpt lat="45.35726" lon="5.74584">
        <ele>685.79998779297</ele>
        <time>2011-12-27T07:57:25.000Z</time>
      </trkpt>
      <trkpt lat="45.35719" lon="5.74591">
        <ele>686.59997558594</ele>
        <time>2011-12-27T07:57:31.000Z</time>
      </trkpt>
      <trkpt lat="45.35713" lon="5.74596">
        <ele>687.20001220703</ele>
        <time>2011-12-27T07:57:38.000Z</time>
      </trkpt>
      <trkpt lat="45.35709" lon="5.74599">
        <ele>687.59997558594</ele>
        <time>2011-12-27T07:57:43.000Z</time>
      </trkpt>
      <trkpt lat="45.35704" lon="5.74606">
        <ele>688.20001220703</ele>
        <time>2011-12-27T07:57:50.000Z</time>
      </trkpt>
      <trkpt lat="45.35699" lon="5.74615">
        <ele>688.79998779297</ele>
        <time>2011-12-27T07:57:57.000Z</time>
      </trkpt>
      <trkpt lat="45.35696" lon="5.74621">
        <ele>689.20001220703</ele>
        <time>2011-12-27T07:58:01.000Z</time>
      </trkpt>
      <trkpt lat="45.35692" lon="5.74631">
        <ele>689.79998779297</ele>
        <time>2011-12-27T07:58:08.000Z</time>
      </trkpt>
      <trkpt lat="45.35689" lon="5.74635">
        <ele>690.20001220703</ele>
        <time>2011-12-27T07:58:12.000Z</time>
      </trkpt>
      <trkpt lat="45.35685" lon="5.74641">
        <ele>690.79998779297</ele>
        <time>2011-12-27T07:58:17.000Z</time>
      </trkpt>
      <trkpt lat="45.35679" lon="5.74654">
        <ele>691.59997558594</ele>
        <time>2011-12-27T07:58:25.000Z</time>
      </trkpt>
      <trkpt lat="45.35677" lon="5.74658">
        <ele>692</ele>
        <time>2011-12-27T07:58:28.000Z</time>
      </trkpt>
      <trkpt lat="45.35671" lon="5.7467">
        <ele>692.79998779297</ele>
        <time>2011-12-27T07:58:37.000Z</time>
      </trkpt>
      <trkpt lat="45.35665" lon="5.74679">
        <ele>693.40002441406</ele>
        <time>2011-12-27T07:58:45.000Z</time>
      </trkpt>
      <trkpt lat="45.35666" lon="5.74687">
        <ele>693.40002441406</ele>
        <time>2011-12-27T07:59:03.000Z</time>
      </trkpt>
      <trkpt lat="45.35663" lon="5.74692">
        <ele>693.79998779297</ele>
        <time>2011-12-27T07:59:07.000Z</time>
      </trkpt>
      <trkpt lat="45.35658" lon="5.74696">
        <ele>694.59997558594</ele>
        <time>2011-12-27T07:59:13.000Z</time>
      </trkpt>
      <trkpt lat="45.35656" lon="5.74702">
        <ele>695</ele>
        <time>2011-12-27T07:59:18.000Z</time>
      </trkpt>
      <trkpt lat="45.35651" lon="5.7471">
        <ele>695.79998779297</ele>
        <time>2011-12-27T07:59:25.000Z</time>
      </trkpt>
      <trkpt lat="45.35647" lon="5.7472">
        <ele>696.40002441406</ele>
        <time>2011-12-27T07:59:34.000Z</time>
      </trkpt>
      <trkpt lat="45.35644" lon="5.74725">
        <ele>696.79998779297</ele>
        <time>2011-12-27T07:59:38.000Z</time>
      </trkpt>
      <trkpt lat="45.35643" lon="5.74726">
        <ele>697</ele>
        <time>2011-12-27T07:59:39.000Z</time>
      </trkpt>
      <trkpt lat="45.35639" lon="5.74735">
        <ele>697.40002441406</ele>
        <time>2011-12-27T07:59:47.000Z</time>
      </trkpt>
      <trkpt lat="45.35639" lon="5.74736">
        <ele>697.59997558594</ele>
        <time>2011-12-27T07:59:48.000Z</time>
      </trkpt>
      <trkpt lat="45.35635" lon="5.74748">
        <ele>698.20001220703</ele>
        <time>2011-12-27T07:59:56.000Z</time>
      </trkpt>
      <trkpt lat="45.3563" lon="5.74758">
        <ele>698.79998779297</ele>
        <time>2011-12-27T08:00:03.000Z</time>
      </trkpt>
      <trkpt lat="45.35629" lon="5.74761">
        <ele>699</ele>
        <time>2011-12-27T08:00:06.000Z</time>
      </trkpt>
      <trkpt lat="45.3563" lon="5.74771">
        <ele>699.40002441406</ele>
        <time>2011-12-27T08:00:12.000Z</time>
      </trkpt>
      <trkpt lat="45.35628" lon="5.74776">
        <ele>699.79998779297</ele>
        <time>2011-12-27T08:00:15.000Z</time>
      </trkpt>
      <trkpt lat="45.35634" lon="5.74783">
        <ele>700.59997558594</ele>
        <time>2011-12-27T08:00:21.000Z</time>
      </trkpt>
      <trkpt lat="45.35634" lon="5.74788">
        <ele>700.79998779297</ele>
        <time>2011-12-27T08:00:24.000Z</time>
      </trkpt>
      <trkpt lat="45.35634" lon="5.74796">
        <ele>701.40002441406</ele>
        <time>2011-12-27T08:00:29.000Z</time>
      </trkpt>
      <trkpt lat="45.35626" lon="5.74809">
        <ele>702.40002441406</ele>
        <time>2011-12-27T08:00:37.000Z</time>
      </trkpt>
      <trkpt lat="45.35621" lon="5.74815">
        <ele>702.79998779297</ele>
        <time>2011-12-27T08:00:43.000Z</time>
      </trkpt>
      <trkpt lat="45.3562" lon="5.74821">
        <ele>703.20001220703</ele>
        <time>2011-12-27T08:00:57.000Z</time>
      </trkpt>
      <trkpt lat="45.35624" lon="5.74826">
        <ele>704.20001220703</ele>
        <time>2011-12-27T08:01:03.000Z</time>
      </trkpt>
      <trkpt lat="45.35626" lon="5.74834">
        <ele>705.20001220703</ele>
        <time>2011-12-27T08:01:09.000Z</time>
      </trkpt>
      <trkpt lat="45.35626" lon="5.74842">
        <ele>706.20001220703</ele>
        <time>2011-12-27T08:01:15.000Z</time>
      </trkpt>
      <trkpt lat="45.35636" lon="5.74852">
        <ele>707.20001220703</ele>
        <time>2011-12-27T08:01:22.000Z</time>
      </trkpt>
      <trkpt lat="45.35638" lon="5.74857">
        <ele>707.79998779297</ele>
        <time>2011-12-27T08:01:27.000Z</time>
      </trkpt>
      <trkpt lat="45.35638" lon="5.74862">
        <ele>708.59997558594</ele>
        <time>2011-12-27T08:01:32.000Z</time>
      </trkpt>
      <trkpt lat="45.3522" lon="5.75115">
        <ele>728.59997558594</ele>
        <time>2011-12-27T08:04:37.000Z</time>
      </trkpt>
      <trkpt lat="45.35227" lon="5.75103">
        <ele>728.79998779297</ele>
        <time>2011-12-27T08:04:40.000Z</time>
      </trkpt>
      <trkpt lat="45.3523" lon="5.75093">
        <ele>729.59997558594</ele>
        <time>2011-12-27T08:04:47.000Z</time>
      </trkpt>
      <trkpt lat="45.35234" lon="5.75083">
        <ele>729.79998779297</ele>
        <time>2011-12-27T08:04:54.000Z</time>
      </trkpt>
      <trkpt lat="45.35266" lon="5.75052">
        <ele>729.59997558594</ele>
        <time>2011-12-27T08:05:22.000Z</time>
      </trkpt>
      <trkpt lat="45.35328" lon="5.75017">
        <ele>729.20001220703</ele>
        <time>2011-12-27T08:05:48.000Z</time>
      </trkpt>
      <trkpt lat="45.35328" lon="5.75015">
        <ele>730</ele>
        <time>2011-12-27T08:05:55.000Z</time>
      </trkpt>
      <trkpt lat="45.35332" lon="5.75006">
        <ele>730.79998779297</ele>
        <time>2011-12-27T08:06:02.000Z</time>
      </trkpt>
      <trkpt lat="45.35332" lon="5.75005">
        <ele>731</ele>
        <time>2011-12-27T08:06:04.000Z</time>
      </trkpt>
      <trkpt lat="45.35332" lon="5.74999">
        <ele>731.79998779297</ele>
        <time>2011-12-27T08:06:11.000Z</time>
      </trkpt>
      <trkpt lat="45.35333" lon="5.7499">
        <ele>733</ele>
        <time>2011-12-27T08:06:19.000Z</time>
      </trkpt>
      <trkpt lat="45.35334" lon="5.74977">
        <ele>734</ele>
        <time>2011-12-27T08:06:27.000Z</time>
      </trkpt>
      <trkpt lat="45.35339" lon="5.74957">
        <ele>735</ele>
        <time>2011-12-27T08:06:36.000Z</time>
      </trkpt>
      <trkpt lat="45.35343" lon="5.74939">
        <ele>736</ele>
        <time>2011-12-27T08:06:45.000Z</time>
      </trkpt>
      <trkpt lat="45.3534" lon="5.74931">
        <ele>736.79998779297</ele>
        <time>2011-12-27T08:06:53.000Z</time>
      </trkpt>
      <trkpt lat="45.35337" lon="5.74922">
        <ele>737.59997558594</ele>
        <time>2011-12-27T08:07:01.000Z</time>
      </trkpt>
      <trkpt lat="45.35333" lon="5.74915">
        <ele>738</ele>
        <time>2011-12-27T08:07:07.000Z</time>
      </trkpt>
      <trkpt lat="45.35325" lon="5.74907">
        <ele>739.20001220703</ele>
        <time>2011-12-27T08:07:16.000Z</time>
      </trkpt>
      <trkpt lat="45.35318" lon="5.74899">
        <ele>740.59997558594</ele>
        <time>2011-12-27T08:07:26.000Z</time>
      </trkpt>
      <trkpt lat="45.35312" lon="5.74892">
        <ele>741.20001220703</ele>
        <time>2011-12-27T08:07:33.000Z</time>
      </trkpt>
      <trkpt lat="45.35305" lon="5.74882">
        <ele>742.20001220703</ele>
        <time>2011-12-27T08:07:42.000Z</time>
      </trkpt>
      <trkpt lat="45.35299" lon="5.74873">
        <ele>743.20001220703</ele>
        <time>2011-12-27T08:07:50.000Z</time>
      </trkpt>
      <trkpt lat="45.35292" lon="5.74864">
        <ele>744.20001220703</ele>
        <time>2011-12-27T08:07:59.000Z</time>
      </trkpt>
      <trkpt lat="45.35288" lon="5.74858">
        <ele>744.79998779297</ele>
        <time>2011-12-27T08:08:04.000Z</time>
      </trkpt>
      <trkpt lat="45.35282" lon="5.74844">
        <ele>746</ele>
        <time>2011-12-27T08:08:14.000Z</time>
      </trkpt>
      <trkpt lat="45.35276" lon="5.74835">
        <ele>747.20001220703</ele>
        <time>2011-12-27T08:08:22.000Z</time>
      </trkpt>
      <trkpt lat="45.35271" lon="5.7483">
        <ele>748</ele>
        <time>2011-12-27T08:08:28.000Z</time>
      </trkpt>
      <trkpt lat="45.35268" lon="5.74827">
        <ele>748.20001220703</ele>
        <time>2011-12-27T08:08:32.000Z</time>
      </trkpt>
      <trkpt lat="45.35264" lon="5.74824">
        <ele>748.79998779297</ele>
        <time>2011-12-27T08:08:37.000Z</time>
      </trkpt>
      <trkpt lat="45.35255" lon="5.74826">
        <ele>749.79998779297</ele>
        <time>2011-12-27T08:08:45.000Z</time>
      </trkpt>
      <trkpt lat="45.35247" lon="5.74841">
        <ele>750.20001220703</ele>
        <time>2011-12-27T08:08:55.000Z</time>
      </trkpt>
      <trkpt lat="45.35244" lon="5.74851">
        <ele>750.20001220703</ele>
        <time>2011-12-27T08:09:04.000Z</time>
      </trkpt>
      <trkpt lat="45.35239" lon="5.74853">
        <ele>751.20001220703</ele>
        <time>2011-12-27T08:09:13.000Z</time>
      </trkpt>
      <trkpt lat="45.3523" lon="5.74856">
        <ele>752</ele>
        <time>2011-12-27T08:09:18.000Z</time>
      </trkpt>
      <trkpt lat="45.35221" lon="5.7486">
        <ele>752.40002441406</ele>
        <time>2011-12-27T08:09:21.000Z</time>
      </trkpt>
      <trkpt lat="45.35202" lon="5.74839">
        <ele>753.20001220703</ele>
        <time>2011-12-27T08:09:28.000Z</time>
      </trkpt>
      <trkpt lat="45.35201" lon="5.74834">
        <ele>754</ele>
        <time>2011-12-27T08:09:34.000Z</time>
      </trkpt>
      <trkpt lat="45.35201" lon="5.74828">
        <ele>754.20001220703</ele>
        <time>2011-12-27T08:09:57.000Z</time>
      </trkpt>
      <trkpt lat="45.35195" lon="5.74816">
        <ele>755.40002441406</ele>
        <time>2011-12-27T08:10:06.000Z</time>
      </trkpt>
      <trkpt lat="45.35192" lon="5.74806">
        <ele>756</ele>
        <time>2011-12-27T08:10:12.000Z</time>
      </trkpt>
      <trkpt lat="45.35191" lon="5.748">
        <ele>756.59997558594</ele>
        <time>2011-12-27T08:10:16.000Z</time>
      </trkpt>
      <trkpt lat="45.35188" lon="5.74793">
        <ele>757</ele>
        <time>2011-12-27T08:10:21.000Z</time>
      </trkpt>
      <trkpt lat="45.35186" lon="5.74784">
        <ele>757.59997558594</ele>
        <time>2011-12-27T08:10:26.000Z</time>
      </trkpt>
      <trkpt lat="45.35184" lon="5.74779">
        <ele>758.20001220703</ele>
        <time>2011-12-27T08:10:30.000Z</time>
      </trkpt>
      <trkpt lat="45.35182" lon="5.74774">
        <ele>758.59997558594</ele>
        <time>2011-12-27T08:10:34.000Z</time>
      </trkpt>
      <trkpt lat="45.35179" lon="5.74763">
        <ele>759.40002441406</ele>
        <time>2011-12-27T08:10:40.000Z</time>
      </trkpt>
      <trkpt lat="45.35174" lon="5.74754">
        <ele>760.20001220703</ele>
        <time>2011-12-27T08:10:47.000Z</time>
      </trkpt>
      <trkpt lat="45.35171" lon="5.74745">
        <ele>761</ele>
        <time>2011-12-27T08:10:53.000Z</time>
      </trkpt>
      <trkpt lat="45.3517" lon="5.74744">
        <ele>761.20001220703</ele>
        <time>2011-12-27T08:10:54.000Z</time>
      </trkpt>
      <trkpt lat="45.35164" lon="5.74731">
        <ele>762.40002441406</ele>
        <time>2011-12-27T08:11:02.000Z</time>
      </trkpt>
      <trkpt lat="45.35163" lon="5.7473">
        <ele>762.40002441406</ele>
        <time>2011-12-27T08:11:03.000Z</time>
      </trkpt>
      <trkpt lat="45.3516" lon="5.74723">
        <ele>762.79998779297</ele>
        <time>2011-12-27T08:11:07.000Z</time>
      </trkpt>
      <trkpt lat="45.35159" lon="5.74721">
        <ele>763</ele>
        <time>2011-12-27T08:11:09.000Z</time>
      </trkpt>
      <trkpt lat="45.35156" lon="5.74718">
        <ele>763.40002441406</ele>
        <time>2011-12-27T08:11:12.000Z</time>
      </trkpt>
      <trkpt lat="45.35151" lon="5.74711">
        <ele>764.20001220703</ele>
        <time>2011-12-27T08:11:18.000Z</time>
      </trkpt>
      <trkpt lat="45.35144" lon="5.74702">
        <ele>765</ele>
        <time>2011-12-27T08:11:27.000Z</time>
      </trkpt>
      <trkpt lat="45.35138" lon="5.74692">
        <ele>766</ele>
        <time>2011-12-27T08:11:36.000Z</time>
      </trkpt>
      <trkpt lat="45.35131" lon="5.74686">
        <ele>766.59997558594</ele>
        <time>2011-12-27T08:11:43.000Z</time>
      </trkpt>
      <trkpt lat="45.35124" lon="5.74679">
        <ele>767.40002441406</ele>
        <time>2011-12-27T08:11:51.000Z</time>
      </trkpt>
      <trkpt lat="45.35119" lon="5.74676">
        <ele>767.79998779297</ele>
        <time>2011-12-27T08:11:56.000Z</time>
      </trkpt>
      <trkpt lat="45.35113" lon="5.74668">
        <ele>768.40002441406</ele>
        <time>2011-12-27T08:12:04.000Z</time>
      </trkpt>
      <trkpt lat="45.35106" lon="5.74662">
        <ele>769</ele>
        <time>2011-12-27T08:12:11.000Z</time>
      </trkpt>
      <trkpt lat="45.35099" lon="5.74657">
        <ele>770</ele>
        <time>2011-12-27T08:12:19.000Z</time>
      </trkpt>
      <trkpt lat="45.35093" lon="5.74654">
        <ele>770.59997558594</ele>
        <time>2011-12-27T08:12:25.000Z</time>
      </trkpt>
      <trkpt lat="45.35087" lon="5.74651">
        <ele>771.20001220703</ele>
        <time>2011-12-27T08:12:30.000Z</time>
      </trkpt>
      <trkpt lat="45.35081" lon="5.74645">
        <ele>771.79998779297</ele>
        <time>2011-12-27T08:12:37.000Z</time>
      </trkpt>
      <trkpt lat="45.35074" lon="5.74637">
        <ele>772.59997558594</ele>
        <time>2011-12-27T08:12:45.000Z</time>
      </trkpt>
      <trkpt lat="45.35067" lon="5.74633">
        <ele>773.59997558594</ele>
        <time>2011-12-27T08:12:52.000Z</time>
      </trkpt>
      <trkpt lat="45.35067" lon="5.74632">
        <ele>773.79998779297</ele>
        <time>2011-12-27T08:12:53.000Z</time>
      </trkpt>
      <trkpt lat="45.35064" lon="5.74629">
        <ele>774</ele>
        <time>2011-12-27T08:12:56.000Z</time>
      </trkpt>
      <trkpt lat="45.35061" lon="5.74625">
        <ele>774.40002441406</ele>
        <time>2011-12-27T08:13:00.000Z</time>
      </trkpt>
      <trkpt lat="45.35055" lon="5.7462">
        <ele>775.20001220703</ele>
        <time>2011-12-27T08:13:07.000Z</time>
      </trkpt>
      <trkpt lat="45.35048" lon="5.7461">
        <ele>776.20001220703</ele>
        <time>2011-12-27T08:13:16.000Z</time>
      </trkpt>
      <trkpt lat="45.35043" lon="5.74604">
        <ele>776.79998779297</ele>
        <time>2011-12-27T08:13:22.000Z</time>
      </trkpt>
      <trkpt lat="45.35036" lon="5.74599">
        <ele>777.59997558594</ele>
        <time>2011-12-27T08:13:29.000Z</time>
      </trkpt>
      <trkpt lat="45.35028" lon="5.74594">
        <ele>778.59997558594</ele>
        <time>2011-12-27T08:13:37.000Z</time>
      </trkpt>
      <trkpt lat="45.35022" lon="5.74591">
        <ele>779.40002441406</ele>
        <time>2011-12-27T08:13:43.000Z</time>
      </trkpt>
      <trkpt lat="45.35014" lon="5.74583">
        <ele>780.20001220703</ele>
        <time>2011-12-27T08:13:51.000Z</time>
      </trkpt>
      <trkpt lat="45.35011" lon="5.7458">
        <ele>780.59997558594</ele>
        <time>2011-12-27T08:13:55.000Z</time>
      </trkpt>
      <trkpt lat="45.35004" lon="5.74574">
        <ele>781.59997558594</ele>
        <time>2011-12-27T08:14:03.000Z</time>
      </trkpt>
      <trkpt lat="45.34998" lon="5.7457">
        <ele>782.20001220703</ele>
        <time>2011-12-27T08:14:10.000Z</time>
      </trkpt>
      <trkpt lat="45.34991" lon="5.74563">
        <ele>782.79998779297</ele>
        <time>2011-12-27T08:14:18.000Z</time>
      </trkpt>
      <trkpt lat="45.34982" lon="5.74557">
        <ele>783.79998779297</ele>
        <time>2011-12-27T08:14:26.000Z</time>
      </trkpt>
      <trkpt lat="45.34974" lon="5.74551">
        <ele>784.40002441406</ele>
        <time>2011-12-27T08:14:34.000Z</time>
      </trkpt>
      <trkpt lat="45.34967" lon="5.74542">
        <ele>785.40002441406</ele>
        <time>2011-12-27T08:14:42.000Z</time>
      </trkpt>
      <trkpt lat="45.3496" lon="5.74529">
        <ele>786.40002441406</ele>
        <time>2011-12-27T08:14:51.000Z</time>
      </trkpt>
      <trkpt lat="45.34958" lon="5.74526">
        <ele>786.79998779297</ele>
        <time>2011-12-27T08:14:54.000Z</time>
      </trkpt>
      <trkpt lat="45.34955" lon="5.74517">
        <ele>787.40002441406</ele>
        <time>2011-12-27T08:14:59.000Z</time>
      </trkpt>
      <trkpt lat="45.34947" lon="5.7451">
        <ele>788.40002441406</ele>
        <time>2011-12-27T08:15:08.000Z</time>
      </trkpt>
      <trkpt lat="45.34944" lon="5.74511">
        <ele>788.59997558594</ele>
        <time>2011-12-27T08:15:10.000Z</time>
      </trkpt>
      <trkpt lat="45.34936" lon="5.74513">
        <ele>789.20001220703</ele>
        <time>2011-12-27T08:15:18.000Z</time>
      </trkpt>
      <trkpt lat="45.3493" lon="5.74513">
        <ele>790</ele>
        <time>2011-12-27T08:15:24.000Z</time>
      </trkpt>
      <trkpt lat="45.34923" lon="5.7452">
        <ele>790</ele>
        <time>2011-12-27T08:15:33.000Z</time>
      </trkpt>
      <trkpt lat="45.34917" lon="5.74528">
        <ele>790.40002441406</ele>
        <time>2011-12-27T08:15:41.000Z</time>
      </trkpt>
      <trkpt lat="45.3491" lon="5.74535">
        <ele>790.79998779297</ele>
        <time>2011-12-27T08:15:48.000Z</time>
      </trkpt>
      <trkpt lat="45.34919" lon="5.74541">
        <ele>792</ele>
        <time>2011-12-27T08:16:09.000Z</time>
      </trkpt>
      <trkpt lat="45.3492" lon="5.74528">
        <ele>794</ele>
        <time>2011-12-27T08:16:52.000Z</time>
      </trkpt>
      <trkpt lat="45.34914" lon="5.74529">
        <ele>794.79998779297</ele>
        <time>2011-12-27T08:16:57.000Z</time>
      </trkpt>
      <trkpt lat="45.34907" lon="5.74521">
        <ele>796</ele>
        <time>2011-12-27T08:17:05.000Z</time>
      </trkpt>
      <trkpt lat="45.34904" lon="5.74504">
        <ele>797.20001220703</ele>
        <time>2011-12-27T08:17:13.000Z</time>
      </trkpt>
      <trkpt lat="45.34903" lon="5.74503">
        <ele>797.40002441406</ele>
        <time>2011-12-27T08:17:14.000Z</time>
      </trkpt>
      <trkpt lat="45.34899" lon="5.74495">
        <ele>798.20001220703</ele>
        <time>2011-12-27T08:17:20.000Z</time>
      </trkpt>
      <trkpt lat="45.34895" lon="5.74482">
        <ele>798.79998779297</ele>
        <time>2011-12-27T08:17:27.000Z</time>
      </trkpt>
      <trkpt lat="45.34888" lon="5.7447">
        <ele>799.20001220703</ele>
        <time>2011-12-27T08:17:35.000Z</time>
      </trkpt>
      <trkpt lat="45.34887" lon="5.7447">
        <ele>799.20001220703</ele>
        <time>2011-12-27T08:17:36.000Z</time>
      </trkpt>
      <trkpt lat="45.34877" lon="5.74473">
        <ele>799.79998779297</ele>
        <time>2011-12-27T08:17:43.000Z</time>
      </trkpt>
      <trkpt lat="45.34872" lon="5.74481">
        <ele>800.40002441406</ele>
        <time>2011-12-27T08:17:52.000Z</time>
      </trkpt>
      <trkpt lat="45.34874" lon="5.74481">
        <ele>801</ele>
        <time>2011-12-27T08:17:56.000Z</time>
      </trkpt>
      <trkpt lat="45.34876" lon="5.74478">
        <ele>801.40002441406</ele>
        <time>2011-12-27T08:18:02.000Z</time>
      </trkpt>
      <trkpt lat="45.34878" lon="5.74481">
        <ele>801.40002441406</ele>
        <time>2011-12-27T08:18:08.000Z</time>
      </trkpt>
      <trkpt lat="45.34883" lon="5.7449">
        <ele>801.59997558594</ele>
        <time>2011-12-27T08:18:15.000Z</time>
      </trkpt>
      <trkpt lat="45.34883" lon="5.74493">
        <ele>801.40002441406</ele>
        <time>2011-12-27T08:18:17.000Z</time>
      </trkpt>
      <trkpt lat="45.34884" lon="5.74497">
        <ele>801.40002441406</ele>
        <time>2011-12-27T08:18:19.000Z</time>
      </trkpt>
      <trkpt lat="45.34885" lon="5.74504">
        <ele>801.79998779297</ele>
        <time>2011-12-27T08:18:23.000Z</time>
      </trkpt>
      <trkpt lat="45.3489" lon="5.74513">
        <ele>802</ele>
        <time>2011-12-27T08:18:30.000Z</time>
      </trkpt>
      <trkpt lat="45.34897" lon="5.74523">
        <ele>802.20001220703</ele>
        <time>2011-12-27T08:18:37.000Z</time>
      </trkpt>
      <trkpt lat="45.34901" lon="5.74526">
        <ele>802.20001220703</ele>
        <time>2011-12-27T08:18:39.000Z</time>
      </trkpt>
      <trkpt lat="45.34909" lon="5.74542">
        <ele>802.40002441406</ele>
        <time>2011-12-27T08:18:48.000Z</time>
      </trkpt>
      <trkpt lat="45.34917" lon="5.74554">
        <ele>802.79998779297</ele>
        <time>2011-12-27T08:18:54.000Z</time>
      </trkpt>
      <trkpt lat="45.34918" lon="5.74565">
        <ele>803.20001220703</ele>
        <time>2011-12-27T08:19:00.000Z</time>
      </trkpt>
      <trkpt lat="45.3492" lon="5.74572">
        <ele>803.20001220703</ele>
        <time>2011-12-27T08:19:04.000Z</time>
      </trkpt>
      <trkpt lat="45.34926" lon="5.74582">
        <ele>803.59997558594</ele>
        <time>2011-12-27T08:19:09.000Z</time>
      </trkpt>
      <trkpt lat="45.34931" lon="5.74599">
        <ele>804.20001220703</ele>
        <time>2011-12-27T08:19:18.000Z</time>
      </trkpt>
      <trkpt lat="45.34933" lon="5.74605">
        <ele>804.40002441406</ele>
        <time>2011-12-27T08:19:21.000Z</time>
      </trkpt>
      <trkpt lat="45.34935" lon="5.74617">
        <ele>804.79998779297</ele>
        <time>2011-12-27T08:19:28.000Z</time>
      </trkpt>
      <trkpt lat="45.34936" lon="5.74623">
        <ele>805</ele>
        <time>2011-12-27T08:19:31.000Z</time>
      </trkpt>
      <trkpt lat="45.34935" lon="5.74639">
        <ele>805.40002441406</ele>
        <time>2011-12-27T08:19:39.000Z</time>
      </trkpt>
      <trkpt lat="45.34931" lon="5.74648">
        <ele>805.59997558594</ele>
        <time>2011-12-27T08:19:44.000Z</time>
      </trkpt>
      <trkpt lat="45.34925" lon="5.74655">
        <ele>805.79998779297</ele>
        <time>2011-12-27T08:19:50.000Z</time>
      </trkpt>
      <trkpt lat="45.34921" lon="5.74667">
        <ele>806.20001220703</ele>
        <time>2011-12-27T08:19:56.000Z</time>
      </trkpt>
      <trkpt lat="45.34917" lon="5.74681">
        <ele>806</ele>
        <time>2011-12-27T08:20:04.000Z</time>
      </trkpt>
      <trkpt lat="45.34915" lon="5.74696">
        <ele>806.20001220703</ele>
        <time>2011-12-27T08:20:11.000Z</time>
      </trkpt>
      <trkpt lat="45.34915" lon="5.74699">
        <ele>806.20001220703</ele>
        <time>2011-12-27T08:20:13.000Z</time>
      </trkpt>
      <trkpt lat="45.34916" lon="5.74712">
        <ele>806.20001220703</ele>
        <time>2011-12-27T08:20:20.000Z</time>
      </trkpt>
      <trkpt lat="45.34918" lon="5.74724">
        <ele>806.40002441406</ele>
        <time>2011-12-27T08:20:27.000Z</time>
      </trkpt>
      <trkpt lat="45.34919" lon="5.74735">
        <ele>806.59997558594</ele>
        <time>2011-12-27T08:20:33.000Z</time>
      </trkpt>
      <trkpt lat="45.34924" lon="5.74749">
        <ele>806.79998779297</ele>
        <time>2011-12-27T08:20:40.000Z</time>
      </trkpt>
      <trkpt lat="45.34925" lon="5.74755">
        <ele>806.79998779297</ele>
        <time>2011-12-27T08:20:43.000Z</time>
      </trkpt>
      <trkpt lat="45.34927" lon="5.74768">
        <ele>807.20001220703</ele>
        <time>2011-12-27T08:20:50.000Z</time>
      </trkpt>
      <trkpt lat="45.34931" lon="5.7478">
        <ele>807.20001220703</ele>
        <time>2011-12-27T08:20:56.000Z</time>
      </trkpt>
      <trkpt lat="45.34931" lon="5.74787">
        <ele>807.20001220703</ele>
        <time>2011-12-27T08:21:00.000Z</time>
      </trkpt>
      <trkpt lat="45.34934" lon="5.74805">
        <ele>807.40002441406</ele>
        <time>2011-12-27T08:21:09.000Z</time>
      </trkpt>
      <trkpt lat="45.34935" lon="5.74812">
        <ele>807.59997558594</ele>
        <time>2011-12-27T08:21:15.000Z</time>
      </trkpt>
      <trkpt lat="45.34937" lon="5.74816">
        <ele>807.59997558594</ele>
        <time>2011-12-27T08:21:18.000Z</time>
      </trkpt>
      <trkpt lat="45.34938" lon="5.74827">
        <ele>807.79998779297</ele>
        <time>2011-12-27T08:21:24.000Z</time>
      </trkpt>
      <trkpt lat="45.34939" lon="5.74838">
        <ele>807.59997558594</ele>
        <time>2011-12-27T08:21:30.000Z</time>
      </trkpt>
      <trkpt lat="45.3494" lon="5.74851">
        <ele>807.59997558594</ele>
        <time>2011-12-27T08:21:37.000Z</time>
      </trkpt>
      <trkpt lat="45.34937" lon="5.74856">
        <ele>807.59997558594</ele>
        <time>2011-12-27T08:21:40.000Z</time>
      </trkpt>
      <trkpt lat="45.34935" lon="5.74866">
        <ele>807.79998779297</ele>
        <time>2011-12-27T08:21:45.000Z</time>
      </trkpt>
      <trkpt lat="45.34935" lon="5.74881">
        <ele>807.79998779297</ele>
        <time>2011-12-27T08:21:54.000Z</time>
      </trkpt>
      <trkpt lat="45.34935" lon="5.74886">
        <ele>807.79998779297</ele>
        <time>2011-12-27T08:21:57.000Z</time>
      </trkpt>
      <trkpt lat="45.3493" lon="5.74901">
        <ele>807.79998779297</ele>
        <time>2011-12-27T08:22:04.000Z</time>
      </trkpt>
      <trkpt lat="45.34926" lon="5.7491">
        <ele>807.79998779297</ele>
        <time>2011-12-27T08:22:10.000Z</time>
      </trkpt>
      <trkpt lat="45.3492" lon="5.74919">
        <ele>808</ele>
        <time>2011-12-27T08:22:15.000Z</time>
      </trkpt>
      <trkpt lat="45.34917" lon="5.74923">
        <ele>808</ele>
        <time>2011-12-27T08:22:18.000Z</time>
      </trkpt>
      <trkpt lat="45.34902" lon="5.74924">
        <ele>808</ele>
        <time>2011-12-27T08:22:27.000Z</time>
      </trkpt>
      <trkpt lat="45.34896" lon="5.74924">
        <ele>808.20001220703</ele>
        <time>2011-12-27T08:22:31.000Z</time>
      </trkpt>
      <trkpt lat="45.34884" lon="5.74928">
        <ele>808.20001220703</ele>
        <time>2011-12-27T08:22:38.000Z</time>
      </trkpt>
      <trkpt lat="45.34871" lon="5.74937">
        <ele>808.40002441406</ele>
        <time>2011-12-27T08:22:46.000Z</time>
      </trkpt>
      <trkpt lat="45.34867" lon="5.74942">
        <ele>808.40002441406</ele>
        <time>2011-12-27T08:22:52.000Z</time>
      </trkpt>
      <trkpt lat="45.34863" lon="5.74945">
        <ele>808.59997558594</ele>
        <time>2011-12-27T08:22:58.000Z</time>
      </trkpt>
      <trkpt lat="45.34861" lon="5.74945">
        <ele>808.79998779297</ele>
        <time>2011-12-27T08:23:03.000Z</time>
      </trkpt>
      <trkpt lat="45.34859" lon="5.74944">
        <ele>809.20001220703</ele>
        <time>2011-12-27T08:23:09.000Z</time>
      </trkpt>
      <trkpt lat="45.34855" lon="5.74947">
        <ele>810</ele>
        <time>2011-12-27T08:23:15.000Z</time>
      </trkpt>
      <trkpt lat="45.3485" lon="5.74947">
        <ele>811.79998779297</ele>
        <time>2011-12-27T08:23:21.000Z</time>
      </trkpt>
      <trkpt lat="45.34848" lon="5.74944">
        <ele>812.20001220703</ele>
        <time>2011-12-27T08:23:27.000Z</time>
      </trkpt>
      <trkpt lat="45.34847" lon="5.7494">
        <ele>812.59997558594</ele>
        <time>2011-12-27T08:23:34.000Z</time>
      </trkpt>
      <trkpt lat="45.34847" lon="5.74938">
        <ele>814.20001220703</ele>
        <time>2011-12-27T08:23:36.000Z</time>
      </trkpt>
      <trkpt lat="45.34848" lon="5.74936">
        <ele>815.40002441406</ele>
        <time>2011-12-27T08:23:39.000Z</time>
      </trkpt>
      <trkpt lat="45.34849" lon="5.74932">
        <ele>816</ele>
        <time>2011-12-27T08:23:42.000Z</time>
      </trkpt>
      <trkpt lat="45.34852" lon="5.74926">
        <ele>817.40002441406</ele>
        <time>2011-12-27T08:23:48.000Z</time>
      </trkpt>
      <trkpt lat="45.34859" lon="5.74922">
        <ele>818.79998779297</ele>
        <time>2011-12-27T08:24:34.000Z</time>
      </trkpt>
      <trkpt lat="45.34859" lon="5.74917">
        <ele>820</ele>
        <time>2011-12-27T08:24:40.000Z</time>
      </trkpt>
      <trkpt lat="45.3486" lon="5.74917">
        <ele>820.20001220703</ele>
        <time>2011-12-27T08:24:41.000Z</time>
      </trkpt>
      <trkpt lat="45.34863" lon="5.74907">
        <ele>821.59997558594</ele>
        <time>2011-12-27T08:24:48.000Z</time>
      </trkpt>
      <trkpt lat="45.34864" lon="5.74897">
        <ele>823</ele>
        <time>2011-12-27T08:24:55.000Z</time>
      </trkpt>
      <trkpt lat="45.34863" lon="5.74885">
        <ele>824.59997558594</ele>
        <time>2011-12-27T08:25:03.000Z</time>
      </trkpt>
      <trkpt lat="45.34864" lon="5.74881">
        <ele>825.40002441406</ele>
        <time>2011-12-27T08:25:09.000Z</time>
      </trkpt>
      <trkpt lat="45.34864" lon="5.74876">
        <ele>826.59997558594</ele>
        <time>2011-12-27T08:25:13.000Z</time>
      </trkpt>
      <trkpt lat="45.34866" lon="5.7487">
        <ele>828.40002441406</ele>
        <time>2011-12-27T08:25:21.000Z</time>
      </trkpt>
      <trkpt lat="45.3487" lon="5.74868">
        <ele>829.59997558594</ele>
        <time>2011-12-27T08:25:26.000Z</time>
      </trkpt>
      <trkpt lat="45.34874" lon="5.74865">
        <ele>830.59997558594</ele>
        <time>2011-12-27T08:25:31.000Z</time>
      </trkpt>
      <trkpt lat="45.34878" lon="5.74861">
        <ele>833.20001220703</ele>
        <time>2011-12-27T08:25:39.000Z</time>
      </trkpt>
      <trkpt lat="45.34878" lon="5.74859">
        <ele>835</ele>
        <time>2011-12-27T08:25:47.000Z</time>
      </trkpt>
      <trkpt lat="45.34878" lon="5.74854">
        <ele>836.40002441406</ele>
        <time>2011-12-27T08:25:54.000Z</time>
      </trkpt>
      <trkpt lat="45.34882" lon="5.74845">
        <ele>837.40002441406</ele>
        <time>2011-12-27T08:26:01.000Z</time>
      </trkpt>
      <trkpt lat="45.34881" lon="5.74842">
        <ele>837.79998779297</ele>
        <time>2011-12-27T08:26:03.000Z</time>
      </trkpt>
      <trkpt lat="45.34879" lon="5.74826">
        <ele>839</ele>
        <time>2011-12-27T08:26:11.000Z</time>
      </trkpt>
      <trkpt lat="45.34871" lon="5.74815">
        <ele>840.40002441406</ele>
        <time>2011-12-27T08:26:18.000Z</time>
      </trkpt>
      <trkpt lat="45.34873" lon="5.74804">
        <ele>841.79998779297</ele>
        <time>2011-12-27T08:26:25.000Z</time>
      </trkpt>
      <trkpt lat="45.34875" lon="5.74798">
        <ele>843</ele>
        <time>2011-12-27T08:26:30.000Z</time>
      </trkpt>
      <trkpt lat="45.34878" lon="5.74793">
        <ele>844.59997558594</ele>
        <time>2011-12-27T08:26:37.000Z</time>
      </trkpt>
      <trkpt lat="45.34878" lon="5.74785">
        <ele>845.59997558594</ele>
        <time>2011-12-27T08:26:43.000Z</time>
      </trkpt>
      <trkpt lat="45.34881" lon="5.74776">
        <ele>847.79998779297</ele>
        <time>2011-12-27T08:26:52.000Z</time>
      </trkpt>
      <trkpt lat="45.34878" lon="5.74763">
        <ele>849.20001220703</ele>
        <time>2011-12-27T08:27:00.000Z</time>
      </trkpt>
      <trkpt lat="45.34879" lon="5.74755">
        <ele>850.20001220703</ele>
        <time>2011-12-27T08:27:06.000Z</time>
      </trkpt>
      <trkpt lat="45.3488" lon="5.74753">
        <ele>850.40002441406</ele>
        <time>2011-12-27T08:27:08.000Z</time>
      </trkpt>
      <trkpt lat="45.34873" lon="5.74741">
        <ele>851.59997558594</ele>
        <time>2011-12-27T08:27:15.000Z</time>
      </trkpt>
      <trkpt lat="45.34877" lon="5.74739">
        <ele>852.40002441406</ele>
        <time>2011-12-27T08:27:22.000Z</time>
      </trkpt>
      <trkpt lat="45.34876" lon="5.7474">
        <ele>851.79998779297</ele>
        <time>2011-12-27T08:27:30.000Z</time>
      </trkpt>
      <trkpt lat="45.34876" lon="5.74744">
        <ele>852.59997558594</ele>
        <time>2011-12-27T08:27:35.000Z</time>
      </trkpt>
      <trkpt lat="45.34875" lon="5.74732">
        <ele>853.40002441406</ele>
        <time>2011-12-27T08:27:48.000Z</time>
      </trkpt>
      <trkpt lat="45.34867" lon="5.74731">
        <ele>853.40002441406</ele>
        <time>2011-12-27T08:27:58.000Z</time>
      </trkpt>
      <trkpt lat="45.34863" lon="5.74734">
        <ele>854.20001220703</ele>
        <time>2011-12-27T08:28:03.000Z</time>
      </trkpt>
      <trkpt lat="45.34862" lon="5.74735">
        <ele>854.40002441406</ele>
        <time>2011-12-27T08:28:17.000Z</time>
      </trkpt>
      <trkpt lat="45.34858" lon="5.74728">
        <ele>855.20001220703</ele>
        <time>2011-12-27T08:28:24.000Z</time>
      </trkpt>
      <trkpt lat="45.34854" lon="5.74718">
        <ele>854.59997558594</ele>
        <time>2011-12-27T08:28:32.000Z</time>
      </trkpt>
      <trkpt lat="45.34862" lon="5.74722">
        <ele>855.20001220703</ele>
        <time>2011-12-27T08:28:48.000Z</time>
      </trkpt>
      <trkpt lat="45.34858" lon="5.74731">
        <ele>855.20001220703</ele>
        <time>2011-12-27T08:29:06.000Z</time>
      </trkpt>
      <trkpt lat="45.34862" lon="5.74725">
        <ele>854.20001220703</ele>
        <time>2011-12-27T08:29:19.000Z</time>
      </trkpt>
      <trkpt lat="45.34862" lon="5.74713">
        <ele>854.79998779297</ele>
        <time>2011-12-27T08:29:54.000Z</time>
      </trkpt>
      <trkpt lat="45.34861" lon="5.74711">
        <ele>855.20001220703</ele>
        <time>2011-12-27T08:29:57.000Z</time>
      </trkpt>
      <trkpt lat="45.34857" lon="5.74701">
        <ele>855</ele>
        <time>2011-12-27T08:30:04.000Z</time>
      </trkpt>
      <trkpt lat="45.34857" lon="5.74697">
        <ele>855.79998779297</ele>
        <time>2011-12-27T08:30:09.000Z</time>
      </trkpt>
      <trkpt lat="45.34851" lon="5.74689">
        <ele>856.40002441406</ele>
        <time>2011-12-27T08:30:15.000Z</time>
      </trkpt>
      <trkpt lat="45.3485" lon="5.74687">
        <ele>857.40002441406</ele>
        <time>2011-12-27T08:30:16.000Z</time>
      </trkpt>
      <trkpt lat="45.34847" lon="5.7468">
        <ele>857.40002441406</ele>
        <time>2011-12-27T08:30:21.000Z</time>
      </trkpt>
      <trkpt lat="45.34841" lon="5.74671">
        <ele>858.59997558594</ele>
        <time>2011-12-27T08:30:28.000Z</time>
      </trkpt>
      <trkpt lat="45.34836" lon="5.74656">
        <ele>858.79998779297</ele>
        <time>2011-12-27T08:30:34.000Z</time>
      </trkpt>
      <trkpt lat="45.34834" lon="5.74652">
        <ele>858.79998779297</ele>
        <time>2011-12-27T08:30:37.000Z</time>
      </trkpt>
      <trkpt lat="45.34833" lon="5.74645">
        <ele>859</ele>
        <time>2011-12-27T08:30:43.000Z</time>
      </trkpt>
      <trkpt lat="45.34829" lon="5.74638">
        <ele>858.79998779297</ele>
        <time>2011-12-27T08:30:49.000Z</time>
      </trkpt>
      <trkpt lat="45.34827" lon="5.74631">
        <ele>859</ele>
        <time>2011-12-27T08:30:52.000Z</time>
      </trkpt>
      <trkpt lat="45.34825" lon="5.74624">
        <ele>859.40002441406</ele>
        <time>2011-12-27T08:30:56.000Z</time>
      </trkpt>
      <trkpt lat="45.34824" lon="5.74619">
        <ele>859.59997558594</ele>
        <time>2011-12-27T08:30:58.000Z</time>
      </trkpt>
      <trkpt lat="45.34825" lon="5.74608">
        <ele>860</ele>
        <time>2011-12-27T08:31:04.000Z</time>
      </trkpt>
      <trkpt lat="45.34825" lon="5.746">
        <ele>860</ele>
        <time>2011-12-27T08:31:10.000Z</time>
      </trkpt>
      <trkpt lat="45.34825" lon="5.74596">
        <ele>860.20001220703</ele>
        <time>2011-12-27T08:31:13.000Z</time>
      </trkpt>
      <trkpt lat="45.34828" lon="5.7459">
        <ele>861</ele>
        <time>2011-12-27T08:31:18.000Z</time>
      </trkpt>
      <trkpt lat="45.34829" lon="5.74584">
        <ele>861.20001220703</ele>
        <time>2011-12-27T08:31:22.000Z</time>
      </trkpt>
      <trkpt lat="45.34827" lon="5.74572">
        <ele>862.40002441406</ele>
        <time>2011-12-27T08:31:28.000Z</time>
      </trkpt>
      <trkpt lat="45.34826" lon="5.74565">
        <ele>863.20001220703</ele>
        <time>2011-12-27T08:31:34.000Z</time>
      </trkpt>
      <trkpt lat="45.34828" lon="5.74559">
        <ele>863.59997558594</ele>
        <time>2011-12-27T08:31:39.000Z</time>
      </trkpt>
      <trkpt lat="45.34827" lon="5.74548">
        <ele>864.79998779297</ele>
        <time>2011-12-27T08:31:45.000Z</time>
      </trkpt>
      <trkpt lat="45.34825" lon="5.74541">
        <ele>865</ele>
        <time>2011-12-27T08:31:50.000Z</time>
      </trkpt>
      <trkpt lat="45.34829" lon="5.74536">
        <ele>866.20001220703</ele>
        <time>2011-12-27T08:31:55.000Z</time>
      </trkpt>
      <trkpt lat="45.34824" lon="5.74528">
        <ele>867</ele>
        <time>2011-12-27T08:32:00.000Z</time>
      </trkpt>
      <trkpt lat="45.34824" lon="5.74527">
        <ele>867.40002441406</ele>
        <time>2011-12-27T08:32:01.000Z</time>
      </trkpt>
      <trkpt lat="45.34819" lon="5.74519">
        <ele>868.79998779297</ele>
        <time>2011-12-27T08:32:07.000Z</time>
      </trkpt>
      <trkpt lat="45.34819" lon="5.74513">
        <ele>869.20001220703</ele>
        <time>2011-12-27T08:32:13.000Z</time>
      </trkpt>
      <trkpt lat="45.34817" lon="5.74512">
        <ele>869.79998779297</ele>
        <time>2011-12-27T08:32:15.000Z</time>
      </trkpt>
      <trkpt lat="45.34815" lon="5.74506">
        <ele>871.20001220703</ele>
        <time>2011-12-27T08:32:20.000Z</time>
      </trkpt>
      <trkpt lat="45.34813" lon="5.74505">
        <ele>871</ele>
        <time>2011-12-27T08:32:22.000Z</time>
      </trkpt>
      <trkpt lat="45.34812" lon="5.74502">
        <ele>872.59997558594</ele>
        <time>2011-12-27T08:32:27.000Z</time>
      </trkpt>
      <trkpt lat="45.34812" lon="5.74497">
        <ele>874.79998779297</ele>
        <time>2011-12-27T08:32:30.000Z</time>
      </trkpt>
      <trkpt lat="45.34809" lon="5.74492">
        <ele>875</ele>
        <time>2011-12-27T08:32:37.000Z</time>
      </trkpt>
      <trkpt lat="45.3481" lon="5.74486">
        <ele>876.20001220703</ele>
        <time>2011-12-27T08:32:43.000Z</time>
      </trkpt>
      <trkpt lat="45.34808" lon="5.74479">
        <ele>878</ele>
        <time>2011-12-27T08:32:53.000Z</time>
      </trkpt>
      <trkpt lat="45.34805" lon="5.74473">
        <ele>879</ele>
        <time>2011-12-27T08:32:58.000Z</time>
      </trkpt>
      <trkpt lat="45.34803" lon="5.74468">
        <ele>880.40002441406</ele>
        <time>2011-12-27T08:33:02.000Z</time>
      </trkpt>
      <trkpt lat="45.34799" lon="5.74464">
        <ele>880.59997558594</ele>
        <time>2011-12-27T08:33:07.000Z</time>
      </trkpt>
      <trkpt lat="45.34795" lon="5.74459">
        <ele>880.20001220703</ele>
        <time>2011-12-27T08:33:12.000Z</time>
      </trkpt>
      <trkpt lat="45.34794" lon="5.74456">
        <ele>881.59997558594</ele>
        <time>2011-12-27T08:33:15.000Z</time>
      </trkpt>
      <trkpt lat="45.34795" lon="5.74455">
        <ele>882.59997558594</ele>
        <time>2011-12-27T08:33:17.000Z</time>
      </trkpt>
      <trkpt lat="45.34792" lon="5.74447">
        <ele>883.20001220703</ele>
        <time>2011-12-27T08:33:24.000Z</time>
      </trkpt>
      <trkpt lat="45.34791" lon="5.74438">
        <ele>884</ele>
        <time>2011-12-27T08:33:31.000Z</time>
      </trkpt>
      <trkpt lat="45.34787" lon="5.74432">
        <ele>885.40002441406</ele>
        <time>2011-12-27T08:33:37.000Z</time>
      </trkpt>
      <trkpt lat="45.34788" lon="5.74426">
        <ele>886.40002441406</ele>
        <time>2011-12-27T08:33:42.000Z</time>
      </trkpt>
      <trkpt lat="45.34789" lon="5.74423">
        <ele>887.40002441406</ele>
        <time>2011-12-27T08:33:44.000Z</time>
      </trkpt>
      <trkpt lat="45.34784" lon="5.74418">
        <ele>888.40002441406</ele>
        <time>2011-12-27T08:33:50.000Z</time>
      </trkpt>
      <trkpt lat="45.34781" lon="5.74415">
        <ele>888</ele>
        <time>2011-12-27T08:33:54.000Z</time>
      </trkpt>
      <trkpt lat="45.34776" lon="5.74412">
        <ele>890.59997558594</ele>
        <time>2011-12-27T08:34:00.000Z</time>
      </trkpt>
      <trkpt lat="45.34771" lon="5.74406">
        <ele>890.59997558594</ele>
        <time>2011-12-27T08:34:06.000Z</time>
      </trkpt>
      <trkpt lat="45.3477" lon="5.74398">
        <ele>892.40002441406</ele>
        <time>2011-12-27T08:34:13.000Z</time>
      </trkpt>
      <trkpt lat="45.3477" lon="5.74391">
        <ele>893.79998779297</ele>
        <time>2011-12-27T08:34:18.000Z</time>
      </trkpt>
      <trkpt lat="45.34768" lon="5.74385">
        <ele>894</ele>
        <time>2011-12-27T08:34:23.000Z</time>
      </trkpt>
      <trkpt lat="45.34769" lon="5.74383">
        <ele>895.20001220703</ele>
        <time>2011-12-27T08:34:25.000Z</time>
      </trkpt>
      <trkpt lat="45.3477" lon="5.74379">
        <ele>896</ele>
        <time>2011-12-27T08:34:32.000Z</time>
      </trkpt>
      <trkpt lat="45.3477" lon="5.74372">
        <ele>896.20001220703</ele>
        <time>2011-12-27T08:34:41.000Z</time>
      </trkpt>
      <trkpt lat="45.34769" lon="5.74364">
        <ele>898.20001220703</ele>
        <time>2011-12-27T08:34:48.000Z</time>
      </trkpt>
      <trkpt lat="45.34768" lon="5.74356">
        <ele>900</ele>
        <time>2011-12-27T08:34:55.000Z</time>
      </trkpt>
      <trkpt lat="45.34768" lon="5.74355">
        <ele>900.40002441406</ele>
        <time>2011-12-27T08:34:56.000Z</time>
      </trkpt>
      <trkpt lat="45.34764" lon="5.74347">
        <ele>902.40002441406</ele>
        <time>2011-12-27T08:35:02.000Z</time>
      </trkpt>
      <trkpt lat="45.34762" lon="5.74344">
        <ele>901.79998779297</ele>
        <time>2011-12-27T08:35:08.000Z</time>
      </trkpt>
      <trkpt lat="45.34759" lon="5.74339">
        <ele>905.40002441406</ele>
        <time>2011-12-27T08:35:18.000Z</time>
      </trkpt>
      <trkpt lat="45.34758" lon="5.74332">
        <ele>907.40002441406</ele>
        <time>2011-12-27T08:35:29.000Z</time>
      </trkpt>
      <trkpt lat="45.34752" lon="5.74322">
        <ele>909.59997558594</ele>
        <time>2011-12-27T08:35:39.000Z</time>
      </trkpt>
      <trkpt lat="45.34751" lon="5.74321">
        <ele>910.59997558594</ele>
        <time>2011-12-27T08:35:44.000Z</time>
      </trkpt>
      <trkpt lat="45.34747" lon="5.74317">
        <ele>912.40002441406</ele>
        <time>2011-12-27T08:35:50.000Z</time>
      </trkpt>
      <trkpt lat="45.34741" lon="5.74308">
        <ele>914.79998779297</ele>
        <time>2011-12-27T08:36:03.000Z</time>
      </trkpt>
      <trkpt lat="45.34739" lon="5.74305">
        <ele>918.20001220703</ele>
        <time>2011-12-27T08:36:10.000Z</time>
      </trkpt>
      <trkpt lat="45.34735" lon="5.74303">
        <ele>920.20001220703</ele>
        <time>2011-12-27T08:36:17.000Z</time>
      </trkpt>
      <trkpt lat="45.34733" lon="5.74299">
        <ele>922.40002441406</ele>
        <time>2011-12-27T08:36:23.000Z</time>
      </trkpt>
      <trkpt lat="45.3473" lon="5.74295">
        <ele>921.79998779297</ele>
        <time>2011-12-27T08:36:28.000Z</time>
      </trkpt>
      <trkpt lat="45.34726" lon="5.74292">
        <ele>924.79998779297</ele>
        <time>2011-12-27T08:36:34.000Z</time>
      </trkpt>
      <trkpt lat="45.34722" lon="5.74292">
        <ele>926.20001220703</ele>
        <time>2011-12-27T08:36:40.000Z</time>
      </trkpt>
      <trkpt lat="45.34721" lon="5.74291">
        <ele>926.79998779297</ele>
        <time>2011-12-27T08:36:45.000Z</time>
      </trkpt>
      <trkpt lat="45.3472" lon="5.74293">
        <ele>927.40002441406</ele>
        <time>2011-12-27T08:36:50.000Z</time>
      </trkpt>
      <trkpt lat="45.34718" lon="5.74299">
        <ele>929.40002441406</ele>
        <time>2011-12-27T08:36:54.000Z</time>
      </trkpt>
      <trkpt lat="45.34717" lon="5.74307">
        <ele>931.79998779297</ele>
        <time>2011-12-27T08:37:05.000Z</time>
      </trkpt>
      <trkpt lat="45.34717" lon="5.74315">
        <ele>933.20001220703</ele>
        <time>2011-12-27T08:37:13.000Z</time>
      </trkpt>
      <trkpt lat="45.34716" lon="5.74318">
        <ele>934</ele>
        <time>2011-12-27T08:37:19.000Z</time>
      </trkpt>
      <trkpt lat="45.34714" lon="5.74325">
        <ele>935</ele>
        <time>2011-12-27T08:37:26.000Z</time>
      </trkpt>
      <trkpt lat="45.34713" lon="5.7433">
        <ele>936.59997558594</ele>
        <time>2011-12-27T08:37:32.000Z</time>
      </trkpt>
      <trkpt lat="45.34713" lon="5.74337">
        <ele>937.79998779297</ele>
        <time>2011-12-27T08:37:38.000Z</time>
      </trkpt>
      <trkpt lat="45.34712" lon="5.74344">
        <ele>938.79998779297</ele>
        <time>2011-12-27T08:37:44.000Z</time>
      </trkpt>
      <trkpt lat="45.34711" lon="5.7435">
        <ele>940</ele>
        <time>2011-12-27T08:37:50.000Z</time>
      </trkpt>
      <trkpt lat="45.34711" lon="5.74357">
        <ele>941.20001220703</ele>
        <time>2011-12-27T08:37:56.000Z</time>
      </trkpt>
      <trkpt lat="45.3471" lon="5.74367">
        <ele>942.59997558594</ele>
        <time>2011-12-27T08:38:04.000Z</time>
      </trkpt>
      <trkpt lat="45.34709" lon="5.74369">
        <ele>942.79998779297</ele>
        <time>2011-12-27T08:38:06.000Z</time>
      </trkpt>
      <trkpt lat="45.34712" lon="5.74376">
        <ele>943.79998779297</ele>
        <time>2011-12-27T08:38:12.000Z</time>
      </trkpt>
      <trkpt lat="45.3471" lon="5.74385">
        <ele>945.79998779297</ele>
        <time>2011-12-27T08:38:20.000Z</time>
      </trkpt>
      <trkpt lat="45.34708" lon="5.74395">
        <ele>947.40002441406</ele>
        <time>2011-12-27T08:38:27.000Z</time>
      </trkpt>
      <trkpt lat="45.34704" lon="5.74404">
        <ele>948</ele>
        <time>2011-12-27T08:38:33.000Z</time>
      </trkpt>
      <trkpt lat="45.347" lon="5.74408">
        <ele>948.79998779297</ele>
        <time>2011-12-27T08:38:39.000Z</time>
      </trkpt>
      <trkpt lat="45.34695" lon="5.74412">
        <ele>951.59997558594</ele>
        <time>2011-12-27T08:38:47.000Z</time>
      </trkpt>
      <trkpt lat="45.3469" lon="5.74411">
        <ele>952.59997558594</ele>
        <time>2011-12-27T08:38:53.000Z</time>
      </trkpt>
      <trkpt lat="45.34687" lon="5.7441">
        <ele>953</ele>
        <time>2011-12-27T08:38:55.000Z</time>
      </trkpt>
      <trkpt lat="45.3468" lon="5.74406">
        <ele>955</ele>
        <time>2011-12-27T08:39:03.000Z</time>
      </trkpt>
      <trkpt lat="45.34675" lon="5.74404">
        <ele>955.59997558594</ele>
        <time>2011-12-27T08:39:09.000Z</time>
      </trkpt>
      <trkpt lat="45.3467" lon="5.74398">
        <ele>957.20001220703</ele>
        <time>2011-12-27T08:39:16.000Z</time>
      </trkpt>
      <trkpt lat="45.34669" lon="5.74392">
        <ele>957.79998779297</ele>
        <time>2011-12-27T08:39:20.000Z</time>
      </trkpt>
      <trkpt lat="45.34668" lon="5.74385">
        <ele>959.20001220703</ele>
        <time>2011-12-27T08:39:26.000Z</time>
      </trkpt>
      <trkpt lat="45.34665" lon="5.74374">
        <ele>960.20001220703</ele>
        <time>2011-12-27T08:39:33.000Z</time>
      </trkpt>
      <trkpt lat="45.34666" lon="5.74371">
        <ele>960.59997558594</ele>
        <time>2011-12-27T08:39:35.000Z</time>
      </trkpt>
      <trkpt lat="45.34665" lon="5.74362">
        <ele>961.59997558594</ele>
        <time>2011-12-27T08:39:41.000Z</time>
      </trkpt>
      <trkpt lat="45.34666" lon="5.74354">
        <ele>962.20001220703</ele>
        <time>2011-12-27T08:39:46.000Z</time>
      </trkpt>
      <trkpt lat="45.34663" lon="5.74348">
        <ele>963.20001220703</ele>
        <time>2011-12-27T08:39:51.000Z</time>
      </trkpt>
      <trkpt lat="45.34663" lon="5.74337">
        <ele>964.59997558594</ele>
        <time>2011-12-27T08:40:00.000Z</time>
      </trkpt>
      <trkpt lat="45.34665" lon="5.74325">
        <ele>965.79998779297</ele>
        <time>2011-12-27T08:40:09.000Z</time>
      </trkpt>
      <trkpt lat="45.34658" lon="5.7431">
        <ele>966.40002441406</ele>
        <time>2011-12-27T08:40:16.000Z</time>
      </trkpt>
      <trkpt lat="45.34654" lon="5.74298">
        <ele>968.20001220703</ele>
        <time>2011-12-27T08:40:27.000Z</time>
      </trkpt>
      <trkpt lat="45.34652" lon="5.74295">
        <ele>968.20001220703</ele>
        <time>2011-12-27T08:40:31.000Z</time>
      </trkpt>
      <trkpt lat="45.34651" lon="5.74293">
        <ele>968.79998779297</ele>
        <time>2011-12-27T08:40:32.000Z</time>
      </trkpt>
      <trkpt lat="45.34645" lon="5.74278">
        <ele>968.79998779297</ele>
        <time>2011-12-27T08:40:41.000Z</time>
      </trkpt>
      <trkpt lat="45.34643" lon="5.74267">
        <ele>970.20001220703</ele>
        <time>2011-12-27T08:40:48.000Z</time>
      </trkpt>
      <trkpt lat="45.34644" lon="5.7426">
        <ele>971.40002441406</ele>
        <time>2011-12-27T08:40:54.000Z</time>
      </trkpt>
      <trkpt lat="45.34645" lon="5.74254">
        <ele>972.20001220703</ele>
        <time>2011-12-27T08:40:59.000Z</time>
      </trkpt>
      <trkpt lat="45.34646" lon="5.74248">
        <ele>973.59997558594</ele>
        <time>2011-12-27T08:41:05.000Z</time>
      </trkpt>
      <trkpt lat="45.34647" lon="5.74243">
        <ele>975</ele>
        <time>2011-12-27T08:41:10.000Z</time>
      </trkpt>
      <trkpt lat="45.34647" lon="5.74235">
        <ele>975.79998779297</ele>
        <time>2011-12-27T08:41:15.000Z</time>
      </trkpt>
      <trkpt lat="45.34647" lon="5.74226">
        <ele>976.40002441406</ele>
        <time>2011-12-27T08:41:21.000Z</time>
      </trkpt>
      <trkpt lat="45.34648" lon="5.74219">
        <ele>977.20001220703</ele>
        <time>2011-12-27T08:41:26.000Z</time>
      </trkpt>
      <trkpt lat="45.34653" lon="5.74211">
        <ele>978.20001220703</ele>
        <time>2011-12-27T08:41:32.000Z</time>
      </trkpt>
      <trkpt lat="45.34652" lon="5.74203">
        <ele>978.40002441406</ele>
        <time>2011-12-27T08:41:37.000Z</time>
      </trkpt>
      <trkpt lat="45.34652" lon="5.74195">
        <ele>979</ele>
        <time>2011-12-27T08:41:43.000Z</time>
      </trkpt>
      <trkpt lat="45.34653" lon="5.74188">
        <ele>980.20001220703</ele>
        <time>2011-12-27T08:41:48.000Z</time>
      </trkpt>
      <trkpt lat="45.34655" lon="5.74179">
        <ele>981.79998779297</ele>
        <time>2011-12-27T08:41:56.000Z</time>
      </trkpt>
      <trkpt lat="45.34661" lon="5.7417">
        <ele>983</ele>
        <time>2011-12-27T08:42:05.000Z</time>
      </trkpt>
      <trkpt lat="45.34667" lon="5.7416">
        <ele>984.40002441406</ele>
        <time>2011-12-27T08:42:13.000Z</time>
      </trkpt>
      <trkpt lat="45.34669" lon="5.74157">
        <ele>985</ele>
        <time>2011-12-27T08:42:18.000Z</time>
      </trkpt>
      <trkpt lat="45.34672" lon="5.7415">
        <ele>986</ele>
        <time>2011-12-27T08:42:24.000Z</time>
      </trkpt>
      <trkpt lat="45.34674" lon="5.74142">
        <ele>987</ele>
        <time>2011-12-27T08:42:30.000Z</time>
      </trkpt>
      <trkpt lat="45.34686" lon="5.74134">
        <ele>988.40002441406</ele>
        <time>2011-12-27T08:42:39.000Z</time>
      </trkpt>
      <trkpt lat="45.34691" lon="5.74128">
        <ele>989.40002441406</ele>
        <time>2011-12-27T08:42:44.000Z</time>
      </trkpt>
      <trkpt lat="45.34694" lon="5.74122">
        <ele>989.79998779297</ele>
        <time>2011-12-27T08:42:49.000Z</time>
      </trkpt>
      <trkpt lat="45.34695" lon="5.74114">
        <ele>990.79998779297</ele>
        <time>2011-12-27T08:42:55.000Z</time>
      </trkpt>
      <trkpt lat="45.34695" lon="5.74104">
        <ele>991.40002441406</ele>
        <time>2011-12-27T08:43:00.000Z</time>
      </trkpt>
      <trkpt lat="45.34696" lon="5.74092">
        <ele>992</ele>
        <time>2011-12-27T08:43:07.000Z</time>
      </trkpt>
      <trkpt lat="45.34699" lon="5.74083">
        <ele>992.20001220703</ele>
        <time>2011-12-27T08:43:13.000Z</time>
      </trkpt>
      <trkpt lat="45.34703" lon="5.74079">
        <ele>993</ele>
        <time>2011-12-27T08:43:18.000Z</time>
      </trkpt>
      <trkpt lat="45.34703" lon="5.74074">
        <ele>993.79998779297</ele>
        <time>2011-12-27T08:43:23.000Z</time>
      </trkpt>
      <trkpt lat="45.34705" lon="5.7407">
        <ele>995</ele>
        <time>2011-12-27T08:43:28.000Z</time>
      </trkpt>
      <trkpt lat="45.34707" lon="5.74068">
        <ele>995.40002441406</ele>
        <time>2011-12-27T08:43:33.000Z</time>
      </trkpt>
      <trkpt lat="45.34714" lon="5.74063">
        <ele>996</ele>
        <time>2011-12-27T08:43:39.000Z</time>
      </trkpt>
      <trkpt lat="45.34718" lon="5.74061">
        <ele>997.79998779297</ele>
        <time>2011-12-27T08:43:44.000Z</time>
      </trkpt>
      <trkpt lat="45.34722" lon="5.74056">
        <ele>998.59997558594</ele>
        <time>2011-12-27T08:43:49.000Z</time>
      </trkpt>
      <trkpt lat="45.34728" lon="5.74053">
        <ele>1000</ele>
        <time>2011-12-27T08:43:55.000Z</time>
      </trkpt>
      <trkpt lat="45.34735" lon="5.74049">
        <ele>1000.200012207</ele>
        <time>2011-12-27T08:44:02.000Z</time>
      </trkpt>
      <trkpt lat="45.34736" lon="5.74046">
        <ele>1000.5999755859</ele>
        <time>2011-12-27T08:44:05.000Z</time>
      </trkpt>
      <trkpt lat="45.34737" lon="5.7404">
        <ele>1001.799987793</ele>
        <time>2011-12-27T08:44:12.000Z</time>
      </trkpt>
      <trkpt lat="45.34737" lon="5.74031">
        <ele>1003.200012207</ele>
        <time>2011-12-27T08:44:18.000Z</time>
      </trkpt>
      <trkpt lat="45.34737" lon="5.74023">
        <ele>1004.5999755859</ele>
        <time>2011-12-27T08:44:25.000Z</time>
      </trkpt>
      <trkpt lat="45.34736" lon="5.74011">
        <ele>1005.799987793</ele>
        <time>2011-12-27T08:44:37.000Z</time>
      </trkpt>
      <trkpt lat="45.34737" lon="5.74008">
        <ele>1006</ele>
        <time>2011-12-27T08:44:39.000Z</time>
      </trkpt>
      <trkpt lat="45.34733" lon="5.73996">
        <ele>1006.799987793</ele>
        <time>2011-12-27T08:44:45.000Z</time>
      </trkpt>
      <trkpt lat="45.3473" lon="5.73988">
        <ele>1008.799987793</ele>
        <time>2011-12-27T08:44:50.000Z</time>
      </trkpt>
      <trkpt lat="45.34729" lon="5.73983">
        <ele>1009</ele>
        <time>2011-12-27T08:44:55.000Z</time>
      </trkpt>
      <trkpt lat="45.34727" lon="5.73973">
        <ele>1009.799987793</ele>
        <time>2011-12-27T08:45:02.000Z</time>
      </trkpt>
      <trkpt lat="45.34727" lon="5.73966">
        <ele>1009.5999755859</ele>
        <time>2011-12-27T08:45:08.000Z</time>
      </trkpt>
      <trkpt lat="45.34726" lon="5.73961">
        <ele>1010.4000244141</ele>
        <time>2011-12-27T08:45:13.000Z</time>
      </trkpt>
      <trkpt lat="45.34728" lon="5.73955">
        <ele>1011.200012207</ele>
        <time>2011-12-27T08:45:18.000Z</time>
      </trkpt>
      <trkpt lat="45.34729" lon="5.73952">
        <ele>1012</ele>
        <time>2011-12-27T08:45:22.000Z</time>
      </trkpt>
      <trkpt lat="45.3473" lon="5.73941">
        <ele>1013.200012207</ele>
        <time>2011-12-27T08:45:28.000Z</time>
      </trkpt>
      <trkpt lat="45.34731" lon="5.73936">
        <ele>1013.799987793</ele>
        <time>2011-12-27T08:45:32.000Z</time>
      </trkpt>
      <trkpt lat="45.34735" lon="5.73929">
        <ele>1013</ele>
        <time>2011-12-27T08:45:38.000Z</time>
      </trkpt>
      <trkpt lat="45.34732" lon="5.73925">
        <ele>1014.799987793</ele>
        <time>2011-12-27T08:45:45.000Z</time>
      </trkpt>
      <trkpt lat="45.34731" lon="5.73914">
        <ele>1015.200012207</ele>
        <time>2011-12-27T08:45:53.000Z</time>
      </trkpt>
      <trkpt lat="45.34727" lon="5.73908">
        <ele>1016.4000244141</ele>
        <time>2011-12-27T08:46:00.000Z</time>
      </trkpt>
      <trkpt lat="45.3473" lon="5.73896">
        <ele>1017.4000244141</ele>
        <time>2011-12-27T08:46:12.000Z</time>
      </trkpt>
      <trkpt lat="45.34734" lon="5.73894">
        <ele>1016.4000244141</ele>
        <time>2011-12-27T08:46:20.000Z</time>
      </trkpt>
      <trkpt lat="45.34739" lon="5.73898">
        <ele>1015.799987793</ele>
        <time>2011-12-27T08:46:26.000Z</time>
      </trkpt>
      <trkpt lat="45.34742" lon="5.73893">
        <ele>1014.5999755859</ele>
        <time>2011-12-27T08:46:31.000Z</time>
      </trkpt>
      <trkpt lat="45.34747" lon="5.73887">
        <ele>1015.799987793</ele>
        <time>2011-12-27T08:46:36.000Z</time>
      </trkpt>
      <trkpt lat="45.34748" lon="5.73885">
        <ele>1015.4000244141</ele>
        <time>2011-12-27T08:46:37.000Z</time>
      </trkpt>
      <trkpt lat="45.34752" lon="5.73875">
        <ele>1016</ele>
        <time>2011-12-27T08:46:43.000Z</time>
      </trkpt>
      <trkpt lat="45.34754" lon="5.73865">
        <ele>1016.5999755859</ele>
        <time>2011-12-27T08:46:49.000Z</time>
      </trkpt>
      <trkpt lat="45.34756" lon="5.73859">
        <ele>1018</ele>
        <time>2011-12-27T08:46:54.000Z</time>
      </trkpt>
      <trkpt lat="45.34757" lon="5.73853">
        <ele>1018.799987793</ele>
        <time>2011-12-27T08:46:59.000Z</time>
      </trkpt>
      <trkpt lat="45.34758" lon="5.73847">
        <ele>1019.200012207</ele>
        <time>2011-12-27T08:47:04.000Z</time>
      </trkpt>
      <trkpt lat="45.3476" lon="5.73839">
        <ele>1020</ele>
        <time>2011-12-27T08:47:10.000Z</time>
      </trkpt>
      <trkpt lat="45.34762" lon="5.7383">
        <ele>1021</ele>
        <time>2011-12-27T08:47:17.000Z</time>
      </trkpt>
      <trkpt lat="45.34765" lon="5.73828">
        <ele>1022</ele>
        <time>2011-12-27T08:47:23.000Z</time>
      </trkpt>
      <trkpt lat="45.3477" lon="5.73828">
        <ele>1022.200012207</ele>
        <time>2011-12-27T08:47:38.000Z</time>
      </trkpt>
      <trkpt lat="45.34775" lon="5.73824">
        <ele>1024</ele>
        <time>2011-12-27T08:47:46.000Z</time>
      </trkpt>
      <trkpt lat="45.34777" lon="5.73819">
        <ele>1026</ele>
        <time>2011-12-27T08:47:53.000Z</time>
      </trkpt>
      <trkpt lat="45.34778" lon="5.73814">
        <ele>1026.8000488281</ele>
        <time>2011-12-27T08:48:00.000Z</time>
      </trkpt>
      <trkpt lat="45.34784" lon="5.73809">
        <ele>1029</ele>
        <time>2011-12-27T08:48:10.000Z</time>
      </trkpt>
      <trkpt lat="45.3479" lon="5.73804">
        <ele>1032.1999511719</ele>
        <time>2011-12-27T08:48:21.000Z</time>
      </trkpt>
      <trkpt lat="45.34794" lon="5.738">
        <ele>1034</ele>
        <time>2011-12-27T08:48:28.000Z</time>
      </trkpt>
      <trkpt lat="45.34795" lon="5.73798">
        <ele>1033.5999755859</ele>
        <time>2011-12-27T08:48:30.000Z</time>
      </trkpt>
      <trkpt lat="45.34803" lon="5.73786">
        <ele>1034.8000488281</ele>
        <time>2011-12-27T08:48:38.000Z</time>
      </trkpt>
      <trkpt lat="45.34809" lon="5.73783">
        <ele>1036.8000488281</ele>
        <time>2011-12-27T08:48:46.000Z</time>
      </trkpt>
      <trkpt lat="45.34811" lon="5.73778">
        <ele>1037.1999511719</ele>
        <time>2011-12-27T08:48:50.000Z</time>
      </trkpt>
      <trkpt lat="45.34814" lon="5.73778">
        <ele>1039.1999511719</ele>
        <time>2011-12-27T08:48:54.000Z</time>
      </trkpt>
      <trkpt lat="45.3482" lon="5.73774">
        <ele>1038.8000488281</ele>
        <time>2011-12-27T08:49:01.000Z</time>
      </trkpt>
      <trkpt lat="45.34827" lon="5.73769">
        <ele>1040.4000244141</ele>
        <time>2011-12-27T08:49:09.000Z</time>
      </trkpt>
      <trkpt lat="45.3483" lon="5.73769">
        <ele>1042</ele>
        <time>2011-12-27T08:49:12.000Z</time>
      </trkpt>
      <trkpt lat="45.34834" lon="5.73761">
        <ele>1042.8000488281</ele>
        <time>2011-12-27T08:49:19.000Z</time>
      </trkpt>
      <trkpt lat="45.34838" lon="5.73755">
        <ele>1043.8000488281</ele>
        <time>2011-12-27T08:49:24.000Z</time>
      </trkpt>
      <trkpt lat="45.3484" lon="5.73749">
        <ele>1044.8000488281</ele>
        <time>2011-12-27T08:49:30.000Z</time>
      </trkpt>
      <trkpt lat="45.34841" lon="5.73743">
        <ele>1044.4000244141</ele>
        <time>2011-12-27T08:49:35.000Z</time>
      </trkpt>
      <trkpt lat="45.34843" lon="5.73736">
        <ele>1044.5999755859</ele>
        <time>2011-12-27T08:49:40.000Z</time>
      </trkpt>
      <trkpt lat="45.34847" lon="5.73729">
        <ele>1045.4000244141</ele>
        <time>2011-12-27T08:49:46.000Z</time>
      </trkpt>
      <trkpt lat="45.34847" lon="5.73725">
        <ele>1044</ele>
        <time>2011-12-27T08:49:50.000Z</time>
      </trkpt>
      <trkpt lat="45.34846" lon="5.73721">
        <ele>1047.5999755859</ele>
        <time>2011-12-27T08:49:55.000Z</time>
      </trkpt>
      <trkpt lat="45.34846" lon="5.73721">
        <ele>1046.4000244141</ele>
        <time>2011-12-27T08:49:58.000Z</time>
      </trkpt>
      <trkpt lat="45.34845" lon="5.73721">
        <ele>1044.1999511719</ele>
        <time>2011-12-27T08:50:07.000Z</time>
      </trkpt>
      <trkpt lat="45.34843" lon="5.73719">
        <ele>1046.8000488281</ele>
        <time>2011-12-27T08:50:12.000Z</time>
      </trkpt>
      <trkpt lat="45.34856" lon="5.73722">
        <ele>1046</ele>
        <time>2011-12-27T08:50:17.000Z</time>
      </trkpt>
      <trkpt lat="45.34853" lon="5.73723">
        <ele>1046.4000244141</ele>
        <time>2011-12-27T08:50:20.000Z</time>
      </trkpt>
      <trkpt lat="45.34853" lon="5.73721">
        <ele>1048.1999511719</ele>
        <time>2011-12-27T08:50:23.000Z</time>
      </trkpt>
      <trkpt lat="45.34855" lon="5.73716">
        <ele>1048</ele>
        <time>2011-12-27T08:50:30.000Z</time>
      </trkpt>
      <trkpt lat="45.34856" lon="5.73712">
        <ele>1048.4000244141</ele>
        <time>2011-12-27T08:50:33.000Z</time>
      </trkpt>
      <trkpt lat="45.34863" lon="5.73707">
        <ele>1049.1999511719</ele>
        <time>2011-12-27T08:50:39.000Z</time>
      </trkpt>
      <trkpt lat="45.34867" lon="5.73702">
        <ele>1049.4000244141</ele>
        <time>2011-12-27T08:50:44.000Z</time>
      </trkpt>
      <trkpt lat="45.34866" lon="5.73702">
        <ele>1050</ele>
        <time>2011-12-27T08:50:51.000Z</time>
      </trkpt>
      <trkpt lat="45.34867" lon="5.737">
        <ele>1050</ele>
        <time>2011-12-27T08:51:01.000Z</time>
      </trkpt>
      <trkpt lat="45.34868" lon="5.73699">
        <ele>1048</ele>
        <time>2011-12-27T08:51:04.000Z</time>
      </trkpt>
      <trkpt lat="45.34868" lon="5.73698">
        <ele>1052.8000488281</ele>
        <time>2011-12-27T08:51:08.000Z</time>
      </trkpt>
      <trkpt lat="45.34865" lon="5.73705">
        <ele>1050</ele>
        <time>2011-12-27T08:51:21.000Z</time>
      </trkpt>
      <trkpt lat="45.34868" lon="5.73704">
        <ele>1048.5999755859</ele>
        <time>2011-12-27T08:51:43.000Z</time>
      </trkpt>
      <trkpt lat="45.34868" lon="5.73707">
        <ele>1050</ele>
        <time>2011-12-27T08:51:45.000Z</time>
      </trkpt>
      <trkpt lat="45.3487" lon="5.73705">
        <ele>1051.8000488281</ele>
        <time>2011-12-27T08:51:48.000Z</time>
      </trkpt>
      <trkpt lat="45.34876" lon="5.73701">
        <ele>1051.4000244141</ele>
        <time>2011-12-27T08:51:54.000Z</time>
      </trkpt>
      <trkpt lat="45.3488" lon="5.73703">
        <ele>1053</ele>
        <time>2011-12-27T08:51:58.000Z</time>
      </trkpt>
      <trkpt lat="45.34887" lon="5.73695">
        <ele>1053.1999511719</ele>
        <time>2011-12-27T08:52:05.000Z</time>
      </trkpt>
      <trkpt lat="45.34889" lon="5.73689">
        <ele>1056.4000244141</ele>
        <time>2011-12-27T08:52:10.000Z</time>
      </trkpt>
      <trkpt lat="45.34896" lon="5.73686">
        <ele>1056.4000244141</ele>
        <time>2011-12-27T08:52:16.000Z</time>
      </trkpt>
      <trkpt lat="45.34902" lon="5.73685">
        <ele>1056</ele>
        <time>2011-12-27T08:52:23.000Z</time>
      </trkpt>
      <trkpt lat="45.34909" lon="5.73683">
        <ele>1057.8000488281</ele>
        <time>2011-12-27T08:52:30.000Z</time>
      </trkpt>
      <trkpt lat="45.34918" lon="5.73683">
        <ele>1058.5999755859</ele>
        <time>2011-12-27T08:52:38.000Z</time>
      </trkpt>
      <trkpt lat="45.34923" lon="5.73683">
        <ele>1059.1999511719</ele>
        <time>2011-12-27T08:52:43.000Z</time>
      </trkpt>
      <trkpt lat="45.34928" lon="5.7368">
        <ele>1060</ele>
        <time>2011-12-27T08:52:51.000Z</time>
      </trkpt>
      <trkpt lat="45.34929" lon="5.73679">
        <ele>1060</ele>
        <time>2011-12-27T08:52:53.000Z</time>
      </trkpt>
      <trkpt lat="45.34935" lon="5.73678">
        <ele>1061.4000244141</ele>
        <time>2011-12-27T08:52:59.000Z</time>
      </trkpt>
      <trkpt lat="45.34943" lon="5.73677">
        <ele>1063.1999511719</ele>
        <time>2011-12-27T08:53:07.000Z</time>
      </trkpt>
      <trkpt lat="45.34946" lon="5.73676">
        <ele>1064</ele>
        <time>2011-12-27T08:53:12.000Z</time>
      </trkpt>
      <trkpt lat="45.34947" lon="5.73676">
        <ele>1064</ele>
        <time>2011-12-27T08:53:13.000Z</time>
      </trkpt>
      <trkpt lat="45.34949" lon="5.73671">
        <ele>1064.8000488281</ele>
        <time>2011-12-27T08:53:16.000Z</time>
      </trkpt>
      <trkpt lat="45.34954" lon="5.7366">
        <ele>1065.5999755859</ele>
        <time>2011-12-27T08:53:21.000Z</time>
      </trkpt>
      <trkpt lat="45.34962" lon="5.73655">
        <ele>1066.8000488281</ele>
        <time>2011-12-27T08:53:28.000Z</time>
      </trkpt>
      <trkpt lat="45.34965" lon="5.73648">
        <ele>1068.1999511719</ele>
        <time>2011-12-27T08:53:34.000Z</time>
      </trkpt>
      <trkpt lat="45.3497" lon="5.73646">
        <ele>1068.8000488281</ele>
        <time>2011-12-27T08:53:42.000Z</time>
      </trkpt>
      <trkpt lat="45.34972" lon="5.73646">
        <ele>1071</ele>
        <time>2011-12-27T08:53:46.000Z</time>
      </trkpt>
      <trkpt lat="45.34979" lon="5.73643">
        <ele>1071.4000244141</ele>
        <time>2011-12-27T08:53:51.000Z</time>
      </trkpt>
      <trkpt lat="45.3498" lon="5.73638">
        <ele>1072.1999511719</ele>
        <time>2011-12-27T08:53:56.000Z</time>
      </trkpt>
      <trkpt lat="45.3498" lon="5.73633">
        <ele>1074.1999511719</ele>
        <time>2011-12-27T08:54:03.000Z</time>
      </trkpt>
      <trkpt lat="45.34981" lon="5.73633">
        <ele>1075.1999511719</ele>
        <time>2011-12-27T08:54:05.000Z</time>
      </trkpt>
      <trkpt lat="45.34983" lon="5.73628">
        <ele>1074.4000244141</ele>
        <time>2011-12-27T08:54:09.000Z</time>
      </trkpt>
      <trkpt lat="45.34985" lon="5.7362">
        <ele>1075.8000488281</ele>
        <time>2011-12-27T08:54:12.000Z</time>
      </trkpt>
      <trkpt lat="45.3499" lon="5.7361">
        <ele>1076.8000488281</ele>
        <time>2011-12-27T08:54:20.000Z</time>
      </trkpt>
      <trkpt lat="45.34993" lon="5.73603">
        <ele>1077.8000488281</ele>
        <time>2011-12-27T08:54:25.000Z</time>
      </trkpt>
      <trkpt lat="45.34993" lon="5.73602">
        <ele>1078.5999755859</ele>
        <time>2011-12-27T08:54:26.000Z</time>
      </trkpt>
      <trkpt lat="45.34994" lon="5.73593">
        <ele>1080</ele>
        <time>2011-12-27T08:54:30.000Z</time>
      </trkpt>
      <trkpt lat="45.34996" lon="5.73589">
        <ele>1080.8000488281</ele>
        <time>2011-12-27T08:54:35.000Z</time>
      </trkpt>
      <trkpt lat="45.34996" lon="5.73577">
        <ele>1081.1999511719</ele>
        <time>2011-12-27T08:54:42.000Z</time>
      </trkpt>
      <trkpt lat="45.34999" lon="5.73566">
        <ele>1082.1999511719</ele>
        <time>2011-12-27T08:54:49.000Z</time>
      </trkpt>
      <trkpt lat="45.35" lon="5.73564">
        <ele>1083.1999511719</ele>
        <time>2011-12-27T08:54:55.000Z</time>
      </trkpt>
      <trkpt lat="45.35001" lon="5.73561">
        <ele>1083.8000488281</ele>
        <time>2011-12-27T08:54:58.000Z</time>
      </trkpt>
      <trkpt lat="45.35005" lon="5.73552">
        <ele>1084.4000244141</ele>
        <time>2011-12-27T08:55:06.000Z</time>
      </trkpt>
      <trkpt lat="45.35007" lon="5.73547">
        <ele>1085.8000488281</ele>
        <time>2011-12-27T08:55:12.000Z</time>
      </trkpt>
      <trkpt lat="45.35002" lon="5.7354">
        <ele>1088.5999755859</ele>
        <time>2011-12-27T08:55:23.000Z</time>
      </trkpt>
      <trkpt lat="45.35003" lon="5.73536">
        <ele>1089.1999511719</ele>
        <time>2011-12-27T08:55:24.000Z</time>
      </trkpt>
      <trkpt lat="45.35008" lon="5.73525">
        <ele>1090.8000488281</ele>
        <time>2011-12-27T08:55:30.000Z</time>
      </trkpt>
      <trkpt lat="45.35011" lon="5.7352">
        <ele>1090.5999755859</ele>
        <time>2011-12-27T08:55:36.000Z</time>
      </trkpt>
      <trkpt lat="45.3501" lon="5.73511">
        <ele>1092</ele>
        <time>2011-12-27T08:55:41.000Z</time>
      </trkpt>
      <trkpt lat="45.35014" lon="5.73504">
        <ele>1092.4000244141</ele>
        <time>2011-12-27T08:55:48.000Z</time>
      </trkpt>
      <trkpt lat="45.35014" lon="5.73502">
        <ele>1092.5999755859</ele>
        <time>2011-12-27T08:55:49.000Z</time>
      </trkpt>
      <trkpt lat="45.35019" lon="5.73498">
        <ele>1093.8000488281</ele>
        <time>2011-12-27T08:55:55.000Z</time>
      </trkpt>
      <trkpt lat="45.35019" lon="5.7349">
        <ele>1094.4000244141</ele>
        <time>2011-12-27T08:56:00.000Z</time>
      </trkpt>
      <trkpt lat="45.3502" lon="5.7348">
        <ele>1095.1999511719</ele>
        <time>2011-12-27T08:56:06.000Z</time>
      </trkpt>
      <trkpt lat="45.35022" lon="5.73476">
        <ele>1097.1999511719</ele>
        <time>2011-12-27T08:56:11.000Z</time>
      </trkpt>
      <trkpt lat="45.35029" lon="5.73475">
        <ele>1098.4000244141</ele>
        <time>2011-12-27T08:56:17.000Z</time>
      </trkpt>
      <trkpt lat="45.35031" lon="5.73469">
        <ele>1099.1999511719</ele>
        <time>2011-12-27T08:56:23.000Z</time>
      </trkpt>
      <trkpt lat="45.35037" lon="5.73469">
        <ele>1100.4000244141</ele>
        <time>2011-12-27T08:56:30.000Z</time>
      </trkpt>
      <trkpt lat="45.35045" lon="5.73464">
        <ele>1101.4000244141</ele>
        <time>2011-12-27T08:56:36.000Z</time>
      </trkpt>
      <trkpt lat="45.35051" lon="5.73461">
        <ele>1102.1999511719</ele>
        <time>2011-12-27T08:56:43.000Z</time>
      </trkpt>
      <trkpt lat="45.35054" lon="5.73458">
        <ele>1102.1999511719</ele>
        <time>2011-12-27T08:56:51.000Z</time>
      </trkpt>
      <trkpt lat="45.35057" lon="5.73455">
        <ele>1102.5999755859</ele>
        <time>2011-12-27T08:56:56.000Z</time>
      </trkpt>
      <trkpt lat="45.35058" lon="5.73455">
        <ele>1102.8000488281</ele>
        <time>2011-12-27T08:56:58.000Z</time>
      </trkpt>
      <trkpt lat="45.35063" lon="5.73449">
        <ele>1103.1999511719</ele>
        <time>2011-12-27T08:57:05.000Z</time>
      </trkpt>
      <trkpt lat="45.35064" lon="5.73447">
        <ele>1103.1999511719</ele>
        <time>2011-12-27T08:57:10.000Z</time>
      </trkpt>
      <trkpt lat="45.35069" lon="5.73442">
        <ele>1103.1999511719</ele>
        <time>2011-12-27T08:57:26.000Z</time>
      </trkpt>
      <trkpt lat="45.35071" lon="5.73434">
        <ele>1103.8000488281</ele>
        <time>2011-12-27T08:57:34.000Z</time>
      </trkpt>
      <trkpt lat="45.3507" lon="5.73428">
        <ele>1104.8000488281</ele>
        <time>2011-12-27T08:57:41.000Z</time>
      </trkpt>
      <trkpt lat="45.3507" lon="5.73422">
        <ele>1104.4000244141</ele>
        <time>2011-12-27T08:58:07.000Z</time>
      </trkpt>
      <trkpt lat="45.35072" lon="5.73423">
        <ele>1104</ele>
        <time>2011-12-27T08:58:10.000Z</time>
      </trkpt>
      <trkpt lat="45.35078" lon="5.73428">
        <ele>1104.1999511719</ele>
        <time>2011-12-27T08:58:16.000Z</time>
      </trkpt>
      <trkpt lat="45.35081" lon="5.73431">
        <ele>1104.4000244141</ele>
        <time>2011-12-27T08:58:21.000Z</time>
      </trkpt>
      <trkpt lat="45.35082" lon="5.7343">
        <ele>1106.5999755859</ele>
        <time>2011-12-27T08:58:28.000Z</time>
      </trkpt>
      <trkpt lat="45.35085" lon="5.73435">
        <ele>1107.1999511719</ele>
        <time>2011-12-27T08:58:35.000Z</time>
      </trkpt>
      <trkpt lat="45.35089" lon="5.73433">
        <ele>1109.1999511719</ele>
        <time>2011-12-27T08:58:40.000Z</time>
      </trkpt>
      <trkpt lat="45.35098" lon="5.73408">
        <ele>1113.1999511719</ele>
        <time>2011-12-27T08:58:57.000Z</time>
      </trkpt>
      <trkpt lat="45.35102" lon="5.73407">
        <ele>1114.1999511719</ele>
        <time>2011-12-27T08:59:03.000Z</time>
      </trkpt>
      <trkpt lat="45.35104" lon="5.734">
        <ele>1116.1999511719</ele>
        <time>2011-12-27T08:59:09.000Z</time>
      </trkpt>
      <trkpt lat="45.35102" lon="5.73398">
        <ele>1116</ele>
        <time>2011-12-27T08:59:15.000Z</time>
      </trkpt>
      <trkpt lat="45.35105" lon="5.73394">
        <ele>1116.1999511719</ele>
        <time>2011-12-27T08:59:20.000Z</time>
      </trkpt>
      <trkpt lat="45.35108" lon="5.73387">
        <ele>1117</ele>
        <time>2011-12-27T08:59:25.000Z</time>
      </trkpt>
      <trkpt lat="45.35107" lon="5.73379">
        <ele>1116.5999755859</ele>
        <time>2011-12-27T08:59:30.000Z</time>
      </trkpt>
      <trkpt lat="45.35107" lon="5.73379">
        <ele>1117</ele>
        <time>2011-12-27T08:59:33.000Z</time>
      </trkpt>
      <trkpt lat="45.35107" lon="5.73374">
        <ele>1118.4000244141</ele>
        <time>2011-12-27T08:59:36.000Z</time>
      </trkpt>
      <trkpt lat="45.35106" lon="5.73369">
        <ele>1118</ele>
        <time>2011-12-27T08:59:45.000Z</time>
      </trkpt>
      <trkpt lat="45.35108" lon="5.73357">
        <ele>1118.5999755859</ele>
        <time>2011-12-27T08:59:58.000Z</time>
      </trkpt>
      <trkpt lat="45.35115" lon="5.73351">
        <ele>1121.4000244141</ele>
        <time>2011-12-27T09:00:04.000Z</time>
      </trkpt>
      <trkpt lat="45.35115" lon="5.73351">
        <ele>1121.5999755859</ele>
        <time>2011-12-27T09:00:05.000Z</time>
      </trkpt>
      <trkpt lat="45.35115" lon="5.73345">
        <ele>1122</ele>
        <time>2011-12-27T09:00:10.000Z</time>
      </trkpt>
      <trkpt lat="45.35118" lon="5.73335">
        <ele>1123.1999511719</ele>
        <time>2011-12-27T09:00:16.000Z</time>
      </trkpt>
      <trkpt lat="45.35117" lon="5.73333">
        <ele>1124.5999755859</ele>
        <time>2011-12-27T09:00:19.000Z</time>
      </trkpt>
      <trkpt lat="45.35117" lon="5.73321">
        <ele>1123.1999511719</ele>
        <time>2011-12-27T09:00:27.000Z</time>
      </trkpt>
      <trkpt lat="45.35115" lon="5.73317">
        <ele>1125.5999755859</ele>
        <time>2011-12-27T09:00:34.000Z</time>
      </trkpt>
      <trkpt lat="45.35114" lon="5.73317">
        <ele>1126.8000488281</ele>
        <time>2011-12-27T09:00:39.000Z</time>
      </trkpt>
      <trkpt lat="45.35116" lon="5.73313">
        <ele>1128.4000244141</ele>
        <time>2011-12-27T09:00:41.000Z</time>
      </trkpt>
      <trkpt lat="45.35115" lon="5.73303">
        <ele>1127</ele>
        <time>2011-12-27T09:00:47.000Z</time>
      </trkpt>
      <trkpt lat="45.35114" lon="5.73295">
        <ele>1132.1999511719</ele>
        <time>2011-12-27T09:00:54.000Z</time>
      </trkpt>
      <trkpt lat="45.35113" lon="5.73288">
        <ele>1131.1999511719</ele>
        <time>2011-12-27T09:01:00.000Z</time>
      </trkpt>
      <trkpt lat="45.35113" lon="5.73283">
        <ele>1134.4000244141</ele>
        <time>2011-12-27T09:01:05.000Z</time>
      </trkpt>
      <trkpt lat="45.35109" lon="5.73274">
        <ele>1136</ele>
        <time>2011-12-27T09:01:10.000Z</time>
      </trkpt>
      <trkpt lat="45.3511" lon="5.73269">
        <ele>1133.5999755859</ele>
        <time>2011-12-27T09:01:13.000Z</time>
      </trkpt>
      <trkpt lat="45.35115" lon="5.73264">
        <ele>1136</ele>
        <time>2011-12-27T09:01:18.000Z</time>
      </trkpt>
      <trkpt lat="45.35116" lon="5.73256">
        <ele>1136.4000244141</ele>
        <time>2011-12-27T09:01:23.000Z</time>
      </trkpt>
      <trkpt lat="45.35122" lon="5.73249">
        <ele>1138</ele>
        <time>2011-12-27T09:01:29.000Z</time>
      </trkpt>
      <trkpt lat="45.35126" lon="5.73247">
        <ele>1135.5999755859</ele>
        <time>2011-12-27T09:01:40.000Z</time>
      </trkpt>
      <trkpt lat="45.35127" lon="5.73243">
        <ele>1139.4000244141</ele>
        <time>2011-12-27T09:01:43.000Z</time>
      </trkpt>
      <trkpt lat="45.35129" lon="5.73236">
        <ele>1142.4000244141</ele>
        <time>2011-12-27T09:01:49.000Z</time>
      </trkpt>
      <trkpt lat="45.35132" lon="5.7323">
        <ele>1141.1999511719</ele>
        <time>2011-12-27T09:01:55.000Z</time>
      </trkpt>
      <trkpt lat="45.35136" lon="5.73226">
        <ele>1144.8000488281</ele>
        <time>2011-12-27T09:02:00.000Z</time>
      </trkpt>
      <trkpt lat="45.35137" lon="5.73225">
        <ele>1145.4000244141</ele>
        <time>2011-12-27T09:02:01.000Z</time>
      </trkpt>
      <trkpt lat="45.35142" lon="5.73223">
        <ele>1145</ele>
        <time>2011-12-27T09:02:07.000Z</time>
      </trkpt>
      <trkpt lat="45.35148" lon="5.73215">
        <ele>1136.4000244141</ele>
        <time>2011-12-27T09:02:14.000Z</time>
      </trkpt>
      <trkpt lat="45.35157" lon="5.73209">
        <ele>1136.4000244141</ele>
        <time>2011-12-27T09:02:21.000Z</time>
      </trkpt>
      <trkpt lat="45.35161" lon="5.73209">
        <ele>1148.4000244141</ele>
        <time>2011-12-27T09:02:25.000Z</time>
      </trkpt>
      <trkpt lat="45.35164" lon="5.73209">
        <ele>1149.1999511719</ele>
        <time>2011-12-27T09:02:27.000Z</time>
      </trkpt>
      <trkpt lat="45.35166" lon="5.73211">
        <ele>1149</ele>
        <time>2011-12-27T09:02:32.000Z</time>
      </trkpt>
      <trkpt lat="45.3517" lon="5.73206">
        <ele>1156.4000244141</ele>
        <time>2011-12-27T09:02:38.000Z</time>
      </trkpt>
      <trkpt lat="45.35172" lon="5.73204">
        <ele>1154.5999755859</ele>
        <time>2011-12-27T09:02:40.000Z</time>
      </trkpt>
      <trkpt lat="45.35177" lon="5.73204">
        <ele>1152</ele>
        <time>2011-12-27T09:02:45.000Z</time>
      </trkpt>
      <trkpt lat="45.3518" lon="5.73201">
        <ele>1153</ele>
        <time>2011-12-27T09:02:49.000Z</time>
      </trkpt>
      <trkpt lat="45.35182" lon="5.73196">
        <ele>1158.5999755859</ele>
        <time>2011-12-27T09:02:55.000Z</time>
      </trkpt>
      <trkpt lat="45.35185" lon="5.73194">
        <ele>1154.8000488281</ele>
        <time>2011-12-27T09:03:00.000Z</time>
      </trkpt>
      <trkpt lat="45.35184" lon="5.73194">
        <ele>1156.5999755859</ele>
        <time>2011-12-27T09:03:02.000Z</time>
      </trkpt>
      <trkpt lat="45.35186" lon="5.73192">
        <ele>1156.1999511719</ele>
        <time>2011-12-27T09:03:04.000Z</time>
      </trkpt>
      <trkpt lat="45.35187" lon="5.73182">
        <ele>1156.4000244141</ele>
        <time>2011-12-27T09:03:10.000Z</time>
      </trkpt>
      <trkpt lat="45.35196" lon="5.73176">
        <ele>1158</ele>
        <time>2011-12-27T09:03:21.000Z</time>
      </trkpt>
      <trkpt lat="45.35198" lon="5.73175">
        <ele>1159.5999755859</ele>
        <time>2011-12-27T09:03:23.000Z</time>
      </trkpt>
      <trkpt lat="45.35199" lon="5.7317">
        <ele>1162</ele>
        <time>2011-12-27T09:03:27.000Z</time>
      </trkpt>
      <trkpt lat="45.35198" lon="5.73167">
        <ele>1162</ele>
        <time>2011-12-27T09:03:28.000Z</time>
      </trkpt>
      <trkpt lat="45.35196" lon="5.73153">
        <ele>1167.1999511719</ele>
        <time>2011-12-27T09:03:33.000Z</time>
      </trkpt>
      <trkpt lat="45.35197" lon="5.73147">
        <ele>1165.5999755859</ele>
        <time>2011-12-27T09:03:39.000Z</time>
      </trkpt>
      <trkpt lat="45.35197" lon="5.73143">
        <ele>1163.1999511719</ele>
        <time>2011-12-27T09:03:43.000Z</time>
      </trkpt>
      <trkpt lat="45.35204" lon="5.73135">
        <ele>1159.1999511719</ele>
        <time>2011-12-27T09:03:49.000Z</time>
      </trkpt>
      <trkpt lat="45.35204" lon="5.73134">
        <ele>1160.4000244141</ele>
        <time>2011-12-27T09:03:54.000Z</time>
      </trkpt>
      <trkpt lat="45.35203" lon="5.73137">
        <ele>1166</ele>
        <time>2011-12-27T09:03:58.000Z</time>
      </trkpt>
      <trkpt lat="45.35209" lon="5.73132">
        <ele>1165.5999755859</ele>
        <time>2011-12-27T09:04:06.000Z</time>
      </trkpt>
      <trkpt lat="45.35209" lon="5.73131">
        <ele>1167.4000244141</ele>
        <time>2011-12-27T09:04:09.000Z</time>
      </trkpt>
      <trkpt lat="45.35213" lon="5.73133">
        <ele>1166.1999511719</ele>
        <time>2011-12-27T09:04:14.000Z</time>
      </trkpt>
      <trkpt lat="45.35218" lon="5.73126">
        <ele>1171.1999511719</ele>
        <time>2011-12-27T09:04:21.000Z</time>
      </trkpt>
      <trkpt lat="45.3522" lon="5.73126">
        <ele>1170.8000488281</ele>
        <time>2011-12-27T09:04:22.000Z</time>
      </trkpt>
      <trkpt lat="45.35219" lon="5.73135">
        <ele>1170.5999755859</ele>
        <time>2011-12-27T09:04:28.000Z</time>
      </trkpt>
      <trkpt lat="45.3522" lon="5.73141">
        <ele>1171.8000488281</ele>
        <time>2011-12-27T09:04:30.000Z</time>
      </trkpt>
      <trkpt lat="45.35224" lon="5.73161">
        <ele>1174.4000244141</ele>
        <time>2011-12-27T09:04:38.000Z</time>
      </trkpt>
      <trkpt lat="45.35225" lon="5.73163">
        <ele>1174.5999755859</ele>
        <time>2011-12-27T09:04:39.000Z</time>
      </trkpt>
      <trkpt lat="45.35221" lon="5.73173">
        <ele>1172.8000488281</ele>
        <time>2011-12-27T09:04:45.000Z</time>
      </trkpt>
      <trkpt lat="45.35218" lon="5.73178">
        <ele>1176.8000488281</ele>
        <time>2011-12-27T09:04:50.000Z</time>
      </trkpt>
      <trkpt lat="45.35218" lon="5.73177">
        <ele>1174.1999511719</ele>
        <time>2011-12-27T09:04:56.000Z</time>
      </trkpt>
      <trkpt lat="45.35221" lon="5.73182">
        <ele>1178.8000488281</ele>
        <time>2011-12-27T09:05:00.000Z</time>
      </trkpt>
      <trkpt lat="45.35222" lon="5.7319">
        <ele>1177.1999511719</ele>
        <time>2011-12-27T09:05:04.000Z</time>
      </trkpt>
      <trkpt lat="45.3522" lon="5.73198">
        <ele>1181.1999511719</ele>
        <time>2011-12-27T09:05:09.000Z</time>
      </trkpt>
      <trkpt lat="45.3522" lon="5.73205">
        <ele>1178.8000488281</ele>
        <time>2011-12-27T09:05:14.000Z</time>
      </trkpt>
      <trkpt lat="45.3522" lon="5.73207">
        <ele>1178.8000488281</ele>
        <time>2011-12-27T09:05:15.000Z</time>
      </trkpt>
      <trkpt lat="45.35218" lon="5.73215">
        <ele>1182.8000488281</ele>
        <time>2011-12-27T09:05:22.000Z</time>
      </trkpt>
      <trkpt lat="45.35217" lon="5.73216">
        <ele>1184.1999511719</ele>
        <time>2011-12-27T09:05:24.000Z</time>
      </trkpt>
      <trkpt lat="45.35218" lon="5.73221">
        <ele>1182.5999755859</ele>
        <time>2011-12-27T09:05:28.000Z</time>
      </trkpt>
      <trkpt lat="45.35217" lon="5.7323">
        <ele>1183.8000488281</ele>
        <time>2011-12-27T09:05:34.000Z</time>
      </trkpt>
      <trkpt lat="45.35218" lon="5.73231">
        <ele>1184.8000488281</ele>
        <time>2011-12-27T09:05:35.000Z</time>
      </trkpt>
      <trkpt lat="45.35219" lon="5.73232">
        <ele>1186.5999755859</ele>
        <time>2011-12-27T09:05:38.000Z</time>
      </trkpt>
      <trkpt lat="45.35223" lon="5.73235">
        <ele>1185.1999511719</ele>
        <time>2011-12-27T09:05:44.000Z</time>
      </trkpt>
      <trkpt lat="45.35226" lon="5.73235">
        <ele>1185.5999755859</ele>
        <time>2011-12-27T09:05:51.000Z</time>
      </trkpt>
      <trkpt lat="45.35231" lon="5.73239">
        <ele>1185.4000244141</ele>
        <time>2011-12-27T09:05:58.000Z</time>
      </trkpt>
      <trkpt lat="45.35233" lon="5.73236">
        <ele>1187</ele>
        <time>2011-12-27T09:06:00.000Z</time>
      </trkpt>
      <trkpt lat="45.35236" lon="5.73233">
        <ele>1189</ele>
        <time>2011-12-27T09:06:05.000Z</time>
      </trkpt>
      <trkpt lat="45.35241" lon="5.73227">
        <ele>1190</ele>
        <time>2011-12-27T09:06:11.000Z</time>
      </trkpt>
      <trkpt lat="45.35246" lon="5.73222">
        <ele>1192.5999755859</ele>
        <time>2011-12-27T09:06:17.000Z</time>
      </trkpt>
      <trkpt lat="45.35247" lon="5.7322">
        <ele>1190.8000488281</ele>
        <time>2011-12-27T09:06:20.000Z</time>
      </trkpt>
      <trkpt lat="45.35249" lon="5.73214">
        <ele>1195</ele>
        <time>2011-12-27T09:06:25.000Z</time>
      </trkpt>
      <trkpt lat="45.35249" lon="5.73211">
        <ele>1194.8000488281</ele>
        <time>2011-12-27T09:06:28.000Z</time>
      </trkpt>
      <trkpt lat="45.35253" lon="5.73201">
        <ele>1195.5999755859</ele>
        <time>2011-12-27T09:06:35.000Z</time>
      </trkpt>
      <trkpt lat="45.35256" lon="5.73196">
        <ele>1196.4000244141</ele>
        <time>2011-12-27T09:06:41.000Z</time>
      </trkpt>
      <trkpt lat="45.35257" lon="5.73192">
        <ele>1195.5999755859</ele>
        <time>2011-12-27T09:06:45.000Z</time>
      </trkpt>
      <trkpt lat="45.35259" lon="5.73187">
        <ele>1198</ele>
        <time>2011-12-27T09:06:50.000Z</time>
      </trkpt>
      <trkpt lat="45.3526" lon="5.73184">
        <ele>1197.8000488281</ele>
        <time>2011-12-27T09:06:52.000Z</time>
      </trkpt>
      <trkpt lat="45.35262" lon="5.73176">
        <ele>1197.5999755859</ele>
        <time>2011-12-27T09:06:58.000Z</time>
      </trkpt>
      <trkpt lat="45.35268" lon="5.73168">
        <ele>1197.8000488281</ele>
        <time>2011-12-27T09:07:05.000Z</time>
      </trkpt>
      <trkpt lat="45.35272" lon="5.73165">
        <ele>1199.5999755859</ele>
        <time>2011-12-27T09:07:08.000Z</time>
      </trkpt>
      <trkpt lat="45.35276" lon="5.73159">
        <ele>1200.4000244141</ele>
        <time>2011-12-27T09:07:14.000Z</time>
      </trkpt>
      <trkpt lat="45.35278" lon="5.73155">
        <ele>1203.1999511719</ele>
        <time>2011-12-27T09:07:18.000Z</time>
      </trkpt>
      <trkpt lat="45.35284" lon="5.73156">
        <ele>1204.4000244141</ele>
        <time>2011-12-27T09:07:23.000Z</time>
      </trkpt>
      <trkpt lat="45.35285" lon="5.73155">
        <ele>1203.4000244141</ele>
        <time>2011-12-27T09:07:25.000Z</time>
      </trkpt>
      <trkpt lat="45.35285" lon="5.73149">
        <ele>1202.5999755859</ele>
        <time>2011-12-27T09:07:29.000Z</time>
      </trkpt>
      <trkpt lat="45.35284" lon="5.73139">
        <ele>1206</ele>
        <time>2011-12-27T09:07:34.000Z</time>
      </trkpt>
      <trkpt lat="45.35284" lon="5.73135">
        <ele>1204</ele>
        <time>2011-12-27T09:07:38.000Z</time>
      </trkpt>
      <trkpt lat="45.35286" lon="5.73132">
        <ele>1207.8000488281</ele>
        <time>2011-12-27T09:07:43.000Z</time>
      </trkpt>
      <trkpt lat="45.35287" lon="5.73125">
        <ele>1204.8000488281</ele>
        <time>2011-12-27T09:07:48.000Z</time>
      </trkpt>
      <trkpt lat="45.3529" lon="5.73122">
        <ele>1210.1999511719</ele>
        <time>2011-12-27T09:07:53.000Z</time>
      </trkpt>
      <trkpt lat="45.35292" lon="5.73116">
        <ele>1210.5999755859</ele>
        <time>2011-12-27T09:07:57.000Z</time>
      </trkpt>
      <trkpt lat="45.35295" lon="5.73111">
        <ele>1211</ele>
        <time>2011-12-27T09:08:03.000Z</time>
      </trkpt>
      <trkpt lat="45.35296" lon="5.73105">
        <ele>1208.5999755859</ele>
        <time>2011-12-27T09:08:07.000Z</time>
      </trkpt>
      <trkpt lat="45.35299" lon="5.73099">
        <ele>1211</ele>
        <time>2011-12-27T09:08:12.000Z</time>
      </trkpt>
      <trkpt lat="45.353" lon="5.73099">
        <ele>1212</ele>
        <time>2011-12-27T09:08:13.000Z</time>
      </trkpt>
      <trkpt lat="45.35302" lon="5.731">
        <ele>1210.5999755859</ele>
        <time>2011-12-27T09:08:16.000Z</time>
      </trkpt>
      <trkpt lat="45.35304" lon="5.73092">
        <ele>1213.8000488281</ele>
        <time>2011-12-27T09:08:20.000Z</time>
      </trkpt>
      <trkpt lat="45.35307" lon="5.73089">
        <ele>1213.4000244141</ele>
        <time>2011-12-27T09:08:24.000Z</time>
      </trkpt>
      <trkpt lat="45.35308" lon="5.73087">
        <ele>1211.1999511719</ele>
        <time>2011-12-27T09:08:27.000Z</time>
      </trkpt>
      <trkpt lat="45.35315" lon="5.73087">
        <ele>1213.8000488281</ele>
        <time>2011-12-27T09:08:34.000Z</time>
      </trkpt>
      <trkpt lat="45.35317" lon="5.73082">
        <ele>1216.5999755859</ele>
        <time>2011-12-27T09:08:39.000Z</time>
      </trkpt>
      <trkpt lat="45.35318" lon="5.73082">
        <ele>1217</ele>
        <time>2011-12-27T09:08:40.000Z</time>
      </trkpt>
      <trkpt lat="45.35319" lon="5.73081">
        <ele>1218.1999511719</ele>
        <time>2011-12-27T09:08:42.000Z</time>
      </trkpt>
      <trkpt lat="45.35323" lon="5.73076">
        <ele>1220.1999511719</ele>
        <time>2011-12-27T09:08:48.000Z</time>
      </trkpt>
      <trkpt lat="45.35325" lon="5.73073">
        <ele>1217</ele>
        <time>2011-12-27T09:08:54.000Z</time>
      </trkpt>
      <trkpt lat="45.35327" lon="5.73069">
        <ele>1221.4000244141</ele>
        <time>2011-12-27T09:08:59.000Z</time>
      </trkpt>
      <trkpt lat="45.35329" lon="5.7307">
        <ele>1218.4000244141</ele>
        <time>2011-12-27T09:09:04.000Z</time>
      </trkpt>
      <trkpt lat="45.35334" lon="5.7307">
        <ele>1223.8000488281</ele>
        <time>2011-12-27T09:09:10.000Z</time>
      </trkpt>
      <trkpt lat="45.35336" lon="5.73064">
        <ele>1221.4000244141</ele>
        <time>2011-12-27T09:09:15.000Z</time>
      </trkpt>
      <trkpt lat="45.35338" lon="5.7306">
        <ele>1221</ele>
        <time>2011-12-27T09:09:20.000Z</time>
      </trkpt>
      <trkpt lat="45.35339" lon="5.73049">
        <ele>1225.4000244141</ele>
        <time>2011-12-27T09:09:26.000Z</time>
      </trkpt>
      <trkpt lat="45.35339" lon="5.73045">
        <ele>1223.1999511719</ele>
        <time>2011-12-27T09:09:29.000Z</time>
      </trkpt>
      <trkpt lat="45.35341" lon="5.73038">
        <ele>1222</ele>
        <time>2011-12-27T09:09:34.000Z</time>
      </trkpt>
      <trkpt lat="45.35343" lon="5.73032">
        <ele>1225</ele>
        <time>2011-12-27T09:09:39.000Z</time>
      </trkpt>
      <trkpt lat="45.35348" lon="5.73037">
        <ele>1226</ele>
        <time>2011-12-27T09:09:45.000Z</time>
      </trkpt>
      <trkpt lat="45.35351" lon="5.73042">
        <ele>1227.8000488281</ele>
        <time>2011-12-27T09:09:49.000Z</time>
      </trkpt>
      <trkpt lat="45.35348" lon="5.73031">
        <ele>1228.8000488281</ele>
        <time>2011-12-27T09:10:01.000Z</time>
      </trkpt>
      <trkpt lat="45.35349" lon="5.73027">
        <ele>1230.1999511719</ele>
        <time>2011-12-27T09:10:11.000Z</time>
      </trkpt>
      <trkpt lat="45.35343" lon="5.73022">
        <ele>1229.8000488281</ele>
        <time>2011-12-27T09:10:19.000Z</time>
      </trkpt>
      <trkpt lat="45.35342" lon="5.73021">
        <ele>1231.5999755859</ele>
        <time>2011-12-27T09:10:29.000Z</time>
      </trkpt>
      <trkpt lat="45.35348" lon="5.73015">
        <ele>1230.5999755859</ele>
        <time>2011-12-27T09:10:40.000Z</time>
      </trkpt>
      <trkpt lat="45.35348" lon="5.73012">
        <ele>1232.8000488281</ele>
        <time>2011-12-27T09:10:43.000Z</time>
      </trkpt>
      <trkpt lat="45.35348" lon="5.73011">
        <ele>1232.8000488281</ele>
        <time>2011-12-27T09:10:44.000Z</time>
      </trkpt>
      <trkpt lat="45.35348" lon="5.73003">
        <ele>1236</ele>
        <time>2011-12-27T09:10:50.000Z</time>
      </trkpt>
      <trkpt lat="45.35347" lon="5.72994">
        <ele>1233.4000244141</ele>
        <time>2011-12-27T09:10:56.000Z</time>
      </trkpt>
      <trkpt lat="45.35347" lon="5.72992">
        <ele>1233.5999755859</ele>
        <time>2011-12-27T09:10:57.000Z</time>
      </trkpt>
      <trkpt lat="45.35346" lon="5.72984">
        <ele>1233</ele>
        <time>2011-12-27T09:11:03.000Z</time>
      </trkpt>
      <trkpt lat="45.35345" lon="5.72983">
        <ele>1238.4000244141</ele>
        <time>2011-12-27T09:11:08.000Z</time>
      </trkpt>
      <trkpt lat="45.35342" lon="5.72981">
        <ele>1240</ele>
        <time>2011-12-27T09:11:14.000Z</time>
      </trkpt>
      <trkpt lat="45.3534" lon="5.72979">
        <ele>1238.4000244141</ele>
        <time>2011-12-27T09:11:18.000Z</time>
      </trkpt>
      <trkpt lat="45.35335" lon="5.72977">
        <ele>1243.1999511719</ele>
        <time>2011-12-27T09:11:23.000Z</time>
      </trkpt>
      <trkpt lat="45.35333" lon="5.72967">
        <ele>1241.8000488281</ele>
        <time>2011-12-27T09:11:29.000Z</time>
      </trkpt>
      <trkpt lat="45.35333" lon="5.72966">
        <ele>1241.8000488281</ele>
        <time>2011-12-27T09:11:30.000Z</time>
      </trkpt>
      <trkpt lat="45.35333" lon="5.72965">
        <ele>1244</ele>
        <time>2011-12-27T09:11:33.000Z</time>
      </trkpt>
      <trkpt lat="45.35334" lon="5.72954">
        <ele>1242.4000244141</ele>
        <time>2011-12-27T09:11:39.000Z</time>
      </trkpt>
      <trkpt lat="45.35335" lon="5.72949">
        <ele>1245.8000488281</ele>
        <time>2011-12-27T09:11:45.000Z</time>
      </trkpt>
      <trkpt lat="45.35336" lon="5.72944">
        <ele>1248.8000488281</ele>
        <time>2011-12-27T09:11:50.000Z</time>
      </trkpt>
      <trkpt lat="45.35338" lon="5.72936">
        <ele>1248</ele>
        <time>2011-12-27T09:12:01.000Z</time>
      </trkpt>
      <trkpt lat="45.35339" lon="5.72932">
        <ele>1252</ele>
        <time>2011-12-27T09:12:06.000Z</time>
      </trkpt>
      <trkpt lat="45.3534" lon="5.72929">
        <ele>1249.8000488281</ele>
        <time>2011-12-27T09:12:08.000Z</time>
      </trkpt>
      <trkpt lat="45.35343" lon="5.72926">
        <ele>1251.8000488281</ele>
        <time>2011-12-27T09:12:14.000Z</time>
      </trkpt>
      <trkpt lat="45.35343" lon="5.72924">
        <ele>1253.8000488281</ele>
        <time>2011-12-27T09:12:17.000Z</time>
      </trkpt>
      <trkpt lat="45.35342" lon="5.72923">
        <ele>1252.4000244141</ele>
        <time>2011-12-27T09:12:19.000Z</time>
      </trkpt>
      <trkpt lat="45.35343" lon="5.72919">
        <ele>1255.5999755859</ele>
        <time>2011-12-27T09:12:24.000Z</time>
      </trkpt>
      <trkpt lat="45.35343" lon="5.72915">
        <ele>1257.5999755859</ele>
        <time>2011-12-27T09:12:31.000Z</time>
      </trkpt>
      <trkpt lat="45.35342" lon="5.72907">
        <ele>1258.8000488281</ele>
        <time>2011-12-27T09:12:39.000Z</time>
      </trkpt>
      <trkpt lat="45.35343" lon="5.72905">
        <ele>1257.1999511719</ele>
        <time>2011-12-27T09:12:42.000Z</time>
      </trkpt>
      <trkpt lat="45.35343" lon="5.729">
        <ele>1259</ele>
        <time>2011-12-27T09:12:48.000Z</time>
      </trkpt>
      <trkpt lat="45.35344" lon="5.72895">
        <ele>1262.4000244141</ele>
        <time>2011-12-27T09:12:53.000Z</time>
      </trkpt>
      <trkpt lat="45.35345" lon="5.72887">
        <ele>1263.5999755859</ele>
        <time>2011-12-27T09:13:00.000Z</time>
      </trkpt>
      <trkpt lat="45.35343" lon="5.7288">
        <ele>1261.4000244141</ele>
        <time>2011-12-27T09:13:06.000Z</time>
      </trkpt>
      <trkpt lat="45.35344" lon="5.72878">
        <ele>1260.5999755859</ele>
        <time>2011-12-27T09:13:08.000Z</time>
      </trkpt>
      <trkpt lat="45.35345" lon="5.72872">
        <ele>1262.8000488281</ele>
        <time>2011-12-27T09:13:15.000Z</time>
      </trkpt>
      <trkpt lat="45.35345" lon="5.72871">
        <ele>1262</ele>
        <time>2011-12-27T09:13:16.000Z</time>
      </trkpt>
      <trkpt lat="45.35348" lon="5.72867">
        <ele>1266</ele>
        <time>2011-12-27T09:13:23.000Z</time>
      </trkpt>
      <trkpt lat="45.35348" lon="5.7286">
        <ele>1267.8000488281</ele>
        <time>2011-12-27T09:13:29.000Z</time>
      </trkpt>
      <trkpt lat="45.35348" lon="5.72855">
        <ele>1269.5999755859</ele>
        <time>2011-12-27T09:13:45.000Z</time>
      </trkpt>
      <trkpt lat="45.35349" lon="5.72852">
        <ele>1269</ele>
        <time>2011-12-27T09:13:53.000Z</time>
      </trkpt>
      <trkpt lat="45.35349" lon="5.7285">
        <ele>1270.5999755859</ele>
        <time>2011-12-27T09:13:56.000Z</time>
      </trkpt>
      <trkpt lat="45.3535" lon="5.72845">
        <ele>1268</ele>
        <time>2011-12-27T09:14:00.000Z</time>
      </trkpt>
      <trkpt lat="45.3535" lon="5.72841">
        <ele>1273.8000488281</ele>
        <time>2011-12-27T09:14:08.000Z</time>
      </trkpt>
      <trkpt lat="45.35351" lon="5.72836">
        <ele>1275</ele>
        <time>2011-12-27T09:14:14.000Z</time>
      </trkpt>
      <trkpt lat="45.35349" lon="5.72829">
        <ele>1276.1999511719</ele>
        <time>2011-12-27T09:14:21.000Z</time>
      </trkpt>
      <trkpt lat="45.35348" lon="5.72826">
        <ele>1277.1999511719</ele>
        <time>2011-12-27T09:14:26.000Z</time>
      </trkpt>
      <trkpt lat="45.3535" lon="5.72823">
        <ele>1278</ele>
        <time>2011-12-27T09:14:32.000Z</time>
      </trkpt>
      <trkpt lat="45.3535" lon="5.72819">
        <ele>1275.4000244141</ele>
        <time>2011-12-27T09:14:36.000Z</time>
      </trkpt>
      <trkpt lat="45.35348" lon="5.7281">
        <ele>1277.4000244141</ele>
        <time>2011-12-27T09:14:41.000Z</time>
      </trkpt>
      <trkpt lat="45.35346" lon="5.72805">
        <ele>1281.1999511719</ele>
        <time>2011-12-27T09:14:47.000Z</time>
      </trkpt>
      <trkpt lat="45.35346" lon="5.72795">
        <ele>1279.4000244141</ele>
        <time>2011-12-27T09:14:55.000Z</time>
      </trkpt>
      <trkpt lat="45.35347" lon="5.72794">
        <ele>1282</ele>
        <time>2011-12-27T09:14:59.000Z</time>
      </trkpt>
      <trkpt lat="45.35346" lon="5.72789">
        <ele>1281.8000488281</ele>
        <time>2011-12-27T09:15:04.000Z</time>
      </trkpt>
      <trkpt lat="45.35346" lon="5.72781">
        <ele>1284.4000244141</ele>
        <time>2011-12-27T09:15:10.000Z</time>
      </trkpt>
      <trkpt lat="45.35347" lon="5.72778">
        <ele>1284</ele>
        <time>2011-12-27T09:15:14.000Z</time>
      </trkpt>
      <trkpt lat="45.35348" lon="5.72772">
        <ele>1285</ele>
        <time>2011-12-27T09:15:22.000Z</time>
      </trkpt>
      <trkpt lat="45.35351" lon="5.72769">
        <ele>1286</ele>
        <time>2011-12-27T09:15:27.000Z</time>
      </trkpt>
      <trkpt lat="45.35351" lon="5.72765">
        <ele>1287.5999755859</ele>
        <time>2011-12-27T09:15:31.000Z</time>
      </trkpt>
      <trkpt lat="45.35353" lon="5.72759">
        <ele>1288.8000488281</ele>
        <time>2011-12-27T09:15:38.000Z</time>
      </trkpt>
      <trkpt lat="45.35352" lon="5.7275">
        <ele>1290.5999755859</ele>
        <time>2011-12-27T09:15:49.000Z</time>
      </trkpt>
      <trkpt lat="45.3535" lon="5.72747">
        <ele>1292.5999755859</ele>
        <time>2011-12-27T09:15:56.000Z</time>
      </trkpt>
      <trkpt lat="45.3535" lon="5.72745">
        <ele>1293.5999755859</ele>
        <time>2011-12-27T09:15:58.000Z</time>
      </trkpt>
      <trkpt lat="45.35351" lon="5.72733">
        <ele>1291</ele>
        <time>2011-12-27T09:16:08.000Z</time>
      </trkpt>
      <trkpt lat="45.3535" lon="5.7273">
        <ele>1292.5999755859</ele>
        <time>2011-12-27T09:16:12.000Z</time>
      </trkpt>
      <trkpt lat="45.35352" lon="5.72723">
        <ele>1293.5999755859</ele>
        <time>2011-12-27T09:16:18.000Z</time>
      </trkpt>
      <trkpt lat="45.35355" lon="5.72718">
        <ele>1295.1999511719</ele>
        <time>2011-12-27T09:16:25.000Z</time>
      </trkpt>
      <trkpt lat="45.35352" lon="5.72721">
        <ele>1294.8000488281</ele>
        <time>2011-12-27T09:16:30.000Z</time>
      </trkpt>
      <trkpt lat="45.35352" lon="5.72719">
        <ele>1295.4000244141</ele>
        <time>2011-12-27T09:16:38.000Z</time>
      </trkpt>
      <trkpt lat="45.35349" lon="5.72711">
        <ele>1297.1999511719</ele>
        <time>2011-12-27T09:16:45.000Z</time>
      </trkpt>
      <trkpt lat="45.35351" lon="5.72708">
        <ele>1295.1999511719</ele>
        <time>2011-12-27T09:16:47.000Z</time>
      </trkpt>
      <trkpt lat="45.35351" lon="5.72704">
        <ele>1296.4000244141</ele>
        <time>2011-12-27T09:16:50.000Z</time>
      </trkpt>
      <trkpt lat="45.35351" lon="5.72698">
        <ele>1297</ele>
        <time>2011-12-27T09:16:54.000Z</time>
      </trkpt>
      <trkpt lat="45.35349" lon="5.72687">
        <ele>1298.5999755859</ele>
        <time>2011-12-27T09:17:01.000Z</time>
      </trkpt>
      <trkpt lat="45.35347" lon="5.72682">
        <ele>1299.4000244141</ele>
        <time>2011-12-27T09:17:08.000Z</time>
      </trkpt>
      <trkpt lat="45.35347" lon="5.72672">
        <ele>1301.5999755859</ele>
        <time>2011-12-27T09:17:17.000Z</time>
      </trkpt>
      <trkpt lat="45.35348" lon="5.72666">
        <ele>1299.5999755859</ele>
        <time>2011-12-27T09:17:23.000Z</time>
      </trkpt>
      <trkpt lat="45.35348" lon="5.7266">
        <ele>1301.8000488281</ele>
        <time>2011-12-27T09:17:27.000Z</time>
      </trkpt>
      <trkpt lat="45.35346" lon="5.72653">
        <ele>1300</ele>
        <time>2011-12-27T09:17:33.000Z</time>
      </trkpt>
      <trkpt lat="45.35346" lon="5.72652">
        <ele>1301.5999755859</ele>
        <time>2011-12-27T09:17:36.000Z</time>
      </trkpt>
      <trkpt lat="45.35347" lon="5.72647">
        <ele>1300.5999755859</ele>
        <time>2011-12-27T09:17:42.000Z</time>
      </trkpt>
      <trkpt lat="45.3535" lon="5.72639">
        <ele>1305.8000488281</ele>
        <time>2011-12-27T09:17:50.000Z</time>
      </trkpt>
      <trkpt lat="45.35351" lon="5.72638">
        <ele>1307</ele>
        <time>2011-12-27T09:17:52.000Z</time>
      </trkpt>
      <trkpt lat="45.35348" lon="5.72634">
        <ele>1307.8000488281</ele>
        <time>2011-12-27T09:17:57.000Z</time>
      </trkpt>
      <trkpt lat="45.35345" lon="5.72628">
        <ele>1307.4000244141</ele>
        <time>2011-12-27T09:18:07.000Z</time>
      </trkpt>
      <trkpt lat="45.35347" lon="5.72623">
        <ele>1309</ele>
        <time>2011-12-27T09:18:13.000Z</time>
      </trkpt>
      <trkpt lat="45.35349" lon="5.72616">
        <ele>1311.4000244141</ele>
        <time>2011-12-27T09:18:19.000Z</time>
      </trkpt>
      <trkpt lat="45.35347" lon="5.72613">
        <ele>1313.4000244141</ele>
        <time>2011-12-27T09:18:21.000Z</time>
      </trkpt>
      <trkpt lat="45.35341" lon="5.72596">
        <ele>1317.1999511719</ele>
        <time>2011-12-27T09:18:42.000Z</time>
      </trkpt>
      <trkpt lat="45.35339" lon="5.72592">
        <ele>1315.5999755859</ele>
        <time>2011-12-27T09:18:45.000Z</time>
      </trkpt>
      <trkpt lat="45.35337" lon="5.72588">
        <ele>1319.8000488281</ele>
        <time>2011-12-27T09:18:51.000Z</time>
      </trkpt>
      <trkpt lat="45.35335" lon="5.72587">
        <ele>1318.1999511719</ele>
        <time>2011-12-27T09:18:54.000Z</time>
      </trkpt>
      <trkpt lat="45.35334" lon="5.72584">
        <ele>1320.8000488281</ele>
        <time>2011-12-27T09:18:58.000Z</time>
      </trkpt>
      <trkpt lat="45.35336" lon="5.72581">
        <ele>1318.8000488281</ele>
        <time>2011-12-27T09:19:01.000Z</time>
      </trkpt>
      <trkpt lat="45.35338" lon="5.72577">
        <ele>1320.1999511719</ele>
        <time>2011-12-27T09:19:04.000Z</time>
      </trkpt>
      <trkpt lat="45.35335" lon="5.72568">
        <ele>1318.1999511719</ele>
        <time>2011-12-27T09:19:23.000Z</time>
      </trkpt>
      <trkpt lat="45.35332" lon="5.72563">
        <ele>1319.4000244141</ele>
        <time>2011-12-27T09:19:28.000Z</time>
      </trkpt>
      <trkpt lat="45.35331" lon="5.72558">
        <ele>1321.5999755859</ele>
        <time>2011-12-27T09:19:35.000Z</time>
      </trkpt>
      <trkpt lat="45.35332" lon="5.7256">
        <ele>1324.1999511719</ele>
        <time>2011-12-27T09:19:41.000Z</time>
      </trkpt>
      <trkpt lat="45.35329" lon="5.72552">
        <ele>1322.5999755859</ele>
        <time>2011-12-27T09:20:09.000Z</time>
      </trkpt>
      <trkpt lat="45.35327" lon="5.72558">
        <ele>1322.4000244141</ele>
        <time>2011-12-27T09:20:15.000Z</time>
      </trkpt>
      <trkpt lat="45.35328" lon="5.72561">
        <ele>1321.5999755859</ele>
        <time>2011-12-27T09:20:21.000Z</time>
      </trkpt>
      <trkpt lat="45.35324" lon="5.72565">
        <ele>1322.4000244141</ele>
        <time>2011-12-27T09:20:28.000Z</time>
      </trkpt>
      <trkpt lat="45.35329" lon="5.72551">
        <ele>1322.5999755859</ele>
        <time>2011-12-27T09:21:02.000Z</time>
      </trkpt>
      <trkpt lat="45.3533" lon="5.72554">
        <ele>1322.1999511719</ele>
        <time>2011-12-27T09:21:11.000Z</time>
      </trkpt>
      <trkpt lat="45.35328" lon="5.72561">
        <ele>1324.4000244141</ele>
        <time>2011-12-27T09:21:18.000Z</time>
      </trkpt>
      <trkpt lat="45.35336" lon="5.72551">
        <ele>1323.4000244141</ele>
        <time>2011-12-27T09:21:52.000Z</time>
      </trkpt>
      <trkpt lat="45.35333" lon="5.72549">
        <ele>1324.8000488281</ele>
        <time>2011-12-27T09:21:54.000Z</time>
      </trkpt>
      <trkpt lat="45.35331" lon="5.72549">
        <ele>1322.4000244141</ele>
        <time>2011-12-27T09:21:56.000Z</time>
      </trkpt>
      <trkpt lat="45.35328" lon="5.72547">
        <ele>1324.4000244141</ele>
        <time>2011-12-27T09:22:02.000Z</time>
      </trkpt>
      <trkpt lat="45.35325" lon="5.72542">
        <ele>1325.8000488281</ele>
        <time>2011-12-27T09:22:08.000Z</time>
      </trkpt>
      <trkpt lat="45.35325" lon="5.72538">
        <ele>1327</ele>
        <time>2011-12-27T09:22:10.000Z</time>
      </trkpt>
      <trkpt lat="45.35321" lon="5.7253">
        <ele>1327</ele>
        <time>2011-12-27T09:22:17.000Z</time>
      </trkpt>
      <trkpt lat="45.35321" lon="5.72522">
        <ele>1328.5999755859</ele>
        <time>2011-12-27T09:22:25.000Z</time>
      </trkpt>
      <trkpt lat="45.35322" lon="5.72518">
        <ele>1331.4000244141</ele>
        <time>2011-12-27T09:22:30.000Z</time>
      </trkpt>
      <trkpt lat="45.35318" lon="5.72512">
        <ele>1331.5999755859</ele>
        <time>2011-12-27T09:22:37.000Z</time>
      </trkpt>
      <trkpt lat="45.35316" lon="5.7251">
        <ele>1333.5999755859</ele>
        <time>2011-12-27T09:22:40.000Z</time>
      </trkpt>
      <trkpt lat="45.35313" lon="5.72514">
        <ele>1332.8000488281</ele>
        <time>2011-12-27T09:22:42.000Z</time>
      </trkpt>
      <trkpt lat="45.35309" lon="5.7251">
        <ele>1335.4000244141</ele>
        <time>2011-12-27T09:22:47.000Z</time>
      </trkpt>
      <trkpt lat="45.35308" lon="5.72492">
        <ele>1336.8000488281</ele>
        <time>2011-12-27T09:23:03.000Z</time>
      </trkpt>
      <trkpt lat="45.35312" lon="5.72488">
        <ele>1338</ele>
        <time>2011-12-27T09:23:14.000Z</time>
      </trkpt>
      <trkpt lat="45.35314" lon="5.72486">
        <ele>1340.8000488281</ele>
        <time>2011-12-27T09:23:20.000Z</time>
      </trkpt>
      <trkpt lat="45.35316" lon="5.72486">
        <ele>1338.5999755859</ele>
        <time>2011-12-27T09:23:24.000Z</time>
      </trkpt>
      <trkpt lat="45.35321" lon="5.72489">
        <ele>1339.1999511719</ele>
        <time>2011-12-27T09:23:30.000Z</time>
      </trkpt>
      <trkpt lat="45.35323" lon="5.72487">
        <ele>1339.5999755859</ele>
        <time>2011-12-27T09:23:36.000Z</time>
      </trkpt>
      <trkpt lat="45.3532" lon="5.7248">
        <ele>1342</ele>
        <time>2011-12-27T09:23:41.000Z</time>
      </trkpt>
      <trkpt lat="45.35316" lon="5.72481">
        <ele>1342.5999755859</ele>
        <time>2011-12-27T09:23:46.000Z</time>
      </trkpt>
      <trkpt lat="45.3531" lon="5.72475">
        <ele>1343.8000488281</ele>
        <time>2011-12-27T09:23:53.000Z</time>
      </trkpt>
      <trkpt lat="45.35303" lon="5.72471">
        <ele>1342.8000488281</ele>
        <time>2011-12-27T09:23:59.000Z</time>
      </trkpt>
      <trkpt lat="45.35299" lon="5.72466">
        <ele>1345.4000244141</ele>
        <time>2011-12-27T09:24:06.000Z</time>
      </trkpt>
      <trkpt lat="45.35295" lon="5.72458">
        <ele>1345.8000488281</ele>
        <time>2011-12-27T09:24:13.000Z</time>
      </trkpt>
      <trkpt lat="45.35292" lon="5.7245">
        <ele>1347.1999511719</ele>
        <time>2011-12-27T09:24:18.000Z</time>
      </trkpt>
      <trkpt lat="45.3529" lon="5.72444">
        <ele>1347.4000244141</ele>
        <time>2011-12-27T09:24:24.000Z</time>
      </trkpt>
      <trkpt lat="45.35289" lon="5.72438">
        <ele>1350.4000244141</ele>
        <time>2011-12-27T09:24:30.000Z</time>
      </trkpt>
      <trkpt lat="45.35287" lon="5.72433">
        <ele>1348.1999511719</ele>
        <time>2011-12-27T09:24:34.000Z</time>
      </trkpt>
      <trkpt lat="45.35284" lon="5.72431">
        <ele>1350.8000488281</ele>
        <time>2011-12-27T09:24:39.000Z</time>
      </trkpt>
      <trkpt lat="45.35277" lon="5.72431">
        <ele>1350.4000244141</ele>
        <time>2011-12-27T09:24:46.000Z</time>
      </trkpt>
      <trkpt lat="45.35272" lon="5.7242">
        <ele>1356.1999511719</ele>
        <time>2011-12-27T09:24:56.000Z</time>
      </trkpt>
      <trkpt lat="45.35266" lon="5.72418">
        <ele>1356</ele>
        <time>2011-12-27T09:25:02.000Z</time>
      </trkpt>
      <trkpt lat="45.35262" lon="5.72415">
        <ele>1356.5999755859</ele>
        <time>2011-12-27T09:25:13.000Z</time>
      </trkpt>
      <trkpt lat="45.35253" lon="5.72409">
        <ele>1357.4000244141</ele>
        <time>2011-12-27T09:25:20.000Z</time>
      </trkpt>
      <trkpt lat="45.35249" lon="5.72407">
        <ele>1357</ele>
        <time>2011-12-27T09:25:25.000Z</time>
      </trkpt>
      <trkpt lat="45.35243" lon="5.72406">
        <ele>1357.8000488281</ele>
        <time>2011-12-27T09:25:30.000Z</time>
      </trkpt>
      <trkpt lat="45.35241" lon="5.72401">
        <ele>1356.1999511719</ele>
        <time>2011-12-27T09:25:33.000Z</time>
      </trkpt>
      <trkpt lat="45.35235" lon="5.72389">
        <ele>1358.8000488281</ele>
        <time>2011-12-27T09:25:40.000Z</time>
      </trkpt>
      <trkpt lat="45.35233" lon="5.72385">
        <ele>1359.8000488281</ele>
        <time>2011-12-27T09:25:44.000Z</time>
      </trkpt>
      <trkpt lat="45.35231" lon="5.72385">
        <ele>1360.1999511719</ele>
        <time>2011-12-27T09:25:49.000Z</time>
      </trkpt>
      <trkpt lat="45.3523" lon="5.72385">
        <ele>1358.5999755859</ele>
        <time>2011-12-27T09:25:51.000Z</time>
      </trkpt>
      <trkpt lat="45.35225" lon="5.72386">
        <ele>1359.4000244141</ele>
        <time>2011-12-27T09:26:00.000Z</time>
      </trkpt>
      <trkpt lat="45.35222" lon="5.72387">
        <ele>1361</ele>
        <time>2011-12-27T09:26:04.000Z</time>
      </trkpt>
      <trkpt lat="45.35225" lon="5.72378">
        <ele>1363</ele>
        <time>2011-12-27T09:26:10.000Z</time>
      </trkpt>
      <trkpt lat="45.3523" lon="5.72373">
        <ele>1361.5999755859</ele>
        <time>2011-12-27T09:26:16.000Z</time>
      </trkpt>
      <trkpt lat="45.35234" lon="5.72367">
        <ele>1367.1999511719</ele>
        <time>2011-12-27T09:26:23.000Z</time>
      </trkpt>
      <trkpt lat="45.35235" lon="5.72366">
        <ele>1366.1999511719</ele>
        <time>2011-12-27T09:26:28.000Z</time>
      </trkpt>
      <trkpt lat="45.35238" lon="5.7236">
        <ele>1367.4000244141</ele>
        <time>2011-12-27T09:26:32.000Z</time>
      </trkpt>
      <trkpt lat="45.35239" lon="5.7236">
        <ele>1368.4000244141</ele>
        <time>2011-12-27T09:26:37.000Z</time>
      </trkpt>
      <trkpt lat="45.35236" lon="5.72356">
        <ele>1368</ele>
        <time>2011-12-27T09:26:39.000Z</time>
      </trkpt>
      <trkpt lat="45.35231" lon="5.7236">
        <ele>1369.4000244141</ele>
        <time>2011-12-27T09:26:44.000Z</time>
      </trkpt>
      <trkpt lat="45.35228" lon="5.72361">
        <ele>1369.1999511719</ele>
        <time>2011-12-27T09:26:48.000Z</time>
      </trkpt>
      <trkpt lat="45.35225" lon="5.72362">
        <ele>1366.5999755859</ele>
        <time>2011-12-27T09:26:52.000Z</time>
      </trkpt>
      <trkpt lat="45.35223" lon="5.72358">
        <ele>1369</ele>
        <time>2011-12-27T09:26:59.000Z</time>
      </trkpt>
      <trkpt lat="45.3522" lon="5.72351">
        <ele>1371.1999511719</ele>
        <time>2011-12-27T09:27:06.000Z</time>
      </trkpt>
      <trkpt lat="45.35227" lon="5.72347">
        <ele>1375</ele>
        <time>2011-12-27T09:27:11.000Z</time>
      </trkpt>
      <trkpt lat="45.35236" lon="5.7234">
        <ele>1378.1999511719</ele>
        <time>2011-12-27T09:27:27.000Z</time>
      </trkpt>
      <trkpt lat="45.35238" lon="5.72339">
        <ele>1377.1999511719</ele>
        <time>2011-12-27T09:27:31.000Z</time>
      </trkpt>
      <trkpt lat="45.35237" lon="5.72339">
        <ele>1378.1999511719</ele>
        <time>2011-12-27T09:27:36.000Z</time>
      </trkpt>
      <trkpt lat="45.35233" lon="5.72336">
        <ele>1379.8000488281</ele>
        <time>2011-12-27T09:27:41.000Z</time>
      </trkpt>
      <trkpt lat="45.35226" lon="5.72339">
        <ele>1378.4000244141</ele>
        <time>2011-12-27T09:27:46.000Z</time>
      </trkpt>
      <trkpt lat="45.35221" lon="5.72338">
        <ele>1378.8000488281</ele>
        <time>2011-12-27T09:27:53.000Z</time>
      </trkpt>
      <trkpt lat="45.35217" lon="5.72335">
        <ele>1379.8000488281</ele>
        <time>2011-12-27T09:27:57.000Z</time>
      </trkpt>
      <trkpt lat="45.35216" lon="5.72331">
        <ele>1378.5999755859</ele>
        <time>2011-12-27T09:28:02.000Z</time>
      </trkpt>
      <trkpt lat="45.35229" lon="5.72316">
        <ele>1385.1999511719</ele>
        <time>2011-12-27T09:28:25.000Z</time>
      </trkpt>
      <trkpt lat="45.35227" lon="5.72313">
        <ele>1386.5999755859</ele>
        <time>2011-12-27T09:28:28.000Z</time>
      </trkpt>
      <trkpt lat="45.35221" lon="5.72312">
        <ele>1387.4000244141</ele>
        <time>2011-12-27T09:28:35.000Z</time>
      </trkpt>
      <trkpt lat="45.35219" lon="5.72311">
        <ele>1388.1999511719</ele>
        <time>2011-12-27T09:28:38.000Z</time>
      </trkpt>
      <trkpt lat="45.35214" lon="5.7231">
        <ele>1388</ele>
        <time>2011-12-27T09:28:44.000Z</time>
      </trkpt>
      <trkpt lat="45.35207" lon="5.72312">
        <ele>1391.1999511719</ele>
        <time>2011-12-27T09:28:56.000Z</time>
      </trkpt>
      <trkpt lat="45.35202" lon="5.72314">
        <ele>1392.1999511719</ele>
        <time>2011-12-27T09:29:02.000Z</time>
      </trkpt>
      <trkpt lat="45.35198" lon="5.72313">
        <ele>1392.8000488281</ele>
        <time>2011-12-27T09:29:07.000Z</time>
      </trkpt>
      <trkpt lat="45.35195" lon="5.7231">
        <ele>1392</ele>
        <time>2011-12-27T09:29:14.000Z</time>
      </trkpt>
      <trkpt lat="45.35191" lon="5.72313">
        <ele>1392.4000244141</ele>
        <time>2011-12-27T09:29:19.000Z</time>
      </trkpt>
      <trkpt lat="45.35191" lon="5.72312">
        <ele>1391.5999755859</ele>
        <time>2011-12-27T09:29:21.000Z</time>
      </trkpt>
      <trkpt lat="45.35191" lon="5.72309">
        <ele>1394.5999755859</ele>
        <time>2011-12-27T09:29:26.000Z</time>
      </trkpt>
      <trkpt lat="45.35195" lon="5.72302">
        <ele>1393.8000488281</ele>
        <time>2011-12-27T09:29:31.000Z</time>
      </trkpt>
      <trkpt lat="45.35197" lon="5.72298">
        <ele>1394.5999755859</ele>
        <time>2011-12-27T09:29:36.000Z</time>
      </trkpt>
      <trkpt lat="45.35198" lon="5.72298">
        <ele>1397.1999511719</ele>
        <time>2011-12-27T09:29:39.000Z</time>
      </trkpt>
      <trkpt lat="45.35201" lon="5.72291">
        <ele>1394.8000488281</ele>
        <time>2011-12-27T09:29:48.000Z</time>
      </trkpt>
      <trkpt lat="45.35201" lon="5.72289">
        <ele>1397.5999755859</ele>
        <time>2011-12-27T09:29:50.000Z</time>
      </trkpt>
      <trkpt lat="45.35207" lon="5.72279">
        <ele>1400.4000244141</ele>
        <time>2011-12-27T09:29:58.000Z</time>
      </trkpt>
      <trkpt lat="45.35207" lon="5.72278">
        <ele>1400.8000488281</ele>
        <time>2011-12-27T09:29:59.000Z</time>
      </trkpt>
      <trkpt lat="45.35202" lon="5.72278">
        <ele>1399</ele>
        <time>2011-12-27T09:30:10.000Z</time>
      </trkpt>
      <trkpt lat="45.35199" lon="5.7228">
        <ele>1400.5999755859</ele>
        <time>2011-12-27T09:30:14.000Z</time>
      </trkpt>
      <trkpt lat="45.35196" lon="5.72279">
        <ele>1402</ele>
        <time>2011-12-27T09:30:20.000Z</time>
      </trkpt>
      <trkpt lat="45.35193" lon="5.72279">
        <ele>1401.8000488281</ele>
        <time>2011-12-27T09:30:24.000Z</time>
      </trkpt>
      <trkpt lat="45.35188" lon="5.72285">
        <ele>1403</ele>
        <time>2011-12-27T09:30:29.000Z</time>
      </trkpt>
      <trkpt lat="45.35188" lon="5.72271">
        <ele>1404.5999755859</ele>
        <time>2011-12-27T09:30:38.000Z</time>
      </trkpt>
      <trkpt lat="45.35186" lon="5.72268">
        <ele>1408</ele>
        <time>2011-12-27T09:30:48.000Z</time>
      </trkpt>
      <trkpt lat="45.35184" lon="5.7227">
        <ele>1407.5999755859</ele>
        <time>2011-12-27T09:30:58.000Z</time>
      </trkpt>
      <trkpt lat="45.35177" lon="5.72276">
        <ele>1409.8000488281</ele>
        <time>2011-12-27T09:31:04.000Z</time>
      </trkpt>
      <trkpt lat="45.35171" lon="5.72278">
        <ele>1410.8000488281</ele>
        <time>2011-12-27T09:31:12.000Z</time>
      </trkpt>
      <trkpt lat="45.35166" lon="5.72272">
        <ele>1415.8000488281</ele>
        <time>2011-12-27T09:31:25.000Z</time>
      </trkpt>
      <trkpt lat="45.35163" lon="5.72269">
        <ele>1415</ele>
        <time>2011-12-27T09:31:30.000Z</time>
      </trkpt>
      <trkpt lat="45.35164" lon="5.7227">
        <ele>1417</ele>
        <time>2011-12-27T09:31:32.000Z</time>
      </trkpt>
      <trkpt lat="45.35162" lon="5.72271">
        <ele>1415.8000488281</ele>
        <time>2011-12-27T09:31:35.000Z</time>
      </trkpt>
      <trkpt lat="45.35163" lon="5.72274">
        <ele>1418.1999511719</ele>
        <time>2011-12-27T09:31:40.000Z</time>
      </trkpt>
      <trkpt lat="45.3516" lon="5.7228">
        <ele>1418</ele>
        <time>2011-12-27T09:31:46.000Z</time>
      </trkpt>
      <trkpt lat="45.35159" lon="5.72281">
        <ele>1419.4000244141</ele>
        <time>2011-12-27T09:31:48.000Z</time>
      </trkpt>
      <trkpt lat="45.35159" lon="5.72276">
        <ele>1420.4000244141</ele>
        <time>2011-12-27T09:31:53.000Z</time>
      </trkpt>
      <trkpt lat="45.35156" lon="5.72273">
        <ele>1422.1999511719</ele>
        <time>2011-12-27T09:32:00.000Z</time>
      </trkpt>
      <trkpt lat="45.35154" lon="5.72272">
        <ele>1421.1999511719</ele>
        <time>2011-12-27T09:32:02.000Z</time>
      </trkpt>
      <trkpt lat="45.35149" lon="5.72272">
        <ele>1423.5999755859</ele>
        <time>2011-12-27T09:32:07.000Z</time>
      </trkpt>
      <trkpt lat="45.35147" lon="5.7227">
        <ele>1421.5999755859</ele>
        <time>2011-12-27T09:32:10.000Z</time>
      </trkpt>
      <trkpt lat="45.35144" lon="5.72264">
        <ele>1424</ele>
        <time>2011-12-27T09:32:17.000Z</time>
      </trkpt>
      <trkpt lat="45.35144" lon="5.72263">
        <ele>1424.4000244141</ele>
        <time>2011-12-27T09:32:18.000Z</time>
      </trkpt>
      <trkpt lat="45.35141" lon="5.72258">
        <ele>1426.5999755859</ele>
        <time>2011-12-27T09:32:25.000Z</time>
      </trkpt>
      <trkpt lat="45.35135" lon="5.72253">
        <ele>1427.4000244141</ele>
        <time>2011-12-27T09:32:31.000Z</time>
      </trkpt>
      <trkpt lat="45.35132" lon="5.72249">
        <ele>1428.4000244141</ele>
        <time>2011-12-27T09:32:37.000Z</time>
      </trkpt>
      <trkpt lat="45.35123" lon="5.72243">
        <ele>1428.1999511719</ele>
        <time>2011-12-27T09:32:45.000Z</time>
      </trkpt>
      <trkpt lat="45.3512" lon="5.72241">
        <ele>1429.4000244141</ele>
        <time>2011-12-27T09:33:45.000Z</time>
      </trkpt>
      <trkpt lat="45.35117" lon="5.72238">
        <ele>1429.5999755859</ele>
        <time>2011-12-27T09:33:59.000Z</time>
      </trkpt>
      <trkpt lat="45.35116" lon="5.72238">
        <ele>1429.8000488281</ele>
        <time>2011-12-27T09:34:04.000Z</time>
      </trkpt>
      <trkpt lat="45.35114" lon="5.72244">
        <ele>1429.5999755859</ele>
        <time>2011-12-27T09:34:31.000Z</time>
      </trkpt>
      <trkpt lat="45.35112" lon="5.72249">
        <ele>1430</ele>
        <time>2011-12-27T09:34:39.000Z</time>
      </trkpt>
      <trkpt lat="45.35117" lon="5.72249">
        <ele>1430.1999511719</ele>
        <time>2011-12-27T09:34:50.000Z</time>
      </trkpt>
      <trkpt lat="45.35116" lon="5.72253">
        <ele>1430</ele>
        <time>2011-12-27T09:35:11.000Z</time>
      </trkpt>
      <trkpt lat="45.35112" lon="5.72252">
        <ele>1430.1999511719</ele>
        <time>2011-12-27T09:35:18.000Z</time>
      </trkpt>
      <trkpt lat="45.35113" lon="5.72253">
        <ele>1427.8000488281</ele>
        <time>2011-12-27T09:35:21.000Z</time>
      </trkpt>
      <trkpt lat="45.35108" lon="5.72252">
        <ele>1430</ele>
        <time>2011-12-27T09:35:35.000Z</time>
      </trkpt>
      <trkpt lat="45.35098" lon="5.72251">
        <ele>1430.5999755859</ele>
        <time>2011-12-27T09:35:44.000Z</time>
      </trkpt>
      <trkpt lat="45.35091" lon="5.72251">
        <ele>1430.1999511719</ele>
        <time>2011-12-27T09:35:51.000Z</time>
      </trkpt>
      <trkpt lat="45.35081" lon="5.72249">
        <ele>1430.5999755859</ele>
        <time>2011-12-27T09:36:00.000Z</time>
      </trkpt>
      <trkpt lat="45.35074" lon="5.72247">
        <ele>1430.4000244141</ele>
        <time>2011-12-27T09:36:07.000Z</time>
      </trkpt>
      <trkpt lat="45.35065" lon="5.72245">
        <ele>1431.8000488281</ele>
        <time>2011-12-27T09:36:15.000Z</time>
      </trkpt>
      <trkpt lat="45.35055" lon="5.72244">
        <ele>1433</ele>
        <time>2011-12-27T09:36:24.000Z</time>
      </trkpt>
      <trkpt lat="45.35046" lon="5.72244">
        <ele>1434.1999511719</ele>
        <time>2011-12-27T09:36:32.000Z</time>
      </trkpt>
      <trkpt lat="45.35036" lon="5.72242">
        <ele>1435.4000244141</ele>
        <time>2011-12-27T09:36:41.000Z</time>
      </trkpt>
      <trkpt lat="45.35026" lon="5.72241">
        <ele>1435.8000488281</ele>
        <time>2011-12-27T09:36:50.000Z</time>
      </trkpt>
      <trkpt lat="45.35016" lon="5.7224">
        <ele>1436.8000488281</ele>
        <time>2011-12-27T09:36:59.000Z</time>
      </trkpt>
      <trkpt lat="45.35006" lon="5.72241">
        <ele>1436.8000488281</ele>
        <time>2011-12-27T09:37:07.000Z</time>
      </trkpt>
      <trkpt lat="45.34996" lon="5.72242">
        <ele>1437.1999511719</ele>
        <time>2011-12-27T09:37:17.000Z</time>
      </trkpt>
      <trkpt lat="45.3499" lon="5.72243">
        <ele>1438.1999511719</ele>
        <time>2011-12-27T09:37:25.000Z</time>
      </trkpt>
      <trkpt lat="45.34989" lon="5.72244">
        <ele>1439.1999511719</ele>
        <time>2011-12-27T09:37:31.000Z</time>
      </trkpt>
      <trkpt lat="45.34984" lon="5.72245">
        <ele>1438.5999755859</ele>
        <time>2011-12-27T09:37:46.000Z</time>
      </trkpt>
      <trkpt lat="45.34979" lon="5.72245">
        <ele>1438.4000244141</ele>
        <time>2011-12-27T09:37:53.000Z</time>
      </trkpt>
      <trkpt lat="45.34972" lon="5.72244">
        <ele>1437.4000244141</ele>
        <time>2011-12-27T09:38:02.000Z</time>
      </trkpt>
      <trkpt lat="45.34968" lon="5.72243">
        <ele>1436.8000488281</ele>
        <time>2011-12-27T09:38:07.000Z</time>
      </trkpt>
      <trkpt lat="45.34966" lon="5.72241">
        <ele>1436.8000488281</ele>
        <time>2011-12-27T09:38:09.000Z</time>
      </trkpt>
      <trkpt lat="45.34961" lon="5.72236">
        <ele>1435.1999511719</ele>
        <time>2011-12-27T09:38:13.000Z</time>
      </trkpt>
      <trkpt lat="45.34951" lon="5.72234">
        <ele>1432.8000488281</ele>
        <time>2011-12-27T09:38:21.000Z</time>
      </trkpt>
      <trkpt lat="45.3495" lon="5.72236">
        <ele>1431.4000244141</ele>
        <time>2011-12-27T09:38:25.000Z</time>
      </trkpt>
      <trkpt lat="45.34949" lon="5.72242">
        <ele>1432.8000488281</ele>
        <time>2011-12-27T09:38:30.000Z</time>
      </trkpt>
      <trkpt lat="45.34946" lon="5.72248">
        <ele>1434.1999511719</ele>
        <time>2011-12-27T09:38:36.000Z</time>
      </trkpt>
      <trkpt lat="45.34942" lon="5.72256">
        <ele>1435.4000244141</ele>
        <time>2011-12-27T09:38:44.000Z</time>
      </trkpt>
      <trkpt lat="45.34937" lon="5.72256">
        <ele>1435</ele>
        <time>2011-12-27T09:38:50.000Z</time>
      </trkpt>
      <trkpt lat="45.34933" lon="5.72259">
        <ele>1435.4000244141</ele>
        <time>2011-12-27T09:38:54.000Z</time>
      </trkpt>
      <trkpt lat="45.34926" lon="5.72262">
        <ele>1435.8000488281</ele>
        <time>2011-12-27T09:38:58.000Z</time>
      </trkpt>
      <trkpt lat="45.34923" lon="5.7226">
        <ele>1433.5999755859</ele>
        <time>2011-12-27T09:39:03.000Z</time>
      </trkpt>
      <trkpt lat="45.34918" lon="5.7226">
        <ele>1434.1999511719</ele>
        <time>2011-12-27T09:39:09.000Z</time>
      </trkpt>
      <trkpt lat="45.34912" lon="5.72262">
        <ele>1432.4000244141</ele>
        <time>2011-12-27T09:39:14.000Z</time>
      </trkpt>
      <trkpt lat="45.34902" lon="5.72263">
        <ele>1431.8000488281</ele>
        <time>2011-12-27T09:39:21.000Z</time>
      </trkpt>
      <trkpt lat="45.34892" lon="5.72262">
        <ele>1430.5999755859</ele>
        <time>2011-12-27T09:39:28.000Z</time>
      </trkpt>
      <trkpt lat="45.34885" lon="5.72264">
        <ele>1429.5999755859</ele>
        <time>2011-12-27T09:39:34.000Z</time>
      </trkpt>
      <trkpt lat="45.34881" lon="5.72262">
        <ele>1430</ele>
        <time>2011-12-27T09:39:39.000Z</time>
      </trkpt>
      <trkpt lat="45.34879" lon="5.7226">
        <ele>1429.8000488281</ele>
        <time>2011-12-27T09:39:42.000Z</time>
      </trkpt>
      <trkpt lat="45.34873" lon="5.72257">
        <ele>1428.4000244141</ele>
        <time>2011-12-27T09:39:48.000Z</time>
      </trkpt>
      <trkpt lat="45.34869" lon="5.72254">
        <ele>1425.5999755859</ele>
        <time>2011-12-27T09:39:58.000Z</time>
      </trkpt>
      <trkpt lat="45.34864" lon="5.72246">
        <ele>1426.1999511719</ele>
        <time>2011-12-27T09:40:03.000Z</time>
      </trkpt>
      <trkpt lat="45.34859" lon="5.72249">
        <ele>1426.8000488281</ele>
        <time>2011-12-27T09:40:08.000Z</time>
      </trkpt>
      <trkpt lat="45.34851" lon="5.72249">
        <ele>1425.5999755859</ele>
        <time>2011-12-27T09:40:14.000Z</time>
      </trkpt>
      <trkpt lat="45.34846" lon="5.72251">
        <ele>1425</ele>
        <time>2011-12-27T09:40:18.000Z</time>
      </trkpt>
      <trkpt lat="45.34838" lon="5.72246">
        <ele>1425</ele>
        <time>2011-12-27T09:40:25.000Z</time>
      </trkpt>
      <trkpt lat="45.34835" lon="5.72246">
        <ele>1424</ele>
        <time>2011-12-27T09:40:28.000Z</time>
      </trkpt>
      <trkpt lat="45.34827" lon="5.72248">
        <ele>1424.1999511719</ele>
        <time>2011-12-27T09:40:34.000Z</time>
      </trkpt>
      <trkpt lat="45.34822" lon="5.72246">
        <ele>1423.5999755859</ele>
        <time>2011-12-27T09:40:38.000Z</time>
      </trkpt>
      <trkpt lat="45.34814" lon="5.72239">
        <ele>1425</ele>
        <time>2011-12-27T09:40:43.000Z</time>
      </trkpt>
      <trkpt lat="45.34805" lon="5.72234">
        <ele>1423.4000244141</ele>
        <time>2011-12-27T09:40:51.000Z</time>
      </trkpt>
      <trkpt lat="45.34803" lon="5.72235">
        <ele>1422.1999511719</ele>
        <time>2011-12-27T09:40:53.000Z</time>
      </trkpt>
      <trkpt lat="45.34799" lon="5.72236">
        <ele>1424.1999511719</ele>
        <time>2011-12-27T09:40:59.000Z</time>
      </trkpt>
      <trkpt lat="45.34795" lon="5.72236">
        <ele>1422.1999511719</ele>
        <time>2011-12-27T09:41:06.000Z</time>
      </trkpt>
      <trkpt lat="45.34792" lon="5.72236">
        <ele>1424.4000244141</ele>
        <time>2011-12-27T09:41:10.000Z</time>
      </trkpt>
      <trkpt lat="45.34788" lon="5.72235">
        <ele>1424.8000488281</ele>
        <time>2011-12-27T09:41:16.000Z</time>
      </trkpt>
      <trkpt lat="45.34783" lon="5.72232">
        <ele>1425</ele>
        <time>2011-12-27T09:41:24.000Z</time>
      </trkpt>
      <trkpt lat="45.34779" lon="5.7223">
        <ele>1425.1999511719</ele>
        <time>2011-12-27T09:41:30.000Z</time>
      </trkpt>
      <trkpt lat="45.34773" lon="5.72228">
        <ele>1425.5999755859</ele>
        <time>2011-12-27T09:41:37.000Z</time>
      </trkpt>
      <trkpt lat="45.34771" lon="5.72232">
        <ele>1428</ele>
        <time>2011-12-27T09:41:42.000Z</time>
      </trkpt>
      <trkpt lat="45.3477" lon="5.72233">
        <ele>1426.8000488281</ele>
        <time>2011-12-27T09:41:47.000Z</time>
      </trkpt>
      <trkpt lat="45.3477" lon="5.72235">
        <ele>1428.8000488281</ele>
        <time>2011-12-27T09:41:51.000Z</time>
      </trkpt>
      <trkpt lat="45.34764" lon="5.72248">
        <ele>1428.8000488281</ele>
        <time>2011-12-27T09:42:20.000Z</time>
      </trkpt>
      <trkpt lat="45.34762" lon="5.72248">
        <ele>1428</ele>
        <time>2011-12-27T09:42:44.000Z</time>
      </trkpt>
      <trkpt lat="45.34756" lon="5.7225">
        <ele>1429.5999755859</ele>
        <time>2011-12-27T09:42:50.000Z</time>
      </trkpt>
      <trkpt lat="45.34753" lon="5.72245">
        <ele>1429.1999511719</ele>
        <time>2011-12-27T09:42:56.000Z</time>
      </trkpt>
      <trkpt lat="45.34742" lon="5.72245">
        <ele>1429.5999755859</ele>
        <time>2011-12-27T09:43:07.000Z</time>
      </trkpt>
      <trkpt lat="45.34738" lon="5.72246">
        <ele>1429.5999755859</ele>
        <time>2011-12-27T09:43:11.000Z</time>
      </trkpt>
      <trkpt lat="45.34729" lon="5.72244">
        <ele>1430.1999511719</ele>
        <time>2011-12-27T09:43:19.000Z</time>
      </trkpt>
      <trkpt lat="45.34726" lon="5.72244">
        <ele>1431.5999755859</ele>
        <time>2011-12-27T09:43:22.000Z</time>
      </trkpt>
      <trkpt lat="45.34723" lon="5.72237">
        <ele>1431.5999755859</ele>
        <time>2011-12-27T09:43:27.000Z</time>
      </trkpt>
      <trkpt lat="45.34716" lon="5.72232">
        <ele>1432.4000244141</ele>
        <time>2011-12-27T09:43:34.000Z</time>
      </trkpt>
      <trkpt lat="45.34705" lon="5.72229">
        <ele>1433</ele>
        <time>2011-12-27T09:43:43.000Z</time>
      </trkpt>
      <trkpt lat="45.34697" lon="5.72224">
        <ele>1432.8000488281</ele>
        <time>2011-12-27T09:43:50.000Z</time>
      </trkpt>
      <trkpt lat="45.34695" lon="5.72223">
        <ele>1433</ele>
        <time>2011-12-27T09:43:53.000Z</time>
      </trkpt>
      <trkpt lat="45.3469" lon="5.72223">
        <ele>1433</ele>
        <time>2011-12-27T09:44:01.000Z</time>
      </trkpt>
      <trkpt lat="45.34687" lon="5.72222">
        <ele>1433.1999511719</ele>
        <time>2011-12-27T09:44:05.000Z</time>
      </trkpt>
      <trkpt lat="45.3468" lon="5.72227">
        <ele>1433.5999755859</ele>
        <time>2011-12-27T09:44:13.000Z</time>
      </trkpt>
      <trkpt lat="45.34672" lon="5.72228">
        <ele>1434</ele>
        <time>2011-12-27T09:44:19.000Z</time>
      </trkpt>
      <trkpt lat="45.34665" lon="5.72226">
        <ele>1431</ele>
        <time>2011-12-27T09:44:24.000Z</time>
      </trkpt>
      <trkpt lat="45.34658" lon="5.72225">
        <ele>1430.1999511719</ele>
        <time>2011-12-27T09:44:30.000Z</time>
      </trkpt>
      <trkpt lat="45.34654" lon="5.72224">
        <ele>1431.1999511719</ele>
        <time>2011-12-27T09:44:34.000Z</time>
      </trkpt>
      <trkpt lat="45.34642" lon="5.72221">
        <ele>1430.1999511719</ele>
        <time>2011-12-27T09:44:42.000Z</time>
      </trkpt>
      <trkpt lat="45.34628" lon="5.72216">
        <ele>1427.1999511719</ele>
        <time>2011-12-27T09:44:49.000Z</time>
      </trkpt>
      <trkpt lat="45.34616" lon="5.7221">
        <ele>1424.1999511719</ele>
        <time>2011-12-27T09:44:53.000Z</time>
      </trkpt>
      <trkpt lat="45.34614" lon="5.72209">
        <ele>1424.1999511719</ele>
        <time>2011-12-27T09:44:54.000Z</time>
      </trkpt>
      <trkpt lat="45.34601" lon="5.7221">
        <ele>1423</ele>
        <time>2011-12-27T09:45:02.000Z</time>
      </trkpt>
      <trkpt lat="45.34597" lon="5.72211">
        <ele>1422.1999511719</ele>
        <time>2011-12-27T09:45:06.000Z</time>
      </trkpt>
      <trkpt lat="45.34588" lon="5.72215">
        <ele>1422.5999755859</ele>
        <time>2011-12-27T09:45:13.000Z</time>
      </trkpt>
      <trkpt lat="45.34581" lon="5.72216">
        <ele>1420.1999511719</ele>
        <time>2011-12-27T09:45:19.000Z</time>
      </trkpt>
      <trkpt lat="45.34573" lon="5.72218">
        <ele>1418.4000244141</ele>
        <time>2011-12-27T09:45:24.000Z</time>
      </trkpt>
      <trkpt lat="45.34564" lon="5.7222">
        <ele>1417.1999511719</ele>
        <time>2011-12-27T09:45:28.000Z</time>
      </trkpt>
      <trkpt lat="45.34559" lon="5.72219">
        <ele>1416</ele>
        <time>2011-12-27T09:45:31.000Z</time>
      </trkpt>
      <trkpt lat="45.34557" lon="5.7222">
        <ele>1417</ele>
        <time>2011-12-27T09:45:32.000Z</time>
      </trkpt>
      <trkpt lat="45.34541" lon="5.72219">
        <ele>1416.4000244141</ele>
        <time>2011-12-27T09:45:40.000Z</time>
      </trkpt>
      <trkpt lat="45.34535" lon="5.7222">
        <ele>1416.1999511719</ele>
        <time>2011-12-27T09:45:43.000Z</time>
      </trkpt>
      <trkpt lat="45.34524" lon="5.72221">
        <ele>1415</ele>
        <time>2011-12-27T09:45:49.000Z</time>
      </trkpt>
      <trkpt lat="45.34517" lon="5.72219">
        <ele>1413</ele>
        <time>2011-12-27T09:45:52.000Z</time>
      </trkpt>
      <trkpt lat="45.34502" lon="5.7222">
        <ele>1409</ele>
        <time>2011-12-27T09:45:57.000Z</time>
      </trkpt>
      <trkpt lat="45.34501" lon="5.72219">
        <ele>1408.8000488281</ele>
        <time>2011-12-27T09:45:58.000Z</time>
      </trkpt>
      <trkpt lat="45.34497" lon="5.72221">
        <ele>1407.5999755859</ele>
        <time>2011-12-27T09:46:00.000Z</time>
      </trkpt>
      <trkpt lat="45.34488" lon="5.72222">
        <ele>1409</ele>
        <time>2011-12-27T09:46:07.000Z</time>
      </trkpt>
      <trkpt lat="45.34482" lon="5.72218">
        <ele>1409</ele>
        <time>2011-12-27T09:46:14.000Z</time>
      </trkpt>
      <trkpt lat="45.34479" lon="5.72216">
        <ele>1409.4000244141</ele>
        <time>2011-12-27T09:46:18.000Z</time>
      </trkpt>
      <trkpt lat="45.34471" lon="5.72215">
        <ele>1409</ele>
        <time>2011-12-27T09:46:26.000Z</time>
      </trkpt>
      <trkpt lat="45.34461" lon="5.72211">
        <ele>1409</ele>
        <time>2011-12-27T09:46:34.000Z</time>
      </trkpt>
      <trkpt lat="45.34454" lon="5.72204">
        <ele>1408</ele>
        <time>2011-12-27T09:46:41.000Z</time>
      </trkpt>
      <trkpt lat="45.34444" lon="5.72196">
        <ele>1408.8000488281</ele>
        <time>2011-12-27T09:46:48.000Z</time>
      </trkpt>
      <trkpt lat="45.34439" lon="5.72192">
        <ele>1408.4000244141</ele>
        <time>2011-12-27T09:46:54.000Z</time>
      </trkpt>
      <trkpt lat="45.34435" lon="5.72185">
        <ele>1408.8000488281</ele>
        <time>2011-12-27T09:47:00.000Z</time>
      </trkpt>
      <trkpt lat="45.34432" lon="5.72177">
        <ele>1409.4000244141</ele>
        <time>2011-12-27T09:47:07.000Z</time>
      </trkpt>
      <trkpt lat="45.34428" lon="5.72171">
        <ele>1410.4000244141</ele>
        <time>2011-12-27T09:47:13.000Z</time>
      </trkpt>
      <trkpt lat="45.34422" lon="5.72162">
        <ele>1411.1999511719</ele>
        <time>2011-12-27T09:47:20.000Z</time>
      </trkpt>
      <trkpt lat="45.34415" lon="5.72154">
        <ele>1411.8000488281</ele>
        <time>2011-12-27T09:47:27.000Z</time>
      </trkpt>
      <trkpt lat="45.3441" lon="5.7215">
        <ele>1412</ele>
        <time>2011-12-27T09:47:33.000Z</time>
      </trkpt>
      <trkpt lat="45.34407" lon="5.72147">
        <ele>1413.1999511719</ele>
        <time>2011-12-27T09:47:36.000Z</time>
      </trkpt>
      <trkpt lat="45.34402" lon="5.72137">
        <ele>1413.5999755859</ele>
        <time>2011-12-27T09:47:43.000Z</time>
      </trkpt>
      <trkpt lat="45.34395" lon="5.72128">
        <ele>1417</ele>
        <time>2011-12-27T09:47:50.000Z</time>
      </trkpt>
      <trkpt lat="45.34392" lon="5.72119">
        <ele>1417.5999755859</ele>
        <time>2011-12-27T09:47:56.000Z</time>
      </trkpt>
      <trkpt lat="45.3439" lon="5.72113">
        <ele>1416.8000488281</ele>
        <time>2011-12-27T09:48:01.000Z</time>
      </trkpt>
      <trkpt lat="45.34387" lon="5.72109">
        <ele>1420.4000244141</ele>
        <time>2011-12-27T09:48:07.000Z</time>
      </trkpt>
      <trkpt lat="45.34384" lon="5.72107">
        <ele>1420.8000488281</ele>
        <time>2011-12-27T09:48:13.000Z</time>
      </trkpt>
      <trkpt lat="45.34382" lon="5.72105">
        <ele>1419.5999755859</ele>
        <time>2011-12-27T09:48:18.000Z</time>
      </trkpt>
      <trkpt lat="45.3438" lon="5.72101">
        <ele>1422.8000488281</ele>
        <time>2011-12-27T09:48:23.000Z</time>
      </trkpt>
      <trkpt lat="45.34374" lon="5.72097">
        <ele>1423.4000244141</ele>
        <time>2011-12-27T09:48:29.000Z</time>
      </trkpt>
      <trkpt lat="45.34371" lon="5.72095">
        <ele>1424.4000244141</ele>
        <time>2011-12-27T09:48:34.000Z</time>
      </trkpt>
      <trkpt lat="45.34369" lon="5.72091">
        <ele>1425.5999755859</ele>
        <time>2011-12-27T09:48:38.000Z</time>
      </trkpt>
      <trkpt lat="45.34366" lon="5.72085">
        <ele>1427.8000488281</ele>
        <time>2011-12-27T09:48:45.000Z</time>
      </trkpt>
      <trkpt lat="45.34365" lon="5.72085">
        <ele>1426.4000244141</ele>
        <time>2011-12-27T09:48:50.000Z</time>
      </trkpt>
      <trkpt lat="45.34362" lon="5.72085">
        <ele>1428.4000244141</ele>
        <time>2011-12-27T09:48:55.000Z</time>
      </trkpt>
      <trkpt lat="45.3436" lon="5.72083">
        <ele>1429.5999755859</ele>
        <time>2011-12-27T09:48:57.000Z</time>
      </trkpt>
      <trkpt lat="45.34355" lon="5.72077">
        <ele>1428.4000244141</ele>
        <time>2011-12-27T09:49:02.000Z</time>
      </trkpt>
      <trkpt lat="45.34354" lon="5.72077">
        <ele>1428.1999511719</ele>
        <time>2011-12-27T09:49:03.000Z</time>
      </trkpt>
      <trkpt lat="45.34354" lon="5.72074">
        <ele>1428.5999755859</ele>
        <time>2011-12-27T09:49:07.000Z</time>
      </trkpt>
      <trkpt lat="45.34351" lon="5.72068">
        <ele>1428.5999755859</ele>
        <time>2011-12-27T09:49:12.000Z</time>
      </trkpt>
      <trkpt lat="45.3435" lon="5.72065">
        <ele>1427.5999755859</ele>
        <time>2011-12-27T09:49:14.000Z</time>
      </trkpt>
      <trkpt lat="45.34345" lon="5.72056">
        <ele>1430.8000488281</ele>
        <time>2011-12-27T09:49:21.000Z</time>
      </trkpt>
      <trkpt lat="45.34341" lon="5.72049">
        <ele>1434.1999511719</ele>
        <time>2011-12-27T09:49:27.000Z</time>
      </trkpt>
      <trkpt lat="45.34336" lon="5.72043">
        <ele>1433.4000244141</ele>
        <time>2011-12-27T09:49:33.000Z</time>
      </trkpt>
      <trkpt lat="45.34331" lon="5.72039">
        <ele>1437</ele>
        <time>2011-12-27T09:49:40.000Z</time>
      </trkpt>
      <trkpt lat="45.34328" lon="5.72038">
        <ele>1437</ele>
        <time>2011-12-27T09:49:46.000Z</time>
      </trkpt>
      <trkpt lat="45.34327" lon="5.72036">
        <ele>1436.5999755859</ele>
        <time>2011-12-27T09:49:49.000Z</time>
      </trkpt>
      <trkpt lat="45.34323" lon="5.72036">
        <ele>1438.5999755859</ele>
        <time>2011-12-27T09:49:53.000Z</time>
      </trkpt>
      <trkpt lat="45.3432" lon="5.72031">
        <ele>1439.5999755859</ele>
        <time>2011-12-27T09:49:59.000Z</time>
      </trkpt>
      <trkpt lat="45.34318" lon="5.72031">
        <ele>1438</ele>
        <time>2011-12-27T09:50:02.000Z</time>
      </trkpt>
      <trkpt lat="45.34315" lon="5.72031">
        <ele>1439.5999755859</ele>
        <time>2011-12-27T09:50:07.000Z</time>
      </trkpt>
      <trkpt lat="45.34313" lon="5.72025">
        <ele>1438.5999755859</ele>
        <time>2011-12-27T09:50:13.000Z</time>
      </trkpt>
      <trkpt lat="45.34311" lon="5.72019">
        <ele>1442.1999511719</ele>
        <time>2011-12-27T09:50:19.000Z</time>
      </trkpt>
      <trkpt lat="45.34306" lon="5.72015">
        <ele>1442.4000244141</ele>
        <time>2011-12-27T09:50:24.000Z</time>
      </trkpt>
      <trkpt lat="45.34302" lon="5.7201">
        <ele>1440</ele>
        <time>2011-12-27T09:50:29.000Z</time>
      </trkpt>
      <trkpt lat="45.34299" lon="5.7201">
        <ele>1444.4000244141</ele>
        <time>2011-12-27T09:50:34.000Z</time>
      </trkpt>
      <trkpt lat="45.34295" lon="5.72009">
        <ele>1444.5999755859</ele>
        <time>2011-12-27T09:50:39.000Z</time>
      </trkpt>
      <trkpt lat="45.34294" lon="5.72009">
        <ele>1442.8000488281</ele>
        <time>2011-12-27T09:50:40.000Z</time>
      </trkpt>
      <trkpt lat="45.3429" lon="5.72011">
        <ele>1445</ele>
        <time>2011-12-27T09:50:46.000Z</time>
      </trkpt>
      <trkpt lat="45.3429" lon="5.7201">
        <ele>1444.4000244141</ele>
        <time>2011-12-27T09:50:47.000Z</time>
      </trkpt>
      <trkpt lat="45.34286" lon="5.72009">
        <ele>1446</ele>
        <time>2011-12-27T09:50:52.000Z</time>
      </trkpt>
      <trkpt lat="45.34284" lon="5.7201">
        <ele>1447.5999755859</ele>
        <time>2011-12-27T09:50:57.000Z</time>
      </trkpt>
      <trkpt lat="45.34281" lon="5.72008">
        <ele>1449</ele>
        <time>2011-12-27T09:51:00.000Z</time>
      </trkpt>
      <trkpt lat="45.34275" lon="5.72008">
        <ele>1449.5999755859</ele>
        <time>2011-12-27T09:51:07.000Z</time>
      </trkpt>
      <trkpt lat="45.34273" lon="5.72003">
        <ele>1448.5999755859</ele>
        <time>2011-12-27T09:51:11.000Z</time>
      </trkpt>
      <trkpt lat="45.34268" lon="5.71999">
        <ele>1450.5999755859</ele>
        <time>2011-12-27T09:51:17.000Z</time>
      </trkpt>
      <trkpt lat="45.34267" lon="5.71999">
        <ele>1450.5999755859</ele>
        <time>2011-12-27T09:51:18.000Z</time>
      </trkpt>
      <trkpt lat="45.34266" lon="5.71993">
        <ele>1449.8000488281</ele>
        <time>2011-12-27T09:51:22.000Z</time>
      </trkpt>
      <trkpt lat="45.34262" lon="5.71989">
        <ele>1451.8000488281</ele>
        <time>2011-12-27T09:51:27.000Z</time>
      </trkpt>
      <trkpt lat="45.34257" lon="5.71987">
        <ele>1449.4000244141</ele>
        <time>2011-12-27T09:51:33.000Z</time>
      </trkpt>
      <trkpt lat="45.3425" lon="5.7198">
        <ele>1453.1999511719</ele>
        <time>2011-12-27T09:51:41.000Z</time>
      </trkpt>
      <trkpt lat="45.3425" lon="5.71976">
        <ele>1453.1999511719</ele>
        <time>2011-12-27T09:51:44.000Z</time>
      </trkpt>
      <trkpt lat="45.34245" lon="5.71967">
        <ele>1453.1999511719</ele>
        <time>2011-12-27T09:51:51.000Z</time>
      </trkpt>
      <trkpt lat="45.3424" lon="5.71959">
        <ele>1454.8000488281</ele>
        <time>2011-12-27T09:51:58.000Z</time>
      </trkpt>
      <trkpt lat="45.34237" lon="5.71957">
        <ele>1454.5999755859</ele>
        <time>2011-12-27T09:52:02.000Z</time>
      </trkpt>
      <trkpt lat="45.34232" lon="5.7195">
        <ele>1456.1999511719</ele>
        <time>2011-12-27T09:52:08.000Z</time>
      </trkpt>
      <trkpt lat="45.34232" lon="5.7195">
        <ele>1456.4000244141</ele>
        <time>2011-12-27T09:52:09.000Z</time>
      </trkpt>
      <trkpt lat="45.34229" lon="5.71944">
        <ele>1455.5999755859</ele>
        <time>2011-12-27T09:52:16.000Z</time>
      </trkpt>
      <trkpt lat="45.34226" lon="5.71944">
        <ele>1456.5999755859</ele>
        <time>2011-12-27T09:52:21.000Z</time>
      </trkpt>
      <trkpt lat="45.34225" lon="5.71942">
        <ele>1458.1999511719</ele>
        <time>2011-12-27T09:52:23.000Z</time>
      </trkpt>
      <trkpt lat="45.34222" lon="5.71938">
        <ele>1457.4000244141</ele>
        <time>2011-12-27T09:52:27.000Z</time>
      </trkpt>
      <trkpt lat="45.34218" lon="5.71933">
        <ele>1459</ele>
        <time>2011-12-27T09:52:34.000Z</time>
      </trkpt>
      <trkpt lat="45.34215" lon="5.71919">
        <ele>1459</ele>
        <time>2011-12-27T09:52:42.000Z</time>
      </trkpt>
      <trkpt lat="45.34213" lon="5.71911">
        <ele>1459.8000488281</ele>
        <time>2011-12-27T09:52:48.000Z</time>
      </trkpt>
      <trkpt lat="45.34207" lon="5.71905">
        <ele>1460.8000488281</ele>
        <time>2011-12-27T09:52:55.000Z</time>
      </trkpt>
      <trkpt lat="45.34204" lon="5.71897">
        <ele>1460.1999511719</ele>
        <time>2011-12-27T09:53:00.000Z</time>
      </trkpt>
      <trkpt lat="45.34201" lon="5.7189">
        <ele>1461.5999755859</ele>
        <time>2011-12-27T09:53:07.000Z</time>
      </trkpt>
      <trkpt lat="45.34196" lon="5.71883">
        <ele>1461.4000244141</ele>
        <time>2011-12-27T09:53:13.000Z</time>
      </trkpt>
      <trkpt lat="45.34193" lon="5.71872">
        <ele>1461.8000488281</ele>
        <time>2011-12-27T09:53:20.000Z</time>
      </trkpt>
      <trkpt lat="45.34191" lon="5.71866">
        <ele>1462.4000244141</ele>
        <time>2011-12-27T09:53:25.000Z</time>
      </trkpt>
      <trkpt lat="45.34185" lon="5.71853">
        <ele>1462.8000488281</ele>
        <time>2011-12-27T09:53:34.000Z</time>
      </trkpt>
      <trkpt lat="45.34182" lon="5.71854">
        <ele>1463.1999511719</ele>
        <time>2011-12-27T09:53:39.000Z</time>
      </trkpt>
      <trkpt lat="45.34178" lon="5.71849">
        <ele>1463.5999755859</ele>
        <time>2011-12-27T09:53:44.000Z</time>
      </trkpt>
      <trkpt lat="45.34176" lon="5.71844">
        <ele>1463.8000488281</ele>
        <time>2011-12-27T09:53:49.000Z</time>
      </trkpt>
      <trkpt lat="45.34171" lon="5.71839">
        <ele>1465.1999511719</ele>
        <time>2011-12-27T09:53:56.000Z</time>
      </trkpt>
      <trkpt lat="45.34171" lon="5.71836">
        <ele>1465.8000488281</ele>
        <time>2011-12-27T09:54:00.000Z</time>
      </trkpt>
      <trkpt lat="45.34167" lon="5.71828">
        <ele>1466.8000488281</ele>
        <time>2011-12-27T09:54:05.000Z</time>
      </trkpt>
      <trkpt lat="45.34163" lon="5.71826">
        <ele>1467.1999511719</ele>
        <time>2011-12-27T09:54:11.000Z</time>
      </trkpt>
      <trkpt lat="45.34161" lon="5.71825">
        <ele>1467.8000488281</ele>
        <time>2011-12-27T09:54:16.000Z</time>
      </trkpt>
      <trkpt lat="45.34156" lon="5.71815">
        <ele>1468.5999755859</ele>
        <time>2011-12-27T09:54:23.000Z</time>
      </trkpt>
      <trkpt lat="45.34153" lon="5.71808">
        <ele>1468.8000488281</ele>
        <time>2011-12-27T09:54:29.000Z</time>
      </trkpt>
      <trkpt lat="45.34149" lon="5.71804">
        <ele>1470</ele>
        <time>2011-12-27T09:54:35.000Z</time>
      </trkpt>
      <trkpt lat="45.34144" lon="5.71798">
        <ele>1471</ele>
        <time>2011-12-27T09:54:41.000Z</time>
      </trkpt>
      <trkpt lat="45.34136" lon="5.71797">
        <ele>1471.8000488281</ele>
        <time>2011-12-27T09:54:48.000Z</time>
      </trkpt>
      <trkpt lat="45.34131" lon="5.71794">
        <ele>1472</ele>
        <time>2011-12-27T09:54:54.000Z</time>
      </trkpt>
      <trkpt lat="45.34129" lon="5.71792">
        <ele>1472.1999511719</ele>
        <time>2011-12-27T09:54:56.000Z</time>
      </trkpt>
      <trkpt lat="45.34126" lon="5.7179">
        <ele>1472.8000488281</ele>
        <time>2011-12-27T09:55:00.000Z</time>
      </trkpt>
      <trkpt lat="45.34122" lon="5.71791">
        <ele>1473</ele>
        <time>2011-12-27T09:55:03.000Z</time>
      </trkpt>
      <trkpt lat="45.34119" lon="5.71789">
        <ele>1473</ele>
        <time>2011-12-27T09:55:07.000Z</time>
      </trkpt>
      <trkpt lat="45.34118" lon="5.71788">
        <ele>1473.4000244141</ele>
        <time>2011-12-27T09:55:09.000Z</time>
      </trkpt>
      <trkpt lat="45.34114" lon="5.71782">
        <ele>1473</ele>
        <time>2011-12-27T09:55:15.000Z</time>
      </trkpt>
      <trkpt lat="45.34114" lon="5.71781">
        <ele>1473.5999755859</ele>
        <time>2011-12-27T09:55:16.000Z</time>
      </trkpt>
      <trkpt lat="45.34106" lon="5.71778">
        <ele>1473.8000488281</ele>
        <time>2011-12-27T09:55:22.000Z</time>
      </trkpt>
      <trkpt lat="45.34102" lon="5.71774">
        <ele>1474</ele>
        <time>2011-12-27T09:55:25.000Z</time>
      </trkpt>
      <trkpt lat="45.34099" lon="5.7177">
        <ele>1475</ele>
        <time>2011-12-27T09:55:31.000Z</time>
      </trkpt>
      <trkpt lat="45.34099" lon="5.7177">
        <ele>1475</ele>
        <time>2011-12-27T09:55:32.000Z</time>
      </trkpt>
      <trkpt lat="45.34091" lon="5.7176">
        <ele>1476.8000488281</ele>
        <time>2011-12-27T09:55:39.000Z</time>
      </trkpt>
      <trkpt lat="45.3409" lon="5.71759">
        <ele>1476.4000244141</ele>
        <time>2011-12-27T09:55:40.000Z</time>
      </trkpt>
      <trkpt lat="45.34083" lon="5.71748">
        <ele>1476</ele>
        <time>2011-12-27T09:55:48.000Z</time>
      </trkpt>
      <trkpt lat="45.3408" lon="5.71741">
        <ele>1476.8000488281</ele>
        <time>2011-12-27T09:55:55.000Z</time>
      </trkpt>
      <trkpt lat="45.34076" lon="5.71737">
        <ele>1477.4000244141</ele>
        <time>2011-12-27T09:56:01.000Z</time>
      </trkpt>
      <trkpt lat="45.34075" lon="5.71736">
        <ele>1477.8000488281</ele>
        <time>2011-12-27T09:56:05.000Z</time>
      </trkpt>
      <trkpt lat="45.34073" lon="5.71732">
        <ele>1478.1999511719</ele>
        <time>2011-12-27T09:56:10.000Z</time>
      </trkpt>
      <trkpt lat="45.3407" lon="5.71722">
        <ele>1479</ele>
        <time>2011-12-27T09:56:17.000Z</time>
      </trkpt>
      <trkpt lat="45.34065" lon="5.7171">
        <ele>1479.4000244141</ele>
        <time>2011-12-27T09:56:23.000Z</time>
      </trkpt>
      <trkpt lat="45.34059" lon="5.71703">
        <ele>1480.4000244141</ele>
        <time>2011-12-27T09:56:28.000Z</time>
      </trkpt>
      <trkpt lat="45.34053" lon="5.71698">
        <ele>1481.4000244141</ele>
        <time>2011-12-27T09:56:35.000Z</time>
      </trkpt>
      <trkpt lat="45.3405" lon="5.71694">
        <ele>1482</ele>
        <time>2011-12-27T09:56:39.000Z</time>
      </trkpt>
      <trkpt lat="45.34042" lon="5.71689">
        <ele>1482.5999755859</ele>
        <time>2011-12-27T09:56:46.000Z</time>
      </trkpt>
      <trkpt lat="45.3404" lon="5.71687">
        <ele>1482.8000488281</ele>
        <time>2011-12-27T09:56:49.000Z</time>
      </trkpt>
      <trkpt lat="45.34035" lon="5.71683">
        <ele>1483.8000488281</ele>
        <time>2011-12-27T09:56:55.000Z</time>
      </trkpt>
      <trkpt lat="45.34033" lon="5.71681">
        <ele>1483.4000244141</ele>
        <time>2011-12-27T09:56:57.000Z</time>
      </trkpt>
      <trkpt lat="45.3403" lon="5.71677">
        <ele>1484</ele>
        <time>2011-12-27T09:57:01.000Z</time>
      </trkpt>
      <trkpt lat="45.34024" lon="5.7167">
        <ele>1484.1999511719</ele>
        <time>2011-12-27T09:57:09.000Z</time>
      </trkpt>
      <trkpt lat="45.34016" lon="5.71667">
        <ele>1486</ele>
        <time>2011-12-27T09:57:17.000Z</time>
      </trkpt>
      <trkpt lat="45.34009" lon="5.71663">
        <ele>1486</ele>
        <time>2011-12-27T09:57:23.000Z</time>
      </trkpt>
      <trkpt lat="45.34" lon="5.71659">
        <ele>1486.5999755859</ele>
        <time>2011-12-27T09:57:31.000Z</time>
      </trkpt>
      <trkpt lat="45.33994" lon="5.71655">
        <ele>1486.8000488281</ele>
        <time>2011-12-27T09:57:40.000Z</time>
      </trkpt>
      <trkpt lat="45.33987" lon="5.71647">
        <ele>1487.5999755859</ele>
        <time>2011-12-27T09:57:46.000Z</time>
      </trkpt>
      <trkpt lat="45.3398" lon="5.71644">
        <ele>1487.1999511719</ele>
        <time>2011-12-27T09:57:53.000Z</time>
      </trkpt>
      <trkpt lat="45.33971" lon="5.71638">
        <ele>1489.1999511719</ele>
        <time>2011-12-27T09:58:02.000Z</time>
      </trkpt>
      <trkpt lat="45.33961" lon="5.7163">
        <ele>1490.1999511719</ele>
        <time>2011-12-27T09:58:11.000Z</time>
      </trkpt>
      <trkpt lat="45.33955" lon="5.71623">
        <ele>1490.8000488281</ele>
        <time>2011-12-27T09:58:18.000Z</time>
      </trkpt>
      <trkpt lat="45.33951" lon="5.7162">
        <ele>1491.1999511719</ele>
        <time>2011-12-27T09:58:24.000Z</time>
      </trkpt>
      <trkpt lat="45.33944" lon="5.71621">
        <ele>1491.5999755859</ele>
        <time>2011-12-27T09:58:29.000Z</time>
      </trkpt>
      <trkpt lat="45.33938" lon="5.71625">
        <ele>1491.8000488281</ele>
        <time>2011-12-27T09:58:34.000Z</time>
      </trkpt>
      <trkpt lat="45.33932" lon="5.71625">
        <ele>1493.1999511719</ele>
        <time>2011-12-27T09:58:40.000Z</time>
      </trkpt>
      <trkpt lat="45.33924" lon="5.71623">
        <ele>1493.4000244141</ele>
        <time>2011-12-27T09:58:46.000Z</time>
      </trkpt>
      <trkpt lat="45.33917" lon="5.71619">
        <ele>1492.8000488281</ele>
        <time>2011-12-27T09:58:53.000Z</time>
      </trkpt>
      <trkpt lat="45.3391" lon="5.7161">
        <ele>1493.8000488281</ele>
        <time>2011-12-27T09:59:00.000Z</time>
      </trkpt>
      <trkpt lat="45.33906" lon="5.716">
        <ele>1494.1999511719</ele>
        <time>2011-12-27T09:59:08.000Z</time>
      </trkpt>
      <trkpt lat="45.33899" lon="5.71597">
        <ele>1494</ele>
        <time>2011-12-27T09:59:15.000Z</time>
      </trkpt>
      <trkpt lat="45.33893" lon="5.71589">
        <ele>1494</ele>
        <time>2011-12-27T09:59:21.000Z</time>
      </trkpt>
      <trkpt lat="45.3389" lon="5.71586">
        <ele>1494.4000244141</ele>
        <time>2011-12-27T09:59:24.000Z</time>
      </trkpt>
      <trkpt lat="45.33883" lon="5.71578">
        <ele>1494</ele>
        <time>2011-12-27T09:59:31.000Z</time>
      </trkpt>
      <trkpt lat="45.33877" lon="5.71569">
        <ele>1494.8000488281</ele>
        <time>2011-12-27T09:59:37.000Z</time>
      </trkpt>
      <trkpt lat="45.33871" lon="5.71564">
        <ele>1494.8000488281</ele>
        <time>2011-12-27T09:59:42.000Z</time>
      </trkpt>
      <trkpt lat="45.33866" lon="5.7156">
        <ele>1493.5999755859</ele>
        <time>2011-12-27T09:59:46.000Z</time>
      </trkpt>
      <trkpt lat="45.33863" lon="5.71554">
        <ele>1494</ele>
        <time>2011-12-27T09:59:52.000Z</time>
      </trkpt>
      <trkpt lat="45.33859" lon="5.71549">
        <ele>1494.8000488281</ele>
        <time>2011-12-27T09:59:59.000Z</time>
      </trkpt>
      <trkpt lat="45.33852" lon="5.71545">
        <ele>1494</ele>
        <time>2011-12-27T10:00:04.000Z</time>
      </trkpt>
      <trkpt lat="45.33844" lon="5.71536">
        <ele>1494.5999755859</ele>
        <time>2011-12-27T10:00:12.000Z</time>
      </trkpt>
      <trkpt lat="45.33836" lon="5.71526">
        <ele>1493.1999511719</ele>
        <time>2011-12-27T10:00:19.000Z</time>
      </trkpt>
      <trkpt lat="45.33829" lon="5.71516">
        <ele>1494</ele>
        <time>2011-12-27T10:00:26.000Z</time>
      </trkpt>
      <trkpt lat="45.33828" lon="5.71514">
        <ele>1493.1999511719</ele>
        <time>2011-12-27T10:00:28.000Z</time>
      </trkpt>
      <trkpt lat="45.33822" lon="5.71504">
        <ele>1495</ele>
        <time>2011-12-27T10:00:37.000Z</time>
      </trkpt>
      <trkpt lat="45.33818" lon="5.71502">
        <ele>1494</ele>
        <time>2011-12-27T10:00:41.000Z</time>
      </trkpt>
      <trkpt lat="45.33814" lon="5.71489">
        <ele>1493</ele>
        <time>2011-12-27T10:00:48.000Z</time>
      </trkpt>
      <trkpt lat="45.33814" lon="5.71481">
        <ele>1492</ele>
        <time>2011-12-27T10:00:54.000Z</time>
      </trkpt>
      <trkpt lat="45.33812" lon="5.71478">
        <ele>1493.1999511719</ele>
        <time>2011-12-27T10:00:58.000Z</time>
      </trkpt>
      <trkpt lat="45.33812" lon="5.71476">
        <ele>1495.1999511719</ele>
        <time>2011-12-27T10:01:00.000Z</time>
      </trkpt>
      <trkpt lat="45.3381" lon="5.71474">
        <ele>1495.1999511719</ele>
        <time>2011-12-27T10:01:02.000Z</time>
      </trkpt>
      <trkpt lat="45.33806" lon="5.71469">
        <ele>1494.8000488281</ele>
        <time>2011-12-27T10:01:10.000Z</time>
      </trkpt>
      <trkpt lat="45.33805" lon="5.71459">
        <ele>1497.4000244141</ele>
        <time>2011-12-27T10:01:16.000Z</time>
      </trkpt>
      <trkpt lat="45.33803" lon="5.71449">
        <ele>1496.4000244141</ele>
        <time>2011-12-27T10:01:22.000Z</time>
      </trkpt>
      <trkpt lat="45.33804" lon="5.7144">
        <ele>1498.4000244141</ele>
        <time>2011-12-27T10:01:28.000Z</time>
      </trkpt>
      <trkpt lat="45.33804" lon="5.71432">
        <ele>1499</ele>
        <time>2011-12-27T10:01:34.000Z</time>
      </trkpt>
      <trkpt lat="45.33802" lon="5.71423">
        <ele>1499.1999511719</ele>
        <time>2011-12-27T10:01:40.000Z</time>
      </trkpt>
      <trkpt lat="45.33801" lon="5.71413">
        <ele>1499.8000488281</ele>
        <time>2011-12-27T10:01:46.000Z</time>
      </trkpt>
      <trkpt lat="45.33798" lon="5.71409">
        <ele>1500.5999755859</ele>
        <time>2011-12-27T10:01:51.000Z</time>
      </trkpt>
      <trkpt lat="45.33793" lon="5.71405">
        <ele>1500.5999755859</ele>
        <time>2011-12-27T10:01:56.000Z</time>
      </trkpt>
      <trkpt lat="45.33791" lon="5.71403">
        <ele>1500.5999755859</ele>
        <time>2011-12-27T10:01:58.000Z</time>
      </trkpt>
      <trkpt lat="45.33783" lon="5.71393">
        <ele>1500.8000488281</ele>
        <time>2011-12-27T10:02:07.000Z</time>
      </trkpt>
      <trkpt lat="45.33782" lon="5.71392">
        <ele>1501.1999511719</ele>
        <time>2011-12-27T10:02:08.000Z</time>
      </trkpt>
      <trkpt lat="45.33778" lon="5.71387">
        <ele>1500.5999755859</ele>
        <time>2011-12-27T10:02:14.000Z</time>
      </trkpt>
      <trkpt lat="45.33776" lon="5.71385">
        <ele>1499.8000488281</ele>
        <time>2011-12-27T10:02:16.000Z</time>
      </trkpt>
      <trkpt lat="45.3377" lon="5.71379">
        <ele>1500.5999755859</ele>
        <time>2011-12-27T10:02:22.000Z</time>
      </trkpt>
      <trkpt lat="45.33767" lon="5.71372">
        <ele>1501</ele>
        <time>2011-12-27T10:02:28.000Z</time>
      </trkpt>
      <trkpt lat="45.33767" lon="5.71371">
        <ele>1500.5999755859</ele>
        <time>2011-12-27T10:02:30.000Z</time>
      </trkpt>
      <trkpt lat="45.33761" lon="5.71362">
        <ele>1501</ele>
        <time>2011-12-27T10:02:37.000Z</time>
      </trkpt>
      <trkpt lat="45.33757" lon="5.7135">
        <ele>1500.4000244141</ele>
        <time>2011-12-27T10:02:44.000Z</time>
      </trkpt>
      <trkpt lat="45.33756" lon="5.71344">
        <ele>1500.1999511719</ele>
        <time>2011-12-27T10:02:49.000Z</time>
      </trkpt>
      <trkpt lat="45.33755" lon="5.71339">
        <ele>1500.1999511719</ele>
        <time>2011-12-27T10:02:53.000Z</time>
      </trkpt>
      <trkpt lat="45.33754" lon="5.71328">
        <ele>1500.5999755859</ele>
        <time>2011-12-27T10:03:02.000Z</time>
      </trkpt>
      <trkpt lat="45.33753" lon="5.71325">
        <ele>1500.5999755859</ele>
        <time>2011-12-27T10:03:07.000Z</time>
      </trkpt>
      <trkpt lat="45.33751" lon="5.71323">
        <ele>1501.5999755859</ele>
        <time>2011-12-27T10:03:12.000Z</time>
      </trkpt>
      <trkpt lat="45.33748" lon="5.71319">
        <ele>1501.4000244141</ele>
        <time>2011-12-27T10:03:17.000Z</time>
      </trkpt>
      <trkpt lat="45.33746" lon="5.71319">
        <ele>1501</ele>
        <time>2011-12-27T10:03:22.000Z</time>
      </trkpt>
      <trkpt lat="45.33744" lon="5.71316">
        <ele>1501</ele>
        <time>2011-12-27T10:03:27.000Z</time>
      </trkpt>
      <trkpt lat="45.33741" lon="5.71309">
        <ele>1500.8000488281</ele>
        <time>2011-12-27T10:03:33.000Z</time>
      </trkpt>
      <trkpt lat="45.33738" lon="5.71302">
        <ele>1501.1999511719</ele>
        <time>2011-12-27T10:03:39.000Z</time>
      </trkpt>
      <trkpt lat="45.33737" lon="5.713">
        <ele>1501.4000244141</ele>
        <time>2011-12-27T10:03:40.000Z</time>
      </trkpt>
      <trkpt lat="45.33736" lon="5.71295">
        <ele>1501</ele>
        <time>2011-12-27T10:03:44.000Z</time>
      </trkpt>
      <trkpt lat="45.33736" lon="5.71287">
        <ele>1499.5999755859</ele>
        <time>2011-12-27T10:03:49.000Z</time>
      </trkpt>
      <trkpt lat="45.33733" lon="5.71275">
        <ele>1499.4000244141</ele>
        <time>2011-12-27T10:03:56.000Z</time>
      </trkpt>
      <trkpt lat="45.3373" lon="5.71262">
        <ele>1498.4000244141</ele>
        <time>2011-12-27T10:04:03.000Z</time>
      </trkpt>
      <trkpt lat="45.33727" lon="5.71249">
        <ele>1499</ele>
        <time>2011-12-27T10:04:10.000Z</time>
      </trkpt>
      <trkpt lat="45.33726" lon="5.71238">
        <ele>1497.8000488281</ele>
        <time>2011-12-27T10:04:15.000Z</time>
      </trkpt>
      <trkpt lat="45.33728" lon="5.71233">
        <ele>1499</ele>
        <time>2011-12-27T10:04:21.000Z</time>
      </trkpt>
      <trkpt lat="45.33728" lon="5.71228">
        <ele>1497.1999511719</ele>
        <time>2011-12-27T10:04:27.000Z</time>
      </trkpt>
      <trkpt lat="45.33729" lon="5.71222">
        <ele>1497.4000244141</ele>
        <time>2011-12-27T10:04:34.000Z</time>
      </trkpt>
      <trkpt lat="45.33726" lon="5.71219">
        <ele>1498.4000244141</ele>
        <time>2011-12-27T10:05:20.000Z</time>
      </trkpt>
      <trkpt lat="45.33726" lon="5.7122">
        <ele>1500</ele>
        <time>2011-12-27T10:06:16.000Z</time>
      </trkpt>
      <trkpt lat="45.33727" lon="5.71218">
        <ele>1498.5999755859</ele>
        <time>2011-12-27T10:06:18.000Z</time>
      </trkpt>
      <trkpt lat="45.33727" lon="5.71215">
        <ele>1499</ele>
        <time>2011-12-27T10:06:20.000Z</time>
      </trkpt>
      <trkpt lat="45.33729" lon="5.71203">
        <ele>1500</ele>
        <time>2011-12-27T10:06:28.000Z</time>
      </trkpt>
      <trkpt lat="45.33731" lon="5.71193">
        <ele>1502</ele>
        <time>2011-12-27T10:06:35.000Z</time>
      </trkpt>
      <trkpt lat="45.33736" lon="5.71189">
        <ele>1504.1999511719</ele>
        <time>2011-12-27T10:06:43.000Z</time>
      </trkpt>
      <trkpt lat="45.3374" lon="5.71184">
        <ele>1504</ele>
        <time>2011-12-27T10:06:58.000Z</time>
      </trkpt>
      <trkpt lat="45.33742" lon="5.71175">
        <ele>1507</ele>
        <time>2011-12-27T10:07:06.000Z</time>
      </trkpt>
      <trkpt lat="45.33744" lon="5.71167">
        <ele>1509.1999511719</ele>
        <time>2011-12-27T10:07:13.000Z</time>
      </trkpt>
      <trkpt lat="45.33746" lon="5.71158">
        <ele>1510</ele>
        <time>2011-12-27T10:07:21.000Z</time>
      </trkpt>
      <trkpt lat="45.3375" lon="5.7115">
        <ele>1512.1999511719</ele>
        <time>2011-12-27T10:07:29.000Z</time>
      </trkpt>
      <trkpt lat="45.33751" lon="5.71141">
        <ele>1514.4000244141</ele>
        <time>2011-12-27T10:07:37.000Z</time>
      </trkpt>
      <trkpt lat="45.33752" lon="5.71139">
        <ele>1515.1999511719</ele>
        <time>2011-12-27T10:07:39.000Z</time>
      </trkpt>
      <trkpt lat="45.33754" lon="5.71132">
        <ele>1514.8000488281</ele>
        <time>2011-12-27T10:07:47.000Z</time>
      </trkpt>
      <trkpt lat="45.33756" lon="5.71125">
        <ele>1516.5999755859</ele>
        <time>2011-12-27T10:07:55.000Z</time>
      </trkpt>
      <trkpt lat="45.33757" lon="5.71119">
        <ele>1520.1999511719</ele>
        <time>2011-12-27T10:08:01.000Z</time>
      </trkpt>
      <trkpt lat="45.33758" lon="5.71114">
        <ele>1521.1999511719</ele>
        <time>2011-12-27T10:08:08.000Z</time>
      </trkpt>
      <trkpt lat="45.33759" lon="5.71107">
        <ele>1522.1999511719</ele>
        <time>2011-12-27T10:08:15.000Z</time>
      </trkpt>
      <trkpt lat="45.3376" lon="5.71106">
        <ele>1523</ele>
        <time>2011-12-27T10:08:17.000Z</time>
      </trkpt>
      <trkpt lat="45.3376" lon="5.71099">
        <ele>1524</ele>
        <time>2011-12-27T10:08:24.000Z</time>
      </trkpt>
      <trkpt lat="45.33761" lon="5.71093">
        <ele>1525.1999511719</ele>
        <time>2011-12-27T10:08:31.000Z</time>
      </trkpt>
      <trkpt lat="45.33762" lon="5.71087">
        <ele>1528.8000488281</ele>
        <time>2011-12-27T10:08:40.000Z</time>
      </trkpt>
      <trkpt lat="45.33763" lon="5.71081">
        <ele>1531</ele>
        <time>2011-12-27T10:08:47.000Z</time>
      </trkpt>
      <trkpt lat="45.33763" lon="5.71074">
        <ele>1533.1999511719</ele>
        <time>2011-12-27T10:08:55.000Z</time>
      </trkpt>
      <trkpt lat="45.33763" lon="5.71068">
        <ele>1534.4000244141</ele>
        <time>2011-12-27T10:09:02.000Z</time>
      </trkpt>
      <trkpt lat="45.33764" lon="5.71063">
        <ele>1535.5999755859</ele>
        <time>2011-12-27T10:09:09.000Z</time>
      </trkpt>
      <trkpt lat="45.33764" lon="5.71058">
        <ele>1538.5999755859</ele>
        <time>2011-12-27T10:09:15.000Z</time>
      </trkpt>
      <trkpt lat="45.33765" lon="5.71055">
        <ele>1537.1999511719</ele>
        <time>2011-12-27T10:09:18.000Z</time>
      </trkpt>
      <trkpt lat="45.33765" lon="5.71047">
        <ele>1541.4000244141</ele>
        <time>2011-12-27T10:09:26.000Z</time>
      </trkpt>
      <trkpt lat="45.33765" lon="5.71041">
        <ele>1540.1999511719</ele>
        <time>2011-12-27T10:09:33.000Z</time>
      </trkpt>
      <trkpt lat="45.33765" lon="5.71036">
        <ele>1543.1999511719</ele>
        <time>2011-12-27T10:09:38.000Z</time>
      </trkpt>
      <trkpt lat="45.33766" lon="5.71028">
        <ele>1542.8000488281</ele>
        <time>2011-12-27T10:09:45.000Z</time>
      </trkpt>
      <trkpt lat="45.33766" lon="5.7102">
        <ele>1544</ele>
        <time>2011-12-27T10:09:52.000Z</time>
      </trkpt>
      <trkpt lat="45.33768" lon="5.7101">
        <ele>1545.8000488281</ele>
        <time>2011-12-27T10:10:01.000Z</time>
      </trkpt>
      <trkpt lat="45.33767" lon="5.71002">
        <ele>1548</ele>
        <time>2011-12-27T10:10:08.000Z</time>
      </trkpt>
      <trkpt lat="45.33768" lon="5.70994">
        <ele>1549</ele>
        <time>2011-12-27T10:10:16.000Z</time>
      </trkpt>
      <trkpt lat="45.33768" lon="5.70994">
        <ele>1550</ele>
        <time>2011-12-27T10:10:19.000Z</time>
      </trkpt>
      <trkpt lat="45.3377" lon="5.70992">
        <ele>1550.5999755859</ele>
        <time>2011-12-27T10:10:31.000Z</time>
      </trkpt>
      <trkpt lat="45.33772" lon="5.70989">
        <ele>1552</ele>
        <time>2011-12-27T10:10:36.000Z</time>
      </trkpt>
      <trkpt lat="45.33773" lon="5.70989">
        <ele>1553.8000488281</ele>
        <time>2011-12-27T10:10:38.000Z</time>
      </trkpt>
      <trkpt lat="45.33776" lon="5.70988">
        <ele>1554.4000244141</ele>
        <time>2011-12-27T10:10:45.000Z</time>
      </trkpt>
      <trkpt lat="45.33778" lon="5.70984">
        <ele>1556.4000244141</ele>
        <time>2011-12-27T10:10:51.000Z</time>
      </trkpt>
      <trkpt lat="45.3378" lon="5.7098">
        <ele>1557.5999755859</ele>
        <time>2011-12-27T10:10:58.000Z</time>
      </trkpt>
      <trkpt lat="45.33785" lon="5.70977">
        <ele>1559.1999511719</ele>
        <time>2011-12-27T10:11:06.000Z</time>
      </trkpt>
      <trkpt lat="45.33787" lon="5.70971">
        <ele>1560.8000488281</ele>
        <time>2011-12-27T10:11:13.000Z</time>
      </trkpt>
      <trkpt lat="45.33788" lon="5.70968">
        <ele>1562</ele>
        <time>2011-12-27T10:11:18.000Z</time>
      </trkpt>
      <trkpt lat="45.33787" lon="5.70964">
        <ele>1563.5999755859</ele>
        <time>2011-12-27T10:11:25.000Z</time>
      </trkpt>
      <trkpt lat="45.33784" lon="5.70958">
        <ele>1565.8000488281</ele>
        <time>2011-12-27T10:11:36.000Z</time>
      </trkpt>
      <trkpt lat="45.33784" lon="5.70956">
        <ele>1567.5999755859</ele>
        <time>2011-12-27T10:11:40.000Z</time>
      </trkpt>
      <trkpt lat="45.33785" lon="5.70949">
        <ele>1568.5999755859</ele>
        <time>2011-12-27T10:11:49.000Z</time>
      </trkpt>
      <trkpt lat="45.33785" lon="5.70947">
        <ele>1569.5999755859</ele>
        <time>2011-12-27T10:11:51.000Z</time>
      </trkpt>
      <trkpt lat="45.33787" lon="5.70942">
        <ele>1570.4000244141</ele>
        <time>2011-12-27T10:11:56.000Z</time>
      </trkpt>
      <trkpt lat="45.3379" lon="5.70929">
        <ele>1569</ele>
        <time>2011-12-27T10:12:06.000Z</time>
      </trkpt>
      <trkpt lat="45.33792" lon="5.70923">
        <ele>1568.8000488281</ele>
        <time>2011-12-27T10:12:13.000Z</time>
      </trkpt>
      <trkpt lat="45.33794" lon="5.70915">
        <ele>1571</ele>
        <time>2011-12-27T10:12:21.000Z</time>
      </trkpt>
      <trkpt lat="45.33794" lon="5.70914">
        <ele>1571.1999511719</ele>
        <time>2011-12-27T10:12:22.000Z</time>
      </trkpt>
      <trkpt lat="45.33795" lon="5.70908">
        <ele>1571.4000244141</ele>
        <time>2011-12-27T10:12:29.000Z</time>
      </trkpt>
      <trkpt lat="45.33797" lon="5.70905">
        <ele>1573.4000244141</ele>
        <time>2011-12-27T10:12:34.000Z</time>
      </trkpt>
      <trkpt lat="45.33798" lon="5.70904">
        <ele>1575</ele>
        <time>2011-12-27T10:12:36.000Z</time>
      </trkpt>
      <trkpt lat="45.33799" lon="5.70903">
        <ele>1576.4000244141</ele>
        <time>2011-12-27T10:12:39.000Z</time>
      </trkpt>
      <trkpt lat="45.33802" lon="5.70899">
        <ele>1576.8000488281</ele>
        <time>2011-12-27T10:12:46.000Z</time>
      </trkpt>
      <trkpt lat="45.33802" lon="5.70898">
        <ele>1577.8000488281</ele>
        <time>2011-12-27T10:12:48.000Z</time>
      </trkpt>
      <trkpt lat="45.33804" lon="5.70895">
        <ele>1578.8000488281</ele>
        <time>2011-12-27T10:12:54.000Z</time>
      </trkpt>
      <trkpt lat="45.33804" lon="5.70894">
        <ele>1579</ele>
        <time>2011-12-27T10:12:55.000Z</time>
      </trkpt>
      <trkpt lat="45.33805" lon="5.7089">
        <ele>1580.5999755859</ele>
        <time>2011-12-27T10:13:01.000Z</time>
      </trkpt>
      <trkpt lat="45.33803" lon="5.70886">
        <ele>1583</ele>
        <time>2011-12-27T10:13:12.000Z</time>
      </trkpt>
      <trkpt lat="45.33803" lon="5.70885">
        <ele>1583.4000244141</ele>
        <time>2011-12-27T10:13:13.000Z</time>
      </trkpt>
      <trkpt lat="45.33803" lon="5.70881">
        <ele>1583.4000244141</ele>
        <time>2011-12-27T10:13:21.000Z</time>
      </trkpt>
      <trkpt lat="45.33803" lon="5.70878">
        <ele>1584.1999511719</ele>
        <time>2011-12-27T10:13:31.000Z</time>
      </trkpt>
      <trkpt lat="45.33804" lon="5.70873">
        <ele>1584.8000488281</ele>
        <time>2011-12-27T10:13:39.000Z</time>
      </trkpt>
      <trkpt lat="45.33807" lon="5.7087">
        <ele>1587.4000244141</ele>
        <time>2011-12-27T10:13:48.000Z</time>
      </trkpt>
      <trkpt lat="45.33806" lon="5.70863">
        <ele>1589.1999511719</ele>
        <time>2011-12-27T10:13:54.000Z</time>
      </trkpt>
      <trkpt lat="45.33807" lon="5.7086">
        <ele>1589.1999511719</ele>
        <time>2011-12-27T10:13:59.000Z</time>
      </trkpt>
      <trkpt lat="45.33809" lon="5.70858">
        <ele>1591.4000244141</ele>
        <time>2011-12-27T10:14:03.000Z</time>
      </trkpt>
      <trkpt lat="45.33813" lon="5.70855">
        <ele>1591.4000244141</ele>
        <time>2011-12-27T10:14:11.000Z</time>
      </trkpt>
      <trkpt lat="45.33815" lon="5.70853">
        <ele>1593.1999511719</ele>
        <time>2011-12-27T10:14:16.000Z</time>
      </trkpt>
      <trkpt lat="45.33816" lon="5.70848">
        <ele>1594.1999511719</ele>
        <time>2011-12-27T10:14:22.000Z</time>
      </trkpt>
      <trkpt lat="45.33813" lon="5.70842">
        <ele>1596.4000244141</ele>
        <time>2011-12-27T10:14:30.000Z</time>
      </trkpt>
      <trkpt lat="45.33811" lon="5.70839">
        <ele>1597.4000244141</ele>
        <time>2011-12-27T10:14:39.000Z</time>
      </trkpt>
      <trkpt lat="45.3381" lon="5.70835">
        <ele>1600</ele>
        <time>2011-12-27T10:14:48.000Z</time>
      </trkpt>
      <trkpt lat="45.33809" lon="5.70832">
        <ele>1602.1999511719</ele>
        <time>2011-12-27T10:14:58.000Z</time>
      </trkpt>
      <trkpt lat="45.33807" lon="5.70827">
        <ele>1604.4000244141</ele>
        <time>2011-12-27T10:15:08.000Z</time>
      </trkpt>
      <trkpt lat="45.33806" lon="5.70823">
        <ele>1605</ele>
        <time>2011-12-27T10:15:17.000Z</time>
      </trkpt>
      <trkpt lat="45.33805" lon="5.70816">
        <ele>1605.1999511719</ele>
        <time>2011-12-27T10:15:26.000Z</time>
      </trkpt>
      <trkpt lat="45.33806" lon="5.70815">
        <ele>1607</ele>
        <time>2011-12-27T10:15:28.000Z</time>
      </trkpt>
      <trkpt lat="45.3381" lon="5.70812">
        <ele>1607.8000488281</ele>
        <time>2011-12-27T10:15:37.000Z</time>
      </trkpt>
      <trkpt lat="45.33811" lon="5.70812">
        <ele>1609.4000244141</ele>
        <time>2011-12-27T10:15:39.000Z</time>
      </trkpt>
      <trkpt lat="45.33815" lon="5.7081">
        <ele>1610.8000488281</ele>
        <time>2011-12-27T10:15:48.000Z</time>
      </trkpt>
      <trkpt lat="45.33821" lon="5.70808">
        <ele>1612.5999755859</ele>
        <time>2011-12-27T10:15:57.000Z</time>
      </trkpt>
      <trkpt lat="45.33825" lon="5.70807">
        <ele>1614</ele>
        <time>2011-12-27T10:16:04.000Z</time>
      </trkpt>
      <trkpt lat="45.33829" lon="5.70805">
        <ele>1615</ele>
        <time>2011-12-27T10:16:11.000Z</time>
      </trkpt>
      <trkpt lat="45.33832" lon="5.70804">
        <ele>1616.8000488281</ele>
        <time>2011-12-27T10:16:18.000Z</time>
      </trkpt>
      <trkpt lat="45.33829" lon="5.70798">
        <ele>1618</ele>
        <time>2011-12-27T10:16:30.000Z</time>
      </trkpt>
      <trkpt lat="45.33827" lon="5.70796">
        <ele>1619.1999511719</ele>
        <time>2011-12-27T10:16:34.000Z</time>
      </trkpt>
      <trkpt lat="45.33824" lon="5.7079">
        <ele>1621.1999511719</ele>
        <time>2011-12-27T10:16:44.000Z</time>
      </trkpt>
      <trkpt lat="45.33821" lon="5.70783">
        <ele>1621.5999755859</ele>
        <time>2011-12-27T10:16:55.000Z</time>
      </trkpt>
      <trkpt lat="45.3382" lon="5.70781">
        <ele>1623</ele>
        <time>2011-12-27T10:16:59.000Z</time>
      </trkpt>
      <trkpt lat="45.33819" lon="5.70774">
        <ele>1625.1999511719</ele>
        <time>2011-12-27T10:17:09.000Z</time>
      </trkpt>
      <trkpt lat="45.33818" lon="5.70773">
        <ele>1625.8000488281</ele>
        <time>2011-12-27T10:17:11.000Z</time>
      </trkpt>
      <trkpt lat="45.33817" lon="5.70768">
        <ele>1625.1999511719</ele>
        <time>2011-12-27T10:17:17.000Z</time>
      </trkpt>
      <trkpt lat="45.33816" lon="5.70763">
        <ele>1626.5999755859</ele>
        <time>2011-12-27T10:17:24.000Z</time>
      </trkpt>
      <trkpt lat="45.33814" lon="5.70755">
        <ele>1628.1999511719</ele>
        <time>2011-12-27T10:17:33.000Z</time>
      </trkpt>
      <trkpt lat="45.3381" lon="5.70747">
        <ele>1630</ele>
        <time>2011-12-27T10:17:44.000Z</time>
      </trkpt>
      <trkpt lat="45.33807" lon="5.70741">
        <ele>1632.5999755859</ele>
        <time>2011-12-27T10:17:52.000Z</time>
      </trkpt>
      <trkpt lat="45.33804" lon="5.70733">
        <ele>1634.4000244141</ele>
        <time>2011-12-27T10:18:02.000Z</time>
      </trkpt>
      <trkpt lat="45.33802" lon="5.70727">
        <ele>1634.1999511719</ele>
        <time>2011-12-27T10:18:12.000Z</time>
      </trkpt>
      <trkpt lat="45.33803" lon="5.70727">
        <ele>1635.8000488281</ele>
        <time>2011-12-27T10:18:17.000Z</time>
      </trkpt>
      <trkpt lat="45.33807" lon="5.70727">
        <ele>1638.5999755859</ele>
        <time>2011-12-27T10:18:24.000Z</time>
      </trkpt>
      <trkpt lat="45.33811" lon="5.70726">
        <ele>1639.8000488281</ele>
        <time>2011-12-27T10:18:32.000Z</time>
      </trkpt>
      <trkpt lat="45.33812" lon="5.70726">
        <ele>1639.8000488281</ele>
        <time>2011-12-27T10:18:33.000Z</time>
      </trkpt>
      <trkpt lat="45.33816" lon="5.70724">
        <ele>1640.5999755859</ele>
        <time>2011-12-27T10:18:42.000Z</time>
      </trkpt>
      <trkpt lat="45.3382" lon="5.70722">
        <ele>1641.8000488281</ele>
        <time>2011-12-27T10:18:49.000Z</time>
      </trkpt>
      <trkpt lat="45.33816" lon="5.70717">
        <ele>1644.5999755859</ele>
        <time>2011-12-27T10:19:00.000Z</time>
      </trkpt>
      <trkpt lat="45.33811" lon="5.70708">
        <ele>1645.1999511719</ele>
        <time>2011-12-27T10:19:12.000Z</time>
      </trkpt>
      <trkpt lat="45.33809" lon="5.70704">
        <ele>1647.4000244141</ele>
        <time>2011-12-27T10:19:18.000Z</time>
      </trkpt>
      <trkpt lat="45.33805" lon="5.70694">
        <ele>1647.5999755859</ele>
        <time>2011-12-27T10:19:30.000Z</time>
      </trkpt>
      <trkpt lat="45.33805" lon="5.70692">
        <ele>1649.8000488281</ele>
        <time>2011-12-27T10:19:34.000Z</time>
      </trkpt>
      <trkpt lat="45.33808" lon="5.70693">
        <ele>1652.4000244141</ele>
        <time>2011-12-27T10:19:40.000Z</time>
      </trkpt>
      <trkpt lat="45.33808" lon="5.70694">
        <ele>1652.4000244141</ele>
        <time>2011-12-27T10:19:41.000Z</time>
      </trkpt>
      <trkpt lat="45.33814" lon="5.70694">
        <ele>1650.5999755859</ele>
        <time>2011-12-27T10:19:51.000Z</time>
      </trkpt>
      <trkpt lat="45.33821" lon="5.70693">
        <ele>1654.4000244141</ele>
        <time>2011-12-27T10:20:01.000Z</time>
      </trkpt>
      <trkpt lat="45.33822" lon="5.70693">
        <ele>1655.4000244141</ele>
        <time>2011-12-27T10:20:03.000Z</time>
      </trkpt>
      <trkpt lat="45.33826" lon="5.70693">
        <ele>1656.8000488281</ele>
        <time>2011-12-27T10:20:10.000Z</time>
      </trkpt>
      <trkpt lat="45.3383" lon="5.70693">
        <ele>1657</ele>
        <time>2011-12-27T10:20:15.000Z</time>
      </trkpt>
      <trkpt lat="45.33833" lon="5.70692">
        <ele>1659.8000488281</ele>
        <time>2011-12-27T10:20:21.000Z</time>
      </trkpt>
      <trkpt lat="45.33839" lon="5.70691">
        <ele>1660.8000488281</ele>
        <time>2011-12-27T10:20:29.000Z</time>
      </trkpt>
      <trkpt lat="45.3384" lon="5.70691">
        <ele>1661</ele>
        <time>2011-12-27T10:20:30.000Z</time>
      </trkpt>
      <trkpt lat="45.33841" lon="5.7069">
        <ele>1660.5999755859</ele>
        <time>2011-12-27T10:20:35.000Z</time>
      </trkpt>
      <trkpt lat="45.33838" lon="5.70688">
        <ele>1661.8000488281</ele>
        <time>2011-12-27T10:20:43.000Z</time>
      </trkpt>
      <trkpt lat="45.33836" lon="5.70686">
        <ele>1663.8000488281</ele>
        <time>2011-12-27T10:20:47.000Z</time>
      </trkpt>
      <trkpt lat="45.33837" lon="5.7068">
        <ele>1664</ele>
        <time>2011-12-27T10:20:56.000Z</time>
      </trkpt>
      <trkpt lat="45.33838" lon="5.70677">
        <ele>1664.4000244141</ele>
        <time>2011-12-27T10:21:03.000Z</time>
      </trkpt>
      <trkpt lat="45.33835" lon="5.7067">
        <ele>1668.1999511719</ele>
        <time>2011-12-27T10:21:11.000Z</time>
      </trkpt>
      <trkpt lat="45.33836" lon="5.7067">
        <ele>1667.8000488281</ele>
        <time>2011-12-27T10:21:12.000Z</time>
      </trkpt>
      <trkpt lat="45.33836" lon="5.7067">
        <ele>1669</ele>
        <time>2011-12-27T10:21:19.000Z</time>
      </trkpt>
      <trkpt lat="45.33836" lon="5.70668">
        <ele>1669</ele>
        <time>2011-12-27T10:21:23.000Z</time>
      </trkpt>
      <trkpt lat="45.33842" lon="5.70663">
        <ele>1672.4000244141</ele>
        <time>2011-12-27T10:21:31.000Z</time>
      </trkpt>
      <trkpt lat="45.33848" lon="5.70656">
        <ele>1672.4000244141</ele>
        <time>2011-12-27T10:21:40.000Z</time>
      </trkpt>
      <trkpt lat="45.33851" lon="5.70649">
        <ele>1673</ele>
        <time>2011-12-27T10:21:48.000Z</time>
      </trkpt>
      <trkpt lat="45.33852" lon="5.70644">
        <ele>1675.5999755859</ele>
        <time>2011-12-27T10:21:53.000Z</time>
      </trkpt>
      <trkpt lat="45.33853" lon="5.70636">
        <ele>1675</ele>
        <time>2011-12-27T10:22:01.000Z</time>
      </trkpt>
      <trkpt lat="45.33853" lon="5.70628">
        <ele>1678.4000244141</ele>
        <time>2011-12-27T10:22:09.000Z</time>
      </trkpt>
      <trkpt lat="45.33854" lon="5.70625">
        <ele>1679.8000488281</ele>
        <time>2011-12-27T10:22:13.000Z</time>
      </trkpt>
      <trkpt lat="45.33854" lon="5.70616">
        <ele>1680.5999755859</ele>
        <time>2011-12-27T10:22:22.000Z</time>
      </trkpt>
      <trkpt lat="45.33854" lon="5.70613">
        <ele>1679.5999755859</ele>
        <time>2011-12-27T10:22:25.000Z</time>
      </trkpt>
      <trkpt lat="45.33851" lon="5.70606">
        <ele>1680.8000488281</ele>
        <time>2011-12-27T10:22:34.000Z</time>
      </trkpt>
      <trkpt lat="45.33845" lon="5.70597">
        <ele>1681.8000488281</ele>
        <time>2011-12-27T10:22:43.000Z</time>
      </trkpt>
      <trkpt lat="45.33838" lon="5.70588">
        <ele>1682.1999511719</ele>
        <time>2011-12-27T10:22:53.000Z</time>
      </trkpt>
      <trkpt lat="45.33831" lon="5.70581">
        <ele>1681.1999511719</ele>
        <time>2011-12-27T10:23:02.000Z</time>
      </trkpt>
      <trkpt lat="45.33825" lon="5.70574">
        <ele>1683.4000244141</ele>
        <time>2011-12-27T10:23:11.000Z</time>
      </trkpt>
      <trkpt lat="45.33818" lon="5.7057">
        <ele>1681.5999755859</ele>
        <time>2011-12-27T10:23:15.000Z</time>
      </trkpt>
      <trkpt lat="45.33813" lon="5.70566">
        <ele>1681</ele>
        <time>2011-12-27T10:23:23.000Z</time>
      </trkpt>
      <trkpt lat="45.33811" lon="5.70561">
        <ele>1683.1999511719</ele>
        <time>2011-12-27T10:23:28.000Z</time>
      </trkpt>
      <trkpt lat="45.33808" lon="5.70551">
        <ele>1683.1999511719</ele>
        <time>2011-12-27T10:23:38.000Z</time>
      </trkpt>
      <trkpt lat="45.33808" lon="5.70547">
        <ele>1684.8000488281</ele>
        <time>2011-12-27T10:23:41.000Z</time>
      </trkpt>
      <trkpt lat="45.33808" lon="5.70539">
        <ele>1687.5999755859</ele>
        <time>2011-12-27T10:23:49.000Z</time>
      </trkpt>
      <trkpt lat="45.33808" lon="5.70534">
        <ele>1687.8000488281</ele>
        <time>2011-12-27T10:23:56.000Z</time>
      </trkpt>
      <trkpt lat="45.33808" lon="5.70525">
        <ele>1689.5999755859</ele>
        <time>2011-12-27T10:24:05.000Z</time>
      </trkpt>
      <trkpt lat="45.33807" lon="5.70522">
        <ele>1690.8000488281</ele>
        <time>2011-12-27T10:24:10.000Z</time>
      </trkpt>
      <trkpt lat="45.33806" lon="5.70519">
        <ele>1690.5999755859</ele>
        <time>2011-12-27T10:24:17.000Z</time>
      </trkpt>
      <trkpt lat="45.33805" lon="5.70514">
        <ele>1693.4000244141</ele>
        <time>2011-12-27T10:24:25.000Z</time>
      </trkpt>
      <trkpt lat="45.33803" lon="5.70511">
        <ele>1693.5999755859</ele>
        <time>2011-12-27T10:24:31.000Z</time>
      </trkpt>
      <trkpt lat="45.33802" lon="5.7051">
        <ele>1694.8000488281</ele>
        <time>2011-12-27T10:24:33.000Z</time>
      </trkpt>
      <trkpt lat="45.33796" lon="5.70507">
        <ele>1696.5999755859</ele>
        <time>2011-12-27T10:24:40.000Z</time>
      </trkpt>
      <trkpt lat="45.33789" lon="5.70505">
        <ele>1697</ele>
        <time>2011-12-27T10:24:50.000Z</time>
      </trkpt>
      <trkpt lat="45.33786" lon="5.70502">
        <ele>1697.1999511719</ele>
        <time>2011-12-27T10:24:55.000Z</time>
      </trkpt>
      <trkpt lat="45.33781" lon="5.70492">
        <ele>1698</ele>
        <time>2011-12-27T10:25:03.000Z</time>
      </trkpt>
      <trkpt lat="45.33779" lon="5.70485">
        <ele>1698.4000244141</ele>
        <time>2011-12-27T10:25:08.000Z</time>
      </trkpt>
      <trkpt lat="45.33781" lon="5.70478">
        <ele>1697.8000488281</ele>
        <time>2011-12-27T10:25:15.000Z</time>
      </trkpt>
      <trkpt lat="45.33782" lon="5.70473">
        <ele>1699</ele>
        <time>2011-12-27T10:25:20.000Z</time>
      </trkpt>
      <trkpt lat="45.33783" lon="5.70473">
        <ele>1700.1999511719</ele>
        <time>2011-12-27T10:25:22.000Z</time>
      </trkpt>
      <trkpt lat="45.33787" lon="5.70467">
        <ele>1701.8000488281</ele>
        <time>2011-12-27T10:25:32.000Z</time>
      </trkpt>
      <trkpt lat="45.33788" lon="5.70462">
        <ele>1702.5999755859</ele>
        <time>2011-12-27T10:25:40.000Z</time>
      </trkpt>
      <trkpt lat="45.33789" lon="5.70455">
        <ele>1704.8000488281</ele>
        <time>2011-12-27T10:25:48.000Z</time>
      </trkpt>
      <trkpt lat="45.33789" lon="5.7045">
        <ele>1704.8000488281</ele>
        <time>2011-12-27T10:25:56.000Z</time>
      </trkpt>
      <trkpt lat="45.33789" lon="5.70444">
        <ele>1704.4000244141</ele>
        <time>2011-12-27T10:26:03.000Z</time>
      </trkpt>
      <trkpt lat="45.33789" lon="5.70437">
        <ele>1707</ele>
        <time>2011-12-27T10:26:11.000Z</time>
      </trkpt>
      <trkpt lat="45.3379" lon="5.7043">
        <ele>1709.8000488281</ele>
        <time>2011-12-27T10:26:19.000Z</time>
      </trkpt>
      <trkpt lat="45.3379" lon="5.70423">
        <ele>1710.1999511719</ele>
        <time>2011-12-27T10:26:27.000Z</time>
      </trkpt>
      <trkpt lat="45.33792" lon="5.70418">
        <ele>1711.4000244141</ele>
        <time>2011-12-27T10:26:34.000Z</time>
      </trkpt>
      <trkpt lat="45.33791" lon="5.70414">
        <ele>1712.1999511719</ele>
        <time>2011-12-27T10:26:40.000Z</time>
      </trkpt>
      <trkpt lat="45.33784" lon="5.70416">
        <ele>1713.8000488281</ele>
        <time>2011-12-27T10:26:55.000Z</time>
      </trkpt>
      <trkpt lat="45.33781" lon="5.70419">
        <ele>1714.4000244141</ele>
        <time>2011-12-27T10:27:01.000Z</time>
      </trkpt>
      <trkpt lat="45.33778" lon="5.70423">
        <ele>1716.8000488281</ele>
        <time>2011-12-27T10:27:07.000Z</time>
      </trkpt>
      <trkpt lat="45.33772" lon="5.70426">
        <ele>1716.4000244141</ele>
        <time>2011-12-27T10:27:16.000Z</time>
      </trkpt>
      <trkpt lat="45.33769" lon="5.70428">
        <ele>1718</ele>
        <time>2011-12-27T10:27:21.000Z</time>
      </trkpt>
      <trkpt lat="45.33767" lon="5.7043">
        <ele>1720</ele>
        <time>2011-12-27T10:27:25.000Z</time>
      </trkpt>
      <trkpt lat="45.3376" lon="5.70432">
        <ele>1721.4000244141</ele>
        <time>2011-12-27T10:27:35.000Z</time>
      </trkpt>
      <trkpt lat="45.33758" lon="5.70426">
        <ele>1721.1999511719</ele>
        <time>2011-12-27T10:27:43.000Z</time>
      </trkpt>
      <trkpt lat="45.33758" lon="5.70422">
        <ele>1721.1999511719</ele>
        <time>2011-12-27T10:27:47.000Z</time>
      </trkpt>
      <trkpt lat="45.33759" lon="5.70413">
        <ele>1721.4000244141</ele>
        <time>2011-12-27T10:27:57.000Z</time>
      </trkpt>
      <trkpt lat="45.33759" lon="5.70407">
        <ele>1721.5999755859</ele>
        <time>2011-12-27T10:28:08.000Z</time>
      </trkpt>
      <trkpt lat="45.3376" lon="5.70409">
        <ele>1724.5999755859</ele>
        <time>2011-12-27T10:29:17.000Z</time>
      </trkpt>
      <trkpt lat="45.33762" lon="5.70408">
        <ele>1721.4000244141</ele>
        <time>2011-12-27T10:30:50.000Z</time>
      </trkpt>
      <trkpt lat="45.33761" lon="5.70408">
        <ele>1723</ele>
        <time>2011-12-27T10:31:04.000Z</time>
      </trkpt>
      <trkpt lat="45.3376" lon="5.70407">
        <ele>1724.5999755859</ele>
        <time>2011-12-27T10:36:40.000Z</time>
      </trkpt>
      <trkpt lat="45.33758" lon="5.70408">
        <ele>1722.1999511719</ele>
        <time>2011-12-27T10:38:28.000Z</time>
      </trkpt>
      <trkpt lat="45.33757" lon="5.70414">
        <ele>1722.1999511719</ele>
        <time>2011-12-27T10:40:20.000Z</time>
      </trkpt>
      <trkpt lat="45.3376" lon="5.70418">
        <ele>1723.1999511719</ele>
        <time>2011-12-27T10:40:30.000Z</time>
      </trkpt>
      <trkpt lat="45.33757" lon="5.70417">
        <ele>1723.5999755859</ele>
        <time>2011-12-27T10:41:58.000Z</time>
      </trkpt>
      <trkpt lat="45.33756" lon="5.70411">
        <ele>1722.5999755859</ele>
        <time>2011-12-27T10:42:06.000Z</time>
      </trkpt>
      <trkpt lat="45.33756" lon="5.70409">
        <ele>1722.5999755859</ele>
        <time>2011-12-27T10:42:11.000Z</time>
      </trkpt>
      <trkpt lat="45.33758" lon="5.7041">
        <ele>1721</ele>
        <time>2011-12-27T10:43:04.000Z</time>
      </trkpt>
      <trkpt lat="45.33758" lon="5.70408">
        <ele>1722.5999755859</ele>
        <time>2011-12-27T10:43:08.000Z</time>
      </trkpt>
      <trkpt lat="45.33757" lon="5.70407">
        <ele>1724.1999511719</ele>
        <time>2011-12-27T10:44:15.000Z</time>
      </trkpt>
      <trkpt lat="45.33758" lon="5.70412">
        <ele>1723.4000244141</ele>
        <time>2011-12-27T10:44:22.000Z</time>
      </trkpt>
      <trkpt lat="45.33758" lon="5.70413">
        <ele>1724</ele>
        <time>2011-12-27T10:44:40.000Z</time>
      </trkpt>
      <trkpt lat="45.33758" lon="5.7041">
        <ele>1722</ele>
        <time>2011-12-27T10:45:30.000Z</time>
      </trkpt>
      <trkpt lat="45.33758" lon="5.70408">
        <ele>1723.5999755859</ele>
        <time>2011-12-27T10:45:34.000Z</time>
      </trkpt>
      <trkpt lat="45.33758" lon="5.70409">
        <ele>1722.4000244141</ele>
        <time>2011-12-27T10:46:18.000Z</time>
      </trkpt>
      <trkpt lat="45.33757" lon="5.70409">
        <ele>1724.1999511719</ele>
        <time>2011-12-27T10:46:22.000Z</time>
      </trkpt>
      <trkpt lat="45.33757" lon="5.70409">
        <ele>1725.4000244141</ele>
        <time>2011-12-27T10:46:24.000Z</time>
      </trkpt>
      <trkpt lat="45.33757" lon="5.70406">
        <ele>1725.1999511719</ele>
        <time>2011-12-27T10:49:44.000Z</time>
      </trkpt>
      <trkpt lat="45.33757" lon="5.70405">
        <ele>1722.4000244141</ele>
        <time>2011-12-27T10:49:48.000Z</time>
      </trkpt>
      <trkpt lat="45.33758" lon="5.70406">
        <ele>1724.5999755859</ele>
        <time>2011-12-27T10:49:53.000Z</time>
      </trkpt>
      <trkpt lat="45.33757" lon="5.70407">
        <ele>1724.5999755859</ele>
        <time>2011-12-27T10:50:11.000Z</time>
      </trkpt>
      <trkpt lat="45.33757" lon="5.70407">
        <ele>1725.4000244141</ele>
        <time>2011-12-27T10:50:21.000Z</time>
      </trkpt>
      <trkpt lat="45.33757" lon="5.70408">
        <ele>1724</ele>
        <time>2011-12-27T10:50:28.000Z</time>
      </trkpt>
      <trkpt lat="45.33756" lon="5.70407">
        <ele>1725.4000244141</ele>
        <time>2011-12-27T10:50:39.000Z</time>
      </trkpt>
      <trkpt lat="45.33757" lon="5.70408">
        <ele>1725.4000244141</ele>
        <time>2011-12-27T10:50:58.000Z</time>
      </trkpt>
      <trkpt lat="45.33757" lon="5.70409">
        <ele>1726.4000244141</ele>
        <time>2011-12-27T10:51:00.000Z</time>
      </trkpt>
      <trkpt lat="45.33757" lon="5.70409">
        <ele>1720.4000244141</ele>
        <time>2011-12-27T10:51:35.000Z</time>
      </trkpt>
      <trkpt lat="45.33758" lon="5.70409">
        <ele>1726.5999755859</ele>
        <time>2011-12-27T10:51:39.000Z</time>
      </trkpt>
      <trkpt lat="45.33758" lon="5.70409">
        <ele>1725.1999511719</ele>
        <time>2011-12-27T10:51:43.000Z</time>
      </trkpt>
      <trkpt lat="45.33758" lon="5.70408">
        <ele>1720.5999755859</ele>
        <time>2011-12-27T10:51:58.000Z</time>
      </trkpt>
      <trkpt lat="45.33758" lon="5.70409">
        <ele>1731.5999755859</ele>
        <time>2011-12-27T10:52:01.000Z</time>
      </trkpt>
      <trkpt lat="45.33758" lon="5.70409">
        <ele>1730.4000244141</ele>
        <time>2011-12-27T10:52:02.000Z</time>
      </trkpt>
      <trkpt lat="45.33758" lon="5.7041">
        <ele>1728</ele>
        <time>2011-12-27T10:52:03.000Z</time>
      </trkpt>
      <trkpt lat="45.33755" lon="5.70415">
        <ele>1725</ele>
        <time>2011-12-27T10:52:06.000Z</time>
      </trkpt>
      <trkpt lat="45.33747" lon="5.70433">
        <ele>1722.5999755859</ele>
        <time>2011-12-27T10:52:11.000Z</time>
      </trkpt>
      <trkpt lat="45.33745" lon="5.70451">
        <ele>1720.8000488281</ele>
        <time>2011-12-27T10:52:15.000Z</time>
      </trkpt>
      <trkpt lat="45.33744" lon="5.7046">
        <ele>1720</ele>
        <time>2011-12-27T10:52:17.000Z</time>
      </trkpt>
      <trkpt lat="45.33745" lon="5.70469">
        <ele>1718.1999511719</ele>
        <time>2011-12-27T10:52:19.000Z</time>
      </trkpt>
      <trkpt lat="45.33743" lon="5.7048">
        <ele>1716.1999511719</ele>
        <time>2011-12-27T10:52:22.000Z</time>
      </trkpt>
      <trkpt lat="45.33745" lon="5.70493">
        <ele>1713.5999755859</ele>
        <time>2011-12-27T10:52:25.000Z</time>
      </trkpt>
      <trkpt lat="45.33744" lon="5.70499">
        <ele>1712</ele>
        <time>2011-12-27T10:52:28.000Z</time>
      </trkpt>
      <trkpt lat="45.33741" lon="5.70499">
        <ele>1710.5999755859</ele>
        <time>2011-12-27T10:52:31.000Z</time>
      </trkpt>
      <trkpt lat="45.33741" lon="5.705">
        <ele>1710.4000244141</ele>
        <time>2011-12-27T10:52:32.000Z</time>
      </trkpt>
      <trkpt lat="45.33746" lon="5.7051">
        <ele>1707.5999755859</ele>
        <time>2011-12-27T10:52:36.000Z</time>
      </trkpt>
      <trkpt lat="45.33754" lon="5.70518">
        <ele>1707</ele>
        <time>2011-12-27T10:52:41.000Z</time>
      </trkpt>
      <trkpt lat="45.33763" lon="5.70523">
        <ele>1705.8000488281</ele>
        <time>2011-12-27T10:52:48.000Z</time>
      </trkpt>
      <trkpt lat="45.33764" lon="5.70523">
        <ele>1705.4000244141</ele>
        <time>2011-12-27T10:52:51.000Z</time>
      </trkpt>
      <trkpt lat="45.33769" lon="5.70521">
        <ele>1704.8000488281</ele>
        <time>2011-12-27T10:53:07.000Z</time>
      </trkpt>
      <trkpt lat="45.33775" lon="5.70515">
        <ele>1703.4000244141</ele>
        <time>2011-12-27T10:53:11.000Z</time>
      </trkpt>
      <trkpt lat="45.33779" lon="5.70507">
        <ele>1702.1999511719</ele>
        <time>2011-12-27T10:53:17.000Z</time>
      </trkpt>
      <trkpt lat="45.3378" lon="5.70507">
        <ele>1701.8000488281</ele>
        <time>2011-12-27T10:53:23.000Z</time>
      </trkpt>
      <trkpt lat="45.33791" lon="5.70507">
        <ele>1700.1999511719</ele>
        <time>2011-12-27T10:53:27.000Z</time>
      </trkpt>
      <trkpt lat="45.33799" lon="5.7051">
        <ele>1698</ele>
        <time>2011-12-27T10:53:30.000Z</time>
      </trkpt>
      <trkpt lat="45.33804" lon="5.70513">
        <ele>1696.1999511719</ele>
        <time>2011-12-27T10:53:34.000Z</time>
      </trkpt>
      <trkpt lat="45.33803" lon="5.70512">
        <ele>1694.4000244141</ele>
        <time>2011-12-27T10:53:37.000Z</time>
      </trkpt>
      <trkpt lat="45.33804" lon="5.7051">
        <ele>1693.1999511719</ele>
        <time>2011-12-27T10:53:45.000Z</time>
      </trkpt>
      <trkpt lat="45.33804" lon="5.7051">
        <ele>1695.1999511719</ele>
        <time>2011-12-27T10:53:47.000Z</time>
      </trkpt>
      <trkpt lat="45.33803" lon="5.70516">
        <ele>1691.1999511719</ele>
        <time>2011-12-27T10:54:11.000Z</time>
      </trkpt>
      <trkpt lat="45.33804" lon="5.70518">
        <ele>1692</ele>
        <time>2011-12-27T10:54:19.000Z</time>
      </trkpt>
      <trkpt lat="45.33803" lon="5.70517">
        <ele>1695.1999511719</ele>
        <time>2011-12-27T10:54:26.000Z</time>
      </trkpt>
      <trkpt lat="45.33802" lon="5.70518">
        <ele>1694</ele>
        <time>2011-12-27T10:54:48.000Z</time>
      </trkpt>
      <trkpt lat="45.33802" lon="5.70518">
        <ele>1694.1999511719</ele>
        <time>2011-12-27T10:54:49.000Z</time>
      </trkpt>
      <trkpt lat="45.33802" lon="5.70518">
        <ele>1695.4000244141</ele>
        <time>2011-12-27T10:54:52.000Z</time>
      </trkpt>
      <trkpt lat="45.33801" lon="5.70518">
        <ele>1695</ele>
        <time>2011-12-27T10:54:58.000Z</time>
      </trkpt>
      <trkpt lat="45.33801" lon="5.70516">
        <ele>1694.5999755859</ele>
        <time>2011-12-27T10:55:06.000Z</time>
      </trkpt>
      <trkpt lat="45.33802" lon="5.70517">
        <ele>1694.5999755859</ele>
        <time>2011-12-27T10:55:15.000Z</time>
      </trkpt>
      <trkpt lat="45.33801" lon="5.70517">
        <ele>1694.5999755859</ele>
        <time>2011-12-27T10:55:29.000Z</time>
      </trkpt>
      <trkpt lat="45.338" lon="5.7053">
        <ele>1693.1999511719</ele>
        <time>2011-12-27T10:55:33.000Z</time>
      </trkpt>
      <trkpt lat="45.338" lon="5.70531">
        <ele>1692.1999511719</ele>
        <time>2011-12-27T10:55:36.000Z</time>
      </trkpt>
      <trkpt lat="45.33803" lon="5.7054">
        <ele>1691.1999511719</ele>
        <time>2011-12-27T10:55:39.000Z</time>
      </trkpt>
      <trkpt lat="45.33802" lon="5.70547">
        <ele>1689.4000244141</ele>
        <time>2011-12-27T10:55:41.000Z</time>
      </trkpt>
      <trkpt lat="45.33802" lon="5.70546">
        <ele>1688.4000244141</ele>
        <time>2011-12-27T10:55:43.000Z</time>
      </trkpt>
      <trkpt lat="45.33803" lon="5.70547">
        <ele>1688.4000244141</ele>
        <time>2011-12-27T10:55:47.000Z</time>
      </trkpt>
      <trkpt lat="45.33809" lon="5.70561">
        <ele>1687.1999511719</ele>
        <time>2011-12-27T10:55:51.000Z</time>
      </trkpt>
      <trkpt lat="45.33824" lon="5.70579">
        <ele>1684.5999755859</ele>
        <time>2011-12-27T10:55:56.000Z</time>
      </trkpt>
      <trkpt lat="45.33827" lon="5.70583">
        <ele>1685.8000488281</ele>
        <time>2011-12-27T10:55:59.000Z</time>
      </trkpt>
      <trkpt lat="45.33836" lon="5.70591">
        <ele>1684.1999511719</ele>
        <time>2011-12-27T10:56:04.000Z</time>
      </trkpt>
      <trkpt lat="45.33844" lon="5.70599">
        <ele>1683.4000244141</ele>
        <time>2011-12-27T10:56:09.000Z</time>
      </trkpt>
      <trkpt lat="45.33853" lon="5.70611">
        <ele>1684.5999755859</ele>
        <time>2011-12-27T10:56:16.000Z</time>
      </trkpt>
      <trkpt lat="45.33854" lon="5.70612">
        <ele>1684.4000244141</ele>
        <time>2011-12-27T10:56:17.000Z</time>
      </trkpt>
      <trkpt lat="45.33856" lon="5.70612">
        <ele>1685.4000244141</ele>
        <time>2011-12-27T10:56:23.000Z</time>
      </trkpt>
      <trkpt lat="45.33859" lon="5.70613">
        <ele>1686.8000488281</ele>
        <time>2011-12-27T10:57:02.000Z</time>
      </trkpt>
      <trkpt lat="45.33858" lon="5.70613">
        <ele>1685.5999755859</ele>
        <time>2011-12-27T10:57:07.000Z</time>
      </trkpt>
      <trkpt lat="45.33858" lon="5.70616">
        <ele>1685.5999755859</ele>
        <time>2011-12-27T10:57:15.000Z</time>
      </trkpt>
      <trkpt lat="45.3386" lon="5.70626">
        <ele>1684.8000488281</ele>
        <time>2011-12-27T10:57:19.000Z</time>
      </trkpt>
      <trkpt lat="45.33864" lon="5.70644">
        <ele>1683.8000488281</ele>
        <time>2011-12-27T10:57:24.000Z</time>
      </trkpt>
      <trkpt lat="45.33863" lon="5.70648">
        <ele>1682</ele>
        <time>2011-12-27T10:57:28.000Z</time>
      </trkpt>
      <trkpt lat="45.33863" lon="5.70647">
        <ele>1682</ele>
        <time>2011-12-27T10:57:49.000Z</time>
      </trkpt>
      <trkpt lat="45.33854" lon="5.70653">
        <ele>1678.5999755859</ele>
        <time>2011-12-27T10:57:53.000Z</time>
      </trkpt>
      <trkpt lat="45.33851" lon="5.70665">
        <ele>1675.1999511719</ele>
        <time>2011-12-27T10:57:56.000Z</time>
      </trkpt>
      <trkpt lat="45.33848" lon="5.70669">
        <ele>1673.5999755859</ele>
        <time>2011-12-27T10:57:59.000Z</time>
      </trkpt>
      <trkpt lat="45.33846" lon="5.7067">
        <ele>1672.1999511719</ele>
        <time>2011-12-27T10:58:07.000Z</time>
      </trkpt>
      <trkpt lat="45.33845" lon="5.70669">
        <ele>1671.8000488281</ele>
        <time>2011-12-27T10:58:09.000Z</time>
      </trkpt>
      <trkpt lat="45.33834" lon="5.70669">
        <ele>1669.1999511719</ele>
        <time>2011-12-27T10:58:14.000Z</time>
      </trkpt>
      <trkpt lat="45.33831" lon="5.70669">
        <ele>1668.4000244141</ele>
        <time>2011-12-27T10:58:15.000Z</time>
      </trkpt>
      <trkpt lat="45.33824" lon="5.70671">
        <ele>1665.5999755859</ele>
        <time>2011-12-27T10:58:19.000Z</time>
      </trkpt>
      <trkpt lat="45.33823" lon="5.70679">
        <ele>1664.1999511719</ele>
        <time>2011-12-27T10:58:23.000Z</time>
      </trkpt>
      <trkpt lat="45.33819" lon="5.70686">
        <ele>1662.8000488281</ele>
        <time>2011-12-27T10:58:28.000Z</time>
      </trkpt>
      <trkpt lat="45.33815" lon="5.70687">
        <ele>1661.4000244141</ele>
        <time>2011-12-27T10:58:30.000Z</time>
      </trkpt>
      <trkpt lat="45.3381" lon="5.70702">
        <ele>1661.4000244141</ele>
        <time>2011-12-27T10:58:34.000Z</time>
      </trkpt>
      <trkpt lat="45.33805" lon="5.70707">
        <ele>1655.4000244141</ele>
        <time>2011-12-27T10:58:37.000Z</time>
      </trkpt>
      <trkpt lat="45.33803" lon="5.70712">
        <ele>1647.8000488281</ele>
        <time>2011-12-27T10:58:39.000Z</time>
      </trkpt>
      <trkpt lat="45.33799" lon="5.70722">
        <ele>1645.4000244141</ele>
        <time>2011-12-27T10:58:42.000Z</time>
      </trkpt>
      <trkpt lat="45.33795" lon="5.70731">
        <ele>1640.1999511719</ele>
        <time>2011-12-27T10:58:45.000Z</time>
      </trkpt>
      <trkpt lat="45.33789" lon="5.70736">
        <ele>1633.4000244141</ele>
        <time>2011-12-27T10:58:48.000Z</time>
      </trkpt>
      <trkpt lat="45.33786" lon="5.70752">
        <ele>1625.8000488281</ele>
        <time>2011-12-27T10:58:53.000Z</time>
      </trkpt>
      <trkpt lat="45.33784" lon="5.70762">
        <ele>1623.8000488281</ele>
        <time>2011-12-27T10:58:56.000Z</time>
      </trkpt>
      <trkpt lat="45.33788" lon="5.70771">
        <ele>1621.4000244141</ele>
        <time>2011-12-27T10:58:59.000Z</time>
      </trkpt>
      <trkpt lat="45.33791" lon="5.70775">
        <ele>1619.5999755859</ele>
        <time>2011-12-27T10:59:00.000Z</time>
      </trkpt>
      <trkpt lat="45.33795" lon="5.70781">
        <ele>1618.5999755859</ele>
        <time>2011-12-27T10:59:02.000Z</time>
      </trkpt>
      <trkpt lat="45.338" lon="5.70787">
        <ele>1618.1999511719</ele>
        <time>2011-12-27T10:59:07.000Z</time>
      </trkpt>
      <trkpt lat="45.33797" lon="5.70795">
        <ele>1615.5999755859</ele>
        <time>2011-12-27T10:59:10.000Z</time>
      </trkpt>
      <trkpt lat="45.33794" lon="5.70804">
        <ele>1614.4000244141</ele>
        <time>2011-12-27T10:59:13.000Z</time>
      </trkpt>
      <trkpt lat="45.33795" lon="5.70815">
        <ele>1609.8000488281</ele>
        <time>2011-12-27T10:59:16.000Z</time>
      </trkpt>
      <trkpt lat="45.33793" lon="5.70824">
        <ele>1602.8000488281</ele>
        <time>2011-12-27T10:59:19.000Z</time>
      </trkpt>
      <trkpt lat="45.33789" lon="5.70833">
        <ele>1599.1999511719</ele>
        <time>2011-12-27T10:59:22.000Z</time>
      </trkpt>
      <trkpt lat="45.33784" lon="5.70844">
        <ele>1593.4000244141</ele>
        <time>2011-12-27T10:59:25.000Z</time>
      </trkpt>
      <trkpt lat="45.33785" lon="5.7085">
        <ele>1587.8000488281</ele>
        <time>2011-12-27T10:59:28.000Z</time>
      </trkpt>
      <trkpt lat="45.33784" lon="5.70851">
        <ele>1587.8000488281</ele>
        <time>2011-12-27T10:59:29.000Z</time>
      </trkpt>
      <trkpt lat="45.33783" lon="5.70846">
        <ele>1586.4000244141</ele>
        <time>2011-12-27T10:59:31.000Z</time>
      </trkpt>
      <trkpt lat="45.33772" lon="5.70855">
        <ele>1580</ele>
        <time>2011-12-27T10:59:34.000Z</time>
      </trkpt>
      <trkpt lat="45.33765" lon="5.70856">
        <ele>1574.4000244141</ele>
        <time>2011-12-27T10:59:36.000Z</time>
      </trkpt>
      <trkpt lat="45.33763" lon="5.7086">
        <ele>1575.4000244141</ele>
        <time>2011-12-27T10:59:37.000Z</time>
      </trkpt>
      <trkpt lat="45.33751" lon="5.70863">
        <ele>1564</ele>
        <time>2011-12-27T10:59:40.000Z</time>
      </trkpt>
      <trkpt lat="45.33746" lon="5.70868">
        <ele>1562.4000244141</ele>
        <time>2011-12-27T10:59:41.000Z</time>
      </trkpt>
      <trkpt lat="45.33737" lon="5.70906">
        <ele>1552.4000244141</ele>
        <time>2011-12-27T10:59:46.000Z</time>
      </trkpt>
      <trkpt lat="45.33735" lon="5.70926">
        <ele>1549.4000244141</ele>
        <time>2011-12-27T10:59:49.000Z</time>
      </trkpt>
      <trkpt lat="45.33735" lon="5.70937">
        <ele>1548.5999755859</ele>
        <time>2011-12-27T10:59:51.000Z</time>
      </trkpt>
      <trkpt lat="45.33737" lon="5.70952">
        <ele>1547.8000488281</ele>
        <time>2011-12-27T10:59:55.000Z</time>
      </trkpt>
      <trkpt lat="45.33738" lon="5.70971">
        <ele>1547.1999511719</ele>
        <time>2011-12-27T10:59:59.000Z</time>
      </trkpt>
      <trkpt lat="45.33744" lon="5.71018">
        <ele>1544.4000244141</ele>
        <time>2011-12-27T11:00:06.000Z</time>
      </trkpt>
      <trkpt lat="45.33745" lon="5.71023">
        <ele>1544</ele>
        <time>2011-12-27T11:00:07.000Z</time>
      </trkpt>
      <trkpt lat="45.3375" lon="5.71038">
        <ele>1543.4000244141</ele>
        <time>2011-12-27T11:00:11.000Z</time>
      </trkpt>
      <trkpt lat="45.33752" lon="5.71047">
        <ele>1543.1999511719</ele>
        <time>2011-12-27T11:00:16.000Z</time>
      </trkpt>
      <trkpt lat="45.33759" lon="5.71055">
        <ele>1542.1999511719</ele>
        <time>2011-12-27T11:00:20.000Z</time>
      </trkpt>
      <trkpt lat="45.3376" lon="5.71056">
        <ele>1542</ele>
        <time>2011-12-27T11:00:23.000Z</time>
      </trkpt>
      <trkpt lat="45.33766" lon="5.71064">
        <ele>1540.5999755859</ele>
        <time>2011-12-27T11:00:27.000Z</time>
      </trkpt>
      <trkpt lat="45.33761" lon="5.71071">
        <ele>1538.5999755859</ele>
        <time>2011-12-27T11:00:31.000Z</time>
      </trkpt>
      <trkpt lat="45.33757" lon="5.7108">
        <ele>1536</ele>
        <time>2011-12-27T11:00:33.000Z</time>
      </trkpt>
      <trkpt lat="45.3375" lon="5.71093">
        <ele>1530.4000244141</ele>
        <time>2011-12-27T11:00:36.000Z</time>
      </trkpt>
      <trkpt lat="45.33749" lon="5.71103">
        <ele>1528.1999511719</ele>
        <time>2011-12-27T11:00:39.000Z</time>
      </trkpt>
      <trkpt lat="45.3375" lon="5.71113">
        <ele>1524.1999511719</ele>
        <time>2011-12-27T11:00:41.000Z</time>
      </trkpt>
      <trkpt lat="45.33752" lon="5.71126">
        <ele>1522.8000488281</ele>
        <time>2011-12-27T11:00:44.000Z</time>
      </trkpt>
      <trkpt lat="45.33753" lon="5.7114">
        <ele>1520</ele>
        <time>2011-12-27T11:00:47.000Z</time>
      </trkpt>
      <trkpt lat="45.3375" lon="5.7115">
        <ele>1517.5999755859</ele>
        <time>2011-12-27T11:00:49.000Z</time>
      </trkpt>
      <trkpt lat="45.33748" lon="5.71164">
        <ele>1515.4000244141</ele>
        <time>2011-12-27T11:00:52.000Z</time>
      </trkpt>
      <trkpt lat="45.33745" lon="5.71172">
        <ele>1513.8000488281</ele>
        <time>2011-12-27T11:00:54.000Z</time>
      </trkpt>
      <trkpt lat="45.33741" lon="5.71184">
        <ele>1511.1999511719</ele>
        <time>2011-12-27T11:00:57.000Z</time>
      </trkpt>
      <trkpt lat="45.33744" lon="5.71197">
        <ele>1508.1999511719</ele>
        <time>2011-12-27T11:01:00.000Z</time>
      </trkpt>
      <trkpt lat="45.33741" lon="5.71211">
        <ele>1506.5999755859</ele>
        <time>2011-12-27T11:01:02.000Z</time>
      </trkpt>
      <trkpt lat="45.33742" lon="5.71218">
        <ele>1506.5999755859</ele>
        <time>2011-12-27T11:01:03.000Z</time>
      </trkpt>
      <trkpt lat="45.33741" lon="5.71246">
        <ele>1502.4000244141</ele>
        <time>2011-12-27T11:01:06.000Z</time>
      </trkpt>
      <trkpt lat="45.33744" lon="5.71264">
        <ele>1500.5999755859</ele>
        <time>2011-12-27T11:01:09.000Z</time>
      </trkpt>
      <trkpt lat="45.33745" lon="5.71268">
        <ele>1500.8000488281</ele>
        <time>2011-12-27T11:01:10.000Z</time>
      </trkpt>
      <trkpt lat="45.33754" lon="5.71294">
        <ele>1500</ele>
        <time>2011-12-27T11:01:18.000Z</time>
      </trkpt>
      <trkpt lat="45.33762" lon="5.71316">
        <ele>1499.1999511719</ele>
        <time>2011-12-27T11:01:25.000Z</time>
      </trkpt>
      <trkpt lat="45.33764" lon="5.71324">
        <ele>1498.8000488281</ele>
        <time>2011-12-27T11:01:27.000Z</time>
      </trkpt>
      <trkpt lat="45.33784" lon="5.71349">
        <ele>1495.8000488281</ele>
        <time>2011-12-27T11:01:32.000Z</time>
      </trkpt>
      <trkpt lat="45.338" lon="5.71361">
        <ele>1493.1999511719</ele>
        <time>2011-12-27T11:01:36.000Z</time>
      </trkpt>
      <trkpt lat="45.33816" lon="5.71369">
        <ele>1490.8000488281</ele>
        <time>2011-12-27T11:01:39.000Z</time>
      </trkpt>
      <trkpt lat="45.3383" lon="5.71376">
        <ele>1487.4000244141</ele>
        <time>2011-12-27T11:01:42.000Z</time>
      </trkpt>
      <trkpt lat="45.33833" lon="5.71379">
        <ele>1486.5999755859</ele>
        <time>2011-12-27T11:01:43.000Z</time>
      </trkpt>
      <trkpt lat="45.33844" lon="5.71402">
        <ele>1485.1999511719</ele>
        <time>2011-12-27T11:01:49.000Z</time>
      </trkpt>
      <trkpt lat="45.33861" lon="5.71408">
        <ele>1484</ele>
        <time>2011-12-27T11:01:56.000Z</time>
      </trkpt>
      <trkpt lat="45.33866" lon="5.71417">
        <ele>1483</ele>
        <time>2011-12-27T11:01:59.000Z</time>
      </trkpt>
      <trkpt lat="45.33867" lon="5.71421">
        <ele>1482.5999755859</ele>
        <time>2011-12-27T11:02:03.000Z</time>
      </trkpt>
      <trkpt lat="45.33868" lon="5.71418">
        <ele>1483.4000244141</ele>
        <time>2011-12-27T11:02:31.000Z</time>
      </trkpt>
      <trkpt lat="45.33868" lon="5.71417">
        <ele>1482.5999755859</ele>
        <time>2011-12-27T11:02:34.000Z</time>
      </trkpt>
      <trkpt lat="45.33876" lon="5.71423">
        <ele>1482</ele>
        <time>2011-12-27T11:02:38.000Z</time>
      </trkpt>
      <trkpt lat="45.33887" lon="5.71432">
        <ele>1479.5999755859</ele>
        <time>2011-12-27T11:02:40.000Z</time>
      </trkpt>
      <trkpt lat="45.33928" lon="5.71461">
        <ele>1471.8000488281</ele>
        <time>2011-12-27T11:02:46.000Z</time>
      </trkpt>
      <trkpt lat="45.33974" lon="5.71484">
        <ele>1467.1999511719</ele>
        <time>2011-12-27T11:02:52.000Z</time>
      </trkpt>
      <trkpt lat="45.34008" lon="5.71485">
        <ele>1464.5999755859</ele>
        <time>2011-12-27T11:02:57.000Z</time>
      </trkpt>
      <trkpt lat="45.34027" lon="5.71484">
        <ele>1464.4000244141</ele>
        <time>2011-12-27T11:03:02.000Z</time>
      </trkpt>
      <trkpt lat="45.34039" lon="5.7149">
        <ele>1463.4000244141</ele>
        <time>2011-12-27T11:03:06.000Z</time>
      </trkpt>
      <trkpt lat="45.34054" lon="5.71514">
        <ele>1460.1999511719</ele>
        <time>2011-12-27T11:03:11.000Z</time>
      </trkpt>
      <trkpt lat="45.34066" lon="5.71513">
        <ele>1458.4000244141</ele>
        <time>2011-12-27T11:03:14.000Z</time>
      </trkpt>
      <trkpt lat="45.34077" lon="5.71521">
        <ele>1456.1999511719</ele>
        <time>2011-12-27T11:03:17.000Z</time>
      </trkpt>
      <trkpt lat="45.34095" lon="5.71531">
        <ele>1451.8000488281</ele>
        <time>2011-12-27T11:03:20.000Z</time>
      </trkpt>
      <trkpt lat="45.34104" lon="5.71534">
        <ele>1450.5999755859</ele>
        <time>2011-12-27T11:03:22.000Z</time>
      </trkpt>
      <trkpt lat="45.34116" lon="5.71536">
        <ele>1448.8000488281</ele>
        <time>2011-12-27T11:03:26.000Z</time>
      </trkpt>
      <trkpt lat="45.34128" lon="5.71552">
        <ele>1446</ele>
        <time>2011-12-27T11:03:31.000Z</time>
      </trkpt>
      <trkpt lat="45.34141" lon="5.71557">
        <ele>1444.4000244141</ele>
        <time>2011-12-27T11:03:34.000Z</time>
      </trkpt>
      <trkpt lat="45.34151" lon="5.71563">
        <ele>1442</ele>
        <time>2011-12-27T11:03:36.000Z</time>
      </trkpt>
      <trkpt lat="45.34154" lon="5.71561">
        <ele>1441.5999755859</ele>
        <time>2011-12-27T11:03:40.000Z</time>
      </trkpt>
      <trkpt lat="45.34157" lon="5.71559">
        <ele>1440.1999511719</ele>
        <time>2011-12-27T11:03:46.000Z</time>
      </trkpt>
      <trkpt lat="45.34157" lon="5.71559">
        <ele>1440.4000244141</ele>
        <time>2011-12-27T11:03:53.000Z</time>
      </trkpt>
      <trkpt lat="45.34159" lon="5.71568">
        <ele>1440</ele>
        <time>2011-12-27T11:03:57.000Z</time>
      </trkpt>
      <trkpt lat="45.3416" lon="5.71581">
        <ele>1438.8000488281</ele>
        <time>2011-12-27T11:04:00.000Z</time>
      </trkpt>
      <trkpt lat="45.34173" lon="5.71596">
        <ele>1435.4000244141</ele>
        <time>2011-12-27T11:04:04.000Z</time>
      </trkpt>
      <trkpt lat="45.34181" lon="5.71594">
        <ele>1434.4000244141</ele>
        <time>2011-12-27T11:04:07.000Z</time>
      </trkpt>
      <trkpt lat="45.34183" lon="5.71589">
        <ele>1435</ele>
        <time>2011-12-27T11:04:12.000Z</time>
      </trkpt>
      <trkpt lat="45.34183" lon="5.71587">
        <ele>1434.5999755859</ele>
        <time>2011-12-27T11:04:18.000Z</time>
      </trkpt>
      <trkpt lat="45.34185" lon="5.71581">
        <ele>1434.4000244141</ele>
        <time>2011-12-27T11:04:23.000Z</time>
      </trkpt>
      <trkpt lat="45.34182" lon="5.71578">
        <ele>1433.1999511719</ele>
        <time>2011-12-27T11:04:34.000Z</time>
      </trkpt>
      <trkpt lat="45.34181" lon="5.71572">
        <ele>1433</ele>
        <time>2011-12-27T11:04:35.000Z</time>
      </trkpt>
      <trkpt lat="45.34191" lon="5.71553">
        <ele>1430.8000488281</ele>
        <time>2011-12-27T11:04:38.000Z</time>
      </trkpt>
      <trkpt lat="45.34197" lon="5.71542">
        <ele>1428</ele>
        <time>2011-12-27T11:04:41.000Z</time>
      </trkpt>
      <trkpt lat="45.34202" lon="5.71543">
        <ele>1427.1999511719</ele>
        <time>2011-12-27T11:04:44.000Z</time>
      </trkpt>
      <trkpt lat="45.34202" lon="5.71544">
        <ele>1426.4000244141</ele>
        <time>2011-12-27T11:04:47.000Z</time>
      </trkpt>
      <trkpt lat="45.34212" lon="5.71533">
        <ele>1423</ele>
        <time>2011-12-27T11:04:51.000Z</time>
      </trkpt>
      <trkpt lat="45.34216" lon="5.71539">
        <ele>1422.1999511719</ele>
        <time>2011-12-27T11:04:52.000Z</time>
      </trkpt>
      <trkpt lat="45.34229" lon="5.71569">
        <ele>1417.1999511719</ele>
        <time>2011-12-27T11:04:57.000Z</time>
      </trkpt>
      <trkpt lat="45.34239" lon="5.71578">
        <ele>1412</ele>
        <time>2011-12-27T11:05:00.000Z</time>
      </trkpt>
      <trkpt lat="45.34255" lon="5.71591">
        <ele>1408.4000244141</ele>
        <time>2011-12-27T11:05:03.000Z</time>
      </trkpt>
      <trkpt lat="45.3427" lon="5.71601">
        <ele>1405.1999511719</ele>
        <time>2011-12-27T11:05:06.000Z</time>
      </trkpt>
      <trkpt lat="45.34274" lon="5.71607">
        <ele>1404.8000488281</ele>
        <time>2011-12-27T11:05:07.000Z</time>
      </trkpt>
      <trkpt lat="45.34286" lon="5.71625">
        <ele>1400</ele>
        <time>2011-12-27T11:05:10.000Z</time>
      </trkpt>
      <trkpt lat="45.34296" lon="5.71634">
        <ele>1398.8000488281</ele>
        <time>2011-12-27T11:05:12.000Z</time>
      </trkpt>
      <trkpt lat="45.34304" lon="5.71643">
        <ele>1396.5999755859</ele>
        <time>2011-12-27T11:05:14.000Z</time>
      </trkpt>
      <trkpt lat="45.34321" lon="5.71668">
        <ele>1391.1999511719</ele>
        <time>2011-12-27T11:05:19.000Z</time>
      </trkpt>
      <trkpt lat="45.34327" lon="5.71682">
        <ele>1387.1999511719</ele>
        <time>2011-12-27T11:05:23.000Z</time>
      </trkpt>
      <trkpt lat="45.34329" lon="5.71692">
        <ele>1385.8000488281</ele>
        <time>2011-12-27T11:05:26.000Z</time>
      </trkpt>
      <trkpt lat="45.34333" lon="5.71713">
        <ele>1382.8000488281</ele>
        <time>2011-12-27T11:05:30.000Z</time>
      </trkpt>
      <trkpt lat="45.34334" lon="5.71719">
        <ele>1382.1999511719</ele>
        <time>2011-12-27T11:05:31.000Z</time>
      </trkpt>
      <trkpt lat="45.34348" lon="5.71747">
        <ele>1375.8000488281</ele>
        <time>2011-12-27T11:05:36.000Z</time>
      </trkpt>
      <trkpt lat="45.34356" lon="5.71737">
        <ele>1375.4000244141</ele>
        <time>2011-12-27T11:05:39.000Z</time>
      </trkpt>
      <trkpt lat="45.3437" lon="5.71727">
        <ele>1369.4000244141</ele>
        <time>2011-12-27T11:05:42.000Z</time>
      </trkpt>
      <trkpt lat="45.34383" lon="5.71718">
        <ele>1360.5999755859</ele>
        <time>2011-12-27T11:05:45.000Z</time>
      </trkpt>
      <trkpt lat="45.34404" lon="5.71707">
        <ele>1356.8000488281</ele>
        <time>2011-12-27T11:05:49.000Z</time>
      </trkpt>
      <trkpt lat="45.34418" lon="5.71709">
        <ele>1354.1999511719</ele>
        <time>2011-12-27T11:05:52.000Z</time>
      </trkpt>
      <trkpt lat="45.3444" lon="5.71727">
        <ele>1350.4000244141</ele>
        <time>2011-12-27T11:05:56.000Z</time>
      </trkpt>
      <trkpt lat="45.34463" lon="5.71726">
        <ele>1347</ele>
        <time>2011-12-27T11:06:00.000Z</time>
      </trkpt>
      <trkpt lat="45.34468" lon="5.71726">
        <ele>1347</ele>
        <time>2011-12-27T11:06:01.000Z</time>
      </trkpt>
      <trkpt lat="45.34486" lon="5.71725">
        <ele>1343.1999511719</ele>
        <time>2011-12-27T11:06:04.000Z</time>
      </trkpt>
      <trkpt lat="45.34501" lon="5.71727">
        <ele>1340.1999511719</ele>
        <time>2011-12-27T11:06:07.000Z</time>
      </trkpt>
      <trkpt lat="45.34506" lon="5.71723">
        <ele>1340</ele>
        <time>2011-12-27T11:06:08.000Z</time>
      </trkpt>
      <trkpt lat="45.34509" lon="5.71708">
        <ele>1336.1999511719</ele>
        <time>2011-12-27T11:06:11.000Z</time>
      </trkpt>
      <trkpt lat="45.34525" lon="5.717">
        <ele>1331.5999755859</ele>
        <time>2011-12-27T11:06:14.000Z</time>
      </trkpt>
      <trkpt lat="45.34539" lon="5.71712">
        <ele>1329</ele>
        <time>2011-12-27T11:06:17.000Z</time>
      </trkpt>
      <trkpt lat="45.34548" lon="5.71721">
        <ele>1327.8000488281</ele>
        <time>2011-12-27T11:06:19.000Z</time>
      </trkpt>
      <trkpt lat="45.34561" lon="5.71737">
        <ele>1326.4000244141</ele>
        <time>2011-12-27T11:06:22.000Z</time>
      </trkpt>
      <trkpt lat="45.34574" lon="5.71751">
        <ele>1324.4000244141</ele>
        <time>2011-12-27T11:06:25.000Z</time>
      </trkpt>
      <trkpt lat="45.34582" lon="5.7176">
        <ele>1323</ele>
        <time>2011-12-27T11:06:27.000Z</time>
      </trkpt>
      <trkpt lat="45.34591" lon="5.71766">
        <ele>1322.5999755859</ele>
        <time>2011-12-27T11:06:29.000Z</time>
      </trkpt>
      <trkpt lat="45.34632" lon="5.71772">
        <ele>1318.4000244141</ele>
        <time>2011-12-27T11:06:36.000Z</time>
      </trkpt>
      <trkpt lat="45.34657" lon="5.71784">
        <ele>1316</ele>
        <time>2011-12-27T11:06:40.000Z</time>
      </trkpt>
      <trkpt lat="45.34682" lon="5.7179">
        <ele>1313.5999755859</ele>
        <time>2011-12-27T11:06:44.000Z</time>
      </trkpt>
      <trkpt lat="45.34699" lon="5.71802">
        <ele>1312.4000244141</ele>
        <time>2011-12-27T11:06:48.000Z</time>
      </trkpt>
      <trkpt lat="45.3471" lon="5.71799">
        <ele>1311.1999511719</ele>
        <time>2011-12-27T11:06:52.000Z</time>
      </trkpt>
      <trkpt lat="45.34712" lon="5.71797">
        <ele>1310.8000488281</ele>
        <time>2011-12-27T11:06:57.000Z</time>
      </trkpt>
      <trkpt lat="45.34715" lon="5.71796">
        <ele>1310.8000488281</ele>
        <time>2011-12-27T11:07:05.000Z</time>
      </trkpt>
      <trkpt lat="45.34714" lon="5.71795">
        <ele>1310.8000488281</ele>
        <time>2011-12-27T11:07:12.000Z</time>
      </trkpt>
      <trkpt lat="45.34708" lon="5.71796">
        <ele>1310.1999511719</ele>
        <time>2011-12-27T11:08:39.000Z</time>
      </trkpt>
      <trkpt lat="45.3471" lon="5.71793">
        <ele>1311.4000244141</ele>
        <time>2011-12-27T11:09:49.000Z</time>
      </trkpt>
      <trkpt lat="45.3471" lon="5.71793">
        <ele>1311.8000488281</ele>
        <time>2011-12-27T11:09:59.000Z</time>
      </trkpt>
      <trkpt lat="45.3471" lon="5.71794">
        <ele>1310.4000244141</ele>
        <time>2011-12-27T11:10:03.000Z</time>
      </trkpt>
      <trkpt lat="45.34711" lon="5.71794">
        <ele>1312</ele>
        <time>2011-12-27T11:10:05.000Z</time>
      </trkpt>
      <trkpt lat="45.3471" lon="5.71795">
        <ele>1311.8000488281</ele>
        <time>2011-12-27T11:10:10.000Z</time>
      </trkpt>
      <trkpt lat="45.34709" lon="5.71792">
        <ele>1312.5999755859</ele>
        <time>2011-12-27T11:10:45.000Z</time>
      </trkpt>
      <trkpt lat="45.34708" lon="5.71791">
        <ele>1313.4000244141</ele>
        <time>2011-12-27T11:10:54.000Z</time>
      </trkpt>
      <trkpt lat="45.34708" lon="5.71791">
        <ele>1312.1999511719</ele>
        <time>2011-12-27T11:10:58.000Z</time>
      </trkpt>
      <trkpt lat="45.34709" lon="5.71794">
        <ele>1312.1999511719</ele>
        <time>2011-12-27T11:11:40.000Z</time>
      </trkpt>
      <trkpt lat="45.34706" lon="5.71793">
        <ele>1323.5999755859</ele>
        <time>2011-12-27T11:12:10.000Z</time>
      </trkpt>
      <trkpt lat="45.34707" lon="5.71793">
        <ele>1313</ele>
        <time>2011-12-27T11:12:14.000Z</time>
      </trkpt>
      <trkpt lat="45.34707" lon="5.71794">
        <ele>1311.8000488281</ele>
        <time>2011-12-27T11:12:16.000Z</time>
      </trkpt>
      <trkpt lat="45.34716" lon="5.71796">
        <ele>1309.5999755859</ele>
        <time>2011-12-27T11:17:11.000Z</time>
      </trkpt>
      <trkpt lat="45.34713" lon="5.71796">
        <ele>1320.8000488281</ele>
        <time>2011-12-27T11:17:24.000Z</time>
      </trkpt>
      <trkpt lat="45.34714" lon="5.71796">
        <ele>1313.1999511719</ele>
        <time>2011-12-27T11:17:29.000Z</time>
      </trkpt>
      <trkpt lat="45.34714" lon="5.71798">
        <ele>1310.8000488281</ele>
        <time>2011-12-27T11:17:54.000Z</time>
      </trkpt>
      <trkpt lat="45.34711" lon="5.718">
        <ele>1312.4000244141</ele>
        <time>2011-12-27T11:17:58.000Z</time>
      </trkpt>
      <trkpt lat="45.34705" lon="5.71806">
        <ele>1313</ele>
        <time>2011-12-27T11:18:03.000Z</time>
      </trkpt>
      <trkpt lat="45.34703" lon="5.71807">
        <ele>1312.5999755859</ele>
        <time>2011-12-27T11:18:05.000Z</time>
      </trkpt>
      <trkpt lat="45.34693" lon="5.71808">
        <ele>1313.8000488281</ele>
        <time>2011-12-27T11:18:14.000Z</time>
      </trkpt>
      <trkpt lat="45.34687" lon="5.71811">
        <ele>1314.4000244141</ele>
        <time>2011-12-27T11:18:21.000Z</time>
      </trkpt>
      <trkpt lat="45.3468" lon="5.71817">
        <ele>1314.5999755859</ele>
        <time>2011-12-27T11:18:28.000Z</time>
      </trkpt>
      <trkpt lat="45.34674" lon="5.71827">
        <ele>1314.1999511719</ele>
        <time>2011-12-27T11:18:36.000Z</time>
      </trkpt>
      <trkpt lat="45.34671" lon="5.71838">
        <ele>1314.5999755859</ele>
        <time>2011-12-27T11:18:44.000Z</time>
      </trkpt>
      <trkpt lat="45.3467" lon="5.71844">
        <ele>1314.4000244141</ele>
        <time>2011-12-27T11:18:50.000Z</time>
      </trkpt>
      <trkpt lat="45.3467" lon="5.71854">
        <ele>1316.5999755859</ele>
        <time>2011-12-27T11:18:58.000Z</time>
      </trkpt>
      <trkpt lat="45.3467" lon="5.71857">
        <ele>1316.1999511719</ele>
        <time>2011-12-27T11:19:04.000Z</time>
      </trkpt>
      <trkpt lat="45.3467" lon="5.71859">
        <ele>1316.5999755859</ele>
        <time>2011-12-27T11:19:14.000Z</time>
      </trkpt>
      <trkpt lat="45.34671" lon="5.71865">
        <ele>1317.8000488281</ele>
        <time>2011-12-27T11:19:20.000Z</time>
      </trkpt>
      <trkpt lat="45.34671" lon="5.71869">
        <ele>1317.8000488281</ele>
        <time>2011-12-27T11:19:23.000Z</time>
      </trkpt>
      <trkpt lat="45.34673" lon="5.71874">
        <ele>1319.1999511719</ele>
        <time>2011-12-27T11:19:28.000Z</time>
      </trkpt>
      <trkpt lat="45.34673" lon="5.71885">
        <ele>1320.5999755859</ele>
        <time>2011-12-27T11:19:37.000Z</time>
      </trkpt>
      <trkpt lat="45.34676" lon="5.71895">
        <ele>1321.8000488281</ele>
        <time>2011-12-27T11:19:46.000Z</time>
      </trkpt>
      <trkpt lat="45.34677" lon="5.71901">
        <ele>1322.8000488281</ele>
        <time>2011-12-27T11:19:52.000Z</time>
      </trkpt>
      <trkpt lat="45.3468" lon="5.71906">
        <ele>1324</ele>
        <time>2011-12-27T11:19:59.000Z</time>
      </trkpt>
      <trkpt lat="45.34684" lon="5.71915">
        <ele>1325.8000488281</ele>
        <time>2011-12-27T11:20:09.000Z</time>
      </trkpt>
      <trkpt lat="45.34687" lon="5.71921">
        <ele>1326.8000488281</ele>
        <time>2011-12-27T11:20:17.000Z</time>
      </trkpt>
      <trkpt lat="45.34689" lon="5.71922">
        <ele>1328.4000244141</ele>
        <time>2011-12-27T11:20:20.000Z</time>
      </trkpt>
      <trkpt lat="45.34693" lon="5.71928">
        <ele>1330.5999755859</ele>
        <time>2011-12-27T11:20:29.000Z</time>
      </trkpt>
      <trkpt lat="45.34697" lon="5.71933">
        <ele>1330.5999755859</ele>
        <time>2011-12-27T11:20:36.000Z</time>
      </trkpt>
      <trkpt lat="45.347" lon="5.71938">
        <ele>1332.5999755859</ele>
        <time>2011-12-27T11:20:44.000Z</time>
      </trkpt>
      <trkpt lat="45.34704" lon="5.71942">
        <ele>1332.5999755859</ele>
        <time>2011-12-27T11:20:55.000Z</time>
      </trkpt>
      <trkpt lat="45.34708" lon="5.7195">
        <ele>1335.8000488281</ele>
        <time>2011-12-27T11:21:04.000Z</time>
      </trkpt>
      <trkpt lat="45.3471" lon="5.71956">
        <ele>1337.1999511719</ele>
        <time>2011-12-27T11:21:11.000Z</time>
      </trkpt>
      <trkpt lat="45.34713" lon="5.71961">
        <ele>1337.5999755859</ele>
        <time>2011-12-27T11:21:18.000Z</time>
      </trkpt>
      <trkpt lat="45.34713" lon="5.71967">
        <ele>1340.1999511719</ele>
        <time>2011-12-27T11:21:25.000Z</time>
      </trkpt>
      <trkpt lat="45.34712" lon="5.71974">
        <ele>1341.4000244141</ele>
        <time>2011-12-27T11:21:32.000Z</time>
      </trkpt>
      <trkpt lat="45.34713" lon="5.71984">
        <ele>1342.4000244141</ele>
        <time>2011-12-27T11:21:42.000Z</time>
      </trkpt>
      <trkpt lat="45.34715" lon="5.71992">
        <ele>1345.1999511719</ele>
        <time>2011-12-27T11:21:50.000Z</time>
      </trkpt>
      <trkpt lat="45.34717" lon="5.71999">
        <ele>1345.8000488281</ele>
        <time>2011-12-27T11:21:58.000Z</time>
      </trkpt>
      <trkpt lat="45.34719" lon="5.72007">
        <ele>1347.5999755859</ele>
        <time>2011-12-27T11:22:06.000Z</time>
      </trkpt>
      <trkpt lat="45.34722" lon="5.72014">
        <ele>1349.8000488281</ele>
        <time>2011-12-27T11:22:15.000Z</time>
      </trkpt>
      <trkpt lat="45.34723" lon="5.72017">
        <ele>1351.1999511719</ele>
        <time>2011-12-27T11:22:18.000Z</time>
      </trkpt>
      <trkpt lat="45.34723" lon="5.72023">
        <ele>1353.4000244141</ele>
        <time>2011-12-27T11:22:25.000Z</time>
      </trkpt>
      <trkpt lat="45.34723" lon="5.7203">
        <ele>1355.1999511719</ele>
        <time>2011-12-27T11:22:32.000Z</time>
      </trkpt>
      <trkpt lat="45.34723" lon="5.72034">
        <ele>1355.8000488281</ele>
        <time>2011-12-27T11:22:36.000Z</time>
      </trkpt>
      <trkpt lat="45.34718" lon="5.72041">
        <ele>1356.5999755859</ele>
        <time>2011-12-27T11:22:45.000Z</time>
      </trkpt>
      <trkpt lat="45.34713" lon="5.72044">
        <ele>1358.4000244141</ele>
        <time>2011-12-27T11:22:53.000Z</time>
      </trkpt>
      <trkpt lat="45.34709" lon="5.72048">
        <ele>1359.8000488281</ele>
        <time>2011-12-27T11:23:00.000Z</time>
      </trkpt>
      <trkpt lat="45.34701" lon="5.72055">
        <ele>1361.1999511719</ele>
        <time>2011-12-27T11:23:11.000Z</time>
      </trkpt>
      <trkpt lat="45.34698" lon="5.72056">
        <ele>1362.4000244141</ele>
        <time>2011-12-27T11:23:15.000Z</time>
      </trkpt>
      <trkpt lat="45.34691" lon="5.72058">
        <ele>1363.5999755859</ele>
        <time>2011-12-27T11:23:23.000Z</time>
      </trkpt>
      <trkpt lat="45.34684" lon="5.72059">
        <ele>1364.4000244141</ele>
        <time>2011-12-27T11:23:31.000Z</time>
      </trkpt>
      <trkpt lat="45.34679" lon="5.72063">
        <ele>1366</ele>
        <time>2011-12-27T11:23:39.000Z</time>
      </trkpt>
      <trkpt lat="45.34674" lon="5.72067">
        <ele>1367.5999755859</ele>
        <time>2011-12-27T11:23:47.000Z</time>
      </trkpt>
      <trkpt lat="45.34668" lon="5.7207">
        <ele>1368.5999755859</ele>
        <time>2011-12-27T11:23:55.000Z</time>
      </trkpt>
      <trkpt lat="45.34662" lon="5.72073">
        <ele>1368.4000244141</ele>
        <time>2011-12-27T11:24:02.000Z</time>
      </trkpt>
      <trkpt lat="45.34656" lon="5.72074">
        <ele>1369.1999511719</ele>
        <time>2011-12-27T11:24:09.000Z</time>
      </trkpt>
      <trkpt lat="45.34649" lon="5.72075">
        <ele>1371.4000244141</ele>
        <time>2011-12-27T11:24:18.000Z</time>
      </trkpt>
      <trkpt lat="45.34643" lon="5.72076">
        <ele>1372.1999511719</ele>
        <time>2011-12-27T11:24:26.000Z</time>
      </trkpt>
      <trkpt lat="45.34636" lon="5.72077">
        <ele>1374.5999755859</ele>
        <time>2011-12-27T11:24:36.000Z</time>
      </trkpt>
      <trkpt lat="45.3463" lon="5.72076">
        <ele>1375.1999511719</ele>
        <time>2011-12-27T11:24:44.000Z</time>
      </trkpt>
      <trkpt lat="45.34625" lon="5.72077">
        <ele>1377.4000244141</ele>
        <time>2011-12-27T11:24:52.000Z</time>
      </trkpt>
      <trkpt lat="45.34622" lon="5.72078">
        <ele>1377.5999755859</ele>
        <time>2011-12-27T11:24:58.000Z</time>
      </trkpt>
      <trkpt lat="45.34617" lon="5.72078">
        <ele>1378.4000244141</ele>
        <time>2011-12-27T11:25:06.000Z</time>
      </trkpt>
      <trkpt lat="45.34613" lon="5.72079">
        <ele>1380.5999755859</ele>
        <time>2011-12-27T11:25:13.000Z</time>
      </trkpt>
      <trkpt lat="45.34608" lon="5.72081">
        <ele>1382</ele>
        <time>2011-12-27T11:25:21.000Z</time>
      </trkpt>
      <trkpt lat="45.34605" lon="5.7208">
        <ele>1381.8000488281</ele>
        <time>2011-12-27T11:25:27.000Z</time>
      </trkpt>
      <trkpt lat="45.346" lon="5.7208">
        <ele>1384.1999511719</ele>
        <time>2011-12-27T11:25:35.000Z</time>
      </trkpt>
      <trkpt lat="45.34595" lon="5.72081">
        <ele>1385.1999511719</ele>
        <time>2011-12-27T11:25:42.000Z</time>
      </trkpt>
      <trkpt lat="45.34592" lon="5.72083">
        <ele>1387.1999511719</ele>
        <time>2011-12-27T11:25:47.000Z</time>
      </trkpt>
      <trkpt lat="45.34588" lon="5.72086">
        <ele>1388</ele>
        <time>2011-12-27T11:25:54.000Z</time>
      </trkpt>
      <trkpt lat="45.34583" lon="5.7209">
        <ele>1389.4000244141</ele>
        <time>2011-12-27T11:26:02.000Z</time>
      </trkpt>
      <trkpt lat="45.34578" lon="5.72095">
        <ele>1390.5999755859</ele>
        <time>2011-12-27T11:26:10.000Z</time>
      </trkpt>
      <trkpt lat="45.34574" lon="5.72098">
        <ele>1392.1999511719</ele>
        <time>2011-12-27T11:26:16.000Z</time>
      </trkpt>
      <trkpt lat="45.3457" lon="5.72103">
        <ele>1393.8000488281</ele>
        <time>2011-12-27T11:26:24.000Z</time>
      </trkpt>
      <trkpt lat="45.34567" lon="5.72109">
        <ele>1394.5999755859</ele>
        <time>2011-12-27T11:26:32.000Z</time>
      </trkpt>
      <trkpt lat="45.34566" lon="5.72111">
        <ele>1395.4000244141</ele>
        <time>2011-12-27T11:26:35.000Z</time>
      </trkpt>
      <trkpt lat="45.34565" lon="5.72117">
        <ele>1398.1999511719</ele>
        <time>2011-12-27T11:26:44.000Z</time>
      </trkpt>
      <trkpt lat="45.34566" lon="5.72119">
        <ele>1397.5999755859</ele>
        <time>2011-12-27T11:26:47.000Z</time>
      </trkpt>
      <trkpt lat="45.34569" lon="5.72127">
        <ele>1399.1999511719</ele>
        <time>2011-12-27T11:26:55.000Z</time>
      </trkpt>
      <trkpt lat="45.3457" lon="5.72134">
        <ele>1399.8000488281</ele>
        <time>2011-12-27T11:27:03.000Z</time>
      </trkpt>
      <trkpt lat="45.34571" lon="5.7214">
        <ele>1401.4000244141</ele>
        <time>2011-12-27T11:27:10.000Z</time>
      </trkpt>
      <trkpt lat="45.34572" lon="5.72143">
        <ele>1402</ele>
        <time>2011-12-27T11:27:13.000Z</time>
      </trkpt>
      <trkpt lat="45.3457" lon="5.7215">
        <ele>1403.5999755859</ele>
        <time>2011-12-27T11:27:21.000Z</time>
      </trkpt>
      <trkpt lat="45.34566" lon="5.72158">
        <ele>1405.4000244141</ele>
        <time>2011-12-27T11:27:30.000Z</time>
      </trkpt>
      <trkpt lat="45.34562" lon="5.72167">
        <ele>1407.5999755859</ele>
        <time>2011-12-27T11:27:39.000Z</time>
      </trkpt>
      <trkpt lat="45.34559" lon="5.72173">
        <ele>1409.4000244141</ele>
        <time>2011-12-27T11:27:47.000Z</time>
      </trkpt>
      <trkpt lat="45.34555" lon="5.7218">
        <ele>1410</ele>
        <time>2011-12-27T11:27:56.000Z</time>
      </trkpt>
      <trkpt lat="45.34551" lon="5.72186">
        <ele>1412.1999511719</ele>
        <time>2011-12-27T11:28:05.000Z</time>
      </trkpt>
      <trkpt lat="45.3455" lon="5.72192">
        <ele>1414</ele>
        <time>2011-12-27T11:28:12.000Z</time>
      </trkpt>
      <trkpt lat="45.3455" lon="5.72194">
        <ele>1414.5999755859</ele>
        <time>2011-12-27T11:28:14.000Z</time>
      </trkpt>
      <trkpt lat="45.34551" lon="5.72201">
        <ele>1414.8000488281</ele>
        <time>2011-12-27T11:28:21.000Z</time>
      </trkpt>
      <trkpt lat="45.34552" lon="5.72205">
        <ele>1416.4000244141</ele>
        <time>2011-12-27T11:28:26.000Z</time>
      </trkpt>
      <trkpt lat="45.34552" lon="5.7221">
        <ele>1418.5999755859</ele>
        <time>2011-12-27T11:28:31.000Z</time>
      </trkpt>
      <trkpt lat="45.34551" lon="5.72211">
        <ele>1419</ele>
        <time>2011-12-27T11:28:33.000Z</time>
      </trkpt>
      <trkpt lat="45.34552" lon="5.72217">
        <ele>1418.5999755859</ele>
        <time>2011-12-27T11:28:42.000Z</time>
      </trkpt>
      <trkpt lat="45.34554" lon="5.72219">
        <ele>1419</ele>
        <time>2011-12-27T11:29:08.000Z</time>
      </trkpt>
      <trkpt lat="45.3455" lon="5.7223">
        <ele>1420.1999511719</ele>
        <time>2011-12-27T11:29:17.000Z</time>
      </trkpt>
      <trkpt lat="45.34547" lon="5.72237">
        <ele>1421.5999755859</ele>
        <time>2011-12-27T11:29:24.000Z</time>
      </trkpt>
      <trkpt lat="45.34541" lon="5.72245">
        <ele>1423.4000244141</ele>
        <time>2011-12-27T11:29:33.000Z</time>
      </trkpt>
      <trkpt lat="45.34537" lon="5.72254">
        <ele>1424</ele>
        <time>2011-12-27T11:29:41.000Z</time>
      </trkpt>
      <trkpt lat="45.34535" lon="5.72262">
        <ele>1426.5999755859</ele>
        <time>2011-12-27T11:29:49.000Z</time>
      </trkpt>
      <trkpt lat="45.34531" lon="5.72268">
        <ele>1426.5999755859</ele>
        <time>2011-12-27T11:29:56.000Z</time>
      </trkpt>
      <trkpt lat="45.3453" lon="5.72273">
        <ele>1426.5999755859</ele>
        <time>2011-12-27T11:30:02.000Z</time>
      </trkpt>
      <trkpt lat="45.34528" lon="5.72277">
        <ele>1426.5999755859</ele>
        <time>2011-12-27T11:30:07.000Z</time>
      </trkpt>
      <trkpt lat="45.34526" lon="5.72281">
        <ele>1426.4000244141</ele>
        <time>2011-12-27T11:30:13.000Z</time>
      </trkpt>
      <trkpt lat="45.34521" lon="5.72287">
        <ele>1426.4000244141</ele>
        <time>2011-12-27T11:30:21.000Z</time>
      </trkpt>
      <trkpt lat="45.34518" lon="5.72289">
        <ele>1426.4000244141</ele>
        <time>2011-12-27T11:30:27.000Z</time>
      </trkpt>
      <trkpt lat="45.34514" lon="5.72294">
        <ele>1426.4000244141</ele>
        <time>2011-12-27T11:30:35.000Z</time>
      </trkpt>
      <trkpt lat="45.34511" lon="5.72297">
        <ele>1426.4000244141</ele>
        <time>2011-12-27T11:30:42.000Z</time>
      </trkpt>
      <trkpt lat="45.34507" lon="5.723">
        <ele>1426.5999755859</ele>
        <time>2011-12-27T11:30:50.000Z</time>
      </trkpt>
      <trkpt lat="45.34506" lon="5.72304">
        <ele>1428.4000244141</ele>
        <time>2011-12-27T11:30:55.000Z</time>
      </trkpt>
      <trkpt lat="45.34503" lon="5.72305">
        <ele>1436.1999511719</ele>
        <time>2011-12-27T11:31:00.000Z</time>
      </trkpt>
      <trkpt lat="45.345" lon="5.72307">
        <ele>1437.1999511719</ele>
        <time>2011-12-27T11:31:05.000Z</time>
      </trkpt>
      <trkpt lat="45.34498" lon="5.72309">
        <ele>1438</ele>
        <time>2011-12-27T11:31:10.000Z</time>
      </trkpt>
      <trkpt lat="45.34495" lon="5.72311">
        <ele>1439</ele>
        <time>2011-12-27T11:31:16.000Z</time>
      </trkpt>
      <trkpt lat="45.34491" lon="5.72313">
        <ele>1440</ele>
        <time>2011-12-27T11:31:22.000Z</time>
      </trkpt>
      <trkpt lat="45.34485" lon="5.72317">
        <ele>1441.5999755859</ele>
        <time>2011-12-27T11:31:30.000Z</time>
      </trkpt>
      <trkpt lat="45.34481" lon="5.72319">
        <ele>1442</ele>
        <time>2011-12-27T11:31:37.000Z</time>
      </trkpt>
      <trkpt lat="45.34477" lon="5.7232">
        <ele>1442.8000488281</ele>
        <time>2011-12-27T11:31:43.000Z</time>
      </trkpt>
      <trkpt lat="45.34471" lon="5.72321">
        <ele>1444.5999755859</ele>
        <time>2011-12-27T11:31:50.000Z</time>
      </trkpt>
      <trkpt lat="45.34468" lon="5.72322">
        <ele>1445</ele>
        <time>2011-12-27T11:31:56.000Z</time>
      </trkpt>
      <trkpt lat="45.34465" lon="5.72322">
        <ele>1445.8000488281</ele>
        <time>2011-12-27T11:32:01.000Z</time>
      </trkpt>
      <trkpt lat="45.34464" lon="5.72322">
        <ele>1446.5999755859</ele>
        <time>2011-12-27T11:32:07.000Z</time>
      </trkpt>
      <trkpt lat="45.34468" lon="5.72321">
        <ele>1446.1999511719</ele>
        <time>2011-12-27T11:32:13.000Z</time>
      </trkpt>
      <trkpt lat="45.34473" lon="5.72323">
        <ele>1448</ele>
        <time>2011-12-27T11:32:20.000Z</time>
      </trkpt>
      <trkpt lat="45.34478" lon="5.72323">
        <ele>1448.1999511719</ele>
        <time>2011-12-27T11:32:30.000Z</time>
      </trkpt>
      <trkpt lat="45.34479" lon="5.72324">
        <ele>1449.5999755859</ele>
        <time>2011-12-27T11:32:34.000Z</time>
      </trkpt>
      <trkpt lat="45.3448" lon="5.72327">
        <ele>1449.5999755859</ele>
        <time>2011-12-27T11:32:40.000Z</time>
      </trkpt>
      <trkpt lat="45.34481" lon="5.72329">
        <ele>1450.1999511719</ele>
        <time>2011-12-27T11:32:45.000Z</time>
      </trkpt>
      <trkpt lat="45.34483" lon="5.72332">
        <ele>1451.4000244141</ele>
        <time>2011-12-27T11:32:50.000Z</time>
      </trkpt>
      <trkpt lat="45.34485" lon="5.72334">
        <ele>1451.5999755859</ele>
        <time>2011-12-27T11:32:56.000Z</time>
      </trkpt>
      <trkpt lat="45.34485" lon="5.72334">
        <ele>1451.5999755859</ele>
        <time>2011-12-27T11:32:57.000Z</time>
      </trkpt>
      <trkpt lat="45.34488" lon="5.72338">
        <ele>1452.4000244141</ele>
        <time>2011-12-27T11:33:03.000Z</time>
      </trkpt>
      <trkpt lat="45.34492" lon="5.7234">
        <ele>1453.8000488281</ele>
        <time>2011-12-27T11:33:12.000Z</time>
      </trkpt>
      <trkpt lat="45.34488" lon="5.72345">
        <ele>1455.1999511719</ele>
        <time>2011-12-27T11:33:25.000Z</time>
      </trkpt>
      <trkpt lat="45.34482" lon="5.72346">
        <ele>1456.5999755859</ele>
        <time>2011-12-27T11:33:32.000Z</time>
      </trkpt>
      <trkpt lat="45.34476" lon="5.72347">
        <ele>1457.4000244141</ele>
        <time>2011-12-27T11:33:39.000Z</time>
      </trkpt>
      <trkpt lat="45.34472" lon="5.72347">
        <ele>1458</ele>
        <time>2011-12-27T11:33:45.000Z</time>
      </trkpt>
      <trkpt lat="45.34471" lon="5.72344">
        <ele>1458.4000244141</ele>
        <time>2011-12-27T11:34:10.000Z</time>
      </trkpt>
      <trkpt lat="45.34474" lon="5.72345">
        <ele>1459.1999511719</ele>
        <time>2011-12-27T11:34:21.000Z</time>
      </trkpt>
      <trkpt lat="45.34468" lon="5.72348">
        <ele>1462.5999755859</ele>
        <time>2011-12-27T11:35:17.000Z</time>
      </trkpt>
      <trkpt lat="45.34468" lon="5.72349">
        <ele>1461.8000488281</ele>
        <time>2011-12-27T11:35:22.000Z</time>
      </trkpt>
      <trkpt lat="45.3447" lon="5.72349">
        <ele>1463</ele>
        <time>2011-12-27T11:35:29.000Z</time>
      </trkpt>
      <trkpt lat="45.34476" lon="5.72347">
        <ele>1463</ele>
        <time>2011-12-27T11:35:41.000Z</time>
      </trkpt>
      <trkpt lat="45.34478" lon="5.72349">
        <ele>1463.5999755859</ele>
        <time>2011-12-27T11:35:46.000Z</time>
      </trkpt>
      <trkpt lat="45.3448" lon="5.72353">
        <ele>1463.4000244141</ele>
        <time>2011-12-27T11:35:52.000Z</time>
      </trkpt>
      <trkpt lat="45.34481" lon="5.7236">
        <ele>1464.8000488281</ele>
        <time>2011-12-27T11:35:59.000Z</time>
      </trkpt>
      <trkpt lat="45.34484" lon="5.72365">
        <ele>1467</ele>
        <time>2011-12-27T11:36:17.000Z</time>
      </trkpt>
      <trkpt lat="45.34484" lon="5.72369">
        <ele>1468</ele>
        <time>2011-12-27T11:36:31.000Z</time>
      </trkpt>
      <trkpt lat="45.34482" lon="5.72374">
        <ele>1467.4000244141</ele>
        <time>2011-12-27T11:36:38.000Z</time>
      </trkpt>
      <trkpt lat="45.34483" lon="5.72375">
        <ele>1467.4000244141</ele>
        <time>2011-12-27T11:36:44.000Z</time>
      </trkpt>
      <trkpt lat="45.34483" lon="5.72374">
        <ele>1469.5999755859</ele>
        <time>2011-12-27T11:37:10.000Z</time>
      </trkpt>
      <trkpt lat="45.34483" lon="5.7238">
        <ele>1468.5999755859</ele>
        <time>2011-12-27T11:37:15.000Z</time>
      </trkpt>
      <trkpt lat="45.34482" lon="5.7239">
        <ele>1468</ele>
        <time>2011-12-27T11:37:23.000Z</time>
      </trkpt>
      <trkpt lat="45.34482" lon="5.72396">
        <ele>1469.5999755859</ele>
        <time>2011-12-27T11:37:28.000Z</time>
      </trkpt>
      <trkpt lat="45.34481" lon="5.72398">
        <ele>1469</ele>
        <time>2011-12-27T11:37:30.000Z</time>
      </trkpt>
      <trkpt lat="45.34478" lon="5.7241">
        <ele>1468.8000488281</ele>
        <time>2011-12-27T11:37:39.000Z</time>
      </trkpt>
      <trkpt lat="45.34476" lon="5.72415">
        <ele>1468.8000488281</ele>
        <time>2011-12-27T11:37:46.000Z</time>
      </trkpt>
      <trkpt lat="45.3447" lon="5.72422">
        <ele>1467.5999755859</ele>
        <time>2011-12-27T11:39:14.000Z</time>
      </trkpt>
      <trkpt lat="45.34466" lon="5.72427">
        <ele>1466</ele>
        <time>2011-12-27T11:39:20.000Z</time>
      </trkpt>
      <trkpt lat="45.34464" lon="5.72429">
        <ele>1465.5999755859</ele>
        <time>2011-12-27T11:39:27.000Z</time>
      </trkpt>
      <trkpt lat="45.34461" lon="5.72433">
        <ele>1465.1999511719</ele>
        <time>2011-12-27T11:39:35.000Z</time>
      </trkpt>
      <trkpt lat="45.34459" lon="5.72437">
        <ele>1465.1999511719</ele>
        <time>2011-12-27T11:39:41.000Z</time>
      </trkpt>
      <trkpt lat="45.34457" lon="5.72443">
        <ele>1466.1999511719</ele>
        <time>2011-12-27T11:39:48.000Z</time>
      </trkpt>
      <trkpt lat="45.34452" lon="5.7245">
        <ele>1466</ele>
        <time>2011-12-27T11:39:57.000Z</time>
      </trkpt>
      <trkpt lat="45.34449" lon="5.72455">
        <ele>1466.8000488281</ele>
        <time>2011-12-27T11:40:03.000Z</time>
      </trkpt>
      <trkpt lat="45.34448" lon="5.72459">
        <ele>1466.4000244141</ele>
        <time>2011-12-27T11:40:08.000Z</time>
      </trkpt>
      <trkpt lat="45.34445" lon="5.72462">
        <ele>1465.8000488281</ele>
        <time>2011-12-27T11:40:12.000Z</time>
      </trkpt>
      <trkpt lat="45.3444" lon="5.72468">
        <ele>1463.8000488281</ele>
        <time>2011-12-27T11:40:18.000Z</time>
      </trkpt>
      <trkpt lat="45.34439" lon="5.72469">
        <ele>1463.8000488281</ele>
        <time>2011-12-27T11:40:19.000Z</time>
      </trkpt>
      <trkpt lat="45.34437" lon="5.72473">
        <ele>1463</ele>
        <time>2011-12-27T11:40:22.000Z</time>
      </trkpt>
      <trkpt lat="45.34435" lon="5.72477">
        <ele>1462.4000244141</ele>
        <time>2011-12-27T11:40:25.000Z</time>
      </trkpt>
      <trkpt lat="45.34438" lon="5.72485">
        <ele>1463.1999511719</ele>
        <time>2011-12-27T11:40:33.000Z</time>
      </trkpt>
      <trkpt lat="45.34438" lon="5.72492">
        <ele>1462.4000244141</ele>
        <time>2011-12-27T11:40:39.000Z</time>
      </trkpt>
      <trkpt lat="45.34441" lon="5.72495">
        <ele>1463.8000488281</ele>
        <time>2011-12-27T11:40:46.000Z</time>
      </trkpt>
      <trkpt lat="45.34442" lon="5.725">
        <ele>1466.5999755859</ele>
        <time>2011-12-27T11:40:50.000Z</time>
      </trkpt>
      <trkpt lat="45.34442" lon="5.72502">
        <ele>1466</ele>
        <time>2011-12-27T11:40:52.000Z</time>
      </trkpt>
      <trkpt lat="45.34441" lon="5.72506">
        <ele>1465</ele>
        <time>2011-12-27T11:40:54.000Z</time>
      </trkpt>
      <trkpt lat="45.34442" lon="5.7251">
        <ele>1464.1999511719</ele>
        <time>2011-12-27T11:40:58.000Z</time>
      </trkpt>
      <trkpt lat="45.34444" lon="5.72518">
        <ele>1465.1999511719</ele>
        <time>2011-12-27T11:41:04.000Z</time>
      </trkpt>
      <trkpt lat="45.34444" lon="5.72522">
        <ele>1463.5999755859</ele>
        <time>2011-12-27T11:41:07.000Z</time>
      </trkpt>
      <trkpt lat="45.34445" lon="5.72528">
        <ele>1463.1999511719</ele>
        <time>2011-12-27T11:41:11.000Z</time>
      </trkpt>
      <trkpt lat="45.34446" lon="5.72536">
        <ele>1463.1999511719</ele>
        <time>2011-12-27T11:41:18.000Z</time>
      </trkpt>
      <trkpt lat="45.34446" lon="5.72539">
        <ele>1462.1999511719</ele>
        <time>2011-12-27T11:41:23.000Z</time>
      </trkpt>
      <trkpt lat="45.3445" lon="5.7255">
        <ele>1464.1999511719</ele>
        <time>2011-12-27T11:41:32.000Z</time>
      </trkpt>
      <trkpt lat="45.34452" lon="5.72554">
        <ele>1464.4000244141</ele>
        <time>2011-12-27T11:41:38.000Z</time>
      </trkpt>
      <trkpt lat="45.34455" lon="5.72559">
        <ele>1464.1999511719</ele>
        <time>2011-12-27T11:41:43.000Z</time>
      </trkpt>
      <trkpt lat="45.3446" lon="5.72567">
        <ele>1464</ele>
        <time>2011-12-27T11:41:50.000Z</time>
      </trkpt>
      <trkpt lat="45.34462" lon="5.7257">
        <ele>1464.1999511719</ele>
        <time>2011-12-27T11:41:53.000Z</time>
      </trkpt>
      <trkpt lat="45.34466" lon="5.72577">
        <ele>1464.1999511719</ele>
        <time>2011-12-27T11:42:00.000Z</time>
      </trkpt>
      <trkpt lat="45.3447" lon="5.72587">
        <ele>1464.5999755859</ele>
        <time>2011-12-27T11:42:09.000Z</time>
      </trkpt>
      <trkpt lat="45.34473" lon="5.72593">
        <ele>1464.1999511719</ele>
        <time>2011-12-27T11:42:15.000Z</time>
      </trkpt>
      <trkpt lat="45.34475" lon="5.72593">
        <ele>1464.4000244141</ele>
        <time>2011-12-27T11:42:24.000Z</time>
      </trkpt>
      <trkpt lat="45.34476" lon="5.72594">
        <ele>1464</ele>
        <time>2011-12-27T11:42:25.000Z</time>
      </trkpt>
      <trkpt lat="45.3448" lon="5.72605">
        <ele>1463</ele>
        <time>2011-12-27T11:42:33.000Z</time>
      </trkpt>
      <trkpt lat="45.34484" lon="5.72612">
        <ele>1462.5999755859</ele>
        <time>2011-12-27T11:42:37.000Z</time>
      </trkpt>
      <trkpt lat="45.34488" lon="5.72615">
        <ele>1461.5999755859</ele>
        <time>2011-12-27T11:42:44.000Z</time>
      </trkpt>
      <trkpt lat="45.34492" lon="5.72619">
        <ele>1460.4000244141</ele>
        <time>2011-12-27T11:42:49.000Z</time>
      </trkpt>
      <trkpt lat="45.34498" lon="5.72631">
        <ele>1461.4000244141</ele>
        <time>2011-12-27T11:42:58.000Z</time>
      </trkpt>
      <trkpt lat="45.34499" lon="5.72632">
        <ele>1461.1999511719</ele>
        <time>2011-12-27T11:42:59.000Z</time>
      </trkpt>
      <trkpt lat="45.34504" lon="5.72637">
        <ele>1460.5999755859</ele>
        <time>2011-12-27T11:43:06.000Z</time>
      </trkpt>
      <trkpt lat="45.34504" lon="5.72638">
        <ele>1460.1999511719</ele>
        <time>2011-12-27T11:43:07.000Z</time>
      </trkpt>
      <trkpt lat="45.34508" lon="5.72643">
        <ele>1459.4000244141</ele>
        <time>2011-12-27T11:43:11.000Z</time>
      </trkpt>
      <trkpt lat="45.34511" lon="5.7265">
        <ele>1457.8000488281</ele>
        <time>2011-12-27T11:43:15.000Z</time>
      </trkpt>
      <trkpt lat="45.34512" lon="5.72657">
        <ele>1457.4000244141</ele>
        <time>2011-12-27T11:43:19.000Z</time>
      </trkpt>
      <trkpt lat="45.34517" lon="5.72655">
        <ele>1457.4000244141</ele>
        <time>2011-12-27T11:43:29.000Z</time>
      </trkpt>
      <trkpt lat="45.34518" lon="5.72644">
        <ele>1459</ele>
        <time>2011-12-27T11:43:49.000Z</time>
      </trkpt>
      <trkpt lat="45.3452" lon="5.72659">
        <ele>1459.8000488281</ele>
        <time>2011-12-27T11:44:32.000Z</time>
      </trkpt>
      <trkpt lat="45.34522" lon="5.72652">
        <ele>1460.8000488281</ele>
        <time>2011-12-27T11:44:57.000Z</time>
      </trkpt>
      <trkpt lat="45.34526" lon="5.72655">
        <ele>1461.4000244141</ele>
        <time>2011-12-27T11:45:02.000Z</time>
      </trkpt>
      <trkpt lat="45.34527" lon="5.72663">
        <ele>1459.4000244141</ele>
        <time>2011-12-27T11:45:05.000Z</time>
      </trkpt>
      <trkpt lat="45.34527" lon="5.72665">
        <ele>1459.4000244141</ele>
        <time>2011-12-27T11:45:06.000Z</time>
      </trkpt>
      <trkpt lat="45.34528" lon="5.72672">
        <ele>1457.5999755859</ele>
        <time>2011-12-27T11:45:11.000Z</time>
      </trkpt>
      <trkpt lat="45.34526" lon="5.72678">
        <ele>1458.8000488281</ele>
        <time>2011-12-27T11:45:17.000Z</time>
      </trkpt>
      <trkpt lat="45.34525" lon="5.72692">
        <ele>1456.8000488281</ele>
        <time>2011-12-27T11:45:23.000Z</time>
      </trkpt>
      <trkpt lat="45.34526" lon="5.72703">
        <ele>1455.8000488281</ele>
        <time>2011-12-27T11:45:30.000Z</time>
      </trkpt>
      <trkpt lat="45.3453" lon="5.72709">
        <ele>1457.1999511719</ele>
        <time>2011-12-27T11:45:37.000Z</time>
      </trkpt>
      <trkpt lat="45.34533" lon="5.72714">
        <ele>1458</ele>
        <time>2011-12-27T11:45:42.000Z</time>
      </trkpt>
      <trkpt lat="45.34532" lon="5.72724">
        <ele>1456.1999511719</ele>
        <time>2011-12-27T11:45:49.000Z</time>
      </trkpt>
      <trkpt lat="45.34531" lon="5.72734">
        <ele>1454</ele>
        <time>2011-12-27T11:45:57.000Z</time>
      </trkpt>
      <trkpt lat="45.3453" lon="5.7274">
        <ele>1452.5999755859</ele>
        <time>2011-12-27T11:46:06.000Z</time>
      </trkpt>
      <trkpt lat="45.34527" lon="5.72747">
        <ele>1453.5999755859</ele>
        <time>2011-12-27T11:46:27.000Z</time>
      </trkpt>
      <trkpt lat="45.34527" lon="5.72736">
        <ele>1453.4000244141</ele>
        <time>2011-12-27T11:47:05.000Z</time>
      </trkpt>
      <trkpt lat="45.34528" lon="5.72728">
        <ele>1453.8000488281</ele>
        <time>2011-12-27T11:50:07.000Z</time>
      </trkpt>
      <trkpt lat="45.34526" lon="5.72741">
        <ele>1453.5999755859</ele>
        <time>2011-12-27T11:51:04.000Z</time>
      </trkpt>
      <trkpt lat="45.34524" lon="5.72742">
        <ele>1454.5999755859</ele>
        <time>2011-12-27T11:51:31.000Z</time>
      </trkpt>
      <trkpt lat="45.34519" lon="5.72752">
        <ele>1453.4000244141</ele>
        <time>2011-12-27T11:52:26.000Z</time>
      </trkpt>
      <trkpt lat="45.34521" lon="5.72745">
        <ele>1454</ele>
        <time>2011-12-27T11:52:43.000Z</time>
      </trkpt>
      <trkpt lat="45.34523" lon="5.72744">
        <ele>1452.8000488281</ele>
        <time>2011-12-27T11:52:57.000Z</time>
      </trkpt>
      <trkpt lat="45.34523" lon="5.72753">
        <ele>1452.8000488281</ele>
        <time>2011-12-27T11:53:09.000Z</time>
      </trkpt>
      <trkpt lat="45.3452" lon="5.72757">
        <ele>1453</ele>
        <time>2011-12-27T11:53:15.000Z</time>
      </trkpt>
      <trkpt lat="45.34518" lon="5.72758">
        <ele>1453</ele>
        <time>2011-12-27T11:53:22.000Z</time>
      </trkpt>
      <trkpt lat="45.34523" lon="5.72751">
        <ele>1453.5999755859</ele>
        <time>2011-12-27T11:53:30.000Z</time>
      </trkpt>
      <trkpt lat="45.34531" lon="5.72747">
        <ele>1454.4000244141</ele>
        <time>2011-12-27T11:53:47.000Z</time>
      </trkpt>
      <trkpt lat="45.3453" lon="5.72743">
        <ele>1454.4000244141</ele>
        <time>2011-12-27T11:53:55.000Z</time>
      </trkpt>
      <trkpt lat="45.3453" lon="5.72736">
        <ele>1453.8000488281</ele>
        <time>2011-12-27T11:54:23.000Z</time>
      </trkpt>
      <trkpt lat="45.3453" lon="5.72746">
        <ele>1453.8000488281</ele>
        <time>2011-12-27T11:54:59.000Z</time>
      </trkpt>
      <trkpt lat="45.34527" lon="5.72735">
        <ele>1452.4000244141</ele>
        <time>2011-12-27T11:55:24.000Z</time>
      </trkpt>
      <trkpt lat="45.34527" lon="5.72734">
        <ele>1454.4000244141</ele>
        <time>2011-12-27T11:55:47.000Z</time>
      </trkpt>
      <trkpt lat="45.34526" lon="5.72733">
        <ele>1457</ele>
        <time>2011-12-27T11:55:49.000Z</time>
      </trkpt>
      <trkpt lat="45.34529" lon="5.72735">
        <ele>1450.5999755859</ele>
        <time>2011-12-27T11:55:55.000Z</time>
      </trkpt>
      <trkpt lat="45.34528" lon="5.72735">
        <ele>1462.4000244141</ele>
        <time>2011-12-27T11:55:58.000Z</time>
      </trkpt>
      <trkpt lat="45.34528" lon="5.72736">
        <ele>1463.5999755859</ele>
        <time>2011-12-27T11:56:00.000Z</time>
      </trkpt>
      <trkpt lat="45.34529" lon="5.72727">
        <ele>1451.5999755859</ele>
        <time>2011-12-27T11:56:42.000Z</time>
      </trkpt>
      <trkpt lat="45.34531" lon="5.72731">
        <ele>1453.4000244141</ele>
        <time>2011-12-27T11:56:54.000Z</time>
      </trkpt>
      <trkpt lat="45.34533" lon="5.72738">
        <ele>1452.5999755859</ele>
        <time>2011-12-27T11:56:59.000Z</time>
      </trkpt>
      <trkpt lat="45.34534" lon="5.72745">
        <ele>1449</ele>
        <time>2011-12-27T11:57:03.000Z</time>
      </trkpt>
      <trkpt lat="45.34532" lon="5.72753">
        <ele>1448</ele>
        <time>2011-12-27T11:57:08.000Z</time>
      </trkpt>
      <trkpt lat="45.34531" lon="5.72753">
        <ele>1447.8000488281</ele>
        <time>2011-12-27T11:57:09.000Z</time>
      </trkpt>
      <trkpt lat="45.34531" lon="5.72759">
        <ele>1447</ele>
        <time>2011-12-27T11:57:14.000Z</time>
      </trkpt>
      <trkpt lat="45.34532" lon="5.72761">
        <ele>1446</ele>
        <time>2011-12-27T11:57:17.000Z</time>
      </trkpt>
      <trkpt lat="45.34532" lon="5.72767">
        <ele>1444.4000244141</ele>
        <time>2011-12-27T11:57:23.000Z</time>
      </trkpt>
      <trkpt lat="45.34532" lon="5.72771">
        <ele>1435.4000244141</ele>
        <time>2011-12-27T11:57:28.000Z</time>
      </trkpt>
      <trkpt lat="45.34534" lon="5.72771">
        <ele>1431.5999755859</ele>
        <time>2011-12-27T11:57:31.000Z</time>
      </trkpt>
      <trkpt lat="45.34536" lon="5.7277">
        <ele>1442.4000244141</ele>
        <time>2011-12-27T11:57:38.000Z</time>
      </trkpt>
      <trkpt lat="45.34537" lon="5.72771">
        <ele>1442</ele>
        <time>2011-12-27T11:57:39.000Z</time>
      </trkpt>
      <trkpt lat="45.34539" lon="5.72777">
        <ele>1440</ele>
        <time>2011-12-27T11:57:43.000Z</time>
      </trkpt>
      <trkpt lat="45.34539" lon="5.72779">
        <ele>1439.5999755859</ele>
        <time>2011-12-27T11:57:45.000Z</time>
      </trkpt>
      <trkpt lat="45.3454" lon="5.72784">
        <ele>1436.5999755859</ele>
        <time>2011-12-27T11:57:49.000Z</time>
      </trkpt>
      <trkpt lat="45.3454" lon="5.72785">
        <ele>1435.1999511719</ele>
        <time>2011-12-27T11:57:50.000Z</time>
      </trkpt>
      <trkpt lat="45.34542" lon="5.72789">
        <ele>1431.8000488281</ele>
        <time>2011-12-27T11:57:53.000Z</time>
      </trkpt>
      <trkpt lat="45.34542" lon="5.72795">
        <ele>1430.4000244141</ele>
        <time>2011-12-27T11:57:57.000Z</time>
      </trkpt>
      <trkpt lat="45.34542" lon="5.72797">
        <ele>1428.8000488281</ele>
        <time>2011-12-27T11:57:59.000Z</time>
      </trkpt>
      <trkpt lat="45.34542" lon="5.72798">
        <ele>1427.8000488281</ele>
        <time>2011-12-27T11:58:00.000Z</time>
      </trkpt>
      <trkpt lat="45.34545" lon="5.72805">
        <ele>1424.5999755859</ele>
        <time>2011-12-27T11:58:06.000Z</time>
      </trkpt>
      <trkpt lat="45.34545" lon="5.72805">
        <ele>1423.8000488281</ele>
        <time>2011-12-27T11:58:08.000Z</time>
      </trkpt>
      <trkpt lat="45.34541" lon="5.7281">
        <ele>1423.8000488281</ele>
        <time>2011-12-27T11:58:17.000Z</time>
      </trkpt>
      <trkpt lat="45.34544" lon="5.72816">
        <ele>1422.1999511719</ele>
        <time>2011-12-27T11:58:20.000Z</time>
      </trkpt>
      <trkpt lat="45.34544" lon="5.72824">
        <ele>1420.1999511719</ele>
        <time>2011-12-27T11:58:24.000Z</time>
      </trkpt>
      <trkpt lat="45.34545" lon="5.72826">
        <ele>1418</ele>
        <time>2011-12-27T11:58:25.000Z</time>
      </trkpt>
      <trkpt lat="45.34549" lon="5.72825">
        <ele>1416</ele>
        <time>2011-12-27T11:58:28.000Z</time>
      </trkpt>
      <trkpt lat="45.34549" lon="5.72828">
        <ele>1412.8000488281</ele>
        <time>2011-12-27T11:58:32.000Z</time>
      </trkpt>
      <trkpt lat="45.34548" lon="5.72828">
        <ele>1412.5999755859</ele>
        <time>2011-12-27T11:58:33.000Z</time>
      </trkpt>
      <trkpt lat="45.34539" lon="5.7283">
        <ele>1409.1999511719</ele>
        <time>2011-12-27T11:59:10.000Z</time>
      </trkpt>
      <trkpt lat="45.34544" lon="5.72832">
        <ele>1410.1999511719</ele>
        <time>2011-12-27T11:59:15.000Z</time>
      </trkpt>
      <trkpt lat="45.34546" lon="5.72831">
        <ele>1406</ele>
        <time>2011-12-27T11:59:19.000Z</time>
      </trkpt>
      <trkpt lat="45.34544" lon="5.7283">
        <ele>1406</ele>
        <time>2011-12-27T11:59:25.000Z</time>
      </trkpt>
      <trkpt lat="45.34543" lon="5.7283">
        <ele>1405.1999511719</ele>
        <time>2011-12-27T11:59:26.000Z</time>
      </trkpt>
      <trkpt lat="45.34542" lon="5.7283">
        <ele>1406.4000244141</ele>
        <time>2011-12-27T11:59:32.000Z</time>
      </trkpt>
      <trkpt lat="45.34542" lon="5.72835">
        <ele>1407</ele>
        <time>2011-12-27T11:59:38.000Z</time>
      </trkpt>
      <trkpt lat="45.34543" lon="5.72836">
        <ele>1405.5999755859</ele>
        <time>2011-12-27T11:59:42.000Z</time>
      </trkpt>
      <trkpt lat="45.34543" lon="5.72838">
        <ele>1406</ele>
        <time>2011-12-27T12:00:07.000Z</time>
      </trkpt>
      <trkpt lat="45.34541" lon="5.72841">
        <ele>1403.4000244141</ele>
        <time>2011-12-27T12:00:21.000Z</time>
      </trkpt>
      <trkpt lat="45.34539" lon="5.72842">
        <ele>1406.4000244141</ele>
        <time>2011-12-27T12:00:25.000Z</time>
      </trkpt>
      <trkpt lat="45.34539" lon="5.72844">
        <ele>1405.4000244141</ele>
        <time>2011-12-27T12:00:27.000Z</time>
      </trkpt>
      <trkpt lat="45.34546" lon="5.72849">
        <ele>1405.4000244141</ele>
        <time>2011-12-27T12:00:35.000Z</time>
      </trkpt>
      <trkpt lat="45.34551" lon="5.72845">
        <ele>1398.1999511719</ele>
        <time>2011-12-27T12:00:39.000Z</time>
      </trkpt>
      <trkpt lat="45.3455" lon="5.72839">
        <ele>1394.4000244141</ele>
        <time>2011-12-27T12:00:41.000Z</time>
      </trkpt>
      <trkpt lat="45.3455" lon="5.72836">
        <ele>1392</ele>
        <time>2011-12-27T12:00:42.000Z</time>
      </trkpt>
      <trkpt lat="45.34548" lon="5.72834">
        <ele>1405.5999755859</ele>
        <time>2011-12-27T12:00:44.000Z</time>
      </trkpt>
      <trkpt lat="45.34543" lon="5.72827">
        <ele>1405.4000244141</ele>
        <time>2011-12-27T12:00:50.000Z</time>
      </trkpt>
      <trkpt lat="45.34545" lon="5.72831">
        <ele>1402.5999755859</ele>
        <time>2011-12-27T12:01:03.000Z</time>
      </trkpt>
      <trkpt lat="45.34545" lon="5.72832">
        <ele>1402.1999511719</ele>
        <time>2011-12-27T12:01:04.000Z</time>
      </trkpt>
      <trkpt lat="45.34548" lon="5.72837">
        <ele>1399.5999755859</ele>
        <time>2011-12-27T12:01:08.000Z</time>
      </trkpt>
      <trkpt lat="45.34547" lon="5.72845">
        <ele>1395.4000244141</ele>
        <time>2011-12-27T12:01:13.000Z</time>
      </trkpt>
      <trkpt lat="45.34543" lon="5.72851">
        <ele>1391.1999511719</ele>
        <time>2011-12-27T12:01:18.000Z</time>
      </trkpt>
      <trkpt lat="45.34546" lon="5.72854">
        <ele>1388.8000488281</ele>
        <time>2011-12-27T12:01:21.000Z</time>
      </trkpt>
      <trkpt lat="45.34547" lon="5.72863">
        <ele>1386.5999755859</ele>
        <time>2011-12-27T12:01:25.000Z</time>
      </trkpt>
      <trkpt lat="45.34546" lon="5.72865">
        <ele>1384.5999755859</ele>
        <time>2011-12-27T12:01:27.000Z</time>
      </trkpt>
      <trkpt lat="45.34547" lon="5.7287">
        <ele>1380.8000488281</ele>
        <time>2011-12-27T12:01:30.000Z</time>
      </trkpt>
      <trkpt lat="45.34551" lon="5.72873">
        <ele>1377.1999511719</ele>
        <time>2011-12-27T12:01:33.000Z</time>
      </trkpt>
      <trkpt lat="45.34557" lon="5.72874">
        <ele>1377.1999511719</ele>
        <time>2011-12-27T12:01:36.000Z</time>
      </trkpt>
      <trkpt lat="45.34558" lon="5.7288">
        <ele>1374.1999511719</ele>
        <time>2011-12-27T12:01:39.000Z</time>
      </trkpt>
      <trkpt lat="45.34564" lon="5.72887">
        <ele>1367.1999511719</ele>
        <time>2011-12-27T12:01:43.000Z</time>
      </trkpt>
      <trkpt lat="45.34569" lon="5.72891">
        <ele>1366.1999511719</ele>
        <time>2011-12-27T12:01:45.000Z</time>
      </trkpt>
      <trkpt lat="45.34571" lon="5.72894">
        <ele>1364.5999755859</ele>
        <time>2011-12-27T12:01:46.000Z</time>
      </trkpt>
      <trkpt lat="45.34568" lon="5.72913">
        <ele>1355.4000244141</ele>
        <time>2011-12-27T12:01:51.000Z</time>
      </trkpt>
      <trkpt lat="45.34565" lon="5.72927">
        <ele>1348.5999755859</ele>
        <time>2011-12-27T12:01:55.000Z</time>
      </trkpt>
      <trkpt lat="45.34564" lon="5.72938">
        <ele>1339.1999511719</ele>
        <time>2011-12-27T12:01:59.000Z</time>
      </trkpt>
      <trkpt lat="45.34565" lon="5.72938">
        <ele>1338.4000244141</ele>
        <time>2011-12-27T12:02:00.000Z</time>
      </trkpt>
      <trkpt lat="45.34558" lon="5.72946">
        <ele>1337.5999755859</ele>
        <time>2011-12-27T12:02:05.000Z</time>
      </trkpt>
      <trkpt lat="45.3456" lon="5.72951">
        <ele>1333.4000244141</ele>
        <time>2011-12-27T12:02:08.000Z</time>
      </trkpt>
      <trkpt lat="45.34564" lon="5.72954">
        <ele>1332.5999755859</ele>
        <time>2011-12-27T12:02:10.000Z</time>
      </trkpt>
      <trkpt lat="45.34566" lon="5.72962">
        <ele>1329.5999755859</ele>
        <time>2011-12-27T12:02:13.000Z</time>
      </trkpt>
      <trkpt lat="45.34576" lon="5.72972">
        <ele>1321</ele>
        <time>2011-12-27T12:02:17.000Z</time>
      </trkpt>
      <trkpt lat="45.34584" lon="5.72974">
        <ele>1317.4000244141</ele>
        <time>2011-12-27T12:02:20.000Z</time>
      </trkpt>
      <trkpt lat="45.34589" lon="5.72978">
        <ele>1312</ele>
        <time>2011-12-27T12:02:24.000Z</time>
      </trkpt>
      <trkpt lat="45.34589" lon="5.72978">
        <ele>1311.8000488281</ele>
        <time>2011-12-27T12:02:25.000Z</time>
      </trkpt>
      <trkpt lat="45.3459" lon="5.72978">
        <ele>1309</ele>
        <time>2011-12-27T12:02:48.000Z</time>
      </trkpt>
      <trkpt lat="45.34591" lon="5.72982">
        <ele>1308.8000488281</ele>
        <time>2011-12-27T12:02:50.000Z</time>
      </trkpt>
      <trkpt lat="45.34589" lon="5.72993">
        <ele>1305.8000488281</ele>
        <time>2011-12-27T12:02:54.000Z</time>
      </trkpt>
      <trkpt lat="45.34586" lon="5.72998">
        <ele>1301</ele>
        <time>2011-12-27T12:02:57.000Z</time>
      </trkpt>
      <trkpt lat="45.34583" lon="5.73002">
        <ele>1301.4000244141</ele>
        <time>2011-12-27T12:03:00.000Z</time>
      </trkpt>
      <trkpt lat="45.34584" lon="5.73006">
        <ele>1299.4000244141</ele>
        <time>2011-12-27T12:03:02.000Z</time>
      </trkpt>
      <trkpt lat="45.34587" lon="5.73002">
        <ele>1300.4000244141</ele>
        <time>2011-12-27T12:03:06.000Z</time>
      </trkpt>
      <trkpt lat="45.34589" lon="5.73001">
        <ele>1299.1999511719</ele>
        <time>2011-12-27T12:03:14.000Z</time>
      </trkpt>
      <trkpt lat="45.34599" lon="5.7301">
        <ele>1291</ele>
        <time>2011-12-27T12:03:18.000Z</time>
      </trkpt>
      <trkpt lat="45.34602" lon="5.73006">
        <ele>1290.5999755859</ele>
        <time>2011-12-27T12:03:22.000Z</time>
      </trkpt>
      <trkpt lat="45.34606" lon="5.73015">
        <ele>1291.8000488281</ele>
        <time>2011-12-27T12:03:38.000Z</time>
      </trkpt>
      <trkpt lat="45.34611" lon="5.73024">
        <ele>1281.8000488281</ele>
        <time>2011-12-27T12:03:43.000Z</time>
      </trkpt>
      <trkpt lat="45.34611" lon="5.73024">
        <ele>1282.1999511719</ele>
        <time>2011-12-27T12:03:44.000Z</time>
      </trkpt>
      <trkpt lat="45.34612" lon="5.73025">
        <ele>1287.5999755859</ele>
        <time>2011-12-27T12:03:48.000Z</time>
      </trkpt>
      <trkpt lat="45.34614" lon="5.73026">
        <ele>1283.5999755859</ele>
        <time>2011-12-27T12:03:52.000Z</time>
      </trkpt>
      <trkpt lat="45.34613" lon="5.73023">
        <ele>1288</ele>
        <time>2011-12-27T12:03:54.000Z</time>
      </trkpt>
      <trkpt lat="45.34623" lon="5.73022">
        <ele>1287.8000488281</ele>
        <time>2011-12-27T12:04:00.000Z</time>
      </trkpt>
      <trkpt lat="45.34627" lon="5.73026">
        <ele>1287.1999511719</ele>
        <time>2011-12-27T12:04:03.000Z</time>
      </trkpt>
      <trkpt lat="45.34631" lon="5.73028">
        <ele>1286.4000244141</ele>
        <time>2011-12-27T12:04:05.000Z</time>
      </trkpt>
      <trkpt lat="45.34637" lon="5.73028">
        <ele>1285.1999511719</ele>
        <time>2011-12-27T12:04:08.000Z</time>
      </trkpt>
      <trkpt lat="45.34641" lon="5.73039">
        <ele>1280.5999755859</ele>
        <time>2011-12-27T12:04:12.000Z</time>
      </trkpt>
      <trkpt lat="45.34629" lon="5.73073">
        <ele>1278.8000488281</ele>
        <time>2011-12-27T12:04:17.000Z</time>
      </trkpt>
      <trkpt lat="45.34639" lon="5.73082">
        <ele>1276.1999511719</ele>
        <time>2011-12-27T12:04:21.000Z</time>
      </trkpt>
      <trkpt lat="45.34642" lon="5.73085">
        <ele>1275</ele>
        <time>2011-12-27T12:04:22.000Z</time>
      </trkpt>
      <trkpt lat="45.34646" lon="5.73088">
        <ele>1275.1999511719</ele>
        <time>2011-12-27T12:04:27.000Z</time>
      </trkpt>
      <trkpt lat="45.34645" lon="5.73098">
        <ele>1272.5999755859</ele>
        <time>2011-12-27T12:04:32.000Z</time>
      </trkpt>
      <trkpt lat="45.34648" lon="5.731">
        <ele>1271.5999755859</ele>
        <time>2011-12-27T12:04:36.000Z</time>
      </trkpt>
      <trkpt lat="45.34649" lon="5.731">
        <ele>1271</ele>
        <time>2011-12-27T12:04:37.000Z</time>
      </trkpt>
      <trkpt lat="45.34648" lon="5.73108">
        <ele>1267.5999755859</ele>
        <time>2011-12-27T12:04:41.000Z</time>
      </trkpt>
      <trkpt lat="45.34645" lon="5.73119">
        <ele>1265.4000244141</ele>
        <time>2011-12-27T12:04:46.000Z</time>
      </trkpt>
      <trkpt lat="45.34644" lon="5.73122">
        <ele>1264.4000244141</ele>
        <time>2011-12-27T12:04:48.000Z</time>
      </trkpt>
      <trkpt lat="45.34647" lon="5.73123">
        <ele>1263</ele>
        <time>2011-12-27T12:04:50.000Z</time>
      </trkpt>
      <trkpt lat="45.34649" lon="5.73123">
        <ele>1262.1999511719</ele>
        <time>2011-12-27T12:04:52.000Z</time>
      </trkpt>
      <trkpt lat="45.34649" lon="5.73133">
        <ele>1258.8000488281</ele>
        <time>2011-12-27T12:04:57.000Z</time>
      </trkpt>
      <trkpt lat="45.34645" lon="5.73137">
        <ele>1258.8000488281</ele>
        <time>2011-12-27T12:05:06.000Z</time>
      </trkpt>
      <trkpt lat="45.34646" lon="5.73138">
        <ele>1256.5999755859</ele>
        <time>2011-12-27T12:05:10.000Z</time>
      </trkpt>
      <trkpt lat="45.34652" lon="5.73137">
        <ele>1255.4000244141</ele>
        <time>2011-12-27T12:05:13.000Z</time>
      </trkpt>
      <trkpt lat="45.34657" lon="5.73138">
        <ele>1256.4000244141</ele>
        <time>2011-12-27T12:05:15.000Z</time>
      </trkpt>
      <trkpt lat="45.34671" lon="5.7317">
        <ele>1248.1999511719</ele>
        <time>2011-12-27T12:05:20.000Z</time>
      </trkpt>
      <trkpt lat="45.34681" lon="5.73184">
        <ele>1245.8000488281</ele>
        <time>2011-12-27T12:05:24.000Z</time>
      </trkpt>
      <trkpt lat="45.34682" lon="5.73186">
        <ele>1245.4000244141</ele>
        <time>2011-12-27T12:05:27.000Z</time>
      </trkpt>
      <trkpt lat="45.34676" lon="5.73189">
        <ele>1245.1999511719</ele>
        <time>2011-12-27T12:05:49.000Z</time>
      </trkpt>
      <trkpt lat="45.34675" lon="5.73193">
        <ele>1245.1999511719</ele>
        <time>2011-12-27T12:05:53.000Z</time>
      </trkpt>
      <trkpt lat="45.34678" lon="5.73208">
        <ele>1244.4000244141</ele>
        <time>2011-12-27T12:05:59.000Z</time>
      </trkpt>
      <trkpt lat="45.34679" lon="5.73214">
        <ele>1243.5999755859</ele>
        <time>2011-12-27T12:06:03.000Z</time>
      </trkpt>
      <trkpt lat="45.34681" lon="5.73221">
        <ele>1240.8000488281</ele>
        <time>2011-12-27T12:06:07.000Z</time>
      </trkpt>
      <trkpt lat="45.34682" lon="5.7323">
        <ele>1237.4000244141</ele>
        <time>2011-12-27T12:06:13.000Z</time>
      </trkpt>
      <trkpt lat="45.34683" lon="5.73236">
        <ele>1235.5999755859</ele>
        <time>2011-12-27T12:06:17.000Z</time>
      </trkpt>
      <trkpt lat="45.34685" lon="5.73241">
        <ele>1233.1999511719</ele>
        <time>2011-12-27T12:06:22.000Z</time>
      </trkpt>
      <trkpt lat="45.34689" lon="5.73242">
        <ele>1231.1999511719</ele>
        <time>2011-12-27T12:06:25.000Z</time>
      </trkpt>
      <trkpt lat="45.34692" lon="5.73248">
        <ele>1228.8000488281</ele>
        <time>2011-12-27T12:06:29.000Z</time>
      </trkpt>
      <trkpt lat="45.34691" lon="5.73251">
        <ele>1227.8000488281</ele>
        <time>2011-12-27T12:06:31.000Z</time>
      </trkpt>
      <trkpt lat="45.34693" lon="5.73257">
        <ele>1226.1999511719</ele>
        <time>2011-12-27T12:06:35.000Z</time>
      </trkpt>
      <trkpt lat="45.34694" lon="5.73257">
        <ele>1226</ele>
        <time>2011-12-27T12:06:36.000Z</time>
      </trkpt>
      <trkpt lat="45.34695" lon="5.73261">
        <ele>1224.5999755859</ele>
        <time>2011-12-27T12:06:39.000Z</time>
      </trkpt>
      <trkpt lat="45.34699" lon="5.7327">
        <ele>1219</ele>
        <time>2011-12-27T12:06:44.000Z</time>
      </trkpt>
      <trkpt lat="45.34696" lon="5.73283">
        <ele>1213</ele>
        <time>2011-12-27T12:06:53.000Z</time>
      </trkpt>
      <trkpt lat="45.34696" lon="5.73284">
        <ele>1212</ele>
        <time>2011-12-27T12:06:54.000Z</time>
      </trkpt>
      <trkpt lat="45.34708" lon="5.73299">
        <ele>1206.8000488281</ele>
        <time>2011-12-27T12:06:58.000Z</time>
      </trkpt>
      <trkpt lat="45.34715" lon="5.7331">
        <ele>1201.8000488281</ele>
        <time>2011-12-27T12:07:03.000Z</time>
      </trkpt>
      <trkpt lat="45.34725" lon="5.73309">
        <ele>1200</ele>
        <time>2011-12-27T12:07:07.000Z</time>
      </trkpt>
      <trkpt lat="45.34733" lon="5.73312">
        <ele>1198.8000488281</ele>
        <time>2011-12-27T12:07:10.000Z</time>
      </trkpt>
      <trkpt lat="45.3473" lon="5.73315">
        <ele>1196.8000488281</ele>
        <time>2011-12-27T12:07:12.000Z</time>
      </trkpt>
      <trkpt lat="45.3472" lon="5.73331">
        <ele>1192.1999511719</ele>
        <time>2011-12-27T12:07:17.000Z</time>
      </trkpt>
      <trkpt lat="45.34719" lon="5.73334">
        <ele>1191.5999755859</ele>
        <time>2011-12-27T12:07:18.000Z</time>
      </trkpt>
      <trkpt lat="45.34716" lon="5.73349">
        <ele>1186.1999511719</ele>
        <time>2011-12-27T12:07:23.000Z</time>
      </trkpt>
      <trkpt lat="45.3472" lon="5.73356">
        <ele>1179.8000488281</ele>
        <time>2011-12-27T12:07:27.000Z</time>
      </trkpt>
      <trkpt lat="45.34722" lon="5.73359">
        <ele>1178</ele>
        <time>2011-12-27T12:07:29.000Z</time>
      </trkpt>
      <trkpt lat="45.34726" lon="5.73359">
        <ele>1181.4000244141</ele>
        <time>2011-12-27T12:07:33.000Z</time>
      </trkpt>
      <trkpt lat="45.34728" lon="5.73375">
        <ele>1176.1999511719</ele>
        <time>2011-12-27T12:07:38.000Z</time>
      </trkpt>
      <trkpt lat="45.3472" lon="5.73386">
        <ele>1173.1999511719</ele>
        <time>2011-12-27T12:07:43.000Z</time>
      </trkpt>
      <trkpt lat="45.34716" lon="5.73395">
        <ele>1172</ele>
        <time>2011-12-27T12:07:48.000Z</time>
      </trkpt>
      <trkpt lat="45.34712" lon="5.73399">
        <ele>1172.1999511719</ele>
        <time>2011-12-27T12:07:51.000Z</time>
      </trkpt>
      <trkpt lat="45.34707" lon="5.73407">
        <ele>1171.1999511719</ele>
        <time>2011-12-27T12:07:58.000Z</time>
      </trkpt>
      <trkpt lat="45.34705" lon="5.73413">
        <ele>1171.4000244141</ele>
        <time>2011-12-27T12:08:07.000Z</time>
      </trkpt>
      <trkpt lat="45.34698" lon="5.73415">
        <ele>1168.5999755859</ele>
        <time>2011-12-27T12:08:13.000Z</time>
      </trkpt>
      <trkpt lat="45.34699" lon="5.73422">
        <ele>1166.4000244141</ele>
        <time>2011-12-27T12:08:18.000Z</time>
      </trkpt>
      <trkpt lat="45.34698" lon="5.73428">
        <ele>1163.8000488281</ele>
        <time>2011-12-27T12:08:21.000Z</time>
      </trkpt>
      <trkpt lat="45.34696" lon="5.73431">
        <ele>1165</ele>
        <time>2011-12-27T12:08:28.000Z</time>
      </trkpt>
      <trkpt lat="45.34697" lon="5.73437">
        <ele>1163.4000244141</ele>
        <time>2011-12-27T12:08:32.000Z</time>
      </trkpt>
      <trkpt lat="45.34705" lon="5.73439">
        <ele>1160.1999511719</ele>
        <time>2011-12-27T12:08:37.000Z</time>
      </trkpt>
      <trkpt lat="45.34702" lon="5.7344">
        <ele>1156.4000244141</ele>
        <time>2011-12-27T12:08:42.000Z</time>
      </trkpt>
      <trkpt lat="45.34703" lon="5.7344">
        <ele>1155.8000488281</ele>
        <time>2011-12-27T12:08:43.000Z</time>
      </trkpt>
      <trkpt lat="45.34714" lon="5.73432">
        <ele>1154</ele>
        <time>2011-12-27T12:08:49.000Z</time>
      </trkpt>
      <trkpt lat="45.34734" lon="5.73419">
        <ele>1150.1999511719</ele>
        <time>2011-12-27T12:08:54.000Z</time>
      </trkpt>
      <trkpt lat="45.34751" lon="5.73414">
        <ele>1148</ele>
        <time>2011-12-27T12:08:57.000Z</time>
      </trkpt>
      <trkpt lat="45.34761" lon="5.73403">
        <ele>1147.1999511719</ele>
        <time>2011-12-27T12:09:01.000Z</time>
      </trkpt>
      <trkpt lat="45.34766" lon="5.73405">
        <ele>1147</ele>
        <time>2011-12-27T12:10:07.000Z</time>
      </trkpt>
      <trkpt lat="45.3477" lon="5.73405">
        <ele>1146.5999755859</ele>
        <time>2011-12-27T12:10:12.000Z</time>
      </trkpt>
      <trkpt lat="45.34771" lon="5.73407">
        <ele>1146.5999755859</ele>
        <time>2011-12-27T12:10:14.000Z</time>
      </trkpt>
      <trkpt lat="45.34778" lon="5.73412">
        <ele>1145.5999755859</ele>
        <time>2011-12-27T12:10:19.000Z</time>
      </trkpt>
      <trkpt lat="45.34791" lon="5.73418">
        <ele>1144</ele>
        <time>2011-12-27T12:10:25.000Z</time>
      </trkpt>
      <trkpt lat="45.34804" lon="5.73423">
        <ele>1142.8000488281</ele>
        <time>2011-12-27T12:10:29.000Z</time>
      </trkpt>
      <trkpt lat="45.34818" lon="5.73432">
        <ele>1141.4000244141</ele>
        <time>2011-12-27T12:10:33.000Z</time>
      </trkpt>
      <trkpt lat="45.34826" lon="5.73432">
        <ele>1138.5999755859</ele>
        <time>2011-12-27T12:10:37.000Z</time>
      </trkpt>
      <trkpt lat="45.34831" lon="5.73438">
        <ele>1136.4000244141</ele>
        <time>2011-12-27T12:10:41.000Z</time>
      </trkpt>
      <trkpt lat="45.34843" lon="5.73432">
        <ele>1133.1999511719</ele>
        <time>2011-12-27T12:10:46.000Z</time>
      </trkpt>
      <trkpt lat="45.34851" lon="5.73427">
        <ele>1131.4000244141</ele>
        <time>2011-12-27T12:10:49.000Z</time>
      </trkpt>
      <trkpt lat="45.34872" lon="5.73416">
        <ele>1128.1999511719</ele>
        <time>2011-12-27T12:10:54.000Z</time>
      </trkpt>
      <trkpt lat="45.34889" lon="5.73398">
        <ele>1125.5999755859</ele>
        <time>2011-12-27T12:10:58.000Z</time>
      </trkpt>
      <trkpt lat="45.34918" lon="5.73357">
        <ele>1121.4000244141</ele>
        <time>2011-12-27T12:11:02.000Z</time>
      </trkpt>
      <trkpt lat="45.34947" lon="5.73337">
        <ele>1118</ele>
        <time>2011-12-27T12:11:06.000Z</time>
      </trkpt>
      <trkpt lat="45.34951" lon="5.7333">
        <ele>1117.8000488281</ele>
        <time>2011-12-27T12:11:07.000Z</time>
      </trkpt>
      <trkpt lat="45.34962" lon="5.7332">
        <ele>1116.5999755859</ele>
        <time>2011-12-27T12:11:10.000Z</time>
      </trkpt>
      <trkpt lat="45.34968" lon="5.73323">
        <ele>1116</ele>
        <time>2011-12-27T12:11:14.000Z</time>
      </trkpt>
      <trkpt lat="45.34977" lon="5.73329">
        <ele>1114.8000488281</ele>
        <time>2011-12-27T12:11:20.000Z</time>
      </trkpt>
      <trkpt lat="45.34982" lon="5.73333">
        <ele>1114.1999511719</ele>
        <time>2011-12-27T12:11:29.000Z</time>
      </trkpt>
      <trkpt lat="45.34985" lon="5.73336">
        <ele>1114</ele>
        <time>2011-12-27T12:11:36.000Z</time>
      </trkpt>
      <trkpt lat="45.34999" lon="5.73349">
        <ele>1111.8000488281</ele>
        <time>2011-12-27T12:11:41.000Z</time>
      </trkpt>
      <trkpt lat="45.35011" lon="5.73363">
        <ele>1108</ele>
        <time>2011-12-27T12:11:46.000Z</time>
      </trkpt>
      <trkpt lat="45.35013" lon="5.73376">
        <ele>1106.4000244141</ele>
        <time>2011-12-27T12:11:49.000Z</time>
      </trkpt>
      <trkpt lat="45.35014" lon="5.7339">
        <ele>1105.1999511719</ele>
        <time>2011-12-27T12:11:53.000Z</time>
      </trkpt>
      <trkpt lat="45.35015" lon="5.7339">
        <ele>1104.5999755859</ele>
        <time>2011-12-27T12:11:54.000Z</time>
      </trkpt>
      <trkpt lat="45.3502" lon="5.73406">
        <ele>1103.5999755859</ele>
        <time>2011-12-27T12:11:58.000Z</time>
      </trkpt>
      <trkpt lat="45.35033" lon="5.73418">
        <ele>1101.8000488281</ele>
        <time>2011-12-27T12:12:01.000Z</time>
      </trkpt>
      <trkpt lat="45.35066" lon="5.73436">
        <ele>1101</ele>
        <time>2011-12-27T12:12:07.000Z</time>
      </trkpt>
      <trkpt lat="45.35069" lon="5.73439">
        <ele>1101</ele>
        <time>2011-12-27T12:12:17.000Z</time>
      </trkpt>
      <trkpt lat="45.35073" lon="5.73439">
        <ele>1100.8000488281</ele>
        <time>2011-12-27T12:12:26.000Z</time>
      </trkpt>
      <trkpt lat="45.35074" lon="5.73439">
        <ele>1095.4000244141</ele>
        <time>2011-12-27T12:12:33.000Z</time>
      </trkpt>
      <trkpt lat="45.35075" lon="5.73435">
        <ele>1104.4000244141</ele>
        <time>2011-12-27T12:12:37.000Z</time>
      </trkpt>
      <trkpt lat="45.35071" lon="5.73433">
        <ele>1101.1999511719</ele>
        <time>2011-12-27T12:12:41.000Z</time>
      </trkpt>
      <trkpt lat="45.35068" lon="5.73431">
        <ele>1100.8000488281</ele>
        <time>2011-12-27T12:12:47.000Z</time>
      </trkpt>
      <trkpt lat="45.35078" lon="5.73446">
        <ele>1100.4000244141</ele>
        <time>2011-12-27T12:13:12.000Z</time>
      </trkpt>
      <trkpt lat="45.35077" lon="5.73451">
        <ele>1097.8000488281</ele>
        <time>2011-12-27T12:13:23.000Z</time>
      </trkpt>
      <trkpt lat="45.35077" lon="5.73455">
        <ele>1096.8000488281</ele>
        <time>2011-12-27T12:13:25.000Z</time>
      </trkpt>
      <trkpt lat="45.35078" lon="5.73461">
        <ele>1103.5999755859</ele>
        <time>2011-12-27T12:13:29.000Z</time>
      </trkpt>
      <trkpt lat="45.35081" lon="5.73461">
        <ele>1100.8000488281</ele>
        <time>2011-12-27T12:13:32.000Z</time>
      </trkpt>
      <trkpt lat="45.35076" lon="5.73463">
        <ele>1101</ele>
        <time>2011-12-27T12:13:39.000Z</time>
      </trkpt>
      <trkpt lat="45.35074" lon="5.7346">
        <ele>1098</ele>
        <time>2011-12-27T12:13:42.000Z</time>
      </trkpt>
      <trkpt lat="45.35072" lon="5.73453">
        <ele>1099.5999755859</ele>
        <time>2011-12-27T12:13:45.000Z</time>
      </trkpt>
      <trkpt lat="45.35068" lon="5.73442">
        <ele>1104</ele>
        <time>2011-12-27T12:13:49.000Z</time>
      </trkpt>
      <trkpt lat="45.35066" lon="5.73452">
        <ele>1103.8000488281</ele>
        <time>2011-12-27T12:13:52.000Z</time>
      </trkpt>
      <trkpt lat="45.35061" lon="5.73461">
        <ele>1100.4000244141</ele>
        <time>2011-12-27T12:13:55.000Z</time>
      </trkpt>
      <trkpt lat="45.35056" lon="5.73463">
        <ele>1100.1999511719</ele>
        <time>2011-12-27T12:13:57.000Z</time>
      </trkpt>
      <trkpt lat="45.35044" lon="5.73469">
        <ele>1099</ele>
        <time>2011-12-27T12:14:02.000Z</time>
      </trkpt>
      <trkpt lat="45.35032" lon="5.73481">
        <ele>1097.1999511719</ele>
        <time>2011-12-27T12:14:07.000Z</time>
      </trkpt>
      <trkpt lat="45.3503" lon="5.73483">
        <ele>1096.8000488281</ele>
        <time>2011-12-27T12:14:09.000Z</time>
      </trkpt>
      <trkpt lat="45.35022" lon="5.73488">
        <ele>1096.4000244141</ele>
        <time>2011-12-27T12:14:13.000Z</time>
      </trkpt>
      <trkpt lat="45.35017" lon="5.73505">
        <ele>1092.8000488281</ele>
        <time>2011-12-27T12:14:19.000Z</time>
      </trkpt>
      <trkpt lat="45.35016" lon="5.73528">
        <ele>1088.1999511719</ele>
        <time>2011-12-27T12:14:24.000Z</time>
      </trkpt>
      <trkpt lat="45.35011" lon="5.73551">
        <ele>1085.4000244141</ele>
        <time>2011-12-27T12:14:27.000Z</time>
      </trkpt>
      <trkpt lat="45.35009" lon="5.73553">
        <ele>1083.5999755859</ele>
        <time>2011-12-27T12:14:28.000Z</time>
      </trkpt>
      <trkpt lat="45.34997" lon="5.73583">
        <ele>1077.1999511719</ele>
        <time>2011-12-27T12:14:31.000Z</time>
      </trkpt>
      <trkpt lat="45.34973" lon="5.7363">
        <ele>1073.4000244141</ele>
        <time>2011-12-27T12:14:35.000Z</time>
      </trkpt>
      <trkpt lat="45.3497" lon="5.73638">
        <ele>1070.4000244141</ele>
        <time>2011-12-27T12:14:36.000Z</time>
      </trkpt>
      <trkpt lat="45.34955" lon="5.73662">
        <ele>1065.8000488281</ele>
        <time>2011-12-27T12:14:41.000Z</time>
      </trkpt>
      <trkpt lat="45.34931" lon="5.73676">
        <ele>1061</ele>
        <time>2011-12-27T12:14:45.000Z</time>
      </trkpt>
      <trkpt lat="45.34925" lon="5.73681">
        <ele>1058.4000244141</ele>
        <time>2011-12-27T12:14:46.000Z</time>
      </trkpt>
      <trkpt lat="45.34884" lon="5.73691">
        <ele>1054</ele>
        <time>2011-12-27T12:14:51.000Z</time>
      </trkpt>
      <trkpt lat="45.34867" lon="5.73702">
        <ele>1049.1999511719</ele>
        <time>2011-12-27T12:14:55.000Z</time>
      </trkpt>
      <trkpt lat="45.34865" lon="5.73704">
        <ele>1049.5999755859</ele>
        <time>2011-12-27T12:14:58.000Z</time>
      </trkpt>
      <trkpt lat="45.34864" lon="5.73707">
        <ele>1047.8000488281</ele>
        <time>2011-12-27T12:15:02.000Z</time>
      </trkpt>
      <trkpt lat="45.3486" lon="5.7371">
        <ele>1046.4000244141</ele>
        <time>2011-12-27T12:15:09.000Z</time>
      </trkpt>
      <trkpt lat="45.34857" lon="5.7372">
        <ele>1046.5999755859</ele>
        <time>2011-12-27T12:15:38.000Z</time>
      </trkpt>
      <trkpt lat="45.34849" lon="5.73731">
        <ele>1044.8000488281</ele>
        <time>2011-12-27T12:15:42.000Z</time>
      </trkpt>
      <trkpt lat="45.34845" lon="5.73735">
        <ele>1043.4000244141</ele>
        <time>2011-12-27T12:15:44.000Z</time>
      </trkpt>
      <trkpt lat="45.34828" lon="5.7376">
        <ele>1039.8000488281</ele>
        <time>2011-12-27T12:15:50.000Z</time>
      </trkpt>
      <trkpt lat="45.3482" lon="5.73767">
        <ele>1039.1999511719</ele>
        <time>2011-12-27T12:15:52.000Z</time>
      </trkpt>
      <trkpt lat="45.34806" lon="5.73781">
        <ele>1034.8000488281</ele>
        <time>2011-12-27T12:15:56.000Z</time>
      </trkpt>
      <trkpt lat="45.348" lon="5.73787">
        <ele>1033</ele>
        <time>2011-12-27T12:15:58.000Z</time>
      </trkpt>
      <trkpt lat="45.34784" lon="5.73807">
        <ele>1027</ele>
        <time>2011-12-27T12:16:03.000Z</time>
      </trkpt>
      <trkpt lat="45.34769" lon="5.73838">
        <ele>1022.5999755859</ele>
        <time>2011-12-27T12:16:07.000Z</time>
      </trkpt>
      <trkpt lat="45.34757" lon="5.73872">
        <ele>1017</ele>
        <time>2011-12-27T12:16:11.000Z</time>
      </trkpt>
      <trkpt lat="45.34747" lon="5.73902">
        <ele>1013.4000244141</ele>
        <time>2011-12-27T12:16:14.000Z</time>
      </trkpt>
      <trkpt lat="45.3474" lon="5.73923">
        <ele>1009.200012207</ele>
        <time>2011-12-27T12:16:18.000Z</time>
      </trkpt>
      <trkpt lat="45.34742" lon="5.73924">
        <ele>1009</ele>
        <time>2011-12-27T12:16:19.000Z</time>
      </trkpt>
      <trkpt lat="45.34745" lon="5.73926">
        <ele>1008</ele>
        <time>2011-12-27T12:16:23.000Z</time>
      </trkpt>
      <trkpt lat="45.34744" lon="5.73924">
        <ele>1007.5999755859</ele>
        <time>2011-12-27T12:16:41.000Z</time>
      </trkpt>
      <trkpt lat="45.34742" lon="5.73929">
        <ele>1002.4000244141</ele>
        <time>2011-12-27T12:16:48.000Z</time>
      </trkpt>
      <trkpt lat="45.34751" lon="5.73923">
        <ele>1004</ele>
        <time>2011-12-27T12:16:52.000Z</time>
      </trkpt>
      <trkpt lat="45.34736" lon="5.73939">
        <ele>1007.200012207</ele>
        <time>2011-12-27T12:17:06.000Z</time>
      </trkpt>
      <trkpt lat="45.34733" lon="5.73937">
        <ele>1006.5999755859</ele>
        <time>2011-12-27T12:17:10.000Z</time>
      </trkpt>
      <trkpt lat="45.34727" lon="5.73938">
        <ele>1009.5999755859</ele>
        <time>2011-12-27T12:17:19.000Z</time>
      </trkpt>
      <trkpt lat="45.34729" lon="5.73937">
        <ele>1007.4000244141</ele>
        <time>2011-12-27T12:17:22.000Z</time>
      </trkpt>
      <trkpt lat="45.34731" lon="5.73938">
        <ele>1006.4000244141</ele>
        <time>2011-12-27T12:17:34.000Z</time>
      </trkpt>
      <trkpt lat="45.34726" lon="5.73941">
        <ele>1009</ele>
        <time>2011-12-27T12:17:39.000Z</time>
      </trkpt>
      <trkpt lat="45.34724" lon="5.73944">
        <ele>1007.4000244141</ele>
        <time>2011-12-27T12:17:43.000Z</time>
      </trkpt>
      <trkpt lat="45.34732" lon="5.73935">
        <ele>1007.4000244141</ele>
        <time>2011-12-27T12:19:04.000Z</time>
      </trkpt>
      <trkpt lat="45.34731" lon="5.73935">
        <ele>1009</ele>
        <time>2011-12-27T12:19:06.000Z</time>
      </trkpt>
      <trkpt lat="45.34732" lon="5.73926">
        <ele>1003.799987793</ele>
        <time>2011-12-27T12:19:30.000Z</time>
      </trkpt>
      <trkpt lat="45.34724" lon="5.73935">
        <ele>1003.5999755859</ele>
        <time>2011-12-27T12:19:35.000Z</time>
      </trkpt>
      <trkpt lat="45.34724" lon="5.7394">
        <ele>1006</ele>
        <time>2011-12-27T12:19:37.000Z</time>
      </trkpt>
      <trkpt lat="45.34723" lon="5.73949">
        <ele>1013.200012207</ele>
        <time>2011-12-27T12:19:41.000Z</time>
      </trkpt>
      <trkpt lat="45.34725" lon="5.73951">
        <ele>1011</ele>
        <time>2011-12-27T12:19:43.000Z</time>
      </trkpt>
      <trkpt lat="45.3473" lon="5.7395">
        <ele>1007.200012207</ele>
        <time>2011-12-27T12:19:46.000Z</time>
      </trkpt>
      <trkpt lat="45.3473" lon="5.73948">
        <ele>1007.4000244141</ele>
        <time>2011-12-27T12:19:55.000Z</time>
      </trkpt>
      <trkpt lat="45.34732" lon="5.73962">
        <ele>1005.4000244141</ele>
        <time>2011-12-27T12:20:00.000Z</time>
      </trkpt>
      <trkpt lat="45.34735" lon="5.7398">
        <ele>1002.5999755859</ele>
        <time>2011-12-27T12:20:05.000Z</time>
      </trkpt>
      <trkpt lat="45.34742" lon="5.74029">
        <ele>998.79998779297</ele>
        <time>2011-12-27T12:20:09.000Z</time>
      </trkpt>
      <trkpt lat="45.34734" lon="5.74068">
        <ele>995.40002441406</ele>
        <time>2011-12-27T12:20:13.000Z</time>
      </trkpt>
      <trkpt lat="45.34721" lon="5.74074">
        <ele>993.59997558594</ele>
        <time>2011-12-27T12:20:16.000Z</time>
      </trkpt>
      <trkpt lat="45.34705" lon="5.74083">
        <ele>988.79998779297</ele>
        <time>2011-12-27T12:20:20.000Z</time>
      </trkpt>
      <trkpt lat="45.34702" lon="5.74086">
        <ele>988</ele>
        <time>2011-12-27T12:20:21.000Z</time>
      </trkpt>
      <trkpt lat="45.34686" lon="5.74133">
        <ele>983.40002441406</ele>
        <time>2011-12-27T12:20:26.000Z</time>
      </trkpt>
      <trkpt lat="45.34676" lon="5.74154">
        <ele>979.40002441406</ele>
        <time>2011-12-27T12:20:30.000Z</time>
      </trkpt>
      <trkpt lat="45.34665" lon="5.74175">
        <ele>975.20001220703</ele>
        <time>2011-12-27T12:20:35.000Z</time>
      </trkpt>
      <trkpt lat="45.34666" lon="5.7419">
        <ele>969.79998779297</ele>
        <time>2011-12-27T12:20:40.000Z</time>
      </trkpt>
      <trkpt lat="45.34667" lon="5.74192">
        <ele>969.20001220703</ele>
        <time>2011-12-27T12:20:41.000Z</time>
      </trkpt>
      <trkpt lat="45.34673" lon="5.74232">
        <ele>964.59997558594</ele>
        <time>2011-12-27T12:20:44.000Z</time>
      </trkpt>
      <trkpt lat="45.34674" lon="5.74248">
        <ele>962.59997558594</ele>
        <time>2011-12-27T12:20:46.000Z</time>
      </trkpt>
      <trkpt lat="45.34674" lon="5.74269">
        <ele>960.40002441406</ele>
        <time>2011-12-27T12:20:48.000Z</time>
      </trkpt>
      <trkpt lat="45.34678" lon="5.74311">
        <ele>956.20001220703</ele>
        <time>2011-12-27T12:20:53.000Z</time>
      </trkpt>
      <trkpt lat="45.34678" lon="5.74317">
        <ele>955.40002441406</ele>
        <time>2011-12-27T12:20:54.000Z</time>
      </trkpt>
      <trkpt lat="45.34676" lon="5.74342">
        <ele>951.40002441406</ele>
        <time>2011-12-27T12:20:59.000Z</time>
      </trkpt>
      <trkpt lat="45.34677" lon="5.74347">
        <ele>950.40002441406</ele>
        <time>2011-12-27T12:21:00.000Z</time>
      </trkpt>
      <trkpt lat="45.34681" lon="5.74367">
        <ele>947.59997558594</ele>
        <time>2011-12-27T12:21:03.000Z</time>
      </trkpt>
      <trkpt lat="45.347" lon="5.74397">
        <ele>943</ele>
        <time>2011-12-27T12:21:07.000Z</time>
      </trkpt>
      <trkpt lat="45.34712" lon="5.74383">
        <ele>936</ele>
        <time>2011-12-27T12:21:12.000Z</time>
      </trkpt>
      <trkpt lat="45.34717" lon="5.74375">
        <ele>933.20001220703</ele>
        <time>2011-12-27T12:21:15.000Z</time>
      </trkpt>
      <trkpt lat="45.34718" lon="5.74368">
        <ele>930</ele>
        <time>2011-12-27T12:21:18.000Z</time>
      </trkpt>
      <trkpt lat="45.3472" lon="5.74355">
        <ele>927.20001220703</ele>
        <time>2011-12-27T12:21:22.000Z</time>
      </trkpt>
      <trkpt lat="45.34722" lon="5.74335">
        <ele>926.40002441406</ele>
        <time>2011-12-27T12:21:28.000Z</time>
      </trkpt>
      <trkpt lat="45.34723" lon="5.74322">
        <ele>925</ele>
        <time>2011-12-27T12:21:32.000Z</time>
      </trkpt>
      <trkpt lat="45.34725" lon="5.74313">
        <ele>923.40002441406</ele>
        <time>2011-12-27T12:21:34.000Z</time>
      </trkpt>
      <trkpt lat="45.34734" lon="5.74305">
        <ele>917.20001220703</ele>
        <time>2011-12-27T12:21:38.000Z</time>
      </trkpt>
      <trkpt lat="45.34737" lon="5.74307">
        <ele>911.20001220703</ele>
        <time>2011-12-27T12:21:44.000Z</time>
      </trkpt>
      <trkpt lat="45.34739" lon="5.74306">
        <ele>911.20001220703</ele>
        <time>2011-12-27T12:21:45.000Z</time>
      </trkpt>
      <trkpt lat="45.34738" lon="5.74316">
        <ele>909.59997558594</ele>
        <time>2011-12-27T12:22:01.000Z</time>
      </trkpt>
      <trkpt lat="45.34757" lon="5.74321">
        <ele>905.20001220703</ele>
        <time>2011-12-27T12:22:05.000Z</time>
      </trkpt>
      <trkpt lat="45.34762" lon="5.74323">
        <ele>904.79998779297</ele>
        <time>2011-12-27T12:22:06.000Z</time>
      </trkpt>
      <trkpt lat="45.34775" lon="5.74347">
        <ele>897.40002441406</ele>
        <time>2011-12-27T12:22:10.000Z</time>
      </trkpt>
      <trkpt lat="45.34775" lon="5.74367">
        <ele>891</ele>
        <time>2011-12-27T12:22:16.000Z</time>
      </trkpt>
      <trkpt lat="45.34775" lon="5.7437">
        <ele>889.79998779297</ele>
        <time>2011-12-27T12:22:19.000Z</time>
      </trkpt>
      <trkpt lat="45.3478" lon="5.74382">
        <ele>884.20001220703</ele>
        <time>2011-12-27T12:22:24.000Z</time>
      </trkpt>
      <trkpt lat="45.34785" lon="5.74391">
        <ele>881.79998779297</ele>
        <time>2011-12-27T12:22:26.000Z</time>
      </trkpt>
      <trkpt lat="45.3481" lon="5.74431">
        <ele>875</ele>
        <time>2011-12-27T12:22:30.000Z</time>
      </trkpt>
      <trkpt lat="45.34817" lon="5.74477">
        <ele>868.40002441406</ele>
        <time>2011-12-27T12:22:35.000Z</time>
      </trkpt>
      <trkpt lat="45.34817" lon="5.74478">
        <ele>868</ele>
        <time>2011-12-27T12:22:36.000Z</time>
      </trkpt>
      <trkpt lat="45.34818" lon="5.74483">
        <ele>867</ele>
        <time>2011-12-27T12:22:38.000Z</time>
      </trkpt>
      <trkpt lat="45.34818" lon="5.745">
        <ele>863.59997558594</ele>
        <time>2011-12-27T12:22:43.000Z</time>
      </trkpt>
      <trkpt lat="45.34826" lon="5.74521">
        <ele>858.59997558594</ele>
        <time>2011-12-27T12:22:48.000Z</time>
      </trkpt>
      <trkpt lat="45.34832" lon="5.74543">
        <ele>853.59997558594</ele>
        <time>2011-12-27T12:22:54.000Z</time>
      </trkpt>
      <trkpt lat="45.34836" lon="5.74565">
        <ele>850.59997558594</ele>
        <time>2011-12-27T12:22:58.000Z</time>
      </trkpt>
      <trkpt lat="45.3484" lon="5.74601">
        <ele>847.40002441406</ele>
        <time>2011-12-27T12:23:03.000Z</time>
      </trkpt>
      <trkpt lat="45.34837" lon="5.74645">
        <ele>846.20001220703</ele>
        <time>2011-12-27T12:23:08.000Z</time>
      </trkpt>
      <trkpt lat="45.34841" lon="5.7468">
        <ele>845.40002441406</ele>
        <time>2011-12-27T12:23:14.000Z</time>
      </trkpt>
      <trkpt lat="45.34853" lon="5.74704">
        <ele>844</ele>
        <time>2011-12-27T12:23:18.000Z</time>
      </trkpt>
      <trkpt lat="45.34868" lon="5.74732">
        <ele>842.20001220703</ele>
        <time>2011-12-27T12:23:23.000Z</time>
      </trkpt>
      <trkpt lat="45.34875" lon="5.74755">
        <ele>840.59997558594</ele>
        <time>2011-12-27T12:23:27.000Z</time>
      </trkpt>
      <trkpt lat="45.34887" lon="5.74772">
        <ele>838.79998779297</ele>
        <time>2011-12-27T12:23:31.000Z</time>
      </trkpt>
      <trkpt lat="45.34889" lon="5.74777">
        <ele>838</ele>
        <time>2011-12-27T12:23:32.000Z</time>
      </trkpt>
      <trkpt lat="45.3488" lon="5.7482">
        <ele>834.40002441406</ele>
        <time>2011-12-27T12:23:37.000Z</time>
      </trkpt>
      <trkpt lat="45.3488" lon="5.74833">
        <ele>833.40002441406</ele>
        <time>2011-12-27T12:23:38.000Z</time>
      </trkpt>
      <trkpt lat="45.34877" lon="5.74861">
        <ele>831.20001220703</ele>
        <time>2011-12-27T12:23:41.000Z</time>
      </trkpt>
      <trkpt lat="45.34864" lon="5.74876">
        <ele>827</ele>
        <time>2011-12-27T12:23:47.000Z</time>
      </trkpt>
      <trkpt lat="45.34853" lon="5.74896">
        <ele>822.59997558594</ele>
        <time>2011-12-27T12:23:50.000Z</time>
      </trkpt>
      <trkpt lat="45.34851" lon="5.74909">
        <ele>819.79998779297</ele>
        <time>2011-12-27T12:23:52.000Z</time>
      </trkpt>
      <trkpt lat="45.34844" lon="5.7492">
        <ele>807.59997558594</ele>
        <time>2011-12-27T12:23:57.000Z</time>
      </trkpt>
      <trkpt lat="45.34842" lon="5.74922">
        <ele>814.20001220703</ele>
        <time>2011-12-27T12:24:01.000Z</time>
      </trkpt>
      <trkpt lat="45.34846" lon="5.7492">
        <ele>818.79998779297</ele>
        <time>2011-12-27T12:24:03.000Z</time>
      </trkpt>
      <trkpt lat="45.34845" lon="5.74922">
        <ele>818.40002441406</ele>
        <time>2011-12-27T12:24:05.000Z</time>
      </trkpt>
      <trkpt lat="45.34847" lon="5.74942">
        <ele>811.59997558594</ele>
        <time>2011-12-27T12:24:09.000Z</time>
      </trkpt>
      <trkpt lat="45.3484" lon="5.74963">
        <ele>809.59997558594</ele>
        <time>2011-12-27T12:24:11.000Z</time>
      </trkpt>
      <trkpt lat="45.34842" lon="5.7498">
        <ele>807</ele>
        <time>2011-12-27T12:24:15.000Z</time>
      </trkpt>
      <trkpt lat="45.34846" lon="5.74971">
        <ele>805.59997558594</ele>
        <time>2011-12-27T12:24:19.000Z</time>
      </trkpt>
      <trkpt lat="45.34848" lon="5.74967">
        <ele>805.59997558594</ele>
        <time>2011-12-27T12:24:22.000Z</time>
      </trkpt>
      <trkpt lat="45.34855" lon="5.74951">
        <ele>805.40002441406</ele>
        <time>2011-12-27T12:24:34.000Z</time>
      </trkpt>
      <trkpt lat="45.34859" lon="5.7494">
        <ele>805.40002441406</ele>
        <time>2011-12-27T12:24:38.000Z</time>
      </trkpt>
      <trkpt lat="45.34868" lon="5.74926">
        <ele>805.40002441406</ele>
        <time>2011-12-27T12:24:44.000Z</time>
      </trkpt>
      <trkpt lat="45.34882" lon="5.74926">
        <ele>804.79998779297</ele>
        <time>2011-12-27T12:24:50.000Z</time>
      </trkpt>
      <trkpt lat="45.34896" lon="5.74923">
        <ele>805.20001220703</ele>
        <time>2011-12-27T12:24:56.000Z</time>
      </trkpt>
      <trkpt lat="45.34898" lon="5.74921">
        <ele>805</ele>
        <time>2011-12-27T12:24:57.000Z</time>
      </trkpt>
      <trkpt lat="45.34905" lon="5.74916">
        <ele>805</ele>
        <time>2011-12-27T12:25:00.000Z</time>
      </trkpt>
      <trkpt lat="45.34909" lon="5.74915">
        <ele>804.59997558594</ele>
        <time>2011-12-27T12:25:03.000Z</time>
      </trkpt>
      <trkpt lat="45.34916" lon="5.74892">
        <ele>804.20001220703</ele>
        <time>2011-12-27T12:25:10.000Z</time>
      </trkpt>
      <trkpt lat="45.34914" lon="5.7489">
        <ele>801.79998779297</ele>
        <time>2011-12-27T12:25:13.000Z</time>
      </trkpt>
      <trkpt lat="45.34916" lon="5.74887">
        <ele>805</ele>
        <time>2011-12-27T12:25:18.000Z</time>
      </trkpt>
      <trkpt lat="45.34916" lon="5.74878">
        <ele>804.79998779297</ele>
        <time>2011-12-27T12:25:21.000Z</time>
      </trkpt>
      <trkpt lat="45.34913" lon="5.7486">
        <ele>804.40002441406</ele>
        <time>2011-12-27T12:25:27.000Z</time>
      </trkpt>
      <trkpt lat="45.34911" lon="5.74846">
        <ele>804.59997558594</ele>
        <time>2011-12-27T12:25:30.000Z</time>
      </trkpt>
      <trkpt lat="45.34911" lon="5.74839">
        <ele>804.40002441406</ele>
        <time>2011-12-27T12:25:32.000Z</time>
      </trkpt>
      <trkpt lat="45.34908" lon="5.74818">
        <ele>804.20001220703</ele>
        <time>2011-12-27T12:25:37.000Z</time>
      </trkpt>
      <trkpt lat="45.34902" lon="5.74801">
        <ele>804.20001220703</ele>
        <time>2011-12-27T12:25:41.000Z</time>
      </trkpt>
      <trkpt lat="45.34895" lon="5.74765">
        <ele>804.40002441406</ele>
        <time>2011-12-27T12:25:48.000Z</time>
      </trkpt>
      <trkpt lat="45.34897" lon="5.74756">
        <ele>804.20001220703</ele>
        <time>2011-12-27T12:25:50.000Z</time>
      </trkpt>
      <trkpt lat="45.34899" lon="5.74743">
        <ele>804.20001220703</ele>
        <time>2011-12-27T12:25:54.000Z</time>
      </trkpt>
      <trkpt lat="45.34898" lon="5.74719">
        <ele>803.20001220703</ele>
        <time>2011-12-27T12:26:01.000Z</time>
      </trkpt>
      <trkpt lat="45.34898" lon="5.74715">
        <ele>803.40002441406</ele>
        <time>2011-12-27T12:26:02.000Z</time>
      </trkpt>
      <trkpt lat="45.34896" lon="5.74695">
        <ele>803.59997558594</ele>
        <time>2011-12-27T12:26:07.000Z</time>
      </trkpt>
      <trkpt lat="45.34897" lon="5.74679">
        <ele>803.59997558594</ele>
        <time>2011-12-27T12:26:11.000Z</time>
      </trkpt>
      <trkpt lat="45.34896" lon="5.74672">
        <ele>803.40002441406</ele>
        <time>2011-12-27T12:26:13.000Z</time>
      </trkpt>
      <trkpt lat="45.349" lon="5.74649">
        <ele>803.20001220703</ele>
        <time>2011-12-27T12:26:22.000Z</time>
      </trkpt>
      <trkpt lat="45.349" lon="5.74645">
        <ele>803</ele>
        <time>2011-12-27T12:26:23.000Z</time>
      </trkpt>
      <trkpt lat="45.34896" lon="5.74625">
        <ele>802.59997558594</ele>
        <time>2011-12-27T12:26:29.000Z</time>
      </trkpt>
      <trkpt lat="45.34896" lon="5.74617">
        <ele>802</ele>
        <time>2011-12-27T12:26:32.000Z</time>
      </trkpt>
      <trkpt lat="45.34894" lon="5.74601">
        <ele>802</ele>
        <time>2011-12-27T12:26:39.000Z</time>
      </trkpt>
      <trkpt lat="45.34893" lon="5.74593">
        <ele>801.79998779297</ele>
        <time>2011-12-27T12:26:43.000Z</time>
      </trkpt>
      <trkpt lat="45.3489" lon="5.74579">
        <ele>801.79998779297</ele>
        <time>2011-12-27T12:26:49.000Z</time>
      </trkpt>
      <trkpt lat="45.34881" lon="5.74556">
        <ele>801.40002441406</ele>
        <time>2011-12-27T12:26:55.000Z</time>
      </trkpt>
      <trkpt lat="45.3487" lon="5.74529">
        <ele>801.20001220703</ele>
        <time>2011-12-27T12:27:02.000Z</time>
      </trkpt>
      <trkpt lat="45.34868" lon="5.74524">
        <ele>801</ele>
        <time>2011-12-27T12:27:03.000Z</time>
      </trkpt>
      <trkpt lat="45.34872" lon="5.74492">
        <ele>800.40002441406</ele>
        <time>2011-12-27T12:27:09.000Z</time>
      </trkpt>
      <trkpt lat="45.34872" lon="5.74487">
        <ele>800.20001220703</ele>
        <time>2011-12-27T12:27:10.000Z</time>
      </trkpt>
      <trkpt lat="45.34869" lon="5.74456">
        <ele>800.20001220703</ele>
        <time>2011-12-27T12:27:17.000Z</time>
      </trkpt>
      <trkpt lat="45.34871" lon="5.74453">
        <ele>799.79998779297</ele>
        <time>2011-12-27T12:27:19.000Z</time>
      </trkpt>
      <trkpt lat="45.34879" lon="5.74448">
        <ele>799.40002441406</ele>
        <time>2011-12-27T12:27:22.000Z</time>
      </trkpt>
      <trkpt lat="45.34892" lon="5.74448">
        <ele>798.20001220703</ele>
        <time>2011-12-27T12:27:26.000Z</time>
      </trkpt>
      <trkpt lat="45.34897" lon="5.74457">
        <ele>798.40002441406</ele>
        <time>2011-12-27T12:27:30.000Z</time>
      </trkpt>
      <trkpt lat="45.34911" lon="5.74476">
        <ele>798.20001220703</ele>
        <time>2011-12-27T12:27:37.000Z</time>
      </trkpt>
      <trkpt lat="45.3492" lon="5.74488">
        <ele>797.20001220703</ele>
        <time>2011-12-27T12:27:40.000Z</time>
      </trkpt>
      <trkpt lat="45.34944" lon="5.745">
        <ele>796.40002441406</ele>
        <time>2011-12-27T12:27:45.000Z</time>
      </trkpt>
      <trkpt lat="45.34957" lon="5.74525">
        <ele>794</ele>
        <time>2011-12-27T12:27:50.000Z</time>
      </trkpt>
      <trkpt lat="45.34962" lon="5.74536">
        <ele>793.20001220703</ele>
        <time>2011-12-27T12:27:52.000Z</time>
      </trkpt>
      <trkpt lat="45.34979" lon="5.74553">
        <ele>791</ele>
        <time>2011-12-27T12:27:57.000Z</time>
      </trkpt>
      <trkpt lat="45.34983" lon="5.74564">
        <ele>790.20001220703</ele>
        <time>2011-12-27T12:27:59.000Z</time>
      </trkpt>
      <trkpt lat="45.35011" lon="5.74571">
        <ele>788.59997558594</ele>
        <time>2011-12-27T12:28:03.000Z</time>
      </trkpt>
      <trkpt lat="45.35025" lon="5.74584">
        <ele>787.20001220703</ele>
        <time>2011-12-27T12:28:06.000Z</time>
      </trkpt>
      <trkpt lat="45.3504" lon="5.7459">
        <ele>786.20001220703</ele>
        <time>2011-12-27T12:28:08.000Z</time>
      </trkpt>
      <trkpt lat="45.35061" lon="5.74608">
        <ele>783.59997558594</ele>
        <time>2011-12-27T12:28:12.000Z</time>
      </trkpt>
      <trkpt lat="45.35076" lon="5.74641">
        <ele>780.40002441406</ele>
        <time>2011-12-27T12:28:17.000Z</time>
      </trkpt>
      <trkpt lat="45.35091" lon="5.74672">
        <ele>777.79998779297</ele>
        <time>2011-12-27T12:28:21.000Z</time>
      </trkpt>
      <trkpt lat="45.35097" lon="5.74674">
        <ele>777.40002441406</ele>
        <time>2011-12-27T12:28:22.000Z</time>
      </trkpt>
      <trkpt lat="45.35132" lon="5.74689">
        <ele>774.59997558594</ele>
        <time>2011-12-27T12:28:27.000Z</time>
      </trkpt>
      <trkpt lat="45.35138" lon="5.74704">
        <ele>773.20001220703</ele>
        <time>2011-12-27T12:28:30.000Z</time>
      </trkpt>
      <trkpt lat="45.35151" lon="5.74728">
        <ele>771</ele>
        <time>2011-12-27T12:28:34.000Z</time>
      </trkpt>
      <trkpt lat="45.35154" lon="5.74737">
        <ele>770.20001220703</ele>
        <time>2011-12-27T12:28:36.000Z</time>
      </trkpt>
      <trkpt lat="45.35159" lon="5.74744">
        <ele>769</ele>
        <time>2011-12-27T12:28:38.000Z</time>
      </trkpt>
      <trkpt lat="45.35162" lon="5.74752">
        <ele>768.20001220703</ele>
        <time>2011-12-27T12:28:40.000Z</time>
      </trkpt>
      <trkpt lat="45.35171" lon="5.74761">
        <ele>767</ele>
        <time>2011-12-27T12:28:43.000Z</time>
      </trkpt>
      <trkpt lat="45.35199" lon="5.748">
        <ele>763.20001220703</ele>
        <time>2011-12-27T12:28:50.000Z</time>
      </trkpt>
      <trkpt lat="45.35206" lon="5.74815">
        <ele>761.20001220703</ele>
        <time>2011-12-27T12:28:54.000Z</time>
      </trkpt>
      <trkpt lat="45.35205" lon="5.74819">
        <ele>760.79998779297</ele>
        <time>2011-12-27T12:28:59.000Z</time>
      </trkpt>
      <trkpt lat="45.35212" lon="5.74799">
        <ele>757</ele>
        <time>2011-12-27T12:29:18.000Z</time>
      </trkpt>
      <trkpt lat="45.35212" lon="5.74795">
        <ele>759.79998779297</ele>
        <time>2011-12-27T12:29:22.000Z</time>
      </trkpt>
      <trkpt lat="45.352" lon="5.74798">
        <ele>760.79998779297</ele>
        <time>2011-12-27T12:29:45.000Z</time>
      </trkpt>
      <trkpt lat="45.35199" lon="5.74798">
        <ele>760.79998779297</ele>
        <time>2011-12-27T12:30:08.000Z</time>
      </trkpt>
      <trkpt lat="45.35213" lon="5.74791">
        <ele>759</ele>
        <time>2011-12-27T12:30:49.000Z</time>
      </trkpt>
      <trkpt lat="45.3521" lon="5.74795">
        <ele>762.79998779297</ele>
        <time>2011-12-27T12:30:54.000Z</time>
      </trkpt>
      <trkpt lat="45.35211" lon="5.74804">
        <ele>761.79998779297</ele>
        <time>2011-12-27T12:31:08.000Z</time>
      </trkpt>
      <trkpt lat="45.35211" lon="5.74804">
        <ele>761.20001220703</ele>
        <time>2011-12-27T12:31:09.000Z</time>
      </trkpt>
      <trkpt lat="45.35215" lon="5.74805">
        <ele>759.40002441406</ele>
        <time>2011-12-27T12:31:12.000Z</time>
      </trkpt>
      <trkpt lat="45.35257" lon="5.74862">
        <ele>756.79998779297</ele>
        <time>2011-12-27T12:31:57.000Z</time>
      </trkpt>
      <trkpt lat="45.35249" lon="5.74875">
        <ele>757.40002441406</ele>
        <time>2011-12-27T12:32:04.000Z</time>
      </trkpt>
      <trkpt lat="45.35251" lon="5.74873">
        <ele>756.79998779297</ele>
        <time>2011-12-27T12:32:08.000Z</time>
      </trkpt>
      <trkpt lat="45.35264" lon="5.74874">
        <ele>755.59997558594</ele>
        <time>2011-12-27T12:32:14.000Z</time>
      </trkpt>
      <trkpt lat="45.35275" lon="5.74885">
        <ele>754</ele>
        <time>2011-12-27T12:32:18.000Z</time>
      </trkpt>
      <trkpt lat="45.35291" lon="5.74894">
        <ele>752.20001220703</ele>
        <time>2011-12-27T12:32:22.000Z</time>
      </trkpt>
      <trkpt lat="45.35298" lon="5.74901">
        <ele>751</ele>
        <time>2011-12-27T12:32:24.000Z</time>
      </trkpt>
      <trkpt lat="45.35316" lon="5.74913">
        <ele>749</ele>
        <time>2011-12-27T12:32:29.000Z</time>
      </trkpt>
      <trkpt lat="45.35336" lon="5.74931">
        <ele>746.40002441406</ele>
        <time>2011-12-27T12:32:34.000Z</time>
      </trkpt>
      <trkpt lat="45.35347" lon="5.74934">
        <ele>746</ele>
        <time>2011-12-27T12:32:37.000Z</time>
      </trkpt>
      <trkpt lat="45.35354" lon="5.74939">
        <ele>744.40002441406</ele>
        <time>2011-12-27T12:32:41.000Z</time>
      </trkpt>
      <trkpt lat="45.35362" lon="5.74962">
        <ele>742.20001220703</ele>
        <time>2011-12-27T12:32:47.000Z</time>
      </trkpt>
      <trkpt lat="45.35369" lon="5.74977">
        <ele>741.20001220703</ele>
        <time>2011-12-27T12:32:49.000Z</time>
      </trkpt>
      <trkpt lat="45.35379" lon="5.74987">
        <ele>740.20001220703</ele>
        <time>2011-12-27T12:32:51.000Z</time>
      </trkpt>
      <trkpt lat="45.3539" lon="5.75014">
        <ele>736.79998779297</ele>
        <time>2011-12-27T12:32:57.000Z</time>
      </trkpt>
      <trkpt lat="45.35395" lon="5.75014">
        <ele>736</ele>
        <time>2011-12-27T12:33:14.000Z</time>
      </trkpt>
      <trkpt lat="45.35398" lon="5.75015">
        <ele>735.20001220703</ele>
        <time>2011-12-27T12:33:17.000Z</time>
      </trkpt>
      <trkpt lat="45.35402" lon="5.75019">
        <ele>735.79998779297</ele>
        <time>2011-12-27T12:33:22.000Z</time>
      </trkpt>
      <trkpt lat="45.35621" lon="5.74788">
        <ele>714.20001220703</ele>
        <time>2011-12-27T12:36:32.000Z</time>
      </trkpt>
      <trkpt lat="45.35619" lon="5.74792">
        <ele>714.20001220703</ele>
        <time>2011-12-27T12:36:33.000Z</time>
      </trkpt>
      <trkpt lat="45.35617" lon="5.7479">
        <ele>713.59997558594</ele>
        <time>2011-12-27T12:36:41.000Z</time>
      </trkpt>
      <trkpt lat="45.35611" lon="5.74785">
        <ele>712.79998779297</ele>
        <time>2011-12-27T12:36:49.000Z</time>
      </trkpt>
      <trkpt lat="45.35609" lon="5.74785">
        <ele>711.40002441406</ele>
        <time>2011-12-27T12:36:56.000Z</time>
      </trkpt>
      <trkpt lat="45.35611" lon="5.74773">
        <ele>709</ele>
        <time>2011-12-27T12:37:55.000Z</time>
      </trkpt>
      <trkpt lat="45.35616" lon="5.74755">
        <ele>707.79998779297</ele>
        <time>2011-12-27T12:38:01.000Z</time>
      </trkpt>
      <trkpt lat="45.35623" lon="5.74732">
        <ele>706.20001220703</ele>
        <time>2011-12-27T12:38:07.000Z</time>
      </trkpt>
      <trkpt lat="45.35635" lon="5.74703">
        <ele>704.79998779297</ele>
        <time>2011-12-27T12:38:12.000Z</time>
      </trkpt>
      <trkpt lat="45.35647" lon="5.74681">
        <ele>703.40002441406</ele>
        <time>2011-12-27T12:38:17.000Z</time>
      </trkpt>
      <trkpt lat="45.35659" lon="5.74665">
        <ele>702</ele>
        <time>2011-12-27T12:38:22.000Z</time>
      </trkpt>
      <trkpt lat="45.35673" lon="5.74635">
        <ele>700.40002441406</ele>
        <time>2011-12-27T12:38:28.000Z</time>
      </trkpt>
      <trkpt lat="45.35685" lon="5.74612">
        <ele>698.59997558594</ele>
        <time>2011-12-27T12:38:34.000Z</time>
      </trkpt>
      <trkpt lat="45.3569" lon="5.74604">
        <ele>698</ele>
        <time>2011-12-27T12:38:36.000Z</time>
      </trkpt>
      <trkpt lat="45.35706" lon="5.7458">
        <ele>695.40002441406</ele>
        <time>2011-12-27T12:38:42.000Z</time>
      </trkpt>
      <trkpt lat="45.35722" lon="5.74557">
        <ele>693</ele>
        <time>2011-12-27T12:38:46.000Z</time>
      </trkpt>
      <trkpt lat="45.35736" lon="5.7454">
        <ele>693.79998779297</ele>
        <time>2011-12-27T12:38:51.000Z</time>
      </trkpt>
      <trkpt lat="45.35739" lon="5.74534">
        <ele>693</ele>
        <time>2011-12-27T12:38:54.000Z</time>
      </trkpt>
      <trkpt lat="45.35751" lon="5.74519">
        <ele>692</ele>
        <time>2011-12-27T12:39:01.000Z</time>
      </trkpt>
      <trkpt lat="45.35759" lon="5.74509">
        <ele>690.79998779297</ele>
        <time>2011-12-27T12:39:07.000Z</time>
      </trkpt>
      <trkpt lat="45.35769" lon="5.74488">
        <ele>690.20001220703</ele>
        <time>2011-12-27T12:39:12.000Z</time>
      </trkpt>
      <trkpt lat="45.35775" lon="5.74469">
        <ele>688.40002441406</ele>
        <time>2011-12-27T12:39:19.000Z</time>
      </trkpt>
      <trkpt lat="45.35783" lon="5.74461">
        <ele>688.40002441406</ele>
        <time>2011-12-27T12:39:25.000Z</time>
      </trkpt>
      <trkpt lat="45.35792" lon="5.74459">
        <ele>688.59997558594</ele>
        <time>2011-12-27T12:39:48.000Z</time>
      </trkpt>
      <trkpt lat="45.35797" lon="5.74456">
        <ele>688.20001220703</ele>
        <time>2011-12-27T12:39:56.000Z</time>
      </trkpt>
      <trkpt lat="45.35796" lon="5.74445">
        <ele>686.40002441406</ele>
        <time>2011-12-27T12:40:03.000Z</time>
      </trkpt>
      <trkpt lat="45.35791" lon="5.74446">
        <ele>686.59997558594</ele>
        <time>2011-12-27T12:40:12.000Z</time>
      </trkpt>
      <trkpt lat="45.35789" lon="5.74447">
        <ele>686.79998779297</ele>
        <time>2011-12-27T12:40:22.000Z</time>
      </trkpt>
      <trkpt lat="45.35794" lon="5.7444">
        <ele>685.79998779297</ele>
        <time>2011-12-27T12:40:28.000Z</time>
      </trkpt>
      <trkpt lat="45.35797" lon="5.74432">
        <ele>685.79998779297</ele>
        <time>2011-12-27T12:40:33.000Z</time>
      </trkpt>
      <trkpt lat="45.35797" lon="5.74424">
        <ele>684.20001220703</ele>
        <time>2011-12-27T12:40:41.000Z</time>
      </trkpt>
      <trkpt lat="45.35797" lon="5.74422">
        <ele>683.59997558594</ele>
        <time>2011-12-27T12:40:43.000Z</time>
      </trkpt>
      <trkpt lat="45.35799" lon="5.74421">
        <ele>686.40002441406</ele>
        <time>2011-12-27T12:40:47.000Z</time>
      </trkpt>
      <trkpt lat="45.35796" lon="5.74423">
        <ele>685.40002441406</ele>
        <time>2011-12-27T12:41:19.000Z</time>
      </trkpt>
      <trkpt lat="45.35802" lon="5.74417">
        <ele>685.20001220703</ele>
        <time>2011-12-27T12:41:25.000Z</time>
      </trkpt>
    </trkseg>
  </trk>
</gpx>